<?xml version="1.0" encoding="UTF-8" standalone="no" ?>
<gpx xmlns="http://www.topografix.com/GPX/1/1" xmlns:xsi="http://www.w3.org/2001/XMLSchema-instance" xsi:schemaLocation="http://www.topografix.com/GPX/1/1 http://www.topografix.com/GPX/1/1/gpx.xsd" version="1.1" creator="VisuGPX - https://www.visugpx.com">
  <metadata>
    <name>orleans - les muides  </name>
    <desc><![CDATA[Parcours trés roulant en bord de loire empruntant petite route et quelques sentiers.
]]></desc>
  </metadata>
  <trk>
    <name><![CDATA[oborando 90km]]></name>
    <trkseg>
      <trkpt lat="47.88696" lon="1.85478">
        <ele>91</ele>
      </trkpt>
      <trkpt lat="47.88725" lon="1.85607">
        <ele>91</ele>
      </trkpt>
      <trkpt lat="47.88731" lon="1.85714">
        <ele>94</ele>
      </trkpt>
      <trkpt lat="47.88863" lon="1.86113">
        <ele>91</ele>
      </trkpt>
      <trkpt lat="47.88883" lon="1.86272">
        <ele>93</ele>
      </trkpt>
      <trkpt lat="47.89079" lon="1.86267">
        <ele>93</ele>
      </trkpt>
      <trkpt lat="47.89217" lon="1.86847">
        <ele>91</ele>
      </trkpt>
      <trkpt lat="47.89286" lon="1.87323">
        <ele>92</ele>
      </trkpt>
      <trkpt lat="47.89281" lon="1.87568">
        <ele>94</ele>
      </trkpt>
      <trkpt lat="47.89318" lon="1.87619">
        <ele>93</ele>
      </trkpt>
      <trkpt lat="47.89779" lon="1.87634">
        <ele>100</ele>
      </trkpt>
      <trkpt lat="47.89867" lon="1.87618">
        <ele>108</ele>
      </trkpt>
      <trkpt lat="47.89894" lon="1.87664">
        <ele>110</ele>
      </trkpt>
      <trkpt lat="47.89892" lon="1.87657">
        <ele>107</ele>
        <time>2018-09-16T05:49:26Z</time>
      </trkpt>
      <trkpt lat="47.89886" lon="1.87655">
        <ele>108</ele>
        <time>2018-09-16T05:49:30Z</time>
      </trkpt>
      <trkpt lat="47.89878" lon="1.87646">
        <ele>108</ele>
        <time>2018-09-16T05:49:34Z</time>
      </trkpt>
      <trkpt lat="47.89867" lon="1.87618">
        <ele>107</ele>
        <time>2018-09-16T05:49:41Z</time>
      </trkpt>
      <trkpt lat="47.89861" lon="1.87611">
        <ele>107</ele>
        <time>2018-09-16T05:49:44Z</time>
      </trkpt>
      <trkpt lat="47.89854" lon="1.87613">
        <ele>107</ele>
        <time>2018-09-16T05:49:46Z</time>
      </trkpt>
      <trkpt lat="47.89817" lon="1.87628">
        <ele>105</ele>
        <time>2018-09-16T05:49:56Z</time>
      </trkpt>
      <trkpt lat="47.89811" lon="1.87624">
        <ele>105</ele>
        <time>2018-09-16T05:49:58Z</time>
      </trkpt>
      <trkpt lat="47.89806" lon="1.8762">
        <ele>105</ele>
        <time>2018-09-16T05:50:00Z</time>
      </trkpt>
      <trkpt lat="47.89795" lon="1.87627">
        <ele>105</ele>
        <time>2018-09-16T05:50:06Z</time>
      </trkpt>
      <trkpt lat="47.89788" lon="1.87629">
        <ele>104</ele>
        <time>2018-09-16T05:50:08Z</time>
      </trkpt>
      <trkpt lat="47.89779" lon="1.87634">
        <ele>104</ele>
        <time>2018-09-16T05:50:12Z</time>
      </trkpt>
      <trkpt lat="47.89766" lon="1.87603">
        <ele>103</ele>
        <time>2018-09-16T05:50:21Z</time>
      </trkpt>
      <trkpt lat="47.89751" lon="1.87538">
        <ele>102</ele>
        <time>2018-09-16T05:50:32Z</time>
      </trkpt>
      <trkpt lat="47.8975" lon="1.87531">
        <ele>102</ele>
        <time>2018-09-16T05:50:33Z</time>
      </trkpt>
      <trkpt lat="47.89738" lon="1.87464">
        <ele>103</ele>
        <time>2018-09-16T05:50:43Z</time>
      </trkpt>
      <trkpt lat="47.89737" lon="1.87458">
        <ele>103</ele>
        <time>2018-09-16T05:50:44Z</time>
      </trkpt>
      <trkpt lat="47.89726" lon="1.87387">
        <ele>102</ele>
        <time>2018-09-16T05:50:55Z</time>
      </trkpt>
      <trkpt lat="47.89725" lon="1.87381">
        <ele>102</ele>
        <time>2018-09-16T05:50:56Z</time>
      </trkpt>
      <trkpt lat="47.89719" lon="1.87343">
        <ele>104</ele>
        <time>2018-09-16T05:51:02Z</time>
      </trkpt>
      <trkpt lat="47.89709" lon="1.87277">
        <ele>106</ele>
        <time>2018-09-16T05:51:13Z</time>
      </trkpt>
      <trkpt lat="47.89708" lon="1.87273">
        <ele>106</ele>
        <time>2018-09-16T05:51:14Z</time>
      </trkpt>
      <trkpt lat="47.897" lon="1.87265">
        <ele>105</ele>
        <time>2018-09-16T05:51:18Z</time>
      </trkpt>
      <trkpt lat="47.89698" lon="1.87255">
        <ele>104</ele>
        <time>2018-09-16T05:51:20Z</time>
      </trkpt>
      <trkpt lat="47.8969" lon="1.87207">
        <ele>102</ele>
        <time>2018-09-16T05:51:28Z</time>
      </trkpt>
      <trkpt lat="47.89677" lon="1.87139">
        <ele>100</ele>
        <time>2018-09-16T05:51:39Z</time>
      </trkpt>
      <trkpt lat="47.89676" lon="1.87132">
        <ele>100</ele>
        <time>2018-09-16T05:51:40Z</time>
      </trkpt>
      <trkpt lat="47.89666" lon="1.87089">
        <ele>100</ele>
        <time>2018-09-16T05:51:46Z</time>
      </trkpt>
      <trkpt lat="47.89663" lon="1.87074">
        <ele>100</ele>
        <time>2018-09-16T05:51:48Z</time>
      </trkpt>
      <trkpt lat="47.89652" lon="1.87003">
        <ele>100</ele>
        <time>2018-09-16T05:51:57Z</time>
      </trkpt>
      <trkpt lat="47.89651" lon="1.86995">
        <ele>100</ele>
        <time>2018-09-16T05:51:58Z</time>
      </trkpt>
      <trkpt lat="47.89648" lon="1.86971">
        <ele>100</ele>
        <time>2018-09-16T05:52:01Z</time>
      </trkpt>
      <trkpt lat="47.8964" lon="1.86912">
        <ele>101</ele>
        <time>2018-09-16T05:52:09Z</time>
      </trkpt>
      <trkpt lat="47.89639" lon="1.86905">
        <ele>101</ele>
        <time>2018-09-16T05:52:10Z</time>
      </trkpt>
      <trkpt lat="47.89627" lon="1.86833">
        <ele>98</ele>
        <time>2018-09-16T05:52:20Z</time>
      </trkpt>
      <trkpt lat="47.89626" lon="1.86826">
        <ele>98</ele>
        <time>2018-09-16T05:52:21Z</time>
      </trkpt>
      <trkpt lat="47.89623" lon="1.86788">
        <ele>97</ele>
        <time>2018-09-16T05:52:26Z</time>
      </trkpt>
      <trkpt lat="47.89617" lon="1.86717">
        <ele>95</ele>
        <time>2018-09-16T05:52:35Z</time>
      </trkpt>
      <trkpt lat="47.89616" lon="1.86709">
        <ele>95</ele>
        <time>2018-09-16T05:52:36Z</time>
      </trkpt>
      <trkpt lat="47.89608" lon="1.86637">
        <ele>93</ele>
        <time>2018-09-16T05:52:44Z</time>
      </trkpt>
      <trkpt lat="47.89607" lon="1.86629">
        <ele>93</ele>
        <time>2018-09-16T05:52:45Z</time>
      </trkpt>
      <trkpt lat="47.89603" lon="1.86592">
        <ele>93</ele>
        <time>2018-09-16T05:52:50Z</time>
      </trkpt>
      <trkpt lat="47.89598" lon="1.8657">
        <ele>94</ele>
        <time>2018-09-16T05:52:56Z</time>
      </trkpt>
      <trkpt lat="47.89593" lon="1.86564">
        <ele>94</ele>
        <time>2018-09-16T05:53:01Z</time>
      </trkpt>
      <trkpt lat="47.89596" lon="1.8656">
        <ele>92</ele>
        <time>2018-09-16T05:59:29Z</time>
      </trkpt>
      <trkpt lat="47.89593" lon="1.86535">
        <ele>91</ele>
        <time>2018-09-16T05:59:35Z</time>
      </trkpt>
      <trkpt lat="47.8959" lon="1.86524">
        <ele>90</ele>
        <time>2018-09-16T05:59:37Z</time>
      </trkpt>
      <trkpt lat="47.89579" lon="1.86453">
        <ele>89</ele>
        <time>2018-09-16T05:59:49Z</time>
      </trkpt>
      <trkpt lat="47.89577" lon="1.86447">
        <ele>89</ele>
        <time>2018-09-16T05:59:50Z</time>
      </trkpt>
      <trkpt lat="47.8957" lon="1.86425">
        <ele>90</ele>
        <time>2018-09-16T05:59:54Z</time>
      </trkpt>
      <trkpt lat="47.89561" lon="1.86397">
        <ele>93</ele>
        <time>2018-09-16T05:59:59Z</time>
      </trkpt>
      <trkpt lat="47.89545" lon="1.86331">
        <ele>98</ele>
        <time>2018-09-16T06:00:09Z</time>
      </trkpt>
      <trkpt lat="47.89544" lon="1.86324">
        <ele>98</ele>
        <time>2018-09-16T06:00:10Z</time>
      </trkpt>
      <trkpt lat="47.89525" lon="1.86262">
        <ele>101</ele>
        <time>2018-09-16T06:00:20Z</time>
      </trkpt>
      <trkpt lat="47.89523" lon="1.86256">
        <ele>101</ele>
        <time>2018-09-16T06:00:21Z</time>
      </trkpt>
      <trkpt lat="47.89513" lon="1.86227">
        <ele>99</ele>
        <time>2018-09-16T06:00:26Z</time>
      </trkpt>
      <trkpt lat="47.89494" lon="1.86185">
        <ele>97</ele>
        <time>2018-09-16T06:00:35Z</time>
      </trkpt>
      <trkpt lat="47.89474" lon="1.86119">
        <ele>96</ele>
        <time>2018-09-16T06:00:47Z</time>
      </trkpt>
      <trkpt lat="47.89472" lon="1.86113">
        <ele>96</ele>
        <time>2018-09-16T06:00:48Z</time>
      </trkpt>
      <trkpt lat="47.89462" lon="1.86074">
        <ele>94</ele>
        <time>2018-09-16T06:00:54Z</time>
      </trkpt>
      <trkpt lat="47.89452" lon="1.86007">
        <ele>93</ele>
        <time>2018-09-16T06:01:04Z</time>
      </trkpt>
      <trkpt lat="47.89451" lon="1.86001">
        <ele>93</ele>
        <time>2018-09-16T06:01:05Z</time>
      </trkpt>
      <trkpt lat="47.89437" lon="1.8593">
        <ele>94</ele>
        <time>2018-09-16T06:01:15Z</time>
      </trkpt>
      <trkpt lat="47.89435" lon="1.85923">
        <ele>93</ele>
        <time>2018-09-16T06:01:16Z</time>
      </trkpt>
      <trkpt lat="47.89418" lon="1.85853">
        <ele>92</ele>
        <time>2018-09-16T06:01:25Z</time>
      </trkpt>
      <trkpt lat="47.89417" lon="1.85845">
        <ele>92</ele>
        <time>2018-09-16T06:01:26Z</time>
      </trkpt>
      <trkpt lat="47.89399" lon="1.85775">
        <ele>91</ele>
        <time>2018-09-16T06:01:35Z</time>
      </trkpt>
      <trkpt lat="47.89397" lon="1.85768">
        <ele>91</ele>
        <time>2018-09-16T06:01:36Z</time>
      </trkpt>
      <trkpt lat="47.89383" lon="1.85711">
        <ele>93</ele>
        <time>2018-09-16T06:01:45Z</time>
      </trkpt>
      <trkpt lat="47.89381" lon="1.85705">
        <ele>93</ele>
        <time>2018-09-16T06:01:46Z</time>
      </trkpt>
      <trkpt lat="47.89362" lon="1.85642">
        <ele>93</ele>
        <time>2018-09-16T06:01:56Z</time>
      </trkpt>
      <trkpt lat="47.8936" lon="1.85635">
        <ele>93</ele>
        <time>2018-09-16T06:01:57Z</time>
      </trkpt>
      <trkpt lat="47.89334" lon="1.85575">
        <ele>91</ele>
        <time>2018-09-16T06:02:04Z</time>
      </trkpt>
      <trkpt lat="47.8933" lon="1.85565">
        <ele>90</ele>
        <time>2018-09-16T06:02:05Z</time>
      </trkpt>
      <trkpt lat="47.89305" lon="1.85508">
        <ele>87</ele>
        <time>2018-09-16T06:02:11Z</time>
      </trkpt>
      <trkpt lat="47.89301" lon="1.85499">
        <ele>87</ele>
        <time>2018-09-16T06:02:12Z</time>
      </trkpt>
      <trkpt lat="47.8928" lon="1.85436">
        <ele>84</ele>
        <time>2018-09-16T06:02:19Z</time>
      </trkpt>
      <trkpt lat="47.89278" lon="1.85429">
        <ele>83</ele>
        <time>2018-09-16T06:02:20Z</time>
      </trkpt>
      <trkpt lat="47.89273" lon="1.8541">
        <ele>83</ele>
        <time>2018-09-16T06:02:23Z</time>
      </trkpt>
      <trkpt lat="47.89258" lon="1.85347">
        <ele>82</ele>
        <time>2018-09-16T06:02:35Z</time>
      </trkpt>
      <trkpt lat="47.89256" lon="1.85342">
        <ele>82</ele>
        <time>2018-09-16T06:02:36Z</time>
      </trkpt>
      <trkpt lat="47.89238" lon="1.85277">
        <ele>85</ele>
        <time>2018-09-16T06:02:48Z</time>
      </trkpt>
      <trkpt lat="47.89237" lon="1.85272">
        <ele>85</ele>
        <time>2018-09-16T06:02:49Z</time>
      </trkpt>
      <trkpt lat="47.89231" lon="1.85252">
        <ele>86</ele>
        <time>2018-09-16T06:02:53Z</time>
      </trkpt>
      <trkpt lat="47.89206" lon="1.85194">
        <ele>89</ele>
        <time>2018-09-16T06:03:03Z</time>
      </trkpt>
      <trkpt lat="47.89202" lon="1.85188">
        <ele>89</ele>
        <time>2018-09-16T06:03:04Z</time>
      </trkpt>
      <trkpt lat="47.89175" lon="1.85126">
        <ele>91</ele>
        <time>2018-09-16T06:03:13Z</time>
      </trkpt>
      <trkpt lat="47.89172" lon="1.85118">
        <ele>92</ele>
        <time>2018-09-16T06:03:14Z</time>
      </trkpt>
      <trkpt lat="47.89146" lon="1.85056">
        <ele>92</ele>
        <time>2018-09-16T06:03:22Z</time>
      </trkpt>
      <trkpt lat="47.89143" lon="1.85049">
        <ele>92</ele>
        <time>2018-09-16T06:03:23Z</time>
      </trkpt>
      <trkpt lat="47.8912" lon="1.84987">
        <ele>92</ele>
        <time>2018-09-16T06:03:31Z</time>
      </trkpt>
      <trkpt lat="47.89118" lon="1.8498">
        <ele>92</ele>
        <time>2018-09-16T06:03:32Z</time>
      </trkpt>
      <trkpt lat="47.89112" lon="1.84971">
        <ele>92</ele>
        <time>2018-09-16T06:03:34Z</time>
      </trkpt>
      <trkpt lat="47.891" lon="1.8495">
        <ele>91</ele>
        <time>2018-09-16T06:03:37Z</time>
      </trkpt>
      <trkpt lat="47.89071" lon="1.84909">
        <ele>88</ele>
        <time>2018-09-16T06:03:42Z</time>
      </trkpt>
      <trkpt lat="47.89064" lon="1.84902">
        <ele>87</ele>
        <time>2018-09-16T06:03:43Z</time>
      </trkpt>
      <trkpt lat="47.89032" lon="1.84858">
        <ele>83</ele>
        <time>2018-09-16T06:03:49Z</time>
      </trkpt>
      <trkpt lat="47.89028" lon="1.8485">
        <ele>82</ele>
        <time>2018-09-16T06:03:50Z</time>
      </trkpt>
      <trkpt lat="47.88997" lon="1.84798">
        <ele>75</ele>
        <time>2018-09-16T06:03:58Z</time>
      </trkpt>
      <trkpt lat="47.88993" lon="1.84792">
        <ele>74</ele>
        <time>2018-09-16T06:03:59Z</time>
      </trkpt>
      <trkpt lat="47.88963" lon="1.84741">
        <ele>71</ele>
        <time>2018-09-16T06:04:07Z</time>
      </trkpt>
      <trkpt lat="47.88959" lon="1.84735">
        <ele>71</ele>
        <time>2018-09-16T06:04:08Z</time>
      </trkpt>
      <trkpt lat="47.88927" lon="1.84685">
        <ele>73</ele>
        <time>2018-09-16T06:04:16Z</time>
      </trkpt>
      <trkpt lat="47.88923" lon="1.8468">
        <ele>73</ele>
        <time>2018-09-16T06:04:17Z</time>
      </trkpt>
      <trkpt lat="47.88891" lon="1.84636">
        <ele>75</ele>
        <time>2018-09-16T06:04:25Z</time>
      </trkpt>
      <trkpt lat="47.88887" lon="1.84631">
        <ele>76</ele>
        <time>2018-09-16T06:04:26Z</time>
      </trkpt>
      <trkpt lat="47.88851" lon="1.84587">
        <ele>79</ele>
        <time>2018-09-16T06:04:35Z</time>
      </trkpt>
      <trkpt lat="47.88847" lon="1.84581">
        <ele>79</ele>
        <time>2018-09-16T06:04:36Z</time>
      </trkpt>
      <trkpt lat="47.88812" lon="1.84533">
        <ele>82</ele>
        <time>2018-09-16T06:04:44Z</time>
      </trkpt>
      <trkpt lat="47.88808" lon="1.84527">
        <ele>82</ele>
        <time>2018-09-16T06:04:45Z</time>
      </trkpt>
      <trkpt lat="47.88783" lon="1.84489">
        <ele>84</ele>
        <time>2018-09-16T06:04:51Z</time>
      </trkpt>
      <trkpt lat="47.88748" lon="1.84439">
        <ele>85</ele>
        <time>2018-09-16T06:05:00Z</time>
      </trkpt>
      <trkpt lat="47.88745" lon="1.84434">
        <ele>85</ele>
        <time>2018-09-16T06:05:01Z</time>
      </trkpt>
      <trkpt lat="47.88712" lon="1.84382">
        <ele>85</ele>
        <time>2018-09-16T06:05:11Z</time>
      </trkpt>
      <trkpt lat="47.88707" lon="1.84377">
        <ele>84</ele>
        <time>2018-09-16T06:05:12Z</time>
      </trkpt>
      <trkpt lat="47.88677" lon="1.84326">
        <ele>79</ele>
        <time>2018-09-16T06:05:20Z</time>
      </trkpt>
      <trkpt lat="47.88674" lon="1.84319">
        <ele>79</ele>
        <time>2018-09-16T06:05:21Z</time>
      </trkpt>
      <trkpt lat="47.88659" lon="1.84293">
        <ele>78</ele>
        <time>2018-09-16T06:05:25Z</time>
      </trkpt>
      <trkpt lat="47.88629" lon="1.84232">
        <ele>76</ele>
        <time>2018-09-16T06:05:34Z</time>
      </trkpt>
      <trkpt lat="47.88625" lon="1.84226">
        <ele>76</ele>
        <time>2018-09-16T06:05:35Z</time>
      </trkpt>
      <trkpt lat="47.88593" lon="1.84177">
        <ele>75</ele>
        <time>2018-09-16T06:05:43Z</time>
      </trkpt>
      <trkpt lat="47.88589" lon="1.84171">
        <ele>75</ele>
        <time>2018-09-16T06:05:44Z</time>
      </trkpt>
      <trkpt lat="47.88585" lon="1.84166">
        <ele>75</ele>
        <time>2018-09-16T06:05:45Z</time>
      </trkpt>
      <trkpt lat="47.88551" lon="1.84117">
        <ele>72</ele>
        <time>2018-09-16T06:05:54Z</time>
      </trkpt>
      <trkpt lat="47.88547" lon="1.84112">
        <ele>72</ele>
        <time>2018-09-16T06:05:55Z</time>
      </trkpt>
      <trkpt lat="47.88512" lon="1.84057">
        <ele>72</ele>
        <time>2018-09-16T06:06:05Z</time>
      </trkpt>
      <trkpt lat="47.88509" lon="1.84052">
        <ele>72</ele>
        <time>2018-09-16T06:06:06Z</time>
      </trkpt>
      <trkpt lat="47.88479" lon="1.83999">
        <ele>72</ele>
        <time>2018-09-16T06:06:15Z</time>
      </trkpt>
      <trkpt lat="47.88477" lon="1.83992">
        <ele>72</ele>
        <time>2018-09-16T06:06:16Z</time>
      </trkpt>
      <trkpt lat="47.88457" lon="1.83931">
        <ele>73</ele>
        <time>2018-09-16T06:06:25Z</time>
      </trkpt>
      <trkpt lat="47.88454" lon="1.83925">
        <ele>73</ele>
        <time>2018-09-16T06:06:26Z</time>
      </trkpt>
      <trkpt lat="47.88422" lon="1.83867">
        <ele>74</ele>
        <time>2018-09-16T06:06:35Z</time>
      </trkpt>
      <trkpt lat="47.88419" lon="1.8386">
        <ele>75</ele>
        <time>2018-09-16T06:06:36Z</time>
      </trkpt>
      <trkpt lat="47.8839" lon="1.83809">
        <ele>76</ele>
        <time>2018-09-16T06:06:44Z</time>
      </trkpt>
      <trkpt lat="47.88387" lon="1.83803">
        <ele>76</ele>
        <time>2018-09-16T06:06:45Z</time>
      </trkpt>
      <trkpt lat="47.88354" lon="1.83747">
        <ele>77</ele>
        <time>2018-09-16T06:06:54Z</time>
      </trkpt>
      <trkpt lat="47.8835" lon="1.83741">
        <ele>78</ele>
        <time>2018-09-16T06:06:55Z</time>
      </trkpt>
      <trkpt lat="47.88321" lon="1.83688">
        <ele>78</ele>
        <time>2018-09-16T06:07:04Z</time>
      </trkpt>
      <trkpt lat="47.88319" lon="1.83683">
        <ele>78</ele>
        <time>2018-09-16T06:07:05Z</time>
      </trkpt>
      <trkpt lat="47.88314" lon="1.83668">
        <ele>79</ele>
        <time>2018-09-16T06:07:08Z</time>
      </trkpt>
      <trkpt lat="47.88281" lon="1.83621">
        <ele>81</ele>
        <time>2018-09-16T06:07:17Z</time>
      </trkpt>
      <trkpt lat="47.88278" lon="1.83614">
        <ele>81</ele>
        <time>2018-09-16T06:07:18Z</time>
      </trkpt>
      <trkpt lat="47.88246" lon="1.83563">
        <ele>81</ele>
        <time>2018-09-16T06:07:26Z</time>
      </trkpt>
      <trkpt lat="47.88242" lon="1.83558">
        <ele>81</ele>
        <time>2018-09-16T06:07:27Z</time>
      </trkpt>
      <trkpt lat="47.8821" lon="1.83509">
        <ele>82</ele>
        <time>2018-09-16T06:07:35Z</time>
      </trkpt>
      <trkpt lat="47.88206" lon="1.83502">
        <ele>82</ele>
        <time>2018-09-16T06:07:36Z</time>
      </trkpt>
      <trkpt lat="47.88174" lon="1.83455">
        <ele>83</ele>
        <time>2018-09-16T06:07:44Z</time>
      </trkpt>
      <trkpt lat="47.88169" lon="1.83449">
        <ele>83</ele>
        <time>2018-09-16T06:07:45Z</time>
      </trkpt>
      <trkpt lat="47.88138" lon="1.83397">
        <ele>84</ele>
        <time>2018-09-16T06:07:53Z</time>
      </trkpt>
      <trkpt lat="47.88134" lon="1.8339">
        <ele>84</ele>
        <time>2018-09-16T06:07:54Z</time>
      </trkpt>
      <trkpt lat="47.881" lon="1.83344">
        <ele>83</ele>
        <time>2018-09-16T06:08:02Z</time>
      </trkpt>
      <trkpt lat="47.88096" lon="1.83338">
        <ele>83</ele>
        <time>2018-09-16T06:08:03Z</time>
      </trkpt>
      <trkpt lat="47.88064" lon="1.83285">
        <ele>82</ele>
        <time>2018-09-16T06:08:11Z</time>
      </trkpt>
      <trkpt lat="47.88061" lon="1.83279">
        <ele>82</ele>
        <time>2018-09-16T06:08:12Z</time>
      </trkpt>
      <trkpt lat="47.88045" lon="1.83256">
        <ele>82</ele>
        <time>2018-09-16T06:08:16Z</time>
      </trkpt>
      <trkpt lat="47.88023" lon="1.83225">
        <ele>82</ele>
        <time>2018-09-16T06:08:21Z</time>
      </trkpt>
      <trkpt lat="47.87992" lon="1.8317">
        <ele>82</ele>
        <time>2018-09-16T06:08:29Z</time>
      </trkpt>
      <trkpt lat="47.87988" lon="1.83163">
        <ele>81</ele>
        <time>2018-09-16T06:08:30Z</time>
      </trkpt>
      <trkpt lat="47.87983" lon="1.83157">
        <ele>81</ele>
        <time>2018-09-16T06:08:31Z</time>
      </trkpt>
      <trkpt lat="47.87946" lon="1.83109">
        <ele>81</ele>
        <time>2018-09-16T06:08:39Z</time>
      </trkpt>
      <trkpt lat="47.87942" lon="1.83103">
        <ele>81</ele>
        <time>2018-09-16T06:08:40Z</time>
      </trkpt>
      <trkpt lat="47.87938" lon="1.83095">
        <ele>80</ele>
        <time>2018-09-16T06:08:41Z</time>
      </trkpt>
      <trkpt lat="47.87933" lon="1.83074">
        <ele>80</ele>
        <time>2018-09-16T06:08:44Z</time>
      </trkpt>
      <trkpt lat="47.8793" lon="1.8306">
        <ele>79</ele>
        <time>2018-09-16T06:08:46Z</time>
      </trkpt>
      <trkpt lat="47.8792" lon="1.83051">
        <ele>79</ele>
        <time>2018-09-16T06:08:48Z</time>
      </trkpt>
      <trkpt lat="47.87897" lon="1.83039">
        <ele>79</ele>
        <time>2018-09-16T06:08:52Z</time>
      </trkpt>
      <trkpt lat="47.8788" lon="1.83016">
        <ele>80</ele>
        <time>2018-09-16T06:08:56Z</time>
      </trkpt>
      <trkpt lat="47.87846" lon="1.82958">
        <ele>81</ele>
        <time>2018-09-16T06:09:04Z</time>
      </trkpt>
      <trkpt lat="47.87842" lon="1.8295">
        <ele>81</ele>
        <time>2018-09-16T06:09:05Z</time>
      </trkpt>
      <trkpt lat="47.87809" lon="1.82892">
        <ele>80</ele>
        <time>2018-09-16T06:09:13Z</time>
      </trkpt>
      <trkpt lat="47.87805" lon="1.82885">
        <ele>80</ele>
        <time>2018-09-16T06:09:14Z</time>
      </trkpt>
      <trkpt lat="47.8779" lon="1.82855">
        <ele>80</ele>
        <time>2018-09-16T06:09:18Z</time>
      </trkpt>
      <trkpt lat="47.87775" lon="1.82806">
        <ele>80</ele>
        <time>2018-09-16T06:09:24Z</time>
      </trkpt>
      <trkpt lat="47.87757" lon="1.82762">
        <ele>81</ele>
        <time>2018-09-16T06:09:30Z</time>
      </trkpt>
      <trkpt lat="47.87737" lon="1.82739">
        <ele>82</ele>
        <time>2018-09-16T06:09:34Z</time>
      </trkpt>
      <trkpt lat="47.87699" lon="1.82704">
        <ele>82</ele>
        <time>2018-09-16T06:09:41Z</time>
      </trkpt>
      <trkpt lat="47.87693" lon="1.82698">
        <ele>82</ele>
        <time>2018-09-16T06:09:42Z</time>
      </trkpt>
      <trkpt lat="47.87689" lon="1.82691">
        <ele>82</ele>
        <time>2018-09-16T06:09:43Z</time>
      </trkpt>
      <trkpt lat="47.8766" lon="1.82638">
        <ele>81</ele>
        <time>2018-09-16T06:09:50Z</time>
      </trkpt>
      <trkpt lat="47.87656" lon="1.82631">
        <ele>81</ele>
        <time>2018-09-16T06:09:51Z</time>
      </trkpt>
      <trkpt lat="47.87628" lon="1.82567">
        <ele>80</ele>
        <time>2018-09-16T06:09:59Z</time>
      </trkpt>
      <trkpt lat="47.87624" lon="1.8256">
        <ele>80</ele>
        <time>2018-09-16T06:10:00Z</time>
      </trkpt>
      <trkpt lat="47.87601" lon="1.82513">
        <ele>80</ele>
        <time>2018-09-16T06:10:06Z</time>
      </trkpt>
      <trkpt lat="47.87599" lon="1.82504">
        <ele>80</ele>
        <time>2018-09-16T06:10:07Z</time>
      </trkpt>
      <trkpt lat="47.87592" lon="1.82478">
        <ele>80</ele>
        <time>2018-09-16T06:10:10Z</time>
      </trkpt>
      <trkpt lat="47.87566" lon="1.82426">
        <ele>80</ele>
        <time>2018-09-16T06:10:17Z</time>
      </trkpt>
      <trkpt lat="47.87566" lon="1.82417">
        <ele>80</ele>
        <time>2018-09-16T06:10:18Z</time>
      </trkpt>
      <trkpt lat="47.87561" lon="1.82379">
        <ele>80</ele>
        <time>2018-09-16T06:10:22Z</time>
      </trkpt>
      <trkpt lat="47.87534" lon="1.82319">
        <ele>78</ele>
        <time>2018-09-16T06:10:29Z</time>
      </trkpt>
      <trkpt lat="47.8753" lon="1.82311">
        <ele>78</ele>
        <time>2018-09-16T06:10:30Z</time>
      </trkpt>
      <trkpt lat="47.87514" lon="1.82277">
        <ele>78</ele>
        <time>2018-09-16T06:10:35Z</time>
      </trkpt>
      <trkpt lat="47.87509" lon="1.82262">
        <ele>77</ele>
        <time>2018-09-16T06:10:41Z</time>
      </trkpt>
      <trkpt lat="47.87504" lon="1.82256">
        <ele>77</ele>
        <time>2018-09-16T06:10:46Z</time>
      </trkpt>
      <trkpt lat="47.87496" lon="1.82232">
        <ele>77</ele>
        <time>2018-09-16T06:10:53Z</time>
      </trkpt>
      <trkpt lat="47.87511" lon="1.82224">
        <ele>80</ele>
        <time>2018-09-16T06:11:00Z</time>
      </trkpt>
      <trkpt lat="47.87509" lon="1.82207">
        <ele>89</ele>
        <time>2018-09-16T06:11:14Z</time>
      </trkpt>
      <trkpt lat="47.87507" lon="1.82198">
        <ele>90</ele>
        <time>2018-09-16T06:11:19Z</time>
      </trkpt>
      <trkpt lat="47.87498" lon="1.82185">
        <ele>90</ele>
        <time>2018-09-16T06:11:24Z</time>
      </trkpt>
      <trkpt lat="47.87468" lon="1.82135">
        <ele>88</ele>
        <time>2018-09-16T06:11:34Z</time>
      </trkpt>
      <trkpt lat="47.87464" lon="1.8213">
        <ele>88</ele>
        <time>2018-09-16T06:11:35Z</time>
      </trkpt>
      <trkpt lat="47.87449" lon="1.82105">
        <ele>87</ele>
        <time>2018-09-16T06:11:39Z</time>
      </trkpt>
      <trkpt lat="47.87418" lon="1.82046">
        <ele>87</ele>
        <time>2018-09-16T06:11:48Z</time>
      </trkpt>
      <trkpt lat="47.87415" lon="1.82038">
        <ele>86</ele>
        <time>2018-09-16T06:11:49Z</time>
      </trkpt>
      <trkpt lat="47.87394" lon="1.8197">
        <ele>84</ele>
        <time>2018-09-16T06:11:57Z</time>
      </trkpt>
      <trkpt lat="47.87392" lon="1.8196">
        <ele>84</ele>
        <time>2018-09-16T06:11:58Z</time>
      </trkpt>
      <trkpt lat="47.87379" lon="1.8189">
        <ele>84</ele>
        <time>2018-09-16T06:12:05Z</time>
      </trkpt>
      <trkpt lat="47.87377" lon="1.81881">
        <ele>84</ele>
        <time>2018-09-16T06:12:06Z</time>
      </trkpt>
      <trkpt lat="47.87361" lon="1.81812">
        <ele>84</ele>
        <time>2018-09-16T06:12:14Z</time>
      </trkpt>
      <trkpt lat="47.87358" lon="1.81804">
        <ele>84</ele>
        <time>2018-09-16T06:12:15Z</time>
      </trkpt>
      <trkpt lat="47.87355" lon="1.81796">
        <ele>84</ele>
        <time>2018-09-16T06:12:16Z</time>
      </trkpt>
      <trkpt lat="47.87327" lon="1.81734">
        <ele>83</ele>
        <time>2018-09-16T06:12:24Z</time>
      </trkpt>
      <trkpt lat="47.87325" lon="1.81725">
        <ele>83</ele>
        <time>2018-09-16T06:12:25Z</time>
      </trkpt>
      <trkpt lat="47.87302" lon="1.81662">
        <ele>82</ele>
        <time>2018-09-16T06:12:33Z</time>
      </trkpt>
      <trkpt lat="47.873" lon="1.81654">
        <ele>82</ele>
        <time>2018-09-16T06:12:34Z</time>
      </trkpt>
      <trkpt lat="47.87283" lon="1.81592">
        <ele>81</ele>
        <time>2018-09-16T06:12:42Z</time>
      </trkpt>
      <trkpt lat="47.87281" lon="1.81584">
        <ele>81</ele>
        <time>2018-09-16T06:12:43Z</time>
      </trkpt>
      <trkpt lat="47.87264" lon="1.81519">
        <ele>82</ele>
        <time>2018-09-16T06:12:51Z</time>
      </trkpt>
      <trkpt lat="47.87262" lon="1.81511">
        <ele>82</ele>
        <time>2018-09-16T06:12:52Z</time>
      </trkpt>
      <trkpt lat="47.87243" lon="1.81446">
        <ele>82</ele>
        <time>2018-09-16T06:13:00Z</time>
      </trkpt>
      <trkpt lat="47.8724" lon="1.81438">
        <ele>82</ele>
        <time>2018-09-16T06:13:01Z</time>
      </trkpt>
      <trkpt lat="47.87217" lon="1.81379">
        <ele>83</ele>
        <time>2018-09-16T06:13:09Z</time>
      </trkpt>
      <trkpt lat="47.87214" lon="1.81372">
        <ele>83</ele>
        <time>2018-09-16T06:13:10Z</time>
      </trkpt>
      <trkpt lat="47.87201" lon="1.81345">
        <ele>84</ele>
        <time>2018-09-16T06:13:14Z</time>
      </trkpt>
      <trkpt lat="47.87169" lon="1.81286">
        <ele>84</ele>
        <time>2018-09-16T06:13:23Z</time>
      </trkpt>
      <trkpt lat="47.87166" lon="1.8128">
        <ele>84</ele>
        <time>2018-09-16T06:13:24Z</time>
      </trkpt>
      <trkpt lat="47.87133" lon="1.81223">
        <ele>85</ele>
        <time>2018-09-16T06:13:33Z</time>
      </trkpt>
      <trkpt lat="47.8713" lon="1.81217">
        <ele>85</ele>
        <time>2018-09-16T06:13:34Z</time>
      </trkpt>
      <trkpt lat="47.87101" lon="1.81165">
        <ele>85</ele>
        <time>2018-09-16T06:13:42Z</time>
      </trkpt>
      <trkpt lat="47.87098" lon="1.81159">
        <ele>85</ele>
        <time>2018-09-16T06:13:43Z</time>
      </trkpt>
      <trkpt lat="47.87068" lon="1.81106">
        <ele>85</ele>
        <time>2018-09-16T06:13:51Z</time>
      </trkpt>
      <trkpt lat="47.87064" lon="1.811">
        <ele>85</ele>
        <time>2018-09-16T06:13:52Z</time>
      </trkpt>
      <trkpt lat="47.87034" lon="1.81047">
        <ele>85</ele>
        <time>2018-09-16T06:14:00Z</time>
      </trkpt>
      <trkpt lat="47.8703" lon="1.8104">
        <ele>86</ele>
        <time>2018-09-16T06:14:01Z</time>
      </trkpt>
      <trkpt lat="47.87" lon="1.80986">
        <ele>85</ele>
        <time>2018-09-16T06:14:09Z</time>
      </trkpt>
      <trkpt lat="47.86995" lon="1.80979">
        <ele>85</ele>
        <time>2018-09-16T06:14:10Z</time>
      </trkpt>
      <trkpt lat="47.86965" lon="1.80926">
        <ele>85</ele>
        <time>2018-09-16T06:14:18Z</time>
      </trkpt>
      <trkpt lat="47.86961" lon="1.8092">
        <ele>86</ele>
        <time>2018-09-16T06:14:19Z</time>
      </trkpt>
      <trkpt lat="47.86946" lon="1.80884">
        <ele>86</ele>
        <time>2018-09-16T06:14:24Z</time>
      </trkpt>
      <trkpt lat="47.86941" lon="1.80813">
        <ele>87</ele>
        <time>2018-09-16T06:14:32Z</time>
      </trkpt>
      <trkpt lat="47.8694" lon="1.80805">
        <ele>87</ele>
        <time>2018-09-16T06:14:33Z</time>
      </trkpt>
      <trkpt lat="47.86937" lon="1.80797">
        <ele>87</ele>
        <time>2018-09-16T06:14:34Z</time>
      </trkpt>
      <trkpt lat="47.86928" lon="1.80773">
        <ele>87</ele>
        <time>2018-09-16T06:14:37Z</time>
      </trkpt>
      <trkpt lat="47.8691" lon="1.80751">
        <ele>87</ele>
        <time>2018-09-16T06:14:41Z</time>
      </trkpt>
      <trkpt lat="47.86888" lon="1.80737">
        <ele>87</ele>
        <time>2018-09-16T06:14:45Z</time>
      </trkpt>
      <trkpt lat="47.8686" lon="1.80726">
        <ele>87</ele>
        <time>2018-09-16T06:14:50Z</time>
      </trkpt>
      <trkpt lat="47.8684" lon="1.80706">
        <ele>87</ele>
        <time>2018-09-16T06:14:54Z</time>
      </trkpt>
      <trkpt lat="47.86808" lon="1.80649">
        <ele>87</ele>
        <time>2018-09-16T06:15:02Z</time>
      </trkpt>
      <trkpt lat="47.86804" lon="1.80642">
        <ele>87</ele>
        <time>2018-09-16T06:15:03Z</time>
      </trkpt>
      <trkpt lat="47.86771" lon="1.80586">
        <ele>87</ele>
        <time>2018-09-16T06:15:11Z</time>
      </trkpt>
      <trkpt lat="47.86768" lon="1.80579">
        <ele>87</ele>
        <time>2018-09-16T06:15:12Z</time>
      </trkpt>
      <trkpt lat="47.86736" lon="1.80522">
        <ele>86</ele>
        <time>2018-09-16T06:15:20Z</time>
      </trkpt>
      <trkpt lat="47.86731" lon="1.80515">
        <ele>86</ele>
        <time>2018-09-16T06:15:21Z</time>
      </trkpt>
      <trkpt lat="47.86701" lon="1.80461">
        <ele>85</ele>
        <time>2018-09-16T06:15:28Z</time>
      </trkpt>
      <trkpt lat="47.86696" lon="1.80454">
        <ele>85</ele>
        <time>2018-09-16T06:15:29Z</time>
      </trkpt>
      <trkpt lat="47.86674" lon="1.80422">
        <ele>85</ele>
        <time>2018-09-16T06:15:34Z</time>
      </trkpt>
      <trkpt lat="47.86663" lon="1.80368">
        <ele>84</ele>
        <time>2018-09-16T06:15:40Z</time>
      </trkpt>
      <trkpt lat="47.86658" lon="1.80295">
        <ele>85</ele>
        <time>2018-09-16T06:15:48Z</time>
      </trkpt>
      <trkpt lat="47.86657" lon="1.80286">
        <ele>85</ele>
        <time>2018-09-16T06:15:49Z</time>
      </trkpt>
      <trkpt lat="47.86652" lon="1.80219">
        <ele>84</ele>
        <time>2018-09-16T06:15:56Z</time>
      </trkpt>
      <trkpt lat="47.86651" lon="1.80209">
        <ele>84</ele>
        <time>2018-09-16T06:15:57Z</time>
      </trkpt>
      <trkpt lat="47.86645" lon="1.80134">
        <ele>84</ele>
        <time>2018-09-16T06:16:05Z</time>
      </trkpt>
      <trkpt lat="47.86644" lon="1.80125">
        <ele>84</ele>
        <time>2018-09-16T06:16:06Z</time>
      </trkpt>
      <trkpt lat="47.86637" lon="1.80058">
        <ele>84</ele>
        <time>2018-09-16T06:16:13Z</time>
      </trkpt>
      <trkpt lat="47.86637" lon="1.80049">
        <ele>84</ele>
        <time>2018-09-16T06:16:14Z</time>
      </trkpt>
      <trkpt lat="47.86631" lon="1.79981">
        <ele>85</ele>
        <time>2018-09-16T06:16:21Z</time>
      </trkpt>
      <trkpt lat="47.86631" lon="1.79971">
        <ele>85</ele>
        <time>2018-09-16T06:16:22Z</time>
      </trkpt>
      <trkpt lat="47.86631" lon="1.79897">
        <ele>85</ele>
        <time>2018-09-16T06:16:30Z</time>
      </trkpt>
      <trkpt lat="47.86632" lon="1.79889">
        <ele>85</ele>
        <time>2018-09-16T06:16:31Z</time>
      </trkpt>
      <trkpt lat="47.86638" lon="1.79816">
        <ele>85</ele>
        <time>2018-09-16T06:16:39Z</time>
      </trkpt>
      <trkpt lat="47.86639" lon="1.79807">
        <ele>85</ele>
        <time>2018-09-16T06:16:40Z</time>
      </trkpt>
      <trkpt lat="47.86639" lon="1.79798">
        <ele>85</ele>
        <time>2018-09-16T06:16:41Z</time>
      </trkpt>
      <trkpt lat="47.86643" lon="1.79728">
        <ele>86</ele>
        <time>2018-09-16T06:16:49Z</time>
      </trkpt>
      <trkpt lat="47.86643" lon="1.7972">
        <ele>86</ele>
        <time>2018-09-16T06:16:50Z</time>
      </trkpt>
      <trkpt lat="47.86646" lon="1.79648">
        <ele>86</ele>
        <time>2018-09-16T06:16:58Z</time>
      </trkpt>
      <trkpt lat="47.86646" lon="1.79639">
        <ele>86</ele>
        <time>2018-09-16T06:16:59Z</time>
      </trkpt>
      <trkpt lat="47.86655" lon="1.79569">
        <ele>86</ele>
        <time>2018-09-16T06:17:07Z</time>
      </trkpt>
      <trkpt lat="47.86657" lon="1.7956">
        <ele>85</ele>
        <time>2018-09-16T06:17:08Z</time>
      </trkpt>
      <trkpt lat="47.86663" lon="1.79525">
        <ele>85</ele>
        <time>2018-09-16T06:17:12Z</time>
      </trkpt>
      <trkpt lat="47.86673" lon="1.79457">
        <ele>84</ele>
        <time>2018-09-16T06:17:20Z</time>
      </trkpt>
      <trkpt lat="47.86674" lon="1.79449">
        <ele>84</ele>
        <time>2018-09-16T06:17:21Z</time>
      </trkpt>
      <trkpt lat="47.86686" lon="1.7938">
        <ele>85</ele>
        <time>2018-09-16T06:17:29Z</time>
      </trkpt>
      <trkpt lat="47.86687" lon="1.79372">
        <ele>86</ele>
        <time>2018-09-16T06:17:30Z</time>
      </trkpt>
      <trkpt lat="47.86697" lon="1.79306">
        <ele>87</ele>
        <time>2018-09-16T06:17:38Z</time>
      </trkpt>
      <trkpt lat="47.86698" lon="1.79298">
        <ele>87</ele>
        <time>2018-09-16T06:17:39Z</time>
      </trkpt>
      <trkpt lat="47.86709" lon="1.79231">
        <ele>88</ele>
        <time>2018-09-16T06:17:47Z</time>
      </trkpt>
      <trkpt lat="47.8671" lon="1.79223">
        <ele>88</ele>
        <time>2018-09-16T06:17:48Z</time>
      </trkpt>
      <trkpt lat="47.86709" lon="1.7921">
        <ele>89</ele>
        <time>2018-09-16T06:17:50Z</time>
      </trkpt>
      <trkpt lat="47.86702" lon="1.79208">
        <ele>89</ele>
        <time>2018-09-16T06:17:53Z</time>
      </trkpt>
      <trkpt lat="47.86673" lon="1.79192">
        <ele>89</ele>
        <time>2018-09-16T06:17:59Z</time>
      </trkpt>
      <trkpt lat="47.86666" lon="1.79167">
        <ele>89</ele>
        <time>2018-09-16T06:18:02Z</time>
      </trkpt>
      <trkpt lat="47.8666" lon="1.79104">
        <ele>88</ele>
        <time>2018-09-16T06:18:09Z</time>
      </trkpt>
      <trkpt lat="47.86658" lon="1.79095">
        <ele>88</ele>
        <time>2018-09-16T06:18:10Z</time>
      </trkpt>
      <trkpt lat="47.86644" lon="1.79027">
        <ele>88</ele>
        <time>2018-09-16T06:18:18Z</time>
      </trkpt>
      <trkpt lat="47.86644" lon="1.79018">
        <ele>88</ele>
        <time>2018-09-16T06:18:19Z</time>
      </trkpt>
      <trkpt lat="47.86643" lon="1.78948">
        <ele>88</ele>
        <time>2018-09-16T06:18:27Z</time>
      </trkpt>
      <trkpt lat="47.86644" lon="1.78939">
        <ele>88</ele>
        <time>2018-09-16T06:18:28Z</time>
      </trkpt>
      <trkpt lat="47.86648" lon="1.78867">
        <ele>88</ele>
        <time>2018-09-16T06:18:36Z</time>
      </trkpt>
      <trkpt lat="47.86649" lon="1.78858">
        <ele>87</ele>
        <time>2018-09-16T06:18:37Z</time>
      </trkpt>
      <trkpt lat="47.86653" lon="1.78812">
        <ele>87</ele>
        <time>2018-09-16T06:18:42Z</time>
      </trkpt>
      <trkpt lat="47.86661" lon="1.78742">
        <ele>86</ele>
        <time>2018-09-16T06:18:50Z</time>
      </trkpt>
      <trkpt lat="47.86661" lon="1.78733">
        <ele>87</ele>
        <time>2018-09-16T06:18:51Z</time>
      </trkpt>
      <trkpt lat="47.86666" lon="1.78661">
        <ele>87</ele>
        <time>2018-09-16T06:18:59Z</time>
      </trkpt>
      <trkpt lat="47.86666" lon="1.78652">
        <ele>87</ele>
        <time>2018-09-16T06:19:00Z</time>
      </trkpt>
      <trkpt lat="47.86669" lon="1.78577">
        <ele>86</ele>
        <time>2018-09-16T06:19:08Z</time>
      </trkpt>
      <trkpt lat="47.8667" lon="1.78567">
        <ele>86</ele>
        <time>2018-09-16T06:19:09Z</time>
      </trkpt>
      <trkpt lat="47.86671" lon="1.78498">
        <ele>86</ele>
        <time>2018-09-16T06:19:16Z</time>
      </trkpt>
      <trkpt lat="47.86671" lon="1.78488">
        <ele>86</ele>
        <time>2018-09-16T06:19:17Z</time>
      </trkpt>
      <trkpt lat="47.8667" lon="1.78419">
        <ele>87</ele>
        <time>2018-09-16T06:19:24Z</time>
      </trkpt>
      <trkpt lat="47.86669" lon="1.7841">
        <ele>87</ele>
        <time>2018-09-16T06:19:25Z</time>
      </trkpt>
      <trkpt lat="47.86667" lon="1.78337">
        <ele>87</ele>
        <time>2018-09-16T06:19:33Z</time>
      </trkpt>
      <trkpt lat="47.86667" lon="1.78328">
        <ele>87</ele>
        <time>2018-09-16T06:19:34Z</time>
      </trkpt>
      <trkpt lat="47.86667" lon="1.78256">
        <ele>87</ele>
        <time>2018-09-16T06:19:42Z</time>
      </trkpt>
      <trkpt lat="47.86667" lon="1.78248">
        <ele>87</ele>
        <time>2018-09-16T06:19:43Z</time>
      </trkpt>
      <trkpt lat="47.86668" lon="1.7818">
        <ele>87</ele>
        <time>2018-09-16T06:19:51Z</time>
      </trkpt>
      <trkpt lat="47.86668" lon="1.78171">
        <ele>86</ele>
        <time>2018-09-16T06:19:52Z</time>
      </trkpt>
      <trkpt lat="47.86666" lon="1.78096">
        <ele>86</ele>
        <time>2018-09-16T06:20:01Z</time>
      </trkpt>
      <trkpt lat="47.86666" lon="1.78088">
        <ele>86</ele>
        <time>2018-09-16T06:20:02Z</time>
      </trkpt>
      <trkpt lat="47.86666" lon="1.78013">
        <ele>86</ele>
        <time>2018-09-16T06:20:11Z</time>
      </trkpt>
      <trkpt lat="47.86666" lon="1.78005">
        <ele>86</ele>
        <time>2018-09-16T06:20:12Z</time>
      </trkpt>
      <trkpt lat="47.86669" lon="1.77939">
        <ele>85</ele>
        <time>2018-09-16T06:20:20Z</time>
      </trkpt>
      <trkpt lat="47.8667" lon="1.77931">
        <ele>85</ele>
        <time>2018-09-16T06:20:21Z</time>
      </trkpt>
      <trkpt lat="47.8667" lon="1.77914">
        <ele>84</ele>
        <time>2018-09-16T06:20:23Z</time>
      </trkpt>
      <trkpt lat="47.8667" lon="1.77872">
        <ele>84</ele>
        <time>2018-09-16T06:20:28Z</time>
      </trkpt>
      <trkpt lat="47.86672" lon="1.77851">
        <ele>84</ele>
        <time>2018-09-16T06:20:31Z</time>
      </trkpt>
      <trkpt lat="47.86674" lon="1.77839">
        <ele>84</ele>
        <time>2018-09-16T06:20:33Z</time>
      </trkpt>
      <trkpt lat="47.86668" lon="1.7778">
        <ele>88</ele>
        <time>2018-09-16T06:20:43Z</time>
      </trkpt>
      <trkpt lat="47.86664" lon="1.77771">
        <ele>88</ele>
        <time>2018-09-16T06:20:45Z</time>
      </trkpt>
      <trkpt lat="47.86657" lon="1.77752">
        <ele>89</ele>
        <time>2018-09-16T06:20:49Z</time>
      </trkpt>
      <trkpt lat="47.86636" lon="1.77692">
        <ele>91</ele>
        <time>2018-09-16T06:21:03Z</time>
      </trkpt>
      <trkpt lat="47.86634" lon="1.77688">
        <ele>91</ele>
        <time>2018-09-16T06:21:04Z</time>
      </trkpt>
      <trkpt lat="47.86624" lon="1.77667">
        <ele>92</ele>
        <time>2018-09-16T06:21:09Z</time>
      </trkpt>
      <trkpt lat="47.86613" lon="1.77638">
        <ele>93</ele>
        <time>2018-09-16T06:21:15Z</time>
      </trkpt>
      <trkpt lat="47.86604" lon="1.7761">
        <ele>92</ele>
        <time>2018-09-16T06:21:20Z</time>
      </trkpt>
      <trkpt lat="47.86577" lon="1.77552">
        <ele>91</ele>
        <time>2018-09-16T06:21:29Z</time>
      </trkpt>
      <trkpt lat="47.86574" lon="1.77546">
        <ele>91</ele>
        <time>2018-09-16T06:21:30Z</time>
      </trkpt>
      <trkpt lat="47.86548" lon="1.77487">
        <ele>89</ele>
        <time>2018-09-16T06:21:38Z</time>
      </trkpt>
      <trkpt lat="47.86544" lon="1.77479">
        <ele>89</ele>
        <time>2018-09-16T06:21:39Z</time>
      </trkpt>
      <trkpt lat="47.86517" lon="1.77421">
        <ele>87</ele>
        <time>2018-09-16T06:21:48Z</time>
      </trkpt>
      <trkpt lat="47.86514" lon="1.77415">
        <ele>87</ele>
        <time>2018-09-16T06:21:49Z</time>
      </trkpt>
      <trkpt lat="47.86492" lon="1.77352">
        <ele>88</ele>
        <time>2018-09-16T06:21:58Z</time>
      </trkpt>
      <trkpt lat="47.8649" lon="1.77345">
        <ele>88</ele>
        <time>2018-09-16T06:21:59Z</time>
      </trkpt>
      <trkpt lat="47.86466" lon="1.77285">
        <ele>90</ele>
        <time>2018-09-16T06:22:09Z</time>
      </trkpt>
      <trkpt lat="47.86463" lon="1.77278">
        <ele>90</ele>
        <time>2018-09-16T06:22:10Z</time>
      </trkpt>
      <trkpt lat="47.86457" lon="1.77261">
        <ele>91</ele>
        <time>2018-09-16T06:22:13Z</time>
      </trkpt>
      <trkpt lat="47.8646" lon="1.77256">
        <ele>91</ele>
        <time>2018-09-16T06:22:15Z</time>
      </trkpt>
      <trkpt lat="47.86502" lon="1.77232">
        <ele>93</ele>
        <time>2018-09-16T06:22:26Z</time>
      </trkpt>
      <trkpt lat="47.86507" lon="1.77229">
        <ele>93</ele>
        <time>2018-09-16T06:22:27Z</time>
      </trkpt>
      <trkpt lat="47.8655" lon="1.77204">
        <ele>94</ele>
        <time>2018-09-16T06:22:37Z</time>
      </trkpt>
      <trkpt lat="47.86554" lon="1.77201">
        <ele>94</ele>
        <time>2018-09-16T06:22:38Z</time>
      </trkpt>
      <trkpt lat="47.86573" lon="1.7719">
        <ele>95</ele>
        <time>2018-09-16T06:22:43Z</time>
      </trkpt>
      <trkpt lat="47.86574" lon="1.77181">
        <ele>95</ele>
        <time>2018-09-16T06:22:45Z</time>
      </trkpt>
      <trkpt lat="47.86567" lon="1.77159">
        <ele>96</ele>
        <time>2018-09-16T06:22:49Z</time>
      </trkpt>
      <trkpt lat="47.86545" lon="1.77096">
        <ele>96</ele>
        <time>2018-09-16T06:22:58Z</time>
      </trkpt>
      <trkpt lat="47.86543" lon="1.77089">
        <ele>96</ele>
        <time>2018-09-16T06:22:59Z</time>
      </trkpt>
      <trkpt lat="47.86522" lon="1.77029">
        <ele>96</ele>
        <time>2018-09-16T06:23:07Z</time>
      </trkpt>
      <trkpt lat="47.86518" lon="1.77022">
        <ele>96</ele>
        <time>2018-09-16T06:23:08Z</time>
      </trkpt>
      <trkpt lat="47.86496" lon="1.76962">
        <ele>96</ele>
        <time>2018-09-16T06:23:16Z</time>
      </trkpt>
      <trkpt lat="47.86493" lon="1.76954">
        <ele>96</ele>
        <time>2018-09-16T06:23:17Z</time>
      </trkpt>
      <trkpt lat="47.86471" lon="1.76894">
        <ele>96</ele>
        <time>2018-09-16T06:23:26Z</time>
      </trkpt>
      <trkpt lat="47.86469" lon="1.76892">
        <ele>96</ele>
        <time>2018-09-16T06:23:27Z</time>
      </trkpt>
      <trkpt lat="47.86467" lon="1.76891">
        <ele>96</ele>
        <time>2018-09-16T06:23:28Z</time>
      </trkpt>
      <trkpt lat="47.86459" lon="1.76897">
        <ele>95</ele>
        <time>2018-09-16T06:23:30Z</time>
      </trkpt>
      <trkpt lat="47.8642" lon="1.76938">
        <ele>94</ele>
        <time>2018-09-16T06:23:37Z</time>
      </trkpt>
      <trkpt lat="47.86415" lon="1.76944">
        <ele>94</ele>
        <time>2018-09-16T06:23:38Z</time>
      </trkpt>
      <trkpt lat="47.86375" lon="1.76986">
        <ele>94</ele>
        <time>2018-09-16T06:23:47Z</time>
      </trkpt>
      <trkpt lat="47.86372" lon="1.76989">
        <ele>95</ele>
        <time>2018-09-16T06:23:48Z</time>
      </trkpt>
      <trkpt lat="47.86371" lon="1.76993">
        <ele>94</ele>
        <time>2018-09-16T06:23:49Z</time>
      </trkpt>
      <trkpt lat="47.86364" lon="1.76993">
        <ele>93</ele>
        <time>2018-09-16T06:23:52Z</time>
      </trkpt>
      <trkpt lat="47.86339" lon="1.76933">
        <ele>92</ele>
        <time>2018-09-16T06:24:01Z</time>
      </trkpt>
      <trkpt lat="47.86336" lon="1.76925">
        <ele>91</ele>
        <time>2018-09-16T06:24:02Z</time>
      </trkpt>
      <trkpt lat="47.8631" lon="1.76862">
        <ele>91</ele>
        <time>2018-09-16T06:24:10Z</time>
      </trkpt>
      <trkpt lat="47.86308" lon="1.76854">
        <ele>91</ele>
        <time>2018-09-16T06:24:11Z</time>
      </trkpt>
      <trkpt lat="47.86285" lon="1.76796">
        <ele>92</ele>
        <time>2018-09-16T06:24:19Z</time>
      </trkpt>
      <trkpt lat="47.86282" lon="1.76789">
        <ele>92</ele>
        <time>2018-09-16T06:24:20Z</time>
      </trkpt>
      <trkpt lat="47.86255" lon="1.76728">
        <ele>93</ele>
        <time>2018-09-16T06:24:29Z</time>
      </trkpt>
      <trkpt lat="47.86252" lon="1.76721">
        <ele>93</ele>
        <time>2018-09-16T06:24:30Z</time>
      </trkpt>
      <trkpt lat="47.86225" lon="1.76664">
        <ele>91</ele>
        <time>2018-09-16T06:24:38Z</time>
      </trkpt>
      <trkpt lat="47.8622" lon="1.76657">
        <ele>90</ele>
        <time>2018-09-16T06:24:39Z</time>
      </trkpt>
      <trkpt lat="47.86197" lon="1.76618">
        <ele>87</ele>
        <time>2018-09-16T06:24:44Z</time>
      </trkpt>
      <trkpt lat="47.86163" lon="1.76559">
        <ele>85</ele>
        <time>2018-09-16T06:24:51Z</time>
      </trkpt>
      <trkpt lat="47.8616" lon="1.76551">
        <ele>85</ele>
        <time>2018-09-16T06:24:52Z</time>
      </trkpt>
      <trkpt lat="47.86137" lon="1.76493">
        <ele>84</ele>
        <time>2018-09-16T06:24:59Z</time>
      </trkpt>
      <trkpt lat="47.86134" lon="1.76484">
        <ele>84</ele>
        <time>2018-09-16T06:25:00Z</time>
      </trkpt>
      <trkpt lat="47.86128" lon="1.76457">
        <ele>85</ele>
        <time>2018-09-16T06:25:03Z</time>
      </trkpt>
      <trkpt lat="47.86122" lon="1.76425">
        <ele>85</ele>
        <time>2018-09-16T06:25:07Z</time>
      </trkpt>
      <trkpt lat="47.86113" lon="1.76384">
        <ele>85</ele>
        <time>2018-09-16T06:25:12Z</time>
      </trkpt>
      <trkpt lat="47.86104" lon="1.76352">
        <ele>86</ele>
        <time>2018-09-16T06:25:17Z</time>
      </trkpt>
      <trkpt lat="47.86101" lon="1.7636">
        <ele>85</ele>
        <time>2018-09-16T06:25:21Z</time>
      </trkpt>
      <trkpt lat="47.86104" lon="1.76384">
        <ele>84</ele>
        <time>2018-09-16T06:25:25Z</time>
      </trkpt>
      <trkpt lat="47.86111" lon="1.76429">
        <ele>83</ele>
        <time>2018-09-16T06:25:32Z</time>
      </trkpt>
      <trkpt lat="47.86106" lon="1.76434">
        <ele>83</ele>
        <time>2018-09-16T06:25:34Z</time>
      </trkpt>
      <trkpt lat="47.861" lon="1.76432">
        <ele>83</ele>
        <time>2018-09-16T06:25:36Z</time>
      </trkpt>
      <trkpt lat="47.86097" lon="1.76424">
        <ele>83</ele>
        <time>2018-09-16T06:25:38Z</time>
      </trkpt>
      <trkpt lat="47.86081" lon="1.76384">
        <ele>82</ele>
        <time>2018-09-16T06:25:44Z</time>
      </trkpt>
      <trkpt lat="47.86046" lon="1.76331">
        <ele>83</ele>
        <time>2018-09-16T06:25:52Z</time>
      </trkpt>
      <trkpt lat="47.86042" lon="1.76324">
        <ele>83</ele>
        <time>2018-09-16T06:25:53Z</time>
      </trkpt>
      <trkpt lat="47.86012" lon="1.76281">
        <ele>81</ele>
        <time>2018-09-16T06:26:00Z</time>
      </trkpt>
      <trkpt lat="47.86007" lon="1.76276">
        <ele>81</ele>
        <time>2018-09-16T06:26:01Z</time>
      </trkpt>
      <trkpt lat="47.85995" lon="1.7626">
        <ele>80</ele>
        <time>2018-09-16T06:26:06Z</time>
      </trkpt>
      <trkpt lat="47.85992" lon="1.76247">
        <ele>81</ele>
        <time>2018-09-16T06:26:12Z</time>
      </trkpt>
      <trkpt lat="47.85971" lon="1.76221">
        <ele>81</ele>
        <time>2018-09-16T06:26:18Z</time>
      </trkpt>
      <trkpt lat="47.85957" lon="1.76194">
        <ele>81</ele>
        <time>2018-09-16T06:26:22Z</time>
      </trkpt>
      <trkpt lat="47.85939" lon="1.76152">
        <ele>83</ele>
        <time>2018-09-16T06:26:28Z</time>
      </trkpt>
      <trkpt lat="47.85914" lon="1.76109">
        <ele>84</ele>
        <time>2018-09-16T06:26:35Z</time>
      </trkpt>
      <trkpt lat="47.859" lon="1.76099">
        <ele>84</ele>
        <time>2018-09-16T06:26:38Z</time>
      </trkpt>
      <trkpt lat="47.85873" lon="1.7608">
        <ele>86</ele>
        <time>2018-09-16T06:26:44Z</time>
      </trkpt>
      <trkpt lat="47.85838" lon="1.76034">
        <ele>88</ele>
        <time>2018-09-16T06:26:53Z</time>
      </trkpt>
      <trkpt lat="47.85834" lon="1.76029">
        <ele>88</ele>
        <time>2018-09-16T06:26:54Z</time>
      </trkpt>
      <trkpt lat="47.85807" lon="1.75986">
        <ele>87</ele>
        <time>2018-09-16T06:27:01Z</time>
      </trkpt>
      <trkpt lat="47.85802" lon="1.75979">
        <ele>87</ele>
        <time>2018-09-16T06:27:02Z</time>
      </trkpt>
      <trkpt lat="47.85767" lon="1.75931">
        <ele>86</ele>
        <time>2018-09-16T06:27:10Z</time>
      </trkpt>
      <trkpt lat="47.85763" lon="1.75924">
        <ele>86</ele>
        <time>2018-09-16T06:27:11Z</time>
      </trkpt>
      <trkpt lat="47.8576" lon="1.75916">
        <ele>86</ele>
        <time>2018-09-16T06:27:12Z</time>
      </trkpt>
      <trkpt lat="47.85736" lon="1.75877">
        <ele>85</ele>
        <time>2018-09-16T06:27:18Z</time>
      </trkpt>
      <trkpt lat="47.85725" lon="1.75856">
        <ele>85</ele>
        <time>2018-09-16T06:27:21Z</time>
      </trkpt>
      <trkpt lat="47.85695" lon="1.75806">
        <ele>84</ele>
        <time>2018-09-16T06:27:29Z</time>
      </trkpt>
      <trkpt lat="47.85691" lon="1.758">
        <ele>85</ele>
        <time>2018-09-16T06:27:30Z</time>
      </trkpt>
      <trkpt lat="47.85664" lon="1.75743">
        <ele>86</ele>
        <time>2018-09-16T06:27:38Z</time>
      </trkpt>
      <trkpt lat="47.8566" lon="1.75734">
        <ele>86</ele>
        <time>2018-09-16T06:27:39Z</time>
      </trkpt>
      <trkpt lat="47.85635" lon="1.75677">
        <ele>85</ele>
        <time>2018-09-16T06:27:46Z</time>
      </trkpt>
      <trkpt lat="47.85632" lon="1.75668">
        <ele>84</ele>
        <time>2018-09-16T06:27:47Z</time>
      </trkpt>
      <trkpt lat="47.85609" lon="1.75602">
        <ele>83</ele>
        <time>2018-09-16T06:27:55Z</time>
      </trkpt>
      <trkpt lat="47.85606" lon="1.75595">
        <ele>83</ele>
        <time>2018-09-16T06:27:56Z</time>
      </trkpt>
      <trkpt lat="47.85602" lon="1.75578">
        <ele>83</ele>
        <time>2018-09-16T06:27:58Z</time>
      </trkpt>
      <trkpt lat="47.85602" lon="1.75561">
        <ele>83</ele>
        <time>2018-09-16T06:28:00Z</time>
      </trkpt>
      <trkpt lat="47.85606" lon="1.75547">
        <ele>82</ele>
        <time>2018-09-16T06:28:02Z</time>
      </trkpt>
      <trkpt lat="47.85613" lon="1.75537">
        <ele>82</ele>
        <time>2018-09-16T06:28:04Z</time>
      </trkpt>
      <trkpt lat="47.85626" lon="1.75528">
        <ele>83</ele>
        <time>2018-09-16T06:28:07Z</time>
      </trkpt>
      <trkpt lat="47.8563" lon="1.75517">
        <ele>83</ele>
        <time>2018-09-16T06:28:09Z</time>
      </trkpt>
      <trkpt lat="47.85627" lon="1.75508">
        <ele>84</ele>
        <time>2018-09-16T06:28:11Z</time>
      </trkpt>
      <trkpt lat="47.85592" lon="1.75454">
        <ele>84</ele>
        <time>2018-09-16T06:28:21Z</time>
      </trkpt>
      <trkpt lat="47.85588" lon="1.75447">
        <ele>84</ele>
        <time>2018-09-16T06:28:22Z</time>
      </trkpt>
      <trkpt lat="47.85556" lon="1.75392">
        <ele>83</ele>
        <time>2018-09-16T06:28:30Z</time>
      </trkpt>
      <trkpt lat="47.85552" lon="1.75384">
        <ele>83</ele>
        <time>2018-09-16T06:28:31Z</time>
      </trkpt>
      <trkpt lat="47.85527" lon="1.75339">
        <ele>82</ele>
        <time>2018-09-16T06:28:38Z</time>
      </trkpt>
      <trkpt lat="47.85512" lon="1.75313">
        <ele>82</ele>
        <time>2018-09-16T06:28:42Z</time>
      </trkpt>
      <trkpt lat="47.85487" lon="1.75251">
        <ele>82</ele>
        <time>2018-09-16T06:28:50Z</time>
      </trkpt>
      <trkpt lat="47.85484" lon="1.75243">
        <ele>82</ele>
        <time>2018-09-16T06:28:51Z</time>
      </trkpt>
      <trkpt lat="47.85477" lon="1.75219">
        <ele>82</ele>
        <time>2018-09-16T06:28:54Z</time>
      </trkpt>
      <trkpt lat="47.85474" lon="1.75187">
        <ele>82</ele>
        <time>2018-09-16T06:28:58Z</time>
      </trkpt>
      <trkpt lat="47.85474" lon="1.75176">
        <ele>82</ele>
        <time>2018-09-16T06:29:00Z</time>
      </trkpt>
      <trkpt lat="47.85474" lon="1.75163">
        <ele>82</ele>
        <time>2018-09-16T06:29:04Z</time>
      </trkpt>
      <trkpt lat="47.85469" lon="1.75158">
        <ele>82</ele>
        <time>2018-09-16T06:29:08Z</time>
      </trkpt>
      <trkpt lat="47.85452" lon="1.75155">
        <ele>81</ele>
        <time>2018-09-16T06:29:12Z</time>
      </trkpt>
      <trkpt lat="47.85443" lon="1.75146">
        <ele>81</ele>
        <time>2018-09-16T06:29:14Z</time>
      </trkpt>
      <trkpt lat="47.85435" lon="1.75135">
        <ele>80</ele>
        <time>2018-09-16T06:29:16Z</time>
      </trkpt>
      <trkpt lat="47.85415" lon="1.75092">
        <ele>80</ele>
        <time>2018-09-16T06:29:22Z</time>
      </trkpt>
      <trkpt lat="47.85391" lon="1.75032">
        <ele>80</ele>
        <time>2018-09-16T06:29:30Z</time>
      </trkpt>
      <trkpt lat="47.85387" lon="1.75025">
        <ele>80</ele>
        <time>2018-09-16T06:29:31Z</time>
      </trkpt>
      <trkpt lat="47.85363" lon="1.74963">
        <ele>80</ele>
        <time>2018-09-16T06:29:39Z</time>
      </trkpt>
      <trkpt lat="47.8536" lon="1.74955">
        <ele>80</ele>
        <time>2018-09-16T06:29:40Z</time>
      </trkpt>
      <trkpt lat="47.85334" lon="1.74897">
        <ele>81</ele>
        <time>2018-09-16T06:29:48Z</time>
      </trkpt>
      <trkpt lat="47.85329" lon="1.7489">
        <ele>81</ele>
        <time>2018-09-16T06:29:49Z</time>
      </trkpt>
      <trkpt lat="47.85298" lon="1.74836">
        <ele>80</ele>
        <time>2018-09-16T06:29:57Z</time>
      </trkpt>
      <trkpt lat="47.85294" lon="1.74829">
        <ele>80</ele>
        <time>2018-09-16T06:29:58Z</time>
      </trkpt>
      <trkpt lat="47.8526" lon="1.74777">
        <ele>80</ele>
        <time>2018-09-16T06:30:06Z</time>
      </trkpt>
      <trkpt lat="47.85256" lon="1.74771">
        <ele>80</ele>
        <time>2018-09-16T06:30:07Z</time>
      </trkpt>
      <trkpt lat="47.85224" lon="1.74714">
        <ele>81</ele>
        <time>2018-09-16T06:30:15Z</time>
      </trkpt>
      <trkpt lat="47.8522" lon="1.74706">
        <ele>82</ele>
        <time>2018-09-16T06:30:16Z</time>
      </trkpt>
      <trkpt lat="47.85192" lon="1.74643">
        <ele>82</ele>
        <time>2018-09-16T06:30:24Z</time>
      </trkpt>
      <trkpt lat="47.85189" lon="1.74635">
        <ele>82</ele>
        <time>2018-09-16T06:30:25Z</time>
      </trkpt>
      <trkpt lat="47.85163" lon="1.7457">
        <ele>81</ele>
        <time>2018-09-16T06:30:33Z</time>
      </trkpt>
      <trkpt lat="47.8516" lon="1.74562">
        <ele>81</ele>
        <time>2018-09-16T06:30:34Z</time>
      </trkpt>
      <trkpt lat="47.85136" lon="1.74496">
        <ele>80</ele>
        <time>2018-09-16T06:30:42Z</time>
      </trkpt>
      <trkpt lat="47.85133" lon="1.74487">
        <ele>80</ele>
        <time>2018-09-16T06:30:43Z</time>
      </trkpt>
      <trkpt lat="47.85115" lon="1.74439">
        <ele>79</ele>
        <time>2018-09-16T06:30:49Z</time>
      </trkpt>
      <trkpt lat="47.8509" lon="1.74374">
        <ele>79</ele>
        <time>2018-09-16T06:30:57Z</time>
      </trkpt>
      <trkpt lat="47.85087" lon="1.74367">
        <ele>79</ele>
        <time>2018-09-16T06:30:58Z</time>
      </trkpt>
      <trkpt lat="47.85065" lon="1.74304">
        <ele>80</ele>
        <time>2018-09-16T06:31:06Z</time>
      </trkpt>
      <trkpt lat="47.85062" lon="1.74296">
        <ele>80</ele>
        <time>2018-09-16T06:31:07Z</time>
      </trkpt>
      <trkpt lat="47.8504" lon="1.74232">
        <ele>82</ele>
        <time>2018-09-16T06:31:16Z</time>
      </trkpt>
      <trkpt lat="47.85038" lon="1.74224">
        <ele>82</ele>
        <time>2018-09-16T06:31:17Z</time>
      </trkpt>
      <trkpt lat="47.85023" lon="1.74153">
        <ele>81</ele>
        <time>2018-09-16T06:31:26Z</time>
      </trkpt>
      <trkpt lat="47.85021" lon="1.74145">
        <ele>81</ele>
        <time>2018-09-16T06:31:27Z</time>
      </trkpt>
      <trkpt lat="47.85015" lon="1.7413">
        <ele>82</ele>
        <time>2018-09-16T06:31:29Z</time>
      </trkpt>
      <trkpt lat="47.85009" lon="1.74113">
        <ele>82</ele>
        <time>2018-09-16T06:31:31Z</time>
      </trkpt>
      <trkpt lat="47.84992" lon="1.74048">
        <ele>83</ele>
        <time>2018-09-16T06:31:39Z</time>
      </trkpt>
      <trkpt lat="47.8499" lon="1.74039">
        <ele>83</ele>
        <time>2018-09-16T06:31:40Z</time>
      </trkpt>
      <trkpt lat="47.84974" lon="1.7397">
        <ele>83</ele>
        <time>2018-09-16T06:31:48Z</time>
      </trkpt>
      <trkpt lat="47.84972" lon="1.73962">
        <ele>83</ele>
        <time>2018-09-16T06:31:49Z</time>
      </trkpt>
      <trkpt lat="47.84956" lon="1.73893">
        <ele>84</ele>
        <time>2018-09-16T06:31:57Z</time>
      </trkpt>
      <trkpt lat="47.84954" lon="1.73884">
        <ele>84</ele>
        <time>2018-09-16T06:31:58Z</time>
      </trkpt>
      <trkpt lat="47.84938" lon="1.73827">
        <ele>84</ele>
        <time>2018-09-16T06:32:05Z</time>
      </trkpt>
      <trkpt lat="47.84935" lon="1.73819">
        <ele>84</ele>
        <time>2018-09-16T06:32:06Z</time>
      </trkpt>
      <trkpt lat="47.84927" lon="1.73778">
        <ele>84</ele>
        <time>2018-09-16T06:32:11Z</time>
      </trkpt>
      <trkpt lat="47.84912" lon="1.73711">
        <ele>83</ele>
        <time>2018-09-16T06:32:19Z</time>
      </trkpt>
      <trkpt lat="47.8491" lon="1.73702">
        <ele>83</ele>
        <time>2018-09-16T06:32:20Z</time>
      </trkpt>
      <trkpt lat="47.84904" lon="1.73687">
        <ele>83</ele>
        <time>2018-09-16T06:32:22Z</time>
      </trkpt>
      <trkpt lat="47.84897" lon="1.73658">
        <ele>81</ele>
        <time>2018-09-16T06:32:25Z</time>
      </trkpt>
      <trkpt lat="47.84894" lon="1.73623">
        <ele>81</ele>
        <time>2018-09-16T06:32:29Z</time>
      </trkpt>
      <trkpt lat="47.84903" lon="1.73592">
        <ele>82</ele>
        <time>2018-09-16T06:32:33Z</time>
      </trkpt>
      <trkpt lat="47.84912" lon="1.73586">
        <ele>82</ele>
        <time>2018-09-16T06:32:35Z</time>
      </trkpt>
      <trkpt lat="47.84923" lon="1.73587">
        <ele>82</ele>
        <time>2018-09-16T06:32:37Z</time>
      </trkpt>
      <trkpt lat="47.84955" lon="1.73601">
        <ele>83</ele>
        <time>2018-09-16T06:32:43Z</time>
      </trkpt>
      <trkpt lat="47.84967" lon="1.73591">
        <ele>83</ele>
        <time>2018-09-16T06:32:46Z</time>
      </trkpt>
      <trkpt lat="47.84968" lon="1.73581">
        <ele>83</ele>
        <time>2018-09-16T06:32:48Z</time>
      </trkpt>
      <trkpt lat="47.84966" lon="1.7357">
        <ele>83</ele>
        <time>2018-09-16T06:32:50Z</time>
      </trkpt>
      <trkpt lat="47.84958" lon="1.73532">
        <ele>85</ele>
        <time>2018-09-16T06:32:58Z</time>
      </trkpt>
      <trkpt lat="47.84938" lon="1.73501">
        <ele>87</ele>
        <time>2018-09-16T06:33:05Z</time>
      </trkpt>
      <trkpt lat="47.8491" lon="1.7346">
        <ele>88</ele>
        <time>2018-09-16T06:33:14Z</time>
      </trkpt>
      <trkpt lat="47.84882" lon="1.73405">
        <ele>87</ele>
        <time>2018-09-16T06:33:25Z</time>
      </trkpt>
      <trkpt lat="47.8488" lon="1.734">
        <ele>87</ele>
        <time>2018-09-16T06:33:26Z</time>
      </trkpt>
      <trkpt lat="47.84846" lon="1.73352">
        <ele>86</ele>
        <time>2018-09-16T06:33:34Z</time>
      </trkpt>
      <trkpt lat="47.84842" lon="1.73346">
        <ele>86</ele>
        <time>2018-09-16T06:33:35Z</time>
      </trkpt>
      <trkpt lat="47.84809" lon="1.73294">
        <ele>85</ele>
        <time>2018-09-16T06:33:42Z</time>
      </trkpt>
      <trkpt lat="47.84805" lon="1.73287">
        <ele>85</ele>
        <time>2018-09-16T06:33:43Z</time>
      </trkpt>
      <trkpt lat="47.84772" lon="1.73231">
        <ele>86</ele>
        <time>2018-09-16T06:33:51Z</time>
      </trkpt>
      <trkpt lat="47.84769" lon="1.73225">
        <ele>86</ele>
        <time>2018-09-16T06:33:52Z</time>
      </trkpt>
      <trkpt lat="47.84739" lon="1.73174">
        <ele>87</ele>
        <time>2018-09-16T06:34:00Z</time>
      </trkpt>
      <trkpt lat="47.84735" lon="1.73168">
        <ele>87</ele>
        <time>2018-09-16T06:34:01Z</time>
      </trkpt>
      <trkpt lat="47.84701" lon="1.73116">
        <ele>87</ele>
        <time>2018-09-16T06:34:10Z</time>
      </trkpt>
      <trkpt lat="47.84697" lon="1.73108">
        <ele>87</ele>
        <time>2018-09-16T06:34:11Z</time>
      </trkpt>
      <trkpt lat="47.84666" lon="1.73055">
        <ele>86</ele>
        <time>2018-09-16T06:34:18Z</time>
      </trkpt>
      <trkpt lat="47.84661" lon="1.73046">
        <ele>85</ele>
        <time>2018-09-16T06:34:19Z</time>
      </trkpt>
      <trkpt lat="47.8463" lon="1.72985">
        <ele>85</ele>
        <time>2018-09-16T06:34:26Z</time>
      </trkpt>
      <trkpt lat="47.84624" lon="1.72977">
        <ele>85</ele>
        <time>2018-09-16T06:34:27Z</time>
      </trkpt>
      <trkpt lat="47.84589" lon="1.72919">
        <ele>84</ele>
        <time>2018-09-16T06:34:34Z</time>
      </trkpt>
      <trkpt lat="47.84584" lon="1.72912">
        <ele>84</ele>
        <time>2018-09-16T06:34:35Z</time>
      </trkpt>
      <trkpt lat="47.84548" lon="1.72857">
        <ele>83</ele>
        <time>2018-09-16T06:34:43Z</time>
      </trkpt>
      <trkpt lat="47.84543" lon="1.72851">
        <ele>83</ele>
        <time>2018-09-16T06:34:44Z</time>
      </trkpt>
      <trkpt lat="47.84538" lon="1.72845">
        <ele>83</ele>
        <time>2018-09-16T06:34:45Z</time>
      </trkpt>
      <trkpt lat="47.84504" lon="1.728">
        <ele>86</ele>
        <time>2018-09-16T06:34:55Z</time>
      </trkpt>
      <trkpt lat="47.84504" lon="1.72798">
        <ele>86</ele>
        <time>2018-09-16T06:34:56Z</time>
      </trkpt>
      <trkpt lat="47.84498" lon="1.72798">
        <ele>86</ele>
        <time>2018-09-16T06:35:02Z</time>
      </trkpt>
      <trkpt lat="47.84484" lon="1.72783">
        <ele>85</ele>
        <time>2018-09-16T06:35:07Z</time>
      </trkpt>
      <trkpt lat="47.84455" lon="1.72727">
        <ele>86</ele>
        <time>2018-09-16T06:35:17Z</time>
      </trkpt>
      <trkpt lat="47.84453" lon="1.72721">
        <ele>86</ele>
        <time>2018-09-16T06:35:18Z</time>
      </trkpt>
      <trkpt lat="47.84447" lon="1.7271">
        <ele>86</ele>
        <time>2018-09-16T06:35:20Z</time>
      </trkpt>
      <trkpt lat="47.84412" lon="1.72664">
        <ele>86</ele>
        <time>2018-09-16T06:35:28Z</time>
      </trkpt>
      <trkpt lat="47.84407" lon="1.72658">
        <ele>86</ele>
        <time>2018-09-16T06:35:29Z</time>
      </trkpt>
      <trkpt lat="47.8437" lon="1.72613">
        <ele>84</ele>
        <time>2018-09-16T06:35:36Z</time>
      </trkpt>
      <trkpt lat="47.84364" lon="1.72607">
        <ele>84</ele>
        <time>2018-09-16T06:35:37Z</time>
      </trkpt>
      <trkpt lat="47.8434" lon="1.72572">
        <ele>84</ele>
        <time>2018-09-16T06:35:43Z</time>
      </trkpt>
      <trkpt lat="47.8433" lon="1.72555">
        <ele>85</ele>
        <time>2018-09-16T06:35:46Z</time>
      </trkpt>
      <trkpt lat="47.84298" lon="1.72502">
        <ele>84</ele>
        <time>2018-09-16T06:35:56Z</time>
      </trkpt>
      <trkpt lat="47.84295" lon="1.72497">
        <ele>84</ele>
        <time>2018-09-16T06:35:57Z</time>
      </trkpt>
      <trkpt lat="47.84293" lon="1.72492">
        <ele>84</ele>
        <time>2018-09-16T06:35:58Z</time>
      </trkpt>
      <trkpt lat="47.84267" lon="1.72443">
        <ele>84</ele>
        <time>2018-09-16T06:36:06Z</time>
      </trkpt>
      <trkpt lat="47.84263" lon="1.72438">
        <ele>84</ele>
        <time>2018-09-16T06:36:07Z</time>
      </trkpt>
      <trkpt lat="47.84256" lon="1.72426">
        <ele>84</ele>
        <time>2018-09-16T06:36:09Z</time>
      </trkpt>
      <trkpt lat="47.84249" lon="1.72417">
        <ele>84</ele>
        <time>2018-09-16T06:36:11Z</time>
      </trkpt>
      <trkpt lat="47.84206" lon="1.72375">
        <ele>84</ele>
        <time>2018-09-16T06:36:20Z</time>
      </trkpt>
      <trkpt lat="47.84201" lon="1.7237">
        <ele>84</ele>
        <time>2018-09-16T06:36:21Z</time>
      </trkpt>
      <trkpt lat="47.84178" lon="1.72346">
        <ele>85</ele>
        <time>2018-09-16T06:36:26Z</time>
      </trkpt>
      <trkpt lat="47.84158" lon="1.7232">
        <ele>86</ele>
        <time>2018-09-16T06:36:32Z</time>
      </trkpt>
      <trkpt lat="47.84118" lon="1.72274">
        <ele>86</ele>
        <time>2018-09-16T06:36:42Z</time>
      </trkpt>
      <trkpt lat="47.84113" lon="1.72269">
        <ele>86</ele>
        <time>2018-09-16T06:36:43Z</time>
      </trkpt>
      <trkpt lat="47.84076" lon="1.72217">
        <ele>87</ele>
        <time>2018-09-16T06:36:51Z</time>
      </trkpt>
      <trkpt lat="47.8407" lon="1.7221">
        <ele>87</ele>
        <time>2018-09-16T06:36:52Z</time>
      </trkpt>
      <trkpt lat="47.84033" lon="1.72158">
        <ele>87</ele>
        <time>2018-09-16T06:36:59Z</time>
      </trkpt>
      <trkpt lat="47.84027" lon="1.72151">
        <ele>87</ele>
        <time>2018-09-16T06:37:00Z</time>
      </trkpt>
      <trkpt lat="47.83994" lon="1.72099">
        <ele>87</ele>
        <time>2018-09-16T06:37:07Z</time>
      </trkpt>
      <trkpt lat="47.8399" lon="1.72091">
        <ele>87</ele>
        <time>2018-09-16T06:37:08Z</time>
      </trkpt>
      <trkpt lat="47.8396" lon="1.72038">
        <ele>85</ele>
        <time>2018-09-16T06:37:15Z</time>
      </trkpt>
      <trkpt lat="47.83956" lon="1.7203">
        <ele>85</ele>
        <time>2018-09-16T06:37:16Z</time>
      </trkpt>
      <trkpt lat="47.83923" lon="1.71972">
        <ele>85</ele>
        <time>2018-09-16T06:37:24Z</time>
      </trkpt>
      <trkpt lat="47.83919" lon="1.71965">
        <ele>84</ele>
        <time>2018-09-16T06:37:25Z</time>
      </trkpt>
      <trkpt lat="47.83886" lon="1.71908">
        <ele>84</ele>
        <time>2018-09-16T06:37:33Z</time>
      </trkpt>
      <trkpt lat="47.83882" lon="1.719">
        <ele>84</ele>
        <time>2018-09-16T06:37:34Z</time>
      </trkpt>
      <trkpt lat="47.83849" lon="1.71848">
        <ele>83</ele>
        <time>2018-09-16T06:37:42Z</time>
      </trkpt>
      <trkpt lat="47.83846" lon="1.71843">
        <ele>83</ele>
        <time>2018-09-16T06:37:43Z</time>
      </trkpt>
      <trkpt lat="47.83809" lon="1.71792">
        <ele>83</ele>
        <time>2018-09-16T06:37:52Z</time>
      </trkpt>
      <trkpt lat="47.83804" lon="1.71787">
        <ele>83</ele>
        <time>2018-09-16T06:37:53Z</time>
      </trkpt>
      <trkpt lat="47.83799" lon="1.71775">
        <ele>83</ele>
        <time>2018-09-16T06:37:55Z</time>
      </trkpt>
      <trkpt lat="47.83793" lon="1.71765">
        <ele>83</ele>
        <time>2018-09-16T06:37:57Z</time>
      </trkpt>
      <trkpt lat="47.83784" lon="1.7176">
        <ele>83</ele>
        <time>2018-09-16T06:37:59Z</time>
      </trkpt>
      <trkpt lat="47.83751" lon="1.71706">
        <ele>82</ele>
        <time>2018-09-16T06:38:08Z</time>
      </trkpt>
      <trkpt lat="47.83747" lon="1.71701">
        <ele>83</ele>
        <time>2018-09-16T06:38:09Z</time>
      </trkpt>
      <trkpt lat="47.83712" lon="1.71651">
        <ele>84</ele>
        <time>2018-09-16T06:38:18Z</time>
      </trkpt>
      <trkpt lat="47.83708" lon="1.71645">
        <ele>84</ele>
        <time>2018-09-16T06:38:19Z</time>
      </trkpt>
      <trkpt lat="47.83693" lon="1.71617">
        <ele>85</ele>
        <time>2018-09-16T06:38:24Z</time>
      </trkpt>
      <trkpt lat="47.83663" lon="1.71562">
        <ele>86</ele>
        <time>2018-09-16T06:38:35Z</time>
      </trkpt>
      <trkpt lat="47.83659" lon="1.71557">
        <ele>86</ele>
        <time>2018-09-16T06:38:36Z</time>
      </trkpt>
      <trkpt lat="47.83624" lon="1.7151">
        <ele>86</ele>
        <time>2018-09-16T06:38:46Z</time>
      </trkpt>
      <trkpt lat="47.83621" lon="1.71505">
        <ele>87</ele>
        <time>2018-09-16T06:38:47Z</time>
      </trkpt>
      <trkpt lat="47.836" lon="1.71473">
        <ele>87</ele>
        <time>2018-09-16T06:38:53Z</time>
      </trkpt>
      <trkpt lat="47.83569" lon="1.71424">
        <ele>86</ele>
        <time>2018-09-16T06:39:01Z</time>
      </trkpt>
      <trkpt lat="47.83564" lon="1.71418">
        <ele>86</ele>
        <time>2018-09-16T06:39:02Z</time>
      </trkpt>
      <trkpt lat="47.8353" lon="1.71373">
        <ele>86</ele>
        <time>2018-09-16T06:39:10Z</time>
      </trkpt>
      <trkpt lat="47.83526" lon="1.71367">
        <ele>86</ele>
        <time>2018-09-16T06:39:11Z</time>
      </trkpt>
      <trkpt lat="47.83493" lon="1.71314">
        <ele>87</ele>
        <time>2018-09-16T06:39:20Z</time>
      </trkpt>
      <trkpt lat="47.83489" lon="1.71308">
        <ele>86</ele>
        <time>2018-09-16T06:39:21Z</time>
      </trkpt>
      <trkpt lat="47.83455" lon="1.71258">
        <ele>87</ele>
        <time>2018-09-16T06:39:29Z</time>
      </trkpt>
      <trkpt lat="47.83452" lon="1.71251">
        <ele>87</ele>
        <time>2018-09-16T06:39:30Z</time>
      </trkpt>
      <trkpt lat="47.83429" lon="1.7121">
        <ele>87</ele>
        <time>2018-09-16T06:39:37Z</time>
      </trkpt>
      <trkpt lat="47.83391" lon="1.71161">
        <ele>86</ele>
        <time>2018-09-16T06:39:47Z</time>
      </trkpt>
      <trkpt lat="47.83386" lon="1.71157">
        <ele>86</ele>
        <time>2018-09-16T06:39:48Z</time>
      </trkpt>
      <trkpt lat="47.83347" lon="1.71107">
        <ele>84</ele>
        <time>2018-09-16T06:39:56Z</time>
      </trkpt>
      <trkpt lat="47.83342" lon="1.71099">
        <ele>84</ele>
        <time>2018-09-16T06:39:57Z</time>
      </trkpt>
      <trkpt lat="47.83326" lon="1.71077">
        <ele>84</ele>
        <time>2018-09-16T06:40:00Z</time>
      </trkpt>
      <trkpt lat="47.83293" lon="1.71029">
        <ele>84</ele>
        <time>2018-09-16T06:40:07Z</time>
      </trkpt>
      <trkpt lat="47.83289" lon="1.71022">
        <ele>84</ele>
        <time>2018-09-16T06:40:08Z</time>
      </trkpt>
      <trkpt lat="47.83254" lon="1.70971">
        <ele>84</ele>
        <time>2018-09-16T06:40:16Z</time>
      </trkpt>
      <trkpt lat="47.83251" lon="1.70965">
        <ele>85</ele>
        <time>2018-09-16T06:40:17Z</time>
      </trkpt>
      <trkpt lat="47.83215" lon="1.70916">
        <ele>87</ele>
        <time>2018-09-16T06:40:27Z</time>
      </trkpt>
      <trkpt lat="47.83211" lon="1.70913">
        <ele>88</ele>
        <time>2018-09-16T06:40:28Z</time>
      </trkpt>
      <trkpt lat="47.83204" lon="1.70906">
        <ele>88</ele>
        <time>2018-09-16T06:40:30Z</time>
      </trkpt>
      <trkpt lat="47.83163" lon="1.70861">
        <ele>88</ele>
        <time>2018-09-16T06:40:40Z</time>
      </trkpt>
      <trkpt lat="47.83158" lon="1.70857">
        <ele>87</ele>
        <time>2018-09-16T06:40:41Z</time>
      </trkpt>
      <trkpt lat="47.83121" lon="1.70807">
        <ele>87</ele>
        <time>2018-09-16T06:40:51Z</time>
      </trkpt>
      <trkpt lat="47.83117" lon="1.70801">
        <ele>87</ele>
        <time>2018-09-16T06:40:52Z</time>
      </trkpt>
      <trkpt lat="47.83076" lon="1.70759">
        <ele>85</ele>
        <time>2018-09-16T06:41:00Z</time>
      </trkpt>
      <trkpt lat="47.83071" lon="1.70755">
        <ele>85</ele>
        <time>2018-09-16T06:41:01Z</time>
      </trkpt>
      <trkpt lat="47.83031" lon="1.70717">
        <ele>86</ele>
        <time>2018-09-16T06:41:10Z</time>
      </trkpt>
      <trkpt lat="47.83028" lon="1.70712">
        <ele>86</ele>
        <time>2018-09-16T06:41:11Z</time>
      </trkpt>
      <trkpt lat="47.8302" lon="1.707">
        <ele>87</ele>
        <time>2018-09-16T06:41:14Z</time>
      </trkpt>
      <trkpt lat="47.83007" lon="1.70689">
        <ele>87</ele>
        <time>2018-09-16T06:41:17Z</time>
      </trkpt>
      <trkpt lat="47.8297" lon="1.70642">
        <ele>89</ele>
        <time>2018-09-16T06:41:26Z</time>
      </trkpt>
      <trkpt lat="47.82966" lon="1.70636">
        <ele>88</ele>
        <time>2018-09-16T06:41:27Z</time>
      </trkpt>
      <trkpt lat="47.82928" lon="1.70589">
        <ele>88</ele>
        <time>2018-09-16T06:41:35Z</time>
      </trkpt>
      <trkpt lat="47.82923" lon="1.70582">
        <ele>88</ele>
        <time>2018-09-16T06:41:36Z</time>
      </trkpt>
      <trkpt lat="47.82884" lon="1.70543">
        <ele>89</ele>
        <time>2018-09-16T06:41:44Z</time>
      </trkpt>
      <trkpt lat="47.82879" lon="1.70538">
        <ele>89</ele>
        <time>2018-09-16T06:41:45Z</time>
      </trkpt>
      <trkpt lat="47.82842" lon="1.70494">
        <ele>88</ele>
        <time>2018-09-16T06:41:53Z</time>
      </trkpt>
      <trkpt lat="47.8284" lon="1.70492">
        <ele>88</ele>
        <time>2018-09-16T06:41:54Z</time>
      </trkpt>
      <trkpt lat="47.82837" lon="1.70491">
        <ele>88</ele>
        <time>2018-09-16T06:41:55Z</time>
      </trkpt>
      <trkpt lat="47.82831" lon="1.70486">
        <ele>88</ele>
        <time>2018-09-16T06:41:59Z</time>
      </trkpt>
      <trkpt lat="47.82802" lon="1.70446">
        <ele>87</ele>
        <time>2018-09-16T06:42:07Z</time>
      </trkpt>
      <trkpt lat="47.82797" lon="1.7044">
        <ele>87</ele>
        <time>2018-09-16T06:42:08Z</time>
      </trkpt>
      <trkpt lat="47.82757" lon="1.70401">
        <ele>86</ele>
        <time>2018-09-16T06:42:15Z</time>
      </trkpt>
      <trkpt lat="47.8275" lon="1.70396">
        <ele>85</ele>
        <time>2018-09-16T06:42:16Z</time>
      </trkpt>
      <trkpt lat="47.82718" lon="1.70358">
        <ele>86</ele>
        <time>2018-09-16T06:42:22Z</time>
      </trkpt>
      <trkpt lat="47.82714" lon="1.70351">
        <ele>86</ele>
        <time>2018-09-16T06:42:23Z</time>
      </trkpt>
      <trkpt lat="47.82692" lon="1.70318">
        <ele>86</ele>
        <time>2018-09-16T06:42:28Z</time>
      </trkpt>
      <trkpt lat="47.82655" lon="1.70284">
        <ele>83</ele>
        <time>2018-09-16T06:42:36Z</time>
      </trkpt>
      <trkpt lat="47.82651" lon="1.70279">
        <ele>83</ele>
        <time>2018-09-16T06:42:37Z</time>
      </trkpt>
      <trkpt lat="47.8262" lon="1.70227">
        <ele>83</ele>
        <time>2018-09-16T06:42:47Z</time>
      </trkpt>
      <trkpt lat="47.82617" lon="1.70223">
        <ele>83</ele>
        <time>2018-09-16T06:42:48Z</time>
      </trkpt>
      <trkpt lat="47.82596" lon="1.70184">
        <ele>83</ele>
        <time>2018-09-16T06:42:55Z</time>
      </trkpt>
      <trkpt lat="47.82565" lon="1.70124">
        <ele>84</ele>
        <time>2018-09-16T06:43:03Z</time>
      </trkpt>
      <trkpt lat="47.82561" lon="1.70116">
        <ele>84</ele>
        <time>2018-09-16T06:43:04Z</time>
      </trkpt>
      <trkpt lat="47.82531" lon="1.70061">
        <ele>84</ele>
        <time>2018-09-16T06:43:11Z</time>
      </trkpt>
      <trkpt lat="47.82527" lon="1.70053">
        <ele>84</ele>
        <time>2018-09-16T06:43:12Z</time>
      </trkpt>
      <trkpt lat="47.82498" lon="1.7">
        <ele>84</ele>
        <time>2018-09-16T06:43:19Z</time>
      </trkpt>
      <trkpt lat="47.82494" lon="1.69992">
        <ele>84</ele>
        <time>2018-09-16T06:43:20Z</time>
      </trkpt>
      <trkpt lat="47.82463" lon="1.69936">
        <ele>85</ele>
        <time>2018-09-16T06:43:28Z</time>
      </trkpt>
      <trkpt lat="47.82461" lon="1.69928">
        <ele>85</ele>
        <time>2018-09-16T06:43:29Z</time>
      </trkpt>
      <trkpt lat="47.82461" lon="1.69893">
        <ele>87</ele>
        <time>2018-09-16T06:44:22Z</time>
      </trkpt>
      <trkpt lat="47.82455" lon="1.69895">
        <ele>94</ele>
        <time>2018-09-16T06:46:35Z</time>
      </trkpt>
      <trkpt lat="47.82447" lon="1.69901">
        <ele>94</ele>
        <time>2018-09-16T06:46:39Z</time>
      </trkpt>
      <trkpt lat="47.82443" lon="1.69907">
        <ele>94</ele>
        <time>2018-09-16T06:46:41Z</time>
      </trkpt>
      <trkpt lat="47.82416" lon="1.69963">
        <ele>92</ele>
        <time>2018-09-16T06:46:53Z</time>
      </trkpt>
      <trkpt lat="47.82413" lon="1.69968">
        <ele>92</ele>
        <time>2018-09-16T06:46:54Z</time>
      </trkpt>
      <trkpt lat="47.82387" lon="1.70025">
        <ele>90</ele>
        <time>2018-09-16T06:47:04Z</time>
      </trkpt>
      <trkpt lat="47.82385" lon="1.7003">
        <ele>90</ele>
        <time>2018-09-16T06:47:05Z</time>
      </trkpt>
      <trkpt lat="47.82378" lon="1.70045">
        <ele>90</ele>
        <time>2018-09-16T06:47:08Z</time>
      </trkpt>
      <trkpt lat="47.82357" lon="1.70072">
        <ele>87</ele>
        <time>2018-09-16T06:47:15Z</time>
      </trkpt>
      <trkpt lat="47.82346" lon="1.70068">
        <ele>87</ele>
        <time>2018-09-16T06:47:20Z</time>
      </trkpt>
      <trkpt lat="47.82339" lon="1.70061">
        <ele>87</ele>
        <time>2018-09-16T06:47:23Z</time>
      </trkpt>
      <trkpt lat="47.82336" lon="1.70051">
        <ele>87</ele>
        <time>2018-09-16T06:47:25Z</time>
      </trkpt>
      <trkpt lat="47.82336" lon="1.70042">
        <ele>87</ele>
        <time>2018-09-16T06:47:27Z</time>
      </trkpt>
      <trkpt lat="47.82338" lon="1.70027">
        <ele>89</ele>
        <time>2018-09-16T06:47:31Z</time>
      </trkpt>
      <trkpt lat="47.82333" lon="1.70021">
        <ele>89</ele>
        <time>2018-09-16T06:47:33Z</time>
      </trkpt>
      <trkpt lat="47.82298" lon="1.69977">
        <ele>88</ele>
        <time>2018-09-16T06:47:44Z</time>
      </trkpt>
      <trkpt lat="47.82294" lon="1.69972">
        <ele>88</ele>
        <time>2018-09-16T06:47:45Z</time>
      </trkpt>
      <trkpt lat="47.82269" lon="1.69929">
        <ele>87</ele>
        <time>2018-09-16T06:47:53Z</time>
      </trkpt>
      <trkpt lat="47.82236" lon="1.69885">
        <ele>87</ele>
        <time>2018-09-16T06:48:04Z</time>
      </trkpt>
      <trkpt lat="47.82233" lon="1.69882">
        <ele>87</ele>
        <time>2018-09-16T06:48:05Z</time>
      </trkpt>
      <trkpt lat="47.82222" lon="1.69875">
        <ele>87</ele>
        <time>2018-09-16T06:48:08Z</time>
      </trkpt>
      <trkpt lat="47.82207" lon="1.69864">
        <ele>87</ele>
        <time>2018-09-16T06:48:12Z</time>
      </trkpt>
      <trkpt lat="47.82195" lon="1.69841">
        <ele>86</ele>
        <time>2018-09-16T06:48:17Z</time>
      </trkpt>
      <trkpt lat="47.82193" lon="1.69822">
        <ele>86</ele>
        <time>2018-09-16T06:48:20Z</time>
      </trkpt>
      <trkpt lat="47.82193" lon="1.69805">
        <ele>85</ele>
        <time>2018-09-16T06:48:23Z</time>
      </trkpt>
      <trkpt lat="47.82187" lon="1.69797">
        <ele>85</ele>
        <time>2018-09-16T06:48:25Z</time>
      </trkpt>
      <trkpt lat="47.82145" lon="1.69766">
        <ele>85</ele>
        <time>2018-09-16T06:48:34Z</time>
      </trkpt>
      <trkpt lat="47.8214" lon="1.69762">
        <ele>85</ele>
        <time>2018-09-16T06:48:35Z</time>
      </trkpt>
      <trkpt lat="47.82116" lon="1.69738">
        <ele>85</ele>
        <time>2018-09-16T06:48:40Z</time>
      </trkpt>
      <trkpt lat="47.82074" lon="1.69696">
        <ele>84</ele>
        <time>2018-09-16T06:48:48Z</time>
      </trkpt>
      <trkpt lat="47.82067" lon="1.69692">
        <ele>84</ele>
        <time>2018-09-16T06:48:49Z</time>
      </trkpt>
      <trkpt lat="47.82026" lon="1.69667">
        <ele>84</ele>
        <time>2018-09-16T06:48:56Z</time>
      </trkpt>
      <trkpt lat="47.82019" lon="1.69664">
        <ele>84</ele>
        <time>2018-09-16T06:48:57Z</time>
      </trkpt>
      <trkpt lat="47.81975" lon="1.69635">
        <ele>83</ele>
        <time>2018-09-16T06:49:04Z</time>
      </trkpt>
      <trkpt lat="47.81969" lon="1.69629">
        <ele>83</ele>
        <time>2018-09-16T06:49:05Z</time>
      </trkpt>
      <trkpt lat="47.81928" lon="1.69589">
        <ele>83</ele>
        <time>2018-09-16T06:49:12Z</time>
      </trkpt>
      <trkpt lat="47.81923" lon="1.69583">
        <ele>83</ele>
        <time>2018-09-16T06:49:13Z</time>
      </trkpt>
      <trkpt lat="47.81884" lon="1.69542">
        <ele>83</ele>
        <time>2018-09-16T06:49:20Z</time>
      </trkpt>
      <trkpt lat="47.81879" lon="1.69537">
        <ele>83</ele>
        <time>2018-09-16T06:49:21Z</time>
      </trkpt>
      <trkpt lat="47.81839" lon="1.695">
        <ele>82</ele>
        <time>2018-09-16T06:49:28Z</time>
      </trkpt>
      <trkpt lat="47.81833" lon="1.69495">
        <ele>82</ele>
        <time>2018-09-16T06:49:29Z</time>
      </trkpt>
      <trkpt lat="47.81789" lon="1.69463">
        <ele>82</ele>
        <time>2018-09-16T06:49:36Z</time>
      </trkpt>
      <trkpt lat="47.81784" lon="1.69458">
        <ele>81</ele>
        <time>2018-09-16T06:49:37Z</time>
      </trkpt>
      <trkpt lat="47.8174" lon="1.69423">
        <ele>82</ele>
        <time>2018-09-16T06:49:45Z</time>
      </trkpt>
      <trkpt lat="47.81735" lon="1.69421">
        <ele>82</ele>
        <time>2018-09-16T06:49:46Z</time>
      </trkpt>
      <trkpt lat="47.81724" lon="1.69417">
        <ele>82</ele>
        <time>2018-09-16T06:49:48Z</time>
      </trkpt>
      <trkpt lat="47.81677" lon="1.69421">
        <ele>82</ele>
        <time>2018-09-16T06:49:56Z</time>
      </trkpt>
      <trkpt lat="47.81672" lon="1.69422">
        <ele>82</ele>
        <time>2018-09-16T06:49:57Z</time>
      </trkpt>
      <trkpt lat="47.81626" lon="1.69429">
        <ele>82</ele>
        <time>2018-09-16T06:50:05Z</time>
      </trkpt>
      <trkpt lat="47.81621" lon="1.69428">
        <ele>82</ele>
        <time>2018-09-16T06:50:06Z</time>
      </trkpt>
      <trkpt lat="47.81579" lon="1.69399">
        <ele>83</ele>
        <time>2018-09-16T06:50:14Z</time>
      </trkpt>
      <trkpt lat="47.81573" lon="1.69395">
        <ele>83</ele>
        <time>2018-09-16T06:50:15Z</time>
      </trkpt>
      <trkpt lat="47.81529" lon="1.6937">
        <ele>83</ele>
        <time>2018-09-16T06:50:23Z</time>
      </trkpt>
      <trkpt lat="47.81524" lon="1.69368">
        <ele>83</ele>
        <time>2018-09-16T06:50:24Z</time>
      </trkpt>
      <trkpt lat="47.8148" lon="1.6935">
        <ele>81</ele>
        <time>2018-09-16T06:50:31Z</time>
      </trkpt>
      <trkpt lat="47.81474" lon="1.69346">
        <ele>81</ele>
        <time>2018-09-16T06:50:32Z</time>
      </trkpt>
      <trkpt lat="47.81427" lon="1.6932">
        <ele>82</ele>
        <time>2018-09-16T06:50:40Z</time>
      </trkpt>
      <trkpt lat="47.81421" lon="1.69317">
        <ele>82</ele>
        <time>2018-09-16T06:50:41Z</time>
      </trkpt>
      <trkpt lat="47.81375" lon="1.69298">
        <ele>81</ele>
        <time>2018-09-16T06:50:49Z</time>
      </trkpt>
      <trkpt lat="47.81369" lon="1.69295">
        <ele>81</ele>
        <time>2018-09-16T06:50:50Z</time>
      </trkpt>
      <trkpt lat="47.81322" lon="1.69271">
        <ele>82</ele>
        <time>2018-09-16T06:50:58Z</time>
      </trkpt>
      <trkpt lat="47.81317" lon="1.69268">
        <ele>82</ele>
        <time>2018-09-16T06:50:59Z</time>
      </trkpt>
      <trkpt lat="47.81294" lon="1.69251">
        <ele>83</ele>
        <time>2018-09-16T06:51:04Z</time>
      </trkpt>
      <trkpt lat="47.81294" lon="1.69238">
        <ele>83</ele>
        <time>2018-09-16T06:51:06Z</time>
      </trkpt>
      <trkpt lat="47.81305" lon="1.69166">
        <ele>82</ele>
        <time>2018-09-16T06:51:15Z</time>
      </trkpt>
      <trkpt lat="47.81306" lon="1.69157">
        <ele>82</ele>
        <time>2018-09-16T06:51:16Z</time>
      </trkpt>
      <trkpt lat="47.81316" lon="1.69101">
        <ele>82</ele>
        <time>2018-09-16T06:51:23Z</time>
      </trkpt>
      <trkpt lat="47.81322" lon="1.69093">
        <ele>82</ele>
        <time>2018-09-16T06:51:25Z</time>
      </trkpt>
      <trkpt lat="47.8134" lon="1.69085">
        <ele>82</ele>
        <time>2018-09-16T06:51:29Z</time>
      </trkpt>
      <trkpt lat="47.81377" lon="1.69041">
        <ele>81</ele>
        <time>2018-09-16T06:51:37Z</time>
      </trkpt>
      <trkpt lat="47.81382" lon="1.69035">
        <ele>81</ele>
        <time>2018-09-16T06:51:38Z</time>
      </trkpt>
      <trkpt lat="47.81421" lon="1.68994">
        <ele>81</ele>
        <time>2018-09-16T06:51:45Z</time>
      </trkpt>
      <trkpt lat="47.81425" lon="1.68988">
        <ele>81</ele>
        <time>2018-09-16T06:51:46Z</time>
      </trkpt>
      <trkpt lat="47.81461" lon="1.68935">
        <ele>82</ele>
        <time>2018-09-16T06:51:54Z</time>
      </trkpt>
      <trkpt lat="47.81466" lon="1.68928">
        <ele>82</ele>
        <time>2018-09-16T06:51:55Z</time>
      </trkpt>
      <trkpt lat="47.81501" lon="1.68879">
        <ele>83</ele>
        <time>2018-09-16T06:52:03Z</time>
      </trkpt>
      <trkpt lat="47.81506" lon="1.68873">
        <ele>83</ele>
        <time>2018-09-16T06:52:04Z</time>
      </trkpt>
      <trkpt lat="47.8154" lon="1.68827">
        <ele>84</ele>
        <time>2018-09-16T06:52:12Z</time>
      </trkpt>
      <trkpt lat="47.81544" lon="1.68821">
        <ele>84</ele>
        <time>2018-09-16T06:52:13Z</time>
      </trkpt>
      <trkpt lat="47.81559" lon="1.68799">
        <ele>84</ele>
        <time>2018-09-16T06:52:17Z</time>
      </trkpt>
      <trkpt lat="47.81557" lon="1.68787">
        <ele>84</ele>
        <time>2018-09-16T06:52:19Z</time>
      </trkpt>
      <trkpt lat="47.81523" lon="1.6874">
        <ele>85</ele>
        <time>2018-09-16T06:52:27Z</time>
      </trkpt>
      <trkpt lat="47.81518" lon="1.68734">
        <ele>85</ele>
        <time>2018-09-16T06:52:28Z</time>
      </trkpt>
      <trkpt lat="47.8148" lon="1.68683">
        <ele>84</ele>
        <time>2018-09-16T06:52:36Z</time>
      </trkpt>
      <trkpt lat="47.81475" lon="1.68675">
        <ele>85</ele>
        <time>2018-09-16T06:52:37Z</time>
      </trkpt>
      <trkpt lat="47.81444" lon="1.68622">
        <ele>86</ele>
        <time>2018-09-16T06:52:44Z</time>
      </trkpt>
      <trkpt lat="47.81439" lon="1.68613">
        <ele>86</ele>
        <time>2018-09-16T06:52:45Z</time>
      </trkpt>
      <trkpt lat="47.81406" lon="1.68561">
        <ele>88</ele>
        <time>2018-09-16T06:52:52Z</time>
      </trkpt>
      <trkpt lat="47.81401" lon="1.68555">
        <ele>89</ele>
        <time>2018-09-16T06:52:53Z</time>
      </trkpt>
      <trkpt lat="47.81366" lon="1.6851">
        <ele>88</ele>
        <time>2018-09-16T06:53:00Z</time>
      </trkpt>
      <trkpt lat="47.8136" lon="1.68505">
        <ele>87</ele>
        <time>2018-09-16T06:53:01Z</time>
      </trkpt>
      <trkpt lat="47.81319" lon="1.68466">
        <ele>85</ele>
        <time>2018-09-16T06:53:08Z</time>
      </trkpt>
      <trkpt lat="47.81313" lon="1.68461">
        <ele>85</ele>
        <time>2018-09-16T06:53:09Z</time>
      </trkpt>
      <trkpt lat="47.81272" lon="1.68431">
        <ele>84</ele>
        <time>2018-09-16T06:53:16Z</time>
      </trkpt>
      <trkpt lat="47.81266" lon="1.68428">
        <ele>84</ele>
        <time>2018-09-16T06:53:17Z</time>
      </trkpt>
      <trkpt lat="47.81222" lon="1.68401">
        <ele>83</ele>
        <time>2018-09-16T06:53:24Z</time>
      </trkpt>
      <trkpt lat="47.81216" lon="1.68398">
        <ele>83</ele>
        <time>2018-09-16T06:53:25Z</time>
      </trkpt>
      <trkpt lat="47.8117" lon="1.6838">
        <ele>83</ele>
        <time>2018-09-16T06:53:32Z</time>
      </trkpt>
      <trkpt lat="47.81163" lon="1.68378">
        <ele>83</ele>
        <time>2018-09-16T06:53:33Z</time>
      </trkpt>
      <trkpt lat="47.81116" lon="1.68362">
        <ele>83</ele>
        <time>2018-09-16T06:53:40Z</time>
      </trkpt>
      <trkpt lat="47.8111" lon="1.6836">
        <ele>83</ele>
        <time>2018-09-16T06:53:41Z</time>
      </trkpt>
      <trkpt lat="47.81083" lon="1.68351">
        <ele>82</ele>
        <time>2018-09-16T06:53:45Z</time>
      </trkpt>
      <trkpt lat="47.81036" lon="1.68342">
        <ele>82</ele>
        <time>2018-09-16T06:53:52Z</time>
      </trkpt>
      <trkpt lat="47.8103" lon="1.68341">
        <ele>82</ele>
        <time>2018-09-16T06:53:53Z</time>
      </trkpt>
      <trkpt lat="47.80982" lon="1.68338">
        <ele>83</ele>
        <time>2018-09-16T06:54:00Z</time>
      </trkpt>
      <trkpt lat="47.80975" lon="1.68337">
        <ele>83</ele>
        <time>2018-09-16T06:54:01Z</time>
      </trkpt>
      <trkpt lat="47.80927" lon="1.68335">
        <ele>82</ele>
        <time>2018-09-16T06:54:08Z</time>
      </trkpt>
      <trkpt lat="47.80919" lon="1.68335">
        <ele>82</ele>
        <time>2018-09-16T06:54:09Z</time>
      </trkpt>
      <trkpt lat="47.80871" lon="1.68334">
        <ele>82</ele>
        <time>2018-09-16T06:54:16Z</time>
      </trkpt>
      <trkpt lat="47.80864" lon="1.68334">
        <ele>82</ele>
        <time>2018-09-16T06:54:17Z</time>
      </trkpt>
      <trkpt lat="47.80816" lon="1.68333">
        <ele>82</ele>
        <time>2018-09-16T06:54:24Z</time>
      </trkpt>
      <trkpt lat="47.80809" lon="1.68333">
        <ele>82</ele>
        <time>2018-09-16T06:54:25Z</time>
      </trkpt>
      <trkpt lat="47.80761" lon="1.68331">
        <ele>82</ele>
        <time>2018-09-16T06:54:32Z</time>
      </trkpt>
      <trkpt lat="47.80754" lon="1.68331">
        <ele>82</ele>
        <time>2018-09-16T06:54:33Z</time>
      </trkpt>
      <trkpt lat="47.80713" lon="1.68331">
        <ele>83</ele>
        <time>2018-09-16T06:54:39Z</time>
      </trkpt>
      <trkpt lat="47.80706" lon="1.68332">
        <ele>83</ele>
        <time>2018-09-16T06:54:40Z</time>
      </trkpt>
      <trkpt lat="47.80656" lon="1.68342">
        <ele>83</ele>
        <time>2018-09-16T06:54:47Z</time>
      </trkpt>
      <trkpt lat="47.80649" lon="1.68344">
        <ele>83</ele>
        <time>2018-09-16T06:54:48Z</time>
      </trkpt>
      <trkpt lat="47.80602" lon="1.68357">
        <ele>83</ele>
        <time>2018-09-16T06:54:55Z</time>
      </trkpt>
      <trkpt lat="47.80595" lon="1.68359">
        <ele>83</ele>
        <time>2018-09-16T06:54:56Z</time>
      </trkpt>
      <trkpt lat="47.80548" lon="1.68373">
        <ele>83</ele>
        <time>2018-09-16T06:55:03Z</time>
      </trkpt>
      <trkpt lat="47.80542" lon="1.68375">
        <ele>83</ele>
        <time>2018-09-16T06:55:04Z</time>
      </trkpt>
      <trkpt lat="47.80495" lon="1.68388">
        <ele>83</ele>
        <time>2018-09-16T06:55:11Z</time>
      </trkpt>
      <trkpt lat="47.80488" lon="1.6839">
        <ele>83</ele>
        <time>2018-09-16T06:55:12Z</time>
      </trkpt>
      <trkpt lat="47.80441" lon="1.68404">
        <ele>84</ele>
        <time>2018-09-16T06:55:19Z</time>
      </trkpt>
      <trkpt lat="47.80434" lon="1.68406">
        <ele>84</ele>
        <time>2018-09-16T06:55:20Z</time>
      </trkpt>
      <trkpt lat="47.80386" lon="1.68422">
        <ele>84</ele>
        <time>2018-09-16T06:55:27Z</time>
      </trkpt>
      <trkpt lat="47.80379" lon="1.68424">
        <ele>84</ele>
        <time>2018-09-16T06:55:28Z</time>
      </trkpt>
      <trkpt lat="47.80372" lon="1.68428">
        <ele>84</ele>
        <time>2018-09-16T06:55:29Z</time>
      </trkpt>
      <trkpt lat="47.80327" lon="1.68457">
        <ele>84</ele>
        <time>2018-09-16T06:55:36Z</time>
      </trkpt>
      <trkpt lat="47.80321" lon="1.68462">
        <ele>84</ele>
        <time>2018-09-16T06:55:37Z</time>
      </trkpt>
      <trkpt lat="47.80277" lon="1.68491">
        <ele>85</ele>
        <time>2018-09-16T06:55:44Z</time>
      </trkpt>
      <trkpt lat="47.80271" lon="1.68496">
        <ele>85</ele>
        <time>2018-09-16T06:55:45Z</time>
      </trkpt>
      <trkpt lat="47.80228" lon="1.68524">
        <ele>85</ele>
        <time>2018-09-16T06:55:52Z</time>
      </trkpt>
      <trkpt lat="47.80222" lon="1.68527">
        <ele>85</ele>
        <time>2018-09-16T06:55:53Z</time>
      </trkpt>
      <trkpt lat="47.80177" lon="1.68552">
        <ele>85</ele>
        <time>2018-09-16T06:56:00Z</time>
      </trkpt>
      <trkpt lat="47.8017" lon="1.68556">
        <ele>85</ele>
        <time>2018-09-16T06:56:01Z</time>
      </trkpt>
      <trkpt lat="47.80126" lon="1.6858">
        <ele>85</ele>
        <time>2018-09-16T06:56:08Z</time>
      </trkpt>
      <trkpt lat="47.80119" lon="1.68582">
        <ele>85</ele>
        <time>2018-09-16T06:56:09Z</time>
      </trkpt>
      <trkpt lat="47.80113" lon="1.68584">
        <ele>85</ele>
        <time>2018-09-16T06:56:10Z</time>
      </trkpt>
      <trkpt lat="47.80093" lon="1.68579">
        <ele>85</ele>
        <time>2018-09-16T06:56:13Z</time>
      </trkpt>
      <trkpt lat="47.80069" lon="1.68559">
        <ele>85</ele>
        <time>2018-09-16T06:56:17Z</time>
      </trkpt>
      <trkpt lat="47.80024" lon="1.68519">
        <ele>84</ele>
        <time>2018-09-16T06:56:24Z</time>
      </trkpt>
      <trkpt lat="47.80018" lon="1.68514">
        <ele>84</ele>
        <time>2018-09-16T06:56:25Z</time>
      </trkpt>
      <trkpt lat="47.79974" lon="1.68474">
        <ele>83</ele>
        <time>2018-09-16T06:56:32Z</time>
      </trkpt>
      <trkpt lat="47.79968" lon="1.68468">
        <ele>83</ele>
        <time>2018-09-16T06:56:33Z</time>
      </trkpt>
      <trkpt lat="47.79924" lon="1.68427">
        <ele>82</ele>
        <time>2018-09-16T06:56:40Z</time>
      </trkpt>
      <trkpt lat="47.79918" lon="1.68422">
        <ele>82</ele>
        <time>2018-09-16T06:56:41Z</time>
      </trkpt>
      <trkpt lat="47.79871" lon="1.6839">
        <ele>82</ele>
        <time>2018-09-16T06:56:48Z</time>
      </trkpt>
      <trkpt lat="47.79864" lon="1.68386">
        <ele>82</ele>
        <time>2018-09-16T06:56:49Z</time>
      </trkpt>
      <trkpt lat="47.79815" lon="1.68365">
        <ele>81</ele>
        <time>2018-09-16T06:56:56Z</time>
      </trkpt>
      <trkpt lat="47.79808" lon="1.68362">
        <ele>81</ele>
        <time>2018-09-16T06:56:57Z</time>
      </trkpt>
      <trkpt lat="47.7976" lon="1.6835">
        <ele>81</ele>
        <time>2018-09-16T06:57:04Z</time>
      </trkpt>
      <trkpt lat="47.79753" lon="1.68349">
        <ele>81</ele>
        <time>2018-09-16T06:57:05Z</time>
      </trkpt>
      <trkpt lat="47.79734" lon="1.68343">
        <ele>80</ele>
        <time>2018-09-16T06:57:08Z</time>
      </trkpt>
      <trkpt lat="47.79718" lon="1.68322">
        <ele>81</ele>
        <time>2018-09-16T06:57:11Z</time>
      </trkpt>
      <trkpt lat="47.79701" lon="1.68306">
        <ele>81</ele>
        <time>2018-09-16T06:57:14Z</time>
      </trkpt>
      <trkpt lat="47.79668" lon="1.68289">
        <ele>82</ele>
        <time>2018-09-16T06:57:19Z</time>
      </trkpt>
      <trkpt lat="47.79632" lon="1.68249">
        <ele>83</ele>
        <time>2018-09-16T06:57:26Z</time>
      </trkpt>
      <trkpt lat="47.79627" lon="1.68243">
        <ele>83</ele>
        <time>2018-09-16T06:57:27Z</time>
      </trkpt>
      <trkpt lat="47.79592" lon="1.68199">
        <ele>84</ele>
        <time>2018-09-16T06:57:34Z</time>
      </trkpt>
      <trkpt lat="47.79586" lon="1.68193">
        <ele>84</ele>
        <time>2018-09-16T06:57:35Z</time>
      </trkpt>
      <trkpt lat="47.79546" lon="1.68152">
        <ele>85</ele>
        <time>2018-09-16T06:57:42Z</time>
      </trkpt>
      <trkpt lat="47.79541" lon="1.68145">
        <ele>85</ele>
        <time>2018-09-16T06:57:43Z</time>
      </trkpt>
      <trkpt lat="47.79501" lon="1.68105">
        <ele>84</ele>
        <time>2018-09-16T06:57:50Z</time>
      </trkpt>
      <trkpt lat="47.79496" lon="1.68098">
        <ele>84</ele>
        <time>2018-09-16T06:57:51Z</time>
      </trkpt>
      <trkpt lat="47.79491" lon="1.6809">
        <ele>84</ele>
        <time>2018-09-16T06:57:52Z</time>
      </trkpt>
      <trkpt lat="47.79458" lon="1.68052">
        <ele>84</ele>
        <time>2018-09-16T06:57:58Z</time>
      </trkpt>
      <trkpt lat="47.79453" lon="1.68047">
        <ele>84</ele>
        <time>2018-09-16T06:57:59Z</time>
      </trkpt>
      <trkpt lat="47.79421" lon="1.68013">
        <ele>84</ele>
        <time>2018-09-16T06:58:05Z</time>
      </trkpt>
      <trkpt lat="47.79386" lon="1.6797">
        <ele>84</ele>
        <time>2018-09-16T06:58:12Z</time>
      </trkpt>
      <trkpt lat="47.7938" lon="1.67964">
        <ele>84</ele>
        <time>2018-09-16T06:58:13Z</time>
      </trkpt>
      <trkpt lat="47.79341" lon="1.67916">
        <ele>85</ele>
        <time>2018-09-16T06:58:20Z</time>
      </trkpt>
      <trkpt lat="47.79336" lon="1.67909">
        <ele>85</ele>
        <time>2018-09-16T06:58:21Z</time>
      </trkpt>
      <trkpt lat="47.79298" lon="1.67861">
        <ele>86</ele>
        <time>2018-09-16T06:58:29Z</time>
      </trkpt>
      <trkpt lat="47.79293" lon="1.67854">
        <ele>86</ele>
        <time>2018-09-16T06:58:30Z</time>
      </trkpt>
      <trkpt lat="47.7929" lon="1.67847">
        <ele>86</ele>
        <time>2018-09-16T06:58:31Z</time>
      </trkpt>
      <trkpt lat="47.79258" lon="1.67789">
        <ele>85</ele>
        <time>2018-09-16T06:58:39Z</time>
      </trkpt>
      <trkpt lat="47.79254" lon="1.67782">
        <ele>85</ele>
        <time>2018-09-16T06:58:40Z</time>
      </trkpt>
      <trkpt lat="47.79227" lon="1.67744">
        <ele>86</ele>
        <time>2018-09-16T06:58:47Z</time>
      </trkpt>
      <trkpt lat="47.79197" lon="1.67702">
        <ele>85</ele>
        <time>2018-09-16T06:58:54Z</time>
      </trkpt>
      <trkpt lat="47.79193" lon="1.67696">
        <ele>85</ele>
        <time>2018-09-16T06:58:55Z</time>
      </trkpt>
      <trkpt lat="47.79168" lon="1.67641">
        <ele>85</ele>
        <time>2018-09-16T06:59:02Z</time>
      </trkpt>
      <trkpt lat="47.79164" lon="1.67632">
        <ele>85</ele>
        <time>2018-09-16T06:59:03Z</time>
      </trkpt>
      <trkpt lat="47.79141" lon="1.6758">
        <ele>85</ele>
        <time>2018-09-16T06:59:09Z</time>
      </trkpt>
      <trkpt lat="47.79138" lon="1.6757">
        <ele>85</ele>
        <time>2018-09-16T06:59:10Z</time>
      </trkpt>
      <trkpt lat="47.79118" lon="1.67503">
        <ele>86</ele>
        <time>2018-09-16T06:59:17Z</time>
      </trkpt>
      <trkpt lat="47.79115" lon="1.67493">
        <ele>86</ele>
        <time>2018-09-16T06:59:18Z</time>
      </trkpt>
      <trkpt lat="47.7909" lon="1.67429">
        <ele>87</ele>
        <time>2018-09-16T06:59:25Z</time>
      </trkpt>
      <trkpt lat="47.79089" lon="1.67419">
        <ele>87</ele>
        <time>2018-09-16T06:59:26Z</time>
      </trkpt>
      <trkpt lat="47.79078" lon="1.67347">
        <ele>86</ele>
        <time>2018-09-16T06:59:33Z</time>
      </trkpt>
      <trkpt lat="47.79076" lon="1.67336">
        <ele>86</ele>
        <time>2018-09-16T06:59:34Z</time>
      </trkpt>
      <trkpt lat="47.79075" lon="1.67316">
        <ele>86</ele>
        <time>2018-09-16T06:59:36Z</time>
      </trkpt>
      <trkpt lat="47.79071" lon="1.67245">
        <ele>85</ele>
        <time>2018-09-16T06:59:43Z</time>
      </trkpt>
      <trkpt lat="47.7907" lon="1.67234">
        <ele>85</ele>
        <time>2018-09-16T06:59:44Z</time>
      </trkpt>
      <trkpt lat="47.79065" lon="1.67161">
        <ele>84</ele>
        <time>2018-09-16T06:59:51Z</time>
      </trkpt>
      <trkpt lat="47.79066" lon="1.6715">
        <ele>84</ele>
        <time>2018-09-16T06:59:52Z</time>
      </trkpt>
      <trkpt lat="47.7907" lon="1.67076">
        <ele>83</ele>
        <time>2018-09-16T06:59:59Z</time>
      </trkpt>
      <trkpt lat="47.79071" lon="1.67066">
        <ele>83</ele>
        <time>2018-09-16T07:00:00Z</time>
      </trkpt>
      <trkpt lat="47.7907" lon="1.66994">
        <ele>82</ele>
        <time>2018-09-16T07:00:07Z</time>
      </trkpt>
      <trkpt lat="47.7907" lon="1.66983">
        <ele>82</ele>
        <time>2018-09-16T07:00:08Z</time>
      </trkpt>
      <trkpt lat="47.79064" lon="1.66909">
        <ele>82</ele>
        <time>2018-09-16T07:00:16Z</time>
      </trkpt>
      <trkpt lat="47.79065" lon="1.66899">
        <ele>82</ele>
        <time>2018-09-16T07:00:17Z</time>
      </trkpt>
      <trkpt lat="47.79066" lon="1.6689">
        <ele>82</ele>
        <time>2018-09-16T07:00:18Z</time>
      </trkpt>
      <trkpt lat="47.79079" lon="1.66824">
        <ele>81</ele>
        <time>2018-09-16T07:00:25Z</time>
      </trkpt>
      <trkpt lat="47.7908" lon="1.66814">
        <ele>81</ele>
        <time>2018-09-16T07:00:26Z</time>
      </trkpt>
      <trkpt lat="47.79092" lon="1.66745">
        <ele>81</ele>
        <time>2018-09-16T07:00:33Z</time>
      </trkpt>
      <trkpt lat="47.79094" lon="1.66735">
        <ele>81</ele>
        <time>2018-09-16T07:00:34Z</time>
      </trkpt>
      <trkpt lat="47.79101" lon="1.66673">
        <ele>81</ele>
        <time>2018-09-16T07:00:40Z</time>
      </trkpt>
      <trkpt lat="47.791" lon="1.66663">
        <ele>81</ele>
        <time>2018-09-16T07:00:41Z</time>
      </trkpt>
      <trkpt lat="47.79094" lon="1.66644">
        <ele>81</ele>
        <time>2018-09-16T07:00:43Z</time>
      </trkpt>
      <trkpt lat="47.79065" lon="1.66591">
        <ele>81</ele>
        <time>2018-09-16T07:00:50Z</time>
      </trkpt>
      <trkpt lat="47.79061" lon="1.66582">
        <ele>81</ele>
        <time>2018-09-16T07:00:51Z</time>
      </trkpt>
      <trkpt lat="47.79055" lon="1.66563">
        <ele>82</ele>
        <time>2018-09-16T07:00:53Z</time>
      </trkpt>
      <trkpt lat="47.79043" lon="1.66494">
        <ele>82</ele>
        <time>2018-09-16T07:01:00Z</time>
      </trkpt>
      <trkpt lat="47.79041" lon="1.66483">
        <ele>82</ele>
        <time>2018-09-16T07:01:01Z</time>
      </trkpt>
      <trkpt lat="47.79028" lon="1.66411">
        <ele>82</ele>
        <time>2018-09-16T07:01:08Z</time>
      </trkpt>
      <trkpt lat="47.79027" lon="1.66401">
        <ele>82</ele>
        <time>2018-09-16T07:01:09Z</time>
      </trkpt>
      <trkpt lat="47.79023" lon="1.66351">
        <ele>82</ele>
        <time>2018-09-16T07:01:14Z</time>
      </trkpt>
      <trkpt lat="47.79019" lon="1.66282">
        <ele>82</ele>
        <time>2018-09-16T07:01:21Z</time>
      </trkpt>
      <trkpt lat="47.79018" lon="1.66272">
        <ele>82</ele>
        <time>2018-09-16T07:01:22Z</time>
      </trkpt>
      <trkpt lat="47.7901" lon="1.662">
        <ele>81</ele>
        <time>2018-09-16T07:01:29Z</time>
      </trkpt>
      <trkpt lat="47.7901" lon="1.6619">
        <ele>81</ele>
        <time>2018-09-16T07:01:30Z</time>
      </trkpt>
      <trkpt lat="47.79004" lon="1.66139">
        <ele>83</ele>
        <time>2018-09-16T07:01:35Z</time>
      </trkpt>
      <trkpt lat="47.78986" lon="1.66067">
        <ele>86</ele>
        <time>2018-09-16T07:01:42Z</time>
      </trkpt>
      <trkpt lat="47.78984" lon="1.66057">
        <ele>86</ele>
        <time>2018-09-16T07:01:43Z</time>
      </trkpt>
      <trkpt lat="47.78963" lon="1.65987">
        <ele>87</ele>
        <time>2018-09-16T07:01:50Z</time>
      </trkpt>
      <trkpt lat="47.7896" lon="1.65977">
        <ele>87</ele>
        <time>2018-09-16T07:01:51Z</time>
      </trkpt>
      <trkpt lat="47.78941" lon="1.65911">
        <ele>86</ele>
        <time>2018-09-16T07:01:58Z</time>
      </trkpt>
      <trkpt lat="47.78938" lon="1.65901">
        <ele>86</ele>
        <time>2018-09-16T07:01:59Z</time>
      </trkpt>
      <trkpt lat="47.7892" lon="1.65832">
        <ele>85</ele>
        <time>2018-09-16T07:02:06Z</time>
      </trkpt>
      <trkpt lat="47.78918" lon="1.65823">
        <ele>85</ele>
        <time>2018-09-16T07:02:07Z</time>
      </trkpt>
      <trkpt lat="47.789" lon="1.65755">
        <ele>84</ele>
        <time>2018-09-16T07:02:14Z</time>
      </trkpt>
      <trkpt lat="47.78897" lon="1.65746">
        <ele>84</ele>
        <time>2018-09-16T07:02:15Z</time>
      </trkpt>
      <trkpt lat="47.7888" lon="1.65682">
        <ele>83</ele>
        <time>2018-09-16T07:02:22Z</time>
      </trkpt>
      <trkpt lat="47.78877" lon="1.65673">
        <ele>83</ele>
        <time>2018-09-16T07:02:23Z</time>
      </trkpt>
      <trkpt lat="47.78872" lon="1.65645">
        <ele>83</ele>
        <time>2018-09-16T07:02:26Z</time>
      </trkpt>
      <trkpt lat="47.78876" lon="1.65617">
        <ele>82</ele>
        <time>2018-09-16T07:02:29Z</time>
      </trkpt>
      <trkpt lat="47.78885" lon="1.65591">
        <ele>82</ele>
        <time>2018-09-16T07:02:32Z</time>
      </trkpt>
      <trkpt lat="47.78897" lon="1.65572">
        <ele>82</ele>
        <time>2018-09-16T07:02:35Z</time>
      </trkpt>
      <trkpt lat="47.78908" lon="1.65552">
        <ele>82</ele>
        <time>2018-09-16T07:02:39Z</time>
      </trkpt>
      <trkpt lat="47.78907" lon="1.65544">
        <ele>82</ele>
        <time>2018-09-16T07:02:41Z</time>
      </trkpt>
      <trkpt lat="47.78875" lon="1.65488">
        <ele>85</ele>
        <time>2018-09-16T07:02:51Z</time>
      </trkpt>
      <trkpt lat="47.78871" lon="1.65481">
        <ele>85</ele>
        <time>2018-09-16T07:02:52Z</time>
      </trkpt>
      <trkpt lat="47.78836" lon="1.65426">
        <ele>85</ele>
        <time>2018-09-16T07:03:00Z</time>
      </trkpt>
      <trkpt lat="47.78833" lon="1.65419">
        <ele>84</ele>
        <time>2018-09-16T07:03:01Z</time>
      </trkpt>
      <trkpt lat="47.78818" lon="1.65393">
        <ele>84</ele>
        <time>2018-09-16T07:03:05Z</time>
      </trkpt>
      <trkpt lat="47.78782" lon="1.65348">
        <ele>83</ele>
        <time>2018-09-16T07:03:13Z</time>
      </trkpt>
      <trkpt lat="47.78777" lon="1.65343">
        <ele>83</ele>
        <time>2018-09-16T07:03:14Z</time>
      </trkpt>
      <trkpt lat="47.78739" lon="1.653">
        <ele>82</ele>
        <time>2018-09-16T07:03:22Z</time>
      </trkpt>
      <trkpt lat="47.78734" lon="1.65294">
        <ele>82</ele>
        <time>2018-09-16T07:03:23Z</time>
      </trkpt>
      <trkpt lat="47.78693" lon="1.65247">
        <ele>82</ele>
        <time>2018-09-16T07:03:31Z</time>
      </trkpt>
      <trkpt lat="47.78689" lon="1.65241">
        <ele>82</ele>
        <time>2018-09-16T07:03:32Z</time>
      </trkpt>
      <trkpt lat="47.78655" lon="1.65192">
        <ele>82</ele>
        <time>2018-09-16T07:03:40Z</time>
      </trkpt>
      <trkpt lat="47.78651" lon="1.65185">
        <ele>82</ele>
        <time>2018-09-16T07:03:41Z</time>
      </trkpt>
      <trkpt lat="47.78648" lon="1.65178">
        <ele>82</ele>
        <time>2018-09-16T07:03:42Z</time>
      </trkpt>
      <trkpt lat="47.78629" lon="1.65127">
        <ele>81</ele>
        <time>2018-09-16T07:03:49Z</time>
      </trkpt>
      <trkpt lat="47.78624" lon="1.65054">
        <ele>81</ele>
        <time>2018-09-16T07:03:57Z</time>
      </trkpt>
      <trkpt lat="47.78623" lon="1.65045">
        <ele>81</ele>
        <time>2018-09-16T07:03:58Z</time>
      </trkpt>
      <trkpt lat="47.78608" lon="1.64973">
        <ele>82</ele>
        <time>2018-09-16T07:04:06Z</time>
      </trkpt>
      <trkpt lat="47.78606" lon="1.64965">
        <ele>82</ele>
        <time>2018-09-16T07:04:07Z</time>
      </trkpt>
      <trkpt lat="47.78591" lon="1.64894">
        <ele>82</ele>
        <time>2018-09-16T07:04:15Z</time>
      </trkpt>
      <trkpt lat="47.78588" lon="1.64886">
        <ele>82</ele>
        <time>2018-09-16T07:04:16Z</time>
      </trkpt>
      <trkpt lat="47.78586" lon="1.64878">
        <ele>82</ele>
        <time>2018-09-16T07:04:17Z</time>
      </trkpt>
      <trkpt lat="47.78564" lon="1.64818">
        <ele>82</ele>
        <time>2018-09-16T07:04:25Z</time>
      </trkpt>
      <trkpt lat="47.78561" lon="1.64811">
        <ele>82</ele>
        <time>2018-09-16T07:04:26Z</time>
      </trkpt>
      <trkpt lat="47.78537" lon="1.6477">
        <ele>83</ele>
        <time>2018-09-16T07:04:32Z</time>
      </trkpt>
      <trkpt lat="47.78521" lon="1.64723">
        <ele>83</ele>
        <time>2018-09-16T07:04:38Z</time>
      </trkpt>
      <trkpt lat="47.78491" lon="1.64676">
        <ele>83</ele>
        <time>2018-09-16T07:04:45Z</time>
      </trkpt>
      <trkpt lat="47.78486" lon="1.6467">
        <ele>84</ele>
        <time>2018-09-16T07:04:46Z</time>
      </trkpt>
      <trkpt lat="47.78453" lon="1.64622">
        <ele>85</ele>
        <time>2018-09-16T07:04:53Z</time>
      </trkpt>
      <trkpt lat="47.78448" lon="1.64615">
        <ele>85</ele>
        <time>2018-09-16T07:04:54Z</time>
      </trkpt>
      <trkpt lat="47.78416" lon="1.6456">
        <ele>86</ele>
        <time>2018-09-16T07:05:01Z</time>
      </trkpt>
      <trkpt lat="47.78411" lon="1.64553">
        <ele>86</ele>
        <time>2018-09-16T07:05:02Z</time>
      </trkpt>
      <trkpt lat="47.78378" lon="1.64504">
        <ele>88</ele>
        <time>2018-09-16T07:05:09Z</time>
      </trkpt>
      <trkpt lat="47.78373" lon="1.64497">
        <ele>88</ele>
        <time>2018-09-16T07:05:10Z</time>
      </trkpt>
      <trkpt lat="47.7835" lon="1.64474">
        <ele>87</ele>
        <time>2018-09-16T07:05:14Z</time>
      </trkpt>
      <trkpt lat="47.7831" lon="1.64444">
        <ele>87</ele>
        <time>2018-09-16T07:05:20Z</time>
      </trkpt>
      <trkpt lat="47.78303" lon="1.64438">
        <ele>87</ele>
        <time>2018-09-16T07:05:21Z</time>
      </trkpt>
      <trkpt lat="47.78259" lon="1.64399">
        <ele>85</ele>
        <time>2018-09-16T07:05:28Z</time>
      </trkpt>
      <trkpt lat="47.78253" lon="1.64393">
        <ele>85</ele>
        <time>2018-09-16T07:05:29Z</time>
      </trkpt>
      <trkpt lat="47.78214" lon="1.6435">
        <ele>84</ele>
        <time>2018-09-16T07:05:36Z</time>
      </trkpt>
      <trkpt lat="47.78208" lon="1.64344">
        <ele>84</ele>
        <time>2018-09-16T07:05:37Z</time>
      </trkpt>
      <trkpt lat="47.78186" lon="1.64317">
        <ele>84</ele>
        <time>2018-09-16T07:05:41Z</time>
      </trkpt>
      <trkpt lat="47.78153" lon="1.64264">
        <ele>83</ele>
        <time>2018-09-16T07:05:48Z</time>
      </trkpt>
      <trkpt lat="47.78148" lon="1.64257">
        <ele>83</ele>
        <time>2018-09-16T07:05:49Z</time>
      </trkpt>
      <trkpt lat="47.78112" lon="1.6421">
        <ele>83</ele>
        <time>2018-09-16T07:05:56Z</time>
      </trkpt>
      <trkpt lat="47.78106" lon="1.64204">
        <ele>83</ele>
        <time>2018-09-16T07:05:57Z</time>
      </trkpt>
      <trkpt lat="47.7807" lon="1.64157">
        <ele>82</ele>
        <time>2018-09-16T07:06:04Z</time>
      </trkpt>
      <trkpt lat="47.78065" lon="1.64149">
        <ele>82</ele>
        <time>2018-09-16T07:06:05Z</time>
      </trkpt>
      <trkpt lat="47.78049" lon="1.64115">
        <ele>82</ele>
        <time>2018-09-16T07:06:09Z</time>
      </trkpt>
      <trkpt lat="47.78024" lon="1.64051">
        <ele>81</ele>
        <time>2018-09-16T07:06:16Z</time>
      </trkpt>
      <trkpt lat="47.78021" lon="1.64042">
        <ele>81</ele>
        <time>2018-09-16T07:06:17Z</time>
      </trkpt>
      <trkpt lat="47.77998" lon="1.63977">
        <ele>81</ele>
        <time>2018-09-16T07:06:24Z</time>
      </trkpt>
      <trkpt lat="47.77995" lon="1.63967">
        <ele>81</ele>
        <time>2018-09-16T07:06:25Z</time>
      </trkpt>
      <trkpt lat="47.77971" lon="1.63903">
        <ele>81</ele>
        <time>2018-09-16T07:06:32Z</time>
      </trkpt>
      <trkpt lat="47.77968" lon="1.63894">
        <ele>81</ele>
        <time>2018-09-16T07:06:33Z</time>
      </trkpt>
      <trkpt lat="47.77947" lon="1.6383">
        <ele>82</ele>
        <time>2018-09-16T07:06:40Z</time>
      </trkpt>
      <trkpt lat="47.77945" lon="1.63821">
        <ele>82</ele>
        <time>2018-09-16T07:06:41Z</time>
      </trkpt>
      <trkpt lat="47.77921" lon="1.63756">
        <ele>83</ele>
        <time>2018-09-16T07:06:49Z</time>
      </trkpt>
      <trkpt lat="47.77917" lon="1.6375">
        <ele>83</ele>
        <time>2018-09-16T07:06:50Z</time>
      </trkpt>
      <trkpt lat="47.77911" lon="1.63736">
        <ele>83</ele>
        <time>2018-09-16T07:06:52Z</time>
      </trkpt>
      <trkpt lat="47.77903" lon="1.63716">
        <ele>83</ele>
        <time>2018-09-16T07:06:55Z</time>
      </trkpt>
      <trkpt lat="47.77895" lon="1.637">
        <ele>82</ele>
        <time>2018-09-16T07:07:00Z</time>
      </trkpt>
      <trkpt lat="47.77899" lon="1.63696">
        <ele>83</ele>
        <time>2018-09-16T07:09:45Z</time>
      </trkpt>
      <trkpt lat="47.77895" lon="1.63702">
        <ele>81</ele>
        <time>2018-09-16T07:12:30Z</time>
      </trkpt>
      <trkpt lat="47.77889" lon="1.63698">
        <ele>81</ele>
        <time>2018-09-16T07:12:33Z</time>
      </trkpt>
      <trkpt lat="47.77885" lon="1.63691">
        <ele>81</ele>
        <time>2018-09-16T07:12:35Z</time>
      </trkpt>
      <trkpt lat="47.77874" lon="1.63671">
        <ele>81</ele>
        <time>2018-09-16T07:12:40Z</time>
      </trkpt>
      <trkpt lat="47.77836" lon="1.63626">
        <ele>80</ele>
        <time>2018-09-16T07:12:52Z</time>
      </trkpt>
      <trkpt lat="47.77833" lon="1.63621">
        <ele>80</ele>
        <time>2018-09-16T07:12:53Z</time>
      </trkpt>
      <trkpt lat="47.77795" lon="1.63581">
        <ele>79</ele>
        <time>2018-09-16T07:13:03Z</time>
      </trkpt>
      <trkpt lat="47.77791" lon="1.63578">
        <ele>79</ele>
        <time>2018-09-16T07:13:04Z</time>
      </trkpt>
      <trkpt lat="47.77749" lon="1.63547">
        <ele>78</ele>
        <time>2018-09-16T07:13:14Z</time>
      </trkpt>
      <trkpt lat="47.7774" lon="1.6354">
        <ele>78</ele>
        <time>2018-09-16T07:13:16Z</time>
      </trkpt>
      <trkpt lat="47.77698" lon="1.63503">
        <ele>79</ele>
        <time>2018-09-16T07:13:26Z</time>
      </trkpt>
      <trkpt lat="47.77694" lon="1.63499">
        <ele>79</ele>
        <time>2018-09-16T07:13:27Z</time>
      </trkpt>
      <trkpt lat="47.77653" lon="1.63469">
        <ele>79</ele>
        <time>2018-09-16T07:13:36Z</time>
      </trkpt>
      <trkpt lat="47.77648" lon="1.63466">
        <ele>79</ele>
        <time>2018-09-16T07:13:37Z</time>
      </trkpt>
      <trkpt lat="47.77605" lon="1.63437">
        <ele>79</ele>
        <time>2018-09-16T07:13:46Z</time>
      </trkpt>
      <trkpt lat="47.776" lon="1.63434">
        <ele>80</ele>
        <time>2018-09-16T07:13:47Z</time>
      </trkpt>
      <trkpt lat="47.77556" lon="1.63407">
        <ele>80</ele>
        <time>2018-09-16T07:13:56Z</time>
      </trkpt>
      <trkpt lat="47.77552" lon="1.63404">
        <ele>80</ele>
        <time>2018-09-16T07:13:57Z</time>
      </trkpt>
      <trkpt lat="47.77505" lon="1.63377">
        <ele>80</ele>
        <time>2018-09-16T07:14:06Z</time>
      </trkpt>
      <trkpt lat="47.775" lon="1.63374">
        <ele>80</ele>
        <time>2018-09-16T07:14:07Z</time>
      </trkpt>
      <trkpt lat="47.77454" lon="1.63348">
        <ele>80</ele>
        <time>2018-09-16T07:14:15Z</time>
      </trkpt>
      <trkpt lat="47.77449" lon="1.63345">
        <ele>80</ele>
        <time>2018-09-16T07:14:16Z</time>
      </trkpt>
      <trkpt lat="47.77432" lon="1.63328">
        <ele>80</ele>
        <time>2018-09-16T07:14:20Z</time>
      </trkpt>
      <trkpt lat="47.77425" lon="1.63318">
        <ele>81</ele>
        <time>2018-09-16T07:14:25Z</time>
      </trkpt>
      <trkpt lat="47.7742" lon="1.63315">
        <ele>81</ele>
        <time>2018-09-16T07:14:27Z</time>
      </trkpt>
      <trkpt lat="47.77413" lon="1.63311">
        <ele>82</ele>
        <time>2018-09-16T07:14:29Z</time>
      </trkpt>
      <trkpt lat="47.77402" lon="1.63306">
        <ele>82</ele>
        <time>2018-09-16T07:14:32Z</time>
      </trkpt>
      <trkpt lat="47.77389" lon="1.63291">
        <ele>84</ele>
        <time>2018-09-16T07:14:36Z</time>
      </trkpt>
      <trkpt lat="47.7738" lon="1.63274">
        <ele>85</ele>
        <time>2018-09-16T07:14:40Z</time>
      </trkpt>
      <trkpt lat="47.7737" lon="1.63266">
        <ele>86</ele>
        <time>2018-09-16T07:14:43Z</time>
      </trkpt>
      <trkpt lat="47.77356" lon="1.63264">
        <ele>86</ele>
        <time>2018-09-16T07:14:46Z</time>
      </trkpt>
      <trkpt lat="47.77348" lon="1.63261">
        <ele>86</ele>
        <time>2018-09-16T07:14:48Z</time>
      </trkpt>
      <trkpt lat="47.7734" lon="1.63246">
        <ele>86</ele>
        <time>2018-09-16T07:14:51Z</time>
      </trkpt>
      <trkpt lat="47.77329" lon="1.63234">
        <ele>86</ele>
        <time>2018-09-16T07:14:54Z</time>
      </trkpt>
      <trkpt lat="47.77279" lon="1.63217">
        <ele>85</ele>
        <time>2018-09-16T07:15:03Z</time>
      </trkpt>
      <trkpt lat="47.77274" lon="1.63215">
        <ele>85</ele>
        <time>2018-09-16T07:15:04Z</time>
      </trkpt>
      <trkpt lat="47.77227" lon="1.63195">
        <ele>85</ele>
        <time>2018-09-16T07:15:12Z</time>
      </trkpt>
      <trkpt lat="47.77221" lon="1.63191">
        <ele>85</ele>
        <time>2018-09-16T07:15:13Z</time>
      </trkpt>
      <trkpt lat="47.77178" lon="1.63168">
        <ele>85</ele>
        <time>2018-09-16T07:15:20Z</time>
      </trkpt>
      <trkpt lat="47.77172" lon="1.63165">
        <ele>85</ele>
        <time>2018-09-16T07:15:21Z</time>
      </trkpt>
      <trkpt lat="47.77128" lon="1.63142">
        <ele>84</ele>
        <time>2018-09-16T07:15:28Z</time>
      </trkpt>
      <trkpt lat="47.77121" lon="1.63138">
        <ele>84</ele>
        <time>2018-09-16T07:15:29Z</time>
      </trkpt>
      <trkpt lat="47.77072" lon="1.63111">
        <ele>82</ele>
        <time>2018-09-16T07:15:36Z</time>
      </trkpt>
      <trkpt lat="47.77064" lon="1.63107">
        <ele>82</ele>
        <time>2018-09-16T07:15:37Z</time>
      </trkpt>
      <trkpt lat="47.77019" lon="1.63083">
        <ele>81</ele>
        <time>2018-09-16T07:15:43Z</time>
      </trkpt>
      <trkpt lat="47.77011" lon="1.63079">
        <ele>81</ele>
        <time>2018-09-16T07:15:44Z</time>
      </trkpt>
      <trkpt lat="47.76963" lon="1.63052">
        <ele>81</ele>
        <time>2018-09-16T07:15:51Z</time>
      </trkpt>
      <trkpt lat="47.76956" lon="1.63049">
        <ele>81</ele>
        <time>2018-09-16T07:15:52Z</time>
      </trkpt>
      <trkpt lat="47.76911" lon="1.63024">
        <ele>81</ele>
        <time>2018-09-16T07:15:59Z</time>
      </trkpt>
      <trkpt lat="47.76904" lon="1.6302">
        <ele>81</ele>
        <time>2018-09-16T07:16:00Z</time>
      </trkpt>
      <trkpt lat="47.7686" lon="1.62995">
        <ele>82</ele>
        <time>2018-09-16T07:16:07Z</time>
      </trkpt>
      <trkpt lat="47.76854" lon="1.62991">
        <ele>82</ele>
        <time>2018-09-16T07:16:08Z</time>
      </trkpt>
      <trkpt lat="47.76843" lon="1.62982">
        <ele>82</ele>
        <time>2018-09-16T07:16:10Z</time>
      </trkpt>
      <trkpt lat="47.76802" lon="1.62952">
        <ele>82</ele>
        <time>2018-09-16T07:16:17Z</time>
      </trkpt>
      <trkpt lat="47.76796" lon="1.62948">
        <ele>82</ele>
        <time>2018-09-16T07:16:18Z</time>
      </trkpt>
      <trkpt lat="47.76749" lon="1.6292">
        <ele>81</ele>
        <time>2018-09-16T07:16:25Z</time>
      </trkpt>
      <trkpt lat="47.76741" lon="1.62915">
        <ele>81</ele>
        <time>2018-09-16T07:16:26Z</time>
      </trkpt>
      <trkpt lat="47.76694" lon="1.62884">
        <ele>79</ele>
        <time>2018-09-16T07:16:33Z</time>
      </trkpt>
      <trkpt lat="47.76687" lon="1.62879">
        <ele>79</ele>
        <time>2018-09-16T07:16:34Z</time>
      </trkpt>
      <trkpt lat="47.76645" lon="1.62843">
        <ele>79</ele>
        <time>2018-09-16T07:16:41Z</time>
      </trkpt>
      <trkpt lat="47.76639" lon="1.62839">
        <ele>79</ele>
        <time>2018-09-16T07:16:42Z</time>
      </trkpt>
      <trkpt lat="47.76596" lon="1.62813">
        <ele>79</ele>
        <time>2018-09-16T07:16:49Z</time>
      </trkpt>
      <trkpt lat="47.7659" lon="1.62809">
        <ele>79</ele>
        <time>2018-09-16T07:16:50Z</time>
      </trkpt>
      <trkpt lat="47.76543" lon="1.62782">
        <ele>79</ele>
        <time>2018-09-16T07:16:57Z</time>
      </trkpt>
      <trkpt lat="47.76536" lon="1.62778">
        <ele>79</ele>
        <time>2018-09-16T07:16:58Z</time>
      </trkpt>
      <trkpt lat="47.76516" lon="1.62767">
        <ele>80</ele>
        <time>2018-09-16T07:17:01Z</time>
      </trkpt>
      <trkpt lat="47.76469" lon="1.62746">
        <ele>81</ele>
        <time>2018-09-16T07:17:08Z</time>
      </trkpt>
      <trkpt lat="47.76462" lon="1.62742">
        <ele>81</ele>
        <time>2018-09-16T07:17:09Z</time>
      </trkpt>
      <trkpt lat="47.76414" lon="1.62718">
        <ele>82</ele>
        <time>2018-09-16T07:17:16Z</time>
      </trkpt>
      <trkpt lat="47.76408" lon="1.62715">
        <ele>82</ele>
        <time>2018-09-16T07:17:17Z</time>
      </trkpt>
      <trkpt lat="47.76376" lon="1.62697">
        <ele>82</ele>
        <time>2018-09-16T07:17:22Z</time>
      </trkpt>
      <trkpt lat="47.76363" lon="1.62674">
        <ele>82</ele>
        <time>2018-09-16T07:17:25Z</time>
      </trkpt>
      <trkpt lat="47.76347" lon="1.62629">
        <ele>82</ele>
        <time>2018-09-16T07:17:30Z</time>
      </trkpt>
      <trkpt lat="47.76331" lon="1.62609">
        <ele>82</ele>
        <time>2018-09-16T07:17:33Z</time>
      </trkpt>
      <trkpt lat="47.7629" lon="1.62575">
        <ele>81</ele>
        <time>2018-09-16T07:17:40Z</time>
      </trkpt>
      <trkpt lat="47.76284" lon="1.6257">
        <ele>81</ele>
        <time>2018-09-16T07:17:41Z</time>
      </trkpt>
      <trkpt lat="47.76244" lon="1.62537">
        <ele>81</ele>
        <time>2018-09-16T07:17:48Z</time>
      </trkpt>
      <trkpt lat="47.76238" lon="1.62532">
        <ele>82</ele>
        <time>2018-09-16T07:17:49Z</time>
      </trkpt>
      <trkpt lat="47.76198" lon="1.62501">
        <ele>82</ele>
        <time>2018-09-16T07:17:56Z</time>
      </trkpt>
      <trkpt lat="47.76192" lon="1.62496">
        <ele>82</ele>
        <time>2018-09-16T07:17:57Z</time>
      </trkpt>
      <trkpt lat="47.76147" lon="1.62461">
        <ele>82</ele>
        <time>2018-09-16T07:18:05Z</time>
      </trkpt>
      <trkpt lat="47.76144" lon="1.62458">
        <ele>82</ele>
        <time>2018-09-16T07:18:06Z</time>
      </trkpt>
      <trkpt lat="47.76101" lon="1.62426">
        <ele>81</ele>
        <time>2018-09-16T07:18:18Z</time>
      </trkpt>
      <trkpt lat="47.76096" lon="1.62422">
        <ele>81</ele>
        <time>2018-09-16T07:18:19Z</time>
      </trkpt>
      <trkpt lat="47.76056" lon="1.62388">
        <ele>81</ele>
        <time>2018-09-16T07:18:27Z</time>
      </trkpt>
      <trkpt lat="47.7605" lon="1.62383">
        <ele>81</ele>
        <time>2018-09-16T07:18:28Z</time>
      </trkpt>
      <trkpt lat="47.76008" lon="1.62343">
        <ele>81</ele>
        <time>2018-09-16T07:18:36Z</time>
      </trkpt>
      <trkpt lat="47.76003" lon="1.62337">
        <ele>81</ele>
        <time>2018-09-16T07:18:37Z</time>
      </trkpt>
      <trkpt lat="47.75963" lon="1.62292">
        <ele>81</ele>
        <time>2018-09-16T07:18:45Z</time>
      </trkpt>
      <trkpt lat="47.75959" lon="1.62286">
        <ele>81</ele>
        <time>2018-09-16T07:18:46Z</time>
      </trkpt>
      <trkpt lat="47.7592" lon="1.62236">
        <ele>81</ele>
        <time>2018-09-16T07:18:54Z</time>
      </trkpt>
      <trkpt lat="47.75915" lon="1.62229">
        <ele>81</ele>
        <time>2018-09-16T07:18:55Z</time>
      </trkpt>
      <trkpt lat="47.75878" lon="1.62181">
        <ele>81</ele>
        <time>2018-09-16T07:19:03Z</time>
      </trkpt>
      <trkpt lat="47.75873" lon="1.62177">
        <ele>81</ele>
        <time>2018-09-16T07:19:04Z</time>
      </trkpt>
      <trkpt lat="47.75867" lon="1.62172">
        <ele>81</ele>
        <time>2018-09-16T07:19:05Z</time>
      </trkpt>
      <trkpt lat="47.75824" lon="1.62146">
        <ele>81</ele>
        <time>2018-09-16T07:19:13Z</time>
      </trkpt>
      <trkpt lat="47.75819" lon="1.62144">
        <ele>81</ele>
        <time>2018-09-16T07:19:14Z</time>
      </trkpt>
      <trkpt lat="47.75814" lon="1.62143">
        <ele>81</ele>
        <time>2018-09-16T07:19:15Z</time>
      </trkpt>
      <trkpt lat="47.75767" lon="1.62129">
        <ele>81</ele>
        <time>2018-09-16T07:19:23Z</time>
      </trkpt>
      <trkpt lat="47.75761" lon="1.62129">
        <ele>81</ele>
        <time>2018-09-16T07:19:24Z</time>
      </trkpt>
      <trkpt lat="47.7571" lon="1.62124">
        <ele>81</ele>
        <time>2018-09-16T07:19:32Z</time>
      </trkpt>
      <trkpt lat="47.75704" lon="1.62123">
        <ele>81</ele>
        <time>2018-09-16T07:19:33Z</time>
      </trkpt>
      <trkpt lat="47.75655" lon="1.62114">
        <ele>82</ele>
        <time>2018-09-16T07:19:41Z</time>
      </trkpt>
      <trkpt lat="47.75648" lon="1.62113">
        <ele>82</ele>
        <time>2018-09-16T07:19:42Z</time>
      </trkpt>
      <trkpt lat="47.75598" lon="1.62109">
        <ele>82</ele>
        <time>2018-09-16T07:19:50Z</time>
      </trkpt>
      <trkpt lat="47.75592" lon="1.62108">
        <ele>82</ele>
        <time>2018-09-16T07:19:51Z</time>
      </trkpt>
      <trkpt lat="47.75543" lon="1.62096">
        <ele>83</ele>
        <time>2018-09-16T07:19:59Z</time>
      </trkpt>
      <trkpt lat="47.75537" lon="1.62095">
        <ele>83</ele>
        <time>2018-09-16T07:20:00Z</time>
      </trkpt>
      <trkpt lat="47.75518" lon="1.62094">
        <ele>83</ele>
        <time>2018-09-16T07:20:05Z</time>
      </trkpt>
      <trkpt lat="47.755" lon="1.6216">
        <ele>83</ele>
        <time>2018-09-16T07:20:16Z</time>
      </trkpt>
      <trkpt lat="47.75498" lon="1.62168">
        <ele>83</ele>
        <time>2018-09-16T07:20:17Z</time>
      </trkpt>
      <trkpt lat="47.75477" lon="1.62235">
        <ele>83</ele>
        <time>2018-09-16T07:20:26Z</time>
      </trkpt>
      <trkpt lat="47.75474" lon="1.62242">
        <ele>83</ele>
        <time>2018-09-16T07:20:27Z</time>
      </trkpt>
      <trkpt lat="47.75466" lon="1.62265">
        <ele>83</ele>
        <time>2018-09-16T07:20:30Z</time>
      </trkpt>
      <trkpt lat="47.75457" lon="1.62275">
        <ele>83</ele>
        <time>2018-09-16T07:20:32Z</time>
      </trkpt>
      <trkpt lat="47.75435" lon="1.6228">
        <ele>83</ele>
        <time>2018-09-16T07:20:36Z</time>
      </trkpt>
      <trkpt lat="47.75385" lon="1.62285">
        <ele>83</ele>
        <time>2018-09-16T07:20:44Z</time>
      </trkpt>
      <trkpt lat="47.75378" lon="1.62284">
        <ele>83</ele>
        <time>2018-09-16T07:20:45Z</time>
      </trkpt>
      <trkpt lat="47.75365" lon="1.62282">
        <ele>83</ele>
        <time>2018-09-16T07:20:47Z</time>
      </trkpt>
      <trkpt lat="47.75321" lon="1.62262">
        <ele>82</ele>
        <time>2018-09-16T07:20:54Z</time>
      </trkpt>
      <trkpt lat="47.75315" lon="1.62258">
        <ele>82</ele>
        <time>2018-09-16T07:20:55Z</time>
      </trkpt>
      <trkpt lat="47.75272" lon="1.62232">
        <ele>82</ele>
        <time>2018-09-16T07:21:02Z</time>
      </trkpt>
      <trkpt lat="47.75266" lon="1.62229">
        <ele>82</ele>
        <time>2018-09-16T07:21:03Z</time>
      </trkpt>
      <trkpt lat="47.7522" lon="1.62205">
        <ele>82</ele>
        <time>2018-09-16T07:21:10Z</time>
      </trkpt>
      <trkpt lat="47.75214" lon="1.62202">
        <ele>82</ele>
        <time>2018-09-16T07:21:11Z</time>
      </trkpt>
      <trkpt lat="47.75168" lon="1.62182">
        <ele>81</ele>
        <time>2018-09-16T07:21:18Z</time>
      </trkpt>
      <trkpt lat="47.75161" lon="1.6218">
        <ele>81</ele>
        <time>2018-09-16T07:21:19Z</time>
      </trkpt>
      <trkpt lat="47.75115" lon="1.62166">
        <ele>81</ele>
        <time>2018-09-16T07:21:26Z</time>
      </trkpt>
      <trkpt lat="47.75108" lon="1.62166">
        <ele>81</ele>
        <time>2018-09-16T07:21:27Z</time>
      </trkpt>
      <trkpt lat="47.75095" lon="1.62165">
        <ele>81</ele>
        <time>2018-09-16T07:21:29Z</time>
      </trkpt>
      <trkpt lat="47.75048" lon="1.62166">
        <ele>82</ele>
        <time>2018-09-16T07:21:36Z</time>
      </trkpt>
      <trkpt lat="47.75042" lon="1.62167">
        <ele>82</ele>
        <time>2018-09-16T07:21:37Z</time>
      </trkpt>
      <trkpt lat="47.74993" lon="1.6217">
        <ele>83</ele>
        <time>2018-09-16T07:21:44Z</time>
      </trkpt>
      <trkpt lat="47.74986" lon="1.62171">
        <ele>83</ele>
        <time>2018-09-16T07:21:45Z</time>
      </trkpt>
      <trkpt lat="47.74937" lon="1.62171">
        <ele>83</ele>
        <time>2018-09-16T07:21:52Z</time>
      </trkpt>
      <trkpt lat="47.7493" lon="1.62171">
        <ele>83</ele>
        <time>2018-09-16T07:21:53Z</time>
      </trkpt>
      <trkpt lat="47.7488" lon="1.62171">
        <ele>84</ele>
        <time>2018-09-16T07:22:00Z</time>
      </trkpt>
      <trkpt lat="47.74873" lon="1.62171">
        <ele>84</ele>
        <time>2018-09-16T07:22:01Z</time>
      </trkpt>
      <trkpt lat="47.74826" lon="1.62168">
        <ele>84</ele>
        <time>2018-09-16T07:22:08Z</time>
      </trkpt>
      <trkpt lat="47.7482" lon="1.62165">
        <ele>84</ele>
        <time>2018-09-16T07:22:09Z</time>
      </trkpt>
      <trkpt lat="47.74773" lon="1.62151">
        <ele>84</ele>
        <time>2018-09-16T07:22:16Z</time>
      </trkpt>
      <trkpt lat="47.74766" lon="1.62148">
        <ele>84</ele>
        <time>2018-09-16T07:22:17Z</time>
      </trkpt>
      <trkpt lat="47.74717" lon="1.62134">
        <ele>83</ele>
        <time>2018-09-16T07:22:24Z</time>
      </trkpt>
      <trkpt lat="47.7471" lon="1.62131">
        <ele>83</ele>
        <time>2018-09-16T07:22:25Z</time>
      </trkpt>
      <trkpt lat="47.74662" lon="1.62118">
        <ele>83</ele>
        <time>2018-09-16T07:22:32Z</time>
      </trkpt>
      <trkpt lat="47.74656" lon="1.62117">
        <ele>83</ele>
        <time>2018-09-16T07:22:33Z</time>
      </trkpt>
      <trkpt lat="47.74649" lon="1.62116">
        <ele>83</ele>
        <time>2018-09-16T07:22:34Z</time>
      </trkpt>
      <trkpt lat="47.74601" lon="1.62113">
        <ele>83</ele>
        <time>2018-09-16T07:22:41Z</time>
      </trkpt>
      <trkpt lat="47.74594" lon="1.62112">
        <ele>83</ele>
        <time>2018-09-16T07:22:42Z</time>
      </trkpt>
      <trkpt lat="47.74581" lon="1.62107">
        <ele>83</ele>
        <time>2018-09-16T07:22:44Z</time>
      </trkpt>
      <trkpt lat="47.74537" lon="1.62077">
        <ele>83</ele>
        <time>2018-09-16T07:22:51Z</time>
      </trkpt>
      <trkpt lat="47.74531" lon="1.62072">
        <ele>83</ele>
        <time>2018-09-16T07:22:52Z</time>
      </trkpt>
      <trkpt lat="47.74501" lon="1.62047">
        <ele>83</ele>
        <time>2018-09-16T07:22:57Z</time>
      </trkpt>
      <trkpt lat="47.74458" lon="1.62009">
        <ele>82</ele>
        <time>2018-09-16T07:23:04Z</time>
      </trkpt>
      <trkpt lat="47.74452" lon="1.62003">
        <ele>82</ele>
        <time>2018-09-16T07:23:05Z</time>
      </trkpt>
      <trkpt lat="47.7441" lon="1.61966">
        <ele>82</ele>
        <time>2018-09-16T07:23:12Z</time>
      </trkpt>
      <trkpt lat="47.74404" lon="1.61961">
        <ele>82</ele>
        <time>2018-09-16T07:23:13Z</time>
      </trkpt>
      <trkpt lat="47.74362" lon="1.61925">
        <ele>82</ele>
        <time>2018-09-16T07:23:20Z</time>
      </trkpt>
      <trkpt lat="47.74356" lon="1.6192">
        <ele>82</ele>
        <time>2018-09-16T07:23:21Z</time>
      </trkpt>
      <trkpt lat="47.74313" lon="1.61886">
        <ele>82</ele>
        <time>2018-09-16T07:23:28Z</time>
      </trkpt>
      <trkpt lat="47.74307" lon="1.61881">
        <ele>82</ele>
        <time>2018-09-16T07:23:29Z</time>
      </trkpt>
      <trkpt lat="47.74263" lon="1.61846">
        <ele>81</ele>
        <time>2018-09-16T07:23:36Z</time>
      </trkpt>
      <trkpt lat="47.74257" lon="1.61841">
        <ele>81</ele>
        <time>2018-09-16T07:23:37Z</time>
      </trkpt>
      <trkpt lat="47.74215" lon="1.61804">
        <ele>81</ele>
        <time>2018-09-16T07:23:44Z</time>
      </trkpt>
      <trkpt lat="47.7421" lon="1.61799">
        <ele>81</ele>
        <time>2018-09-16T07:23:45Z</time>
      </trkpt>
      <trkpt lat="47.74176" lon="1.61762">
        <ele>82</ele>
        <time>2018-09-16T07:23:51Z</time>
      </trkpt>
      <trkpt lat="47.74171" lon="1.61756">
        <ele>82</ele>
        <time>2018-09-16T07:23:52Z</time>
      </trkpt>
      <trkpt lat="47.74133" lon="1.6171">
        <ele>82</ele>
        <time>2018-09-16T07:23:59Z</time>
      </trkpt>
      <trkpt lat="47.74127" lon="1.61703">
        <ele>82</ele>
        <time>2018-09-16T07:24:00Z</time>
      </trkpt>
      <trkpt lat="47.74086" lon="1.61659">
        <ele>82</ele>
        <time>2018-09-16T07:24:07Z</time>
      </trkpt>
      <trkpt lat="47.7408" lon="1.61653">
        <ele>82</ele>
        <time>2018-09-16T07:24:08Z</time>
      </trkpt>
      <trkpt lat="47.74038" lon="1.61607">
        <ele>81</ele>
        <time>2018-09-16T07:24:15Z</time>
      </trkpt>
      <trkpt lat="47.74033" lon="1.616">
        <ele>81</ele>
        <time>2018-09-16T07:24:16Z</time>
      </trkpt>
      <trkpt lat="47.73993" lon="1.61552">
        <ele>82</ele>
        <time>2018-09-16T07:24:23Z</time>
      </trkpt>
      <trkpt lat="47.73987" lon="1.61546">
        <ele>82</ele>
        <time>2018-09-16T07:24:24Z</time>
      </trkpt>
      <trkpt lat="47.73949" lon="1.61494">
        <ele>83</ele>
        <time>2018-09-16T07:24:31Z</time>
      </trkpt>
      <trkpt lat="47.73944" lon="1.61486">
        <ele>83</ele>
        <time>2018-09-16T07:24:32Z</time>
      </trkpt>
      <trkpt lat="47.73925" lon="1.61452">
        <ele>83</ele>
        <time>2018-09-16T07:24:36Z</time>
      </trkpt>
      <trkpt lat="47.73893" lon="1.61397">
        <ele>83</ele>
        <time>2018-09-16T07:24:43Z</time>
      </trkpt>
      <trkpt lat="47.73888" lon="1.61389">
        <ele>83</ele>
        <time>2018-09-16T07:24:44Z</time>
      </trkpt>
      <trkpt lat="47.73862" lon="1.61355">
        <ele>83</ele>
        <time>2018-09-16T07:24:49Z</time>
      </trkpt>
      <trkpt lat="47.73824" lon="1.61318">
        <ele>82</ele>
        <time>2018-09-16T07:24:55Z</time>
      </trkpt>
      <trkpt lat="47.73818" lon="1.61311">
        <ele>82</ele>
        <time>2018-09-16T07:24:56Z</time>
      </trkpt>
      <trkpt lat="47.73807" lon="1.61298">
        <ele>82</ele>
        <time>2018-09-16T07:24:58Z</time>
      </trkpt>
      <trkpt lat="47.73771" lon="1.61248">
        <ele>82</ele>
        <time>2018-09-16T07:25:05Z</time>
      </trkpt>
      <trkpt lat="47.73766" lon="1.6124">
        <ele>82</ele>
        <time>2018-09-16T07:25:06Z</time>
      </trkpt>
      <trkpt lat="47.73735" lon="1.61184">
        <ele>82</ele>
        <time>2018-09-16T07:25:13Z</time>
      </trkpt>
      <trkpt lat="47.7373" lon="1.61176">
        <ele>82</ele>
        <time>2018-09-16T07:25:14Z</time>
      </trkpt>
      <trkpt lat="47.737" lon="1.61118">
        <ele>82</ele>
        <time>2018-09-16T07:25:21Z</time>
      </trkpt>
      <trkpt lat="47.73696" lon="1.61109">
        <ele>82</ele>
        <time>2018-09-16T07:25:22Z</time>
      </trkpt>
      <trkpt lat="47.73692" lon="1.611">
        <ele>82</ele>
        <time>2018-09-16T07:25:23Z</time>
      </trkpt>
      <trkpt lat="47.73664" lon="1.61037">
        <ele>82</ele>
        <time>2018-09-16T07:25:30Z</time>
      </trkpt>
      <trkpt lat="47.7366" lon="1.61029">
        <ele>82</ele>
        <time>2018-09-16T07:25:31Z</time>
      </trkpt>
      <trkpt lat="47.73639" lon="1.60963">
        <ele>82</ele>
        <time>2018-09-16T07:25:38Z</time>
      </trkpt>
      <trkpt lat="47.73636" lon="1.60953">
        <ele>82</ele>
        <time>2018-09-16T07:25:39Z</time>
      </trkpt>
      <trkpt lat="47.73626" lon="1.6089">
        <ele>83</ele>
        <time>2018-09-16T07:25:45Z</time>
      </trkpt>
      <trkpt lat="47.73625" lon="1.60879">
        <ele>83</ele>
        <time>2018-09-16T07:25:46Z</time>
      </trkpt>
      <trkpt lat="47.73619" lon="1.6082">
        <ele>83</ele>
        <time>2018-09-16T07:25:52Z</time>
      </trkpt>
      <trkpt lat="47.73616" lon="1.60811">
        <ele>83</ele>
        <time>2018-09-16T07:25:53Z</time>
      </trkpt>
      <trkpt lat="47.73608" lon="1.60794">
        <ele>83</ele>
        <time>2018-09-16T07:25:55Z</time>
      </trkpt>
      <trkpt lat="47.73586" lon="1.60767">
        <ele>83</ele>
        <time>2018-09-16T07:25:59Z</time>
      </trkpt>
      <trkpt lat="47.73544" lon="1.60734">
        <ele>84</ele>
        <time>2018-09-16T07:26:06Z</time>
      </trkpt>
      <trkpt lat="47.73539" lon="1.6073">
        <ele>84</ele>
        <time>2018-09-16T07:26:07Z</time>
      </trkpt>
      <trkpt lat="47.73499" lon="1.60697">
        <ele>84</ele>
        <time>2018-09-16T07:26:14Z</time>
      </trkpt>
      <trkpt lat="47.73494" lon="1.60691">
        <ele>85</ele>
        <time>2018-09-16T07:26:15Z</time>
      </trkpt>
      <trkpt lat="47.73469" lon="1.6066">
        <ele>85</ele>
        <time>2018-09-16T07:26:20Z</time>
      </trkpt>
      <trkpt lat="47.73454" lon="1.60631">
        <ele>84</ele>
        <time>2018-09-16T07:26:24Z</time>
      </trkpt>
      <trkpt lat="47.73434" lon="1.60567">
        <ele>84</ele>
        <time>2018-09-16T07:26:31Z</time>
      </trkpt>
      <trkpt lat="47.73431" lon="1.60558">
        <ele>84</ele>
        <time>2018-09-16T07:26:32Z</time>
      </trkpt>
      <trkpt lat="47.73422" lon="1.60518">
        <ele>84</ele>
        <time>2018-09-16T07:26:36Z</time>
      </trkpt>
      <trkpt lat="47.73416" lon="1.60447">
        <ele>84</ele>
        <time>2018-09-16T07:26:43Z</time>
      </trkpt>
      <trkpt lat="47.73415" lon="1.60436">
        <ele>84</ele>
        <time>2018-09-16T07:26:44Z</time>
      </trkpt>
      <trkpt lat="47.73407" lon="1.60387">
        <ele>84</ele>
        <time>2018-09-16T07:26:49Z</time>
      </trkpt>
      <trkpt lat="47.73386" lon="1.60319">
        <ele>84</ele>
        <time>2018-09-16T07:26:56Z</time>
      </trkpt>
      <trkpt lat="47.73383" lon="1.60309">
        <ele>84</ele>
        <time>2018-09-16T07:26:57Z</time>
      </trkpt>
      <trkpt lat="47.73362" lon="1.60254">
        <ele>84</ele>
        <time>2018-09-16T07:27:03Z</time>
      </trkpt>
      <trkpt lat="47.73358" lon="1.60246">
        <ele>84</ele>
        <time>2018-09-16T07:27:04Z</time>
      </trkpt>
      <trkpt lat="47.73333" lon="1.60182">
        <ele>84</ele>
        <time>2018-09-16T07:27:11Z</time>
      </trkpt>
      <trkpt lat="47.7333" lon="1.60172">
        <ele>84</ele>
        <time>2018-09-16T07:27:12Z</time>
      </trkpt>
      <trkpt lat="47.73307" lon="1.60104">
        <ele>84</ele>
        <time>2018-09-16T07:27:19Z</time>
      </trkpt>
      <trkpt lat="47.73302" lon="1.60096">
        <ele>84</ele>
        <time>2018-09-16T07:27:20Z</time>
      </trkpt>
      <trkpt lat="47.73269" lon="1.60041">
        <ele>84</ele>
        <time>2018-09-16T07:27:27Z</time>
      </trkpt>
      <trkpt lat="47.73265" lon="1.60033">
        <ele>84</ele>
        <time>2018-09-16T07:27:28Z</time>
      </trkpt>
      <trkpt lat="47.73233" lon="1.59975">
        <ele>83</ele>
        <time>2018-09-16T07:27:35Z</time>
      </trkpt>
      <trkpt lat="47.7323" lon="1.59965">
        <ele>83</ele>
        <time>2018-09-16T07:27:36Z</time>
      </trkpt>
      <trkpt lat="47.73214" lon="1.59891">
        <ele>83</ele>
        <time>2018-09-16T07:27:43Z</time>
      </trkpt>
      <trkpt lat="47.73211" lon="1.59881">
        <ele>83</ele>
        <time>2018-09-16T07:27:44Z</time>
      </trkpt>
      <trkpt lat="47.73191" lon="1.59813">
        <ele>82</ele>
        <time>2018-09-16T07:27:51Z</time>
      </trkpt>
      <trkpt lat="47.73188" lon="1.59803">
        <ele>82</ele>
        <time>2018-09-16T07:27:52Z</time>
      </trkpt>
      <trkpt lat="47.73167" lon="1.59732">
        <ele>82</ele>
        <time>2018-09-16T07:27:59Z</time>
      </trkpt>
      <trkpt lat="47.73164" lon="1.59722">
        <ele>82</ele>
        <time>2018-09-16T07:28:00Z</time>
      </trkpt>
      <trkpt lat="47.73145" lon="1.59653">
        <ele>82</ele>
        <time>2018-09-16T07:28:07Z</time>
      </trkpt>
      <trkpt lat="47.73142" lon="1.59643">
        <ele>82</ele>
        <time>2018-09-16T07:28:08Z</time>
      </trkpt>
      <trkpt lat="47.73122" lon="1.59576">
        <ele>83</ele>
        <time>2018-09-16T07:28:15Z</time>
      </trkpt>
      <trkpt lat="47.7312" lon="1.59566">
        <ele>83</ele>
        <time>2018-09-16T07:28:16Z</time>
      </trkpt>
      <trkpt lat="47.731" lon="1.59499">
        <ele>84</ele>
        <time>2018-09-16T07:28:23Z</time>
      </trkpt>
      <trkpt lat="47.73097" lon="1.59489">
        <ele>84</ele>
        <time>2018-09-16T07:28:24Z</time>
      </trkpt>
      <trkpt lat="47.73077" lon="1.59419">
        <ele>83</ele>
        <time>2018-09-16T07:28:31Z</time>
      </trkpt>
      <trkpt lat="47.73074" lon="1.59408">
        <ele>83</ele>
        <time>2018-09-16T07:28:32Z</time>
      </trkpt>
      <trkpt lat="47.73055" lon="1.59337">
        <ele>83</ele>
        <time>2018-09-16T07:28:39Z</time>
      </trkpt>
      <trkpt lat="47.73052" lon="1.59327">
        <ele>83</ele>
        <time>2018-09-16T07:28:40Z</time>
      </trkpt>
      <trkpt lat="47.73033" lon="1.59257">
        <ele>83</ele>
        <time>2018-09-16T07:28:47Z</time>
      </trkpt>
      <trkpt lat="47.7303" lon="1.59248">
        <ele>83</ele>
        <time>2018-09-16T07:28:48Z</time>
      </trkpt>
      <trkpt lat="47.73009" lon="1.59177">
        <ele>83</ele>
        <time>2018-09-16T07:28:55Z</time>
      </trkpt>
      <trkpt lat="47.73007" lon="1.59167">
        <ele>83</ele>
        <time>2018-09-16T07:28:56Z</time>
      </trkpt>
      <trkpt lat="47.7299" lon="1.59098">
        <ele>83</ele>
        <time>2018-09-16T07:29:03Z</time>
      </trkpt>
      <trkpt lat="47.72989" lon="1.59088">
        <ele>83</ele>
        <time>2018-09-16T07:29:04Z</time>
      </trkpt>
      <trkpt lat="47.72985" lon="1.59013">
        <ele>83</ele>
        <time>2018-09-16T07:29:11Z</time>
      </trkpt>
      <trkpt lat="47.72985" lon="1.59002">
        <ele>83</ele>
        <time>2018-09-16T07:29:12Z</time>
      </trkpt>
      <trkpt lat="47.72984" lon="1.58925">
        <ele>84</ele>
        <time>2018-09-16T07:29:19Z</time>
      </trkpt>
      <trkpt lat="47.72983" lon="1.58915">
        <ele>84</ele>
        <time>2018-09-16T07:29:20Z</time>
      </trkpt>
      <trkpt lat="47.72978" lon="1.58869">
        <ele>85</ele>
        <time>2018-09-16T07:29:26Z</time>
      </trkpt>
      <trkpt lat="47.72972" lon="1.58865">
        <ele>84</ele>
        <time>2018-09-16T07:29:28Z</time>
      </trkpt>
      <trkpt lat="47.72965" lon="1.5887">
        <ele>84</ele>
        <time>2018-09-16T07:29:30Z</time>
      </trkpt>
      <trkpt lat="47.72947" lon="1.5889">
        <ele>83</ele>
        <time>2018-09-16T07:29:35Z</time>
      </trkpt>
      <trkpt lat="47.72941" lon="1.58884">
        <ele>84</ele>
        <time>2018-09-16T07:29:37Z</time>
      </trkpt>
      <trkpt lat="47.72924" lon="1.58832">
        <ele>84</ele>
        <time>2018-09-16T07:29:44Z</time>
      </trkpt>
      <trkpt lat="47.72921" lon="1.58823">
        <ele>84</ele>
        <time>2018-09-16T07:29:45Z</time>
      </trkpt>
      <trkpt lat="47.729" lon="1.58756">
        <ele>83</ele>
        <time>2018-09-16T07:29:53Z</time>
      </trkpt>
      <trkpt lat="47.72897" lon="1.58747">
        <ele>83</ele>
        <time>2018-09-16T07:29:54Z</time>
      </trkpt>
      <trkpt lat="47.72889" lon="1.58731">
        <ele>83</ele>
        <time>2018-09-16T07:29:56Z</time>
      </trkpt>
      <trkpt lat="47.72861" lon="1.58669">
        <ele>84</ele>
        <time>2018-09-16T07:30:04Z</time>
      </trkpt>
      <trkpt lat="47.72857" lon="1.58662">
        <ele>83</ele>
        <time>2018-09-16T07:30:05Z</time>
      </trkpt>
      <trkpt lat="47.72834" lon="1.58597">
        <ele>84</ele>
        <time>2018-09-16T07:30:13Z</time>
      </trkpt>
      <trkpt lat="47.72831" lon="1.58589">
        <ele>84</ele>
        <time>2018-09-16T07:30:14Z</time>
      </trkpt>
      <trkpt lat="47.7283" lon="1.5858">
        <ele>84</ele>
        <time>2018-09-16T07:30:15Z</time>
      </trkpt>
      <trkpt lat="47.72821" lon="1.5851">
        <ele>84</ele>
        <time>2018-09-16T07:30:23Z</time>
      </trkpt>
      <trkpt lat="47.7282" lon="1.58501">
        <ele>84</ele>
        <time>2018-09-16T07:30:24Z</time>
      </trkpt>
      <trkpt lat="47.72814" lon="1.58428">
        <ele>84</ele>
        <time>2018-09-16T07:30:32Z</time>
      </trkpt>
      <trkpt lat="47.72813" lon="1.58419">
        <ele>84</ele>
        <time>2018-09-16T07:30:33Z</time>
      </trkpt>
      <trkpt lat="47.72811" lon="1.58373">
        <ele>83</ele>
        <time>2018-09-16T07:30:38Z</time>
      </trkpt>
      <trkpt lat="47.72807" lon="1.58347">
        <ele>83</ele>
        <time>2018-09-16T07:30:41Z</time>
      </trkpt>
      <trkpt lat="47.72792" lon="1.58275">
        <ele>83</ele>
        <time>2018-09-16T07:30:49Z</time>
      </trkpt>
      <trkpt lat="47.72789" lon="1.58265">
        <ele>83</ele>
        <time>2018-09-16T07:30:50Z</time>
      </trkpt>
      <trkpt lat="47.72776" lon="1.58199">
        <ele>83</ele>
        <time>2018-09-16T07:30:57Z</time>
      </trkpt>
      <trkpt lat="47.72775" lon="1.5819">
        <ele>82</ele>
        <time>2018-09-16T07:30:58Z</time>
      </trkpt>
      <trkpt lat="47.72769" lon="1.58165">
        <ele>82</ele>
        <time>2018-09-16T07:31:01Z</time>
      </trkpt>
      <trkpt lat="47.7277" lon="1.58109">
        <ele>82</ele>
        <time>2018-09-16T07:31:07Z</time>
      </trkpt>
      <trkpt lat="47.72768" lon="1.58081">
        <ele>82</ele>
        <time>2018-09-16T07:31:10Z</time>
      </trkpt>
      <trkpt lat="47.72761" lon="1.58055">
        <ele>82</ele>
        <time>2018-09-16T07:31:13Z</time>
      </trkpt>
      <trkpt lat="47.72757" lon="1.58038">
        <ele>82</ele>
        <time>2018-09-16T07:31:15Z</time>
      </trkpt>
      <trkpt lat="47.72747" lon="1.57966">
        <ele>81</ele>
        <time>2018-09-16T07:31:23Z</time>
      </trkpt>
      <trkpt lat="47.72746" lon="1.57957">
        <ele>81</ele>
        <time>2018-09-16T07:31:24Z</time>
      </trkpt>
      <trkpt lat="47.72739" lon="1.57898">
        <ele>82</ele>
        <time>2018-09-16T07:31:31Z</time>
      </trkpt>
      <trkpt lat="47.72745" lon="1.57884">
        <ele>82</ele>
        <time>2018-09-16T07:31:33Z</time>
      </trkpt>
      <trkpt lat="47.72777" lon="1.57843">
        <ele>81</ele>
        <time>2018-09-16T07:31:42Z</time>
      </trkpt>
      <trkpt lat="47.72774" lon="1.57834">
        <ele>81</ele>
        <time>2018-09-16T07:31:44Z</time>
      </trkpt>
      <trkpt lat="47.72743" lon="1.57781">
        <ele>81</ele>
        <time>2018-09-16T07:31:52Z</time>
      </trkpt>
      <trkpt lat="47.72739" lon="1.57774">
        <ele>81</ele>
        <time>2018-09-16T07:31:53Z</time>
      </trkpt>
      <trkpt lat="47.72707" lon="1.57716">
        <ele>82</ele>
        <time>2018-09-16T07:32:01Z</time>
      </trkpt>
      <trkpt lat="47.72702" lon="1.5771">
        <ele>82</ele>
        <time>2018-09-16T07:32:02Z</time>
      </trkpt>
      <trkpt lat="47.72673" lon="1.57653">
        <ele>83</ele>
        <time>2018-09-16T07:32:09Z</time>
      </trkpt>
      <trkpt lat="47.7267" lon="1.57646">
        <ele>83</ele>
        <time>2018-09-16T07:32:10Z</time>
      </trkpt>
      <trkpt lat="47.72634" lon="1.57594">
        <ele>83</ele>
        <time>2018-09-16T07:32:18Z</time>
      </trkpt>
      <trkpt lat="47.72629" lon="1.57587">
        <ele>82</ele>
        <time>2018-09-16T07:32:19Z</time>
      </trkpt>
      <trkpt lat="47.72594" lon="1.57541">
        <ele>81</ele>
        <time>2018-09-16T07:32:26Z</time>
      </trkpt>
      <trkpt lat="47.72589" lon="1.57534">
        <ele>81</ele>
        <time>2018-09-16T07:32:27Z</time>
      </trkpt>
      <trkpt lat="47.72568" lon="1.5751">
        <ele>81</ele>
        <time>2018-09-16T07:32:31Z</time>
      </trkpt>
      <trkpt lat="47.72533" lon="1.57466">
        <ele>81</ele>
        <time>2018-09-16T07:32:38Z</time>
      </trkpt>
      <trkpt lat="47.72528" lon="1.5746">
        <ele>81</ele>
        <time>2018-09-16T07:32:39Z</time>
      </trkpt>
      <trkpt lat="47.72489" lon="1.57412">
        <ele>81</ele>
        <time>2018-09-16T07:32:47Z</time>
      </trkpt>
      <trkpt lat="47.72484" lon="1.57406">
        <ele>81</ele>
        <time>2018-09-16T07:32:48Z</time>
      </trkpt>
      <trkpt lat="47.72446" lon="1.57359">
        <ele>80</ele>
        <time>2018-09-16T07:32:56Z</time>
      </trkpt>
      <trkpt lat="47.72441" lon="1.57353">
        <ele>80</ele>
        <time>2018-09-16T07:32:57Z</time>
      </trkpt>
      <trkpt lat="47.72401" lon="1.57307">
        <ele>80</ele>
        <time>2018-09-16T07:33:05Z</time>
      </trkpt>
      <trkpt lat="47.72396" lon="1.57301">
        <ele>80</ele>
        <time>2018-09-16T07:33:06Z</time>
      </trkpt>
      <trkpt lat="47.72355" lon="1.57257">
        <ele>80</ele>
        <time>2018-09-16T07:33:14Z</time>
      </trkpt>
      <trkpt lat="47.72349" lon="1.57252">
        <ele>80</ele>
        <time>2018-09-16T07:33:15Z</time>
      </trkpt>
      <trkpt lat="47.72305" lon="1.57214">
        <ele>80</ele>
        <time>2018-09-16T07:33:23Z</time>
      </trkpt>
      <trkpt lat="47.723" lon="1.5721">
        <ele>80</ele>
        <time>2018-09-16T07:33:24Z</time>
      </trkpt>
      <trkpt lat="47.72258" lon="1.57182">
        <ele>79</ele>
        <time>2018-09-16T07:33:31Z</time>
      </trkpt>
      <trkpt lat="47.72253" lon="1.57178">
        <ele>79</ele>
        <time>2018-09-16T07:33:32Z</time>
      </trkpt>
      <trkpt lat="47.7221" lon="1.57151">
        <ele>79</ele>
        <time>2018-09-16T07:33:39Z</time>
      </trkpt>
      <trkpt lat="47.72204" lon="1.57148">
        <ele>79</ele>
        <time>2018-09-16T07:33:40Z</time>
      </trkpt>
      <trkpt lat="47.7216" lon="1.57125">
        <ele>79</ele>
        <time>2018-09-16T07:33:47Z</time>
      </trkpt>
      <trkpt lat="47.72153" lon="1.57122">
        <ele>79</ele>
        <time>2018-09-16T07:33:48Z</time>
      </trkpt>
      <trkpt lat="47.72109" lon="1.57104">
        <ele>79</ele>
        <time>2018-09-16T07:33:55Z</time>
      </trkpt>
      <trkpt lat="47.72103" lon="1.57101">
        <ele>79</ele>
        <time>2018-09-16T07:33:56Z</time>
      </trkpt>
      <trkpt lat="47.72091" lon="1.57097">
        <ele>79</ele>
        <time>2018-09-16T07:33:58Z</time>
      </trkpt>
      <trkpt lat="47.72041" lon="1.57083">
        <ele>79</ele>
        <time>2018-09-16T07:34:06Z</time>
      </trkpt>
      <trkpt lat="47.72034" lon="1.57081">
        <ele>79</ele>
        <time>2018-09-16T07:34:07Z</time>
      </trkpt>
      <trkpt lat="47.71984" lon="1.57072">
        <ele>80</ele>
        <time>2018-09-16T07:34:15Z</time>
      </trkpt>
      <trkpt lat="47.71978" lon="1.57071">
        <ele>80</ele>
        <time>2018-09-16T07:34:16Z</time>
      </trkpt>
      <trkpt lat="47.71927" lon="1.57067">
        <ele>80</ele>
        <time>2018-09-16T07:34:24Z</time>
      </trkpt>
      <trkpt lat="47.71921" lon="1.57067">
        <ele>80</ele>
        <time>2018-09-16T07:34:25Z</time>
      </trkpt>
      <trkpt lat="47.71872" lon="1.57072">
        <ele>81</ele>
        <time>2018-09-16T07:34:33Z</time>
      </trkpt>
      <trkpt lat="47.71867" lon="1.57074">
        <ele>81</ele>
        <time>2018-09-16T07:34:34Z</time>
      </trkpt>
      <trkpt lat="47.71819" lon="1.57097">
        <ele>81</ele>
        <time>2018-09-16T07:34:42Z</time>
      </trkpt>
      <trkpt lat="47.71813" lon="1.571">
        <ele>81</ele>
        <time>2018-09-16T07:34:43Z</time>
      </trkpt>
      <trkpt lat="47.71766" lon="1.57122">
        <ele>81</ele>
        <time>2018-09-16T07:34:51Z</time>
      </trkpt>
      <trkpt lat="47.71761" lon="1.57125">
        <ele>82</ele>
        <time>2018-09-16T07:34:52Z</time>
      </trkpt>
      <trkpt lat="47.71714" lon="1.57149">
        <ele>82</ele>
        <time>2018-09-16T07:35:00Z</time>
      </trkpt>
      <trkpt lat="47.71709" lon="1.57153">
        <ele>82</ele>
        <time>2018-09-16T07:35:01Z</time>
      </trkpt>
      <trkpt lat="47.71662" lon="1.57179">
        <ele>82</ele>
        <time>2018-09-16T07:35:09Z</time>
      </trkpt>
      <trkpt lat="47.71656" lon="1.57183">
        <ele>82</ele>
        <time>2018-09-16T07:35:10Z</time>
      </trkpt>
      <trkpt lat="47.71611" lon="1.57208">
        <ele>82</ele>
        <time>2018-09-16T07:35:18Z</time>
      </trkpt>
      <trkpt lat="47.71606" lon="1.57211">
        <ele>82</ele>
        <time>2018-09-16T07:35:19Z</time>
      </trkpt>
      <trkpt lat="47.71561" lon="1.57238">
        <ele>82</ele>
        <time>2018-09-16T07:35:27Z</time>
      </trkpt>
      <trkpt lat="47.71555" lon="1.57242">
        <ele>82</ele>
        <time>2018-09-16T07:35:28Z</time>
      </trkpt>
      <trkpt lat="47.7151" lon="1.57268">
        <ele>83</ele>
        <time>2018-09-16T07:35:36Z</time>
      </trkpt>
      <trkpt lat="47.71505" lon="1.57271">
        <ele>83</ele>
        <time>2018-09-16T07:35:37Z</time>
      </trkpt>
      <trkpt lat="47.71461" lon="1.57301">
        <ele>82</ele>
        <time>2018-09-16T07:35:45Z</time>
      </trkpt>
      <trkpt lat="47.71456" lon="1.57305">
        <ele>82</ele>
        <time>2018-09-16T07:35:46Z</time>
      </trkpt>
      <trkpt lat="47.71445" lon="1.57313">
        <ele>82</ele>
        <time>2018-09-16T07:35:48Z</time>
      </trkpt>
      <trkpt lat="47.714" lon="1.57347">
        <ele>82</ele>
        <time>2018-09-16T07:35:56Z</time>
      </trkpt>
      <trkpt lat="47.71395" lon="1.57351">
        <ele>82</ele>
        <time>2018-09-16T07:35:57Z</time>
      </trkpt>
      <trkpt lat="47.7136" lon="1.57369">
        <ele>82</ele>
        <time>2018-09-16T07:36:03Z</time>
      </trkpt>
      <trkpt lat="47.71318" lon="1.57391">
        <ele>82</ele>
        <time>2018-09-16T07:36:11Z</time>
      </trkpt>
      <trkpt lat="47.71313" lon="1.57389">
        <ele>82</ele>
        <time>2018-09-16T07:36:12Z</time>
      </trkpt>
      <trkpt lat="47.71296" lon="1.57389">
        <ele>82</ele>
        <time>2018-09-16T07:36:15Z</time>
      </trkpt>
      <trkpt lat="47.71256" lon="1.57394">
        <ele>81</ele>
        <time>2018-09-16T07:36:22Z</time>
      </trkpt>
      <trkpt lat="47.71251" lon="1.5739">
        <ele>81</ele>
        <time>2018-09-16T07:36:23Z</time>
      </trkpt>
      <trkpt lat="47.71247" lon="1.57385">
        <ele>81</ele>
        <time>2018-09-16T07:36:24Z</time>
      </trkpt>
      <trkpt lat="47.71241" lon="1.57372">
        <ele>81</ele>
        <time>2018-09-16T07:36:26Z</time>
      </trkpt>
      <trkpt lat="47.71242" lon="1.57359">
        <ele>82</ele>
        <time>2018-09-16T07:36:28Z</time>
      </trkpt>
      <trkpt lat="47.71247" lon="1.57352">
        <ele>82</ele>
        <time>2018-09-16T07:36:30Z</time>
      </trkpt>
      <trkpt lat="47.7126" lon="1.57353">
        <ele>83</ele>
        <time>2018-09-16T07:36:33Z</time>
      </trkpt>
      <trkpt lat="47.71272" lon="1.57357">
        <ele>84</ele>
        <time>2018-09-16T07:36:36Z</time>
      </trkpt>
      <trkpt lat="47.71276" lon="1.57351">
        <ele>85</ele>
        <time>2018-09-16T07:36:38Z</time>
      </trkpt>
      <trkpt lat="47.71273" lon="1.57334">
        <ele>85</ele>
        <time>2018-09-16T07:36:41Z</time>
      </trkpt>
      <trkpt lat="47.7125" lon="1.57267">
        <ele>84</ele>
        <time>2018-09-16T07:36:50Z</time>
      </trkpt>
      <trkpt lat="47.71246" lon="1.5726">
        <ele>84</ele>
        <time>2018-09-16T07:36:51Z</time>
      </trkpt>
      <trkpt lat="47.71223" lon="1.57228">
        <ele>84</ele>
        <time>2018-09-16T07:36:56Z</time>
      </trkpt>
      <trkpt lat="47.71188" lon="1.57202">
        <ele>84</ele>
        <time>2018-09-16T07:37:02Z</time>
      </trkpt>
      <trkpt lat="47.71181" lon="1.57199">
        <ele>84</ele>
        <time>2018-09-16T07:37:03Z</time>
      </trkpt>
      <trkpt lat="47.71168" lon="1.57198">
        <ele>84</ele>
        <time>2018-09-16T07:37:05Z</time>
      </trkpt>
      <trkpt lat="47.71134" lon="1.57205">
        <ele>84</ele>
        <time>2018-09-16T07:37:10Z</time>
      </trkpt>
      <trkpt lat="47.71095" lon="1.57226">
        <ele>84</ele>
        <time>2018-09-16T07:37:16Z</time>
      </trkpt>
      <trkpt lat="47.71089" lon="1.5723">
        <ele>84</ele>
        <time>2018-09-16T07:37:17Z</time>
      </trkpt>
      <trkpt lat="47.71058" lon="1.57251">
        <ele>84</ele>
        <time>2018-09-16T07:37:22Z</time>
      </trkpt>
      <trkpt lat="47.71009" lon="1.57244">
        <ele>85</ele>
        <time>2018-09-16T07:37:29Z</time>
      </trkpt>
      <trkpt lat="47.71002" lon="1.57244">
        <ele>85</ele>
        <time>2018-09-16T07:37:30Z</time>
      </trkpt>
      <trkpt lat="47.70955" lon="1.57236">
        <ele>85</ele>
        <time>2018-09-16T07:37:37Z</time>
      </trkpt>
      <trkpt lat="47.70947" lon="1.57234">
        <ele>84</ele>
        <time>2018-09-16T07:37:38Z</time>
      </trkpt>
      <trkpt lat="47.70898" lon="1.57226">
        <ele>84</ele>
        <time>2018-09-16T07:37:45Z</time>
      </trkpt>
      <trkpt lat="47.70891" lon="1.57225">
        <ele>84</ele>
        <time>2018-09-16T07:37:46Z</time>
      </trkpt>
      <trkpt lat="47.70845" lon="1.57216">
        <ele>85</ele>
        <time>2018-09-16T07:37:53Z</time>
      </trkpt>
      <trkpt lat="47.70839" lon="1.57215">
        <ele>85</ele>
        <time>2018-09-16T07:37:54Z</time>
      </trkpt>
      <trkpt lat="47.70791" lon="1.5721">
        <ele>85</ele>
        <time>2018-09-16T07:38:01Z</time>
      </trkpt>
      <trkpt lat="47.70784" lon="1.5721">
        <ele>85</ele>
        <time>2018-09-16T07:38:02Z</time>
      </trkpt>
      <trkpt lat="47.70732" lon="1.57212">
        <ele>85</ele>
        <time>2018-09-16T07:38:09Z</time>
      </trkpt>
      <trkpt lat="47.70725" lon="1.5721">
        <ele>85</ele>
        <time>2018-09-16T07:38:10Z</time>
      </trkpt>
      <trkpt lat="47.70675" lon="1.57187">
        <ele>85</ele>
        <time>2018-09-16T07:38:17Z</time>
      </trkpt>
      <trkpt lat="47.70668" lon="1.57183">
        <ele>85</ele>
        <time>2018-09-16T07:38:18Z</time>
      </trkpt>
      <trkpt lat="47.7062" lon="1.5716">
        <ele>84</ele>
        <time>2018-09-16T07:38:25Z</time>
      </trkpt>
      <trkpt lat="47.70613" lon="1.57157">
        <ele>84</ele>
        <time>2018-09-16T07:38:26Z</time>
      </trkpt>
      <trkpt lat="47.70565" lon="1.57134">
        <ele>84</ele>
        <time>2018-09-16T07:38:33Z</time>
      </trkpt>
      <trkpt lat="47.70557" lon="1.5713">
        <ele>84</ele>
        <time>2018-09-16T07:38:34Z</time>
      </trkpt>
      <trkpt lat="47.70508" lon="1.57106">
        <ele>84</ele>
        <time>2018-09-16T07:38:41Z</time>
      </trkpt>
      <trkpt lat="47.70501" lon="1.57103">
        <ele>84</ele>
        <time>2018-09-16T07:38:42Z</time>
      </trkpt>
      <trkpt lat="47.70453" lon="1.57079">
        <ele>84</ele>
        <time>2018-09-16T07:38:49Z</time>
      </trkpt>
      <trkpt lat="47.70446" lon="1.57076">
        <ele>84</ele>
        <time>2018-09-16T07:38:50Z</time>
      </trkpt>
      <trkpt lat="47.70403" lon="1.57053">
        <ele>84</ele>
        <time>2018-09-16T07:38:56Z</time>
      </trkpt>
      <trkpt lat="47.70396" lon="1.57049">
        <ele>84</ele>
        <time>2018-09-16T07:38:57Z</time>
      </trkpt>
      <trkpt lat="47.70348" lon="1.57024">
        <ele>85</ele>
        <time>2018-09-16T07:39:05Z</time>
      </trkpt>
      <trkpt lat="47.70341" lon="1.57021">
        <ele>85</ele>
        <time>2018-09-16T07:39:06Z</time>
      </trkpt>
      <trkpt lat="47.70298" lon="1.56997">
        <ele>84</ele>
        <time>2018-09-16T07:39:13Z</time>
      </trkpt>
      <trkpt lat="47.70291" lon="1.56993">
        <ele>84</ele>
        <time>2018-09-16T07:39:14Z</time>
      </trkpt>
      <trkpt lat="47.70244" lon="1.56967">
        <ele>81</ele>
        <time>2018-09-16T07:39:21Z</time>
      </trkpt>
      <trkpt lat="47.70237" lon="1.56963">
        <ele>81</ele>
        <time>2018-09-16T07:39:22Z</time>
      </trkpt>
      <trkpt lat="47.70229" lon="1.56957">
        <ele>81</ele>
        <time>2018-09-16T07:39:24Z</time>
      </trkpt>
      <trkpt lat="47.70224" lon="1.56955">
        <ele>81</ele>
        <time>2018-09-16T07:39:27Z</time>
      </trkpt>
      <trkpt lat="47.70229" lon="1.56959">
        <ele>81</ele>
        <time>2018-09-16T07:39:32Z</time>
      </trkpt>
      <trkpt lat="47.70272" lon="1.56982">
        <ele>83</ele>
        <time>2018-09-16T07:39:47Z</time>
      </trkpt>
      <trkpt lat="47.70275" lon="1.56984">
        <ele>83</ele>
        <time>2018-09-16T07:39:48Z</time>
      </trkpt>
      <trkpt lat="47.70321" lon="1.57008">
        <ele>86</ele>
        <time>2018-09-16T07:40:03Z</time>
      </trkpt>
      <trkpt lat="47.70324" lon="1.5701">
        <ele>86</ele>
        <time>2018-09-16T07:40:04Z</time>
      </trkpt>
      <trkpt lat="47.70366" lon="1.57035">
        <ele>86</ele>
        <time>2018-09-16T07:40:19Z</time>
      </trkpt>
      <trkpt lat="47.70368" lon="1.57035">
        <ele>86</ele>
        <time>2018-09-16T07:40:20Z</time>
      </trkpt>
      <trkpt lat="47.70372" lon="1.57036">
        <ele>86</ele>
        <time>2018-09-16T07:40:22Z</time>
      </trkpt>
      <trkpt lat="47.70375" lon="1.57033">
        <ele>85</ele>
        <time>2018-09-16T07:40:27Z</time>
      </trkpt>
      <trkpt lat="47.70369" lon="1.57035">
        <ele>86</ele>
        <time>2018-09-16T07:40:31Z</time>
      </trkpt>
      <trkpt lat="47.70363" lon="1.57032">
        <ele>86</ele>
        <time>2018-09-16T07:40:36Z</time>
      </trkpt>
      <trkpt lat="47.7035" lon="1.57024">
        <ele>85</ele>
        <time>2018-09-16T07:40:42Z</time>
      </trkpt>
      <trkpt lat="47.70344" lon="1.57021">
        <ele>85</ele>
        <time>2018-09-16T07:40:44Z</time>
      </trkpt>
      <trkpt lat="47.70329" lon="1.57011">
        <ele>85</ele>
        <time>2018-09-16T07:40:49Z</time>
      </trkpt>
      <trkpt lat="47.70286" lon="1.56988">
        <ele>83</ele>
        <time>2018-09-16T07:41:02Z</time>
      </trkpt>
      <trkpt lat="47.70281" lon="1.56984">
        <ele>83</ele>
        <time>2018-09-16T07:41:03Z</time>
      </trkpt>
      <trkpt lat="47.70234" lon="1.56959">
        <ele>82</ele>
        <time>2018-09-16T07:41:11Z</time>
      </trkpt>
      <trkpt lat="47.70228" lon="1.56956">
        <ele>82</ele>
        <time>2018-09-16T07:41:12Z</time>
      </trkpt>
      <trkpt lat="47.70182" lon="1.56929">
        <ele>82</ele>
        <time>2018-09-16T07:41:20Z</time>
      </trkpt>
      <trkpt lat="47.70176" lon="1.56925">
        <ele>82</ele>
        <time>2018-09-16T07:41:21Z</time>
      </trkpt>
      <trkpt lat="47.70131" lon="1.569">
        <ele>82</ele>
        <time>2018-09-16T07:41:28Z</time>
      </trkpt>
      <trkpt lat="47.70125" lon="1.56896">
        <ele>82</ele>
        <time>2018-09-16T07:41:29Z</time>
      </trkpt>
      <trkpt lat="47.7009" lon="1.56865">
        <ele>82</ele>
        <time>2018-09-16T07:41:35Z</time>
      </trkpt>
      <trkpt lat="47.70085" lon="1.56858">
        <ele>82</ele>
        <time>2018-09-16T07:41:36Z</time>
      </trkpt>
      <trkpt lat="47.7005" lon="1.56809">
        <ele>82</ele>
        <time>2018-09-16T07:41:43Z</time>
      </trkpt>
      <trkpt lat="47.70045" lon="1.56802">
        <ele>82</ele>
        <time>2018-09-16T07:41:44Z</time>
      </trkpt>
      <trkpt lat="47.7001" lon="1.56751">
        <ele>82</ele>
        <time>2018-09-16T07:41:51Z</time>
      </trkpt>
      <trkpt lat="47.70005" lon="1.56744">
        <ele>82</ele>
        <time>2018-09-16T07:41:52Z</time>
      </trkpt>
      <trkpt lat="47.6997" lon="1.56693">
        <ele>83</ele>
        <time>2018-09-16T07:41:59Z</time>
      </trkpt>
      <trkpt lat="47.69965" lon="1.56686">
        <ele>83</ele>
        <time>2018-09-16T07:42:00Z</time>
      </trkpt>
      <trkpt lat="47.69931" lon="1.56635">
        <ele>83</ele>
        <time>2018-09-16T07:42:07Z</time>
      </trkpt>
      <trkpt lat="47.69926" lon="1.56628">
        <ele>83</ele>
        <time>2018-09-16T07:42:08Z</time>
      </trkpt>
      <trkpt lat="47.69893" lon="1.56574">
        <ele>82</ele>
        <time>2018-09-16T07:42:15Z</time>
      </trkpt>
      <trkpt lat="47.69889" lon="1.56566">
        <ele>82</ele>
        <time>2018-09-16T07:42:16Z</time>
      </trkpt>
      <trkpt lat="47.69859" lon="1.56506">
        <ele>84</ele>
        <time>2018-09-16T07:42:24Z</time>
      </trkpt>
      <trkpt lat="47.69855" lon="1.56499">
        <ele>84</ele>
        <time>2018-09-16T07:42:25Z</time>
      </trkpt>
      <trkpt lat="47.69851" lon="1.56491">
        <ele>84</ele>
        <time>2018-09-16T07:42:26Z</time>
      </trkpt>
      <trkpt lat="47.69825" lon="1.56435">
        <ele>84</ele>
        <time>2018-09-16T07:42:33Z</time>
      </trkpt>
      <trkpt lat="47.69821" lon="1.56427">
        <ele>84</ele>
        <time>2018-09-16T07:42:34Z</time>
      </trkpt>
      <trkpt lat="47.69794" lon="1.56369">
        <ele>84</ele>
        <time>2018-09-16T07:42:41Z</time>
      </trkpt>
      <trkpt lat="47.69791" lon="1.56361">
        <ele>84</ele>
        <time>2018-09-16T07:42:42Z</time>
      </trkpt>
      <trkpt lat="47.69764" lon="1.56304">
        <ele>85</ele>
        <time>2018-09-16T07:42:49Z</time>
      </trkpt>
      <trkpt lat="47.6976" lon="1.56295">
        <ele>85</ele>
        <time>2018-09-16T07:42:50Z</time>
      </trkpt>
      <trkpt lat="47.6973" lon="1.56237">
        <ele>85</ele>
        <time>2018-09-16T07:42:57Z</time>
      </trkpt>
      <trkpt lat="47.69725" lon="1.56229">
        <ele>85</ele>
        <time>2018-09-16T07:42:58Z</time>
      </trkpt>
      <trkpt lat="47.6972" lon="1.56222">
        <ele>85</ele>
        <time>2018-09-16T07:42:59Z</time>
      </trkpt>
      <trkpt lat="47.69691" lon="1.56191">
        <ele>85</ele>
        <time>2018-09-16T07:43:04Z</time>
      </trkpt>
      <trkpt lat="47.69649" lon="1.56155">
        <ele>85</ele>
        <time>2018-09-16T07:43:11Z</time>
      </trkpt>
      <trkpt lat="47.69643" lon="1.56149">
        <ele>85</ele>
        <time>2018-09-16T07:43:12Z</time>
      </trkpt>
      <trkpt lat="47.69633" lon="1.56136">
        <ele>85</ele>
        <time>2018-09-16T07:43:14Z</time>
      </trkpt>
      <trkpt lat="47.696" lon="1.56085">
        <ele>85</ele>
        <time>2018-09-16T07:43:21Z</time>
      </trkpt>
      <trkpt lat="47.69595" lon="1.56077">
        <ele>85</ele>
        <time>2018-09-16T07:43:22Z</time>
      </trkpt>
      <trkpt lat="47.69564" lon="1.5602">
        <ele>85</ele>
        <time>2018-09-16T07:43:29Z</time>
      </trkpt>
      <trkpt lat="47.69559" lon="1.56012">
        <ele>85</ele>
        <time>2018-09-16T07:43:30Z</time>
      </trkpt>
      <trkpt lat="47.69551" lon="1.55995">
        <ele>85</ele>
        <time>2018-09-16T07:43:32Z</time>
      </trkpt>
      <trkpt lat="47.69522" lon="1.55935">
        <ele>84</ele>
        <time>2018-09-16T07:43:39Z</time>
      </trkpt>
      <trkpt lat="47.69518" lon="1.55927">
        <ele>84</ele>
        <time>2018-09-16T07:43:40Z</time>
      </trkpt>
      <trkpt lat="47.69493" lon="1.55866">
        <ele>84</ele>
        <time>2018-09-16T07:43:47Z</time>
      </trkpt>
      <trkpt lat="47.6949" lon="1.55857">
        <ele>84</ele>
        <time>2018-09-16T07:43:48Z</time>
      </trkpt>
      <trkpt lat="47.69464" lon="1.55796">
        <ele>83</ele>
        <time>2018-09-16T07:43:55Z</time>
      </trkpt>
      <trkpt lat="47.69461" lon="1.55787">
        <ele>83</ele>
        <time>2018-09-16T07:43:56Z</time>
      </trkpt>
      <trkpt lat="47.69434" lon="1.55727">
        <ele>83</ele>
        <time>2018-09-16T07:44:03Z</time>
      </trkpt>
      <trkpt lat="47.69431" lon="1.55719">
        <ele>83</ele>
        <time>2018-09-16T07:44:04Z</time>
      </trkpt>
      <trkpt lat="47.69405" lon="1.55659">
        <ele>82</ele>
        <time>2018-09-16T07:44:11Z</time>
      </trkpt>
      <trkpt lat="47.69401" lon="1.55651">
        <ele>82</ele>
        <time>2018-09-16T07:44:12Z</time>
      </trkpt>
      <trkpt lat="47.69375" lon="1.55591">
        <ele>82</ele>
        <time>2018-09-16T07:44:19Z</time>
      </trkpt>
      <trkpt lat="47.69371" lon="1.55582">
        <ele>82</ele>
        <time>2018-09-16T07:44:20Z</time>
      </trkpt>
      <trkpt lat="47.69345" lon="1.55523">
        <ele>82</ele>
        <time>2018-09-16T07:44:27Z</time>
      </trkpt>
      <trkpt lat="47.69341" lon="1.55515">
        <ele>82</ele>
        <time>2018-09-16T07:44:28Z</time>
      </trkpt>
      <trkpt lat="47.69315" lon="1.55457">
        <ele>82</ele>
        <time>2018-09-16T07:44:35Z</time>
      </trkpt>
      <trkpt lat="47.6931" lon="1.5545">
        <ele>82</ele>
        <time>2018-09-16T07:44:36Z</time>
      </trkpt>
      <trkpt lat="47.69281" lon="1.55397">
        <ele>82</ele>
        <time>2018-09-16T07:44:43Z</time>
      </trkpt>
      <trkpt lat="47.69277" lon="1.5539">
        <ele>82</ele>
        <time>2018-09-16T07:44:44Z</time>
      </trkpt>
      <trkpt lat="47.69257" lon="1.55338">
        <ele>82</ele>
        <time>2018-09-16T07:44:50Z</time>
      </trkpt>
      <trkpt lat="47.69255" lon="1.55329">
        <ele>82</ele>
        <time>2018-09-16T07:44:51Z</time>
      </trkpt>
      <trkpt lat="47.69249" lon="1.5529">
        <ele>82</ele>
        <time>2018-09-16T07:44:55Z</time>
      </trkpt>
      <trkpt lat="47.6925" lon="1.55221">
        <ele>83</ele>
        <time>2018-09-16T07:45:02Z</time>
      </trkpt>
      <trkpt lat="47.69252" lon="1.55212">
        <ele>83</ele>
        <time>2018-09-16T07:45:03Z</time>
      </trkpt>
      <trkpt lat="47.6926" lon="1.55144">
        <ele>83</ele>
        <time>2018-09-16T07:45:10Z</time>
      </trkpt>
      <trkpt lat="47.69261" lon="1.55134">
        <ele>83</ele>
        <time>2018-09-16T07:45:11Z</time>
      </trkpt>
      <trkpt lat="47.69268" lon="1.55067">
        <ele>83</ele>
        <time>2018-09-16T07:45:18Z</time>
      </trkpt>
      <trkpt lat="47.6927" lon="1.55057">
        <ele>83</ele>
        <time>2018-09-16T07:45:19Z</time>
      </trkpt>
      <trkpt lat="47.69278" lon="1.5499">
        <ele>83</ele>
        <time>2018-09-16T07:45:26Z</time>
      </trkpt>
      <trkpt lat="47.69279" lon="1.54981">
        <ele>83</ele>
        <time>2018-09-16T07:45:27Z</time>
      </trkpt>
      <trkpt lat="47.69287" lon="1.54913">
        <ele>82</ele>
        <time>2018-09-16T07:45:34Z</time>
      </trkpt>
      <trkpt lat="47.69287" lon="1.54903">
        <ele>82</ele>
        <time>2018-09-16T07:45:35Z</time>
      </trkpt>
      <trkpt lat="47.69287" lon="1.54855">
        <ele>82</ele>
        <time>2018-09-16T07:45:40Z</time>
      </trkpt>
      <trkpt lat="47.69277" lon="1.54787">
        <ele>83</ele>
        <time>2018-09-16T07:45:47Z</time>
      </trkpt>
      <trkpt lat="47.69275" lon="1.54777">
        <ele>83</ele>
        <time>2018-09-16T07:45:48Z</time>
      </trkpt>
      <trkpt lat="47.69257" lon="1.54713">
        <ele>83</ele>
        <time>2018-09-16T07:45:55Z</time>
      </trkpt>
      <trkpt lat="47.69254" lon="1.54704">
        <ele>83</ele>
        <time>2018-09-16T07:45:56Z</time>
      </trkpt>
      <trkpt lat="47.6924" lon="1.54669">
        <ele>83</ele>
        <time>2018-09-16T07:46:00Z</time>
      </trkpt>
      <trkpt lat="47.69214" lon="1.5461">
        <ele>84</ele>
        <time>2018-09-16T07:46:07Z</time>
      </trkpt>
      <trkpt lat="47.6921" lon="1.54602">
        <ele>84</ele>
        <time>2018-09-16T07:46:08Z</time>
      </trkpt>
      <trkpt lat="47.69182" lon="1.54546">
        <ele>84</ele>
        <time>2018-09-16T07:46:15Z</time>
      </trkpt>
      <trkpt lat="47.69178" lon="1.54538">
        <ele>85</ele>
        <time>2018-09-16T07:46:16Z</time>
      </trkpt>
      <trkpt lat="47.69151" lon="1.5448">
        <ele>84</ele>
        <time>2018-09-16T07:46:23Z</time>
      </trkpt>
      <trkpt lat="47.69146" lon="1.54472">
        <ele>84</ele>
        <time>2018-09-16T07:46:24Z</time>
      </trkpt>
      <trkpt lat="47.69118" lon="1.54414">
        <ele>84</ele>
        <time>2018-09-16T07:46:31Z</time>
      </trkpt>
      <trkpt lat="47.69115" lon="1.54406">
        <ele>84</ele>
        <time>2018-09-16T07:46:32Z</time>
      </trkpt>
      <trkpt lat="47.69086" lon="1.5435">
        <ele>84</ele>
        <time>2018-09-16T07:46:39Z</time>
      </trkpt>
      <trkpt lat="47.69082" lon="1.54342">
        <ele>83</ele>
        <time>2018-09-16T07:46:40Z</time>
      </trkpt>
      <trkpt lat="47.69053" lon="1.54286">
        <ele>83</ele>
        <time>2018-09-16T07:46:47Z</time>
      </trkpt>
      <trkpt lat="47.69049" lon="1.54278">
        <ele>83</ele>
        <time>2018-09-16T07:46:48Z</time>
      </trkpt>
      <trkpt lat="47.69031" lon="1.54247">
        <ele>83</ele>
        <time>2018-09-16T07:46:52Z</time>
      </trkpt>
      <trkpt lat="47.68998" lon="1.54194">
        <ele>82</ele>
        <time>2018-09-16T07:46:59Z</time>
      </trkpt>
      <trkpt lat="47.68993" lon="1.54186">
        <ele>82</ele>
        <time>2018-09-16T07:47:00Z</time>
      </trkpt>
      <trkpt lat="47.68958" lon="1.54137">
        <ele>82</ele>
        <time>2018-09-16T07:47:07Z</time>
      </trkpt>
      <trkpt lat="47.68953" lon="1.5413">
        <ele>82</ele>
        <time>2018-09-16T07:47:08Z</time>
      </trkpt>
      <trkpt lat="47.68919" lon="1.54083">
        <ele>82</ele>
        <time>2018-09-16T07:47:15Z</time>
      </trkpt>
      <trkpt lat="47.68914" lon="1.54077">
        <ele>82</ele>
        <time>2018-09-16T07:47:16Z</time>
      </trkpt>
      <trkpt lat="47.68877" lon="1.54034">
        <ele>81</ele>
        <time>2018-09-16T07:47:23Z</time>
      </trkpt>
      <trkpt lat="47.68871" lon="1.54028">
        <ele>81</ele>
        <time>2018-09-16T07:47:24Z</time>
      </trkpt>
      <trkpt lat="47.68831" lon="1.53991">
        <ele>81</ele>
        <time>2018-09-16T07:47:31Z</time>
      </trkpt>
      <trkpt lat="47.68825" lon="1.53986">
        <ele>81</ele>
        <time>2018-09-16T07:47:32Z</time>
      </trkpt>
      <trkpt lat="47.68783" lon="1.53954">
        <ele>81</ele>
        <time>2018-09-16T07:47:39Z</time>
      </trkpt>
      <trkpt lat="47.68777" lon="1.53949">
        <ele>81</ele>
        <time>2018-09-16T07:47:40Z</time>
      </trkpt>
      <trkpt lat="47.68736" lon="1.53918">
        <ele>81</ele>
        <time>2018-09-16T07:47:47Z</time>
      </trkpt>
      <trkpt lat="47.6873" lon="1.53914">
        <ele>81</ele>
        <time>2018-09-16T07:47:48Z</time>
      </trkpt>
      <trkpt lat="47.68688" lon="1.53882">
        <ele>81</ele>
        <time>2018-09-16T07:47:55Z</time>
      </trkpt>
      <trkpt lat="47.68682" lon="1.53878">
        <ele>81</ele>
        <time>2018-09-16T07:47:56Z</time>
      </trkpt>
      <trkpt lat="47.68641" lon="1.53846">
        <ele>80</ele>
        <time>2018-09-16T07:48:03Z</time>
      </trkpt>
      <trkpt lat="47.68634" lon="1.53841">
        <ele>80</ele>
        <time>2018-09-16T07:48:04Z</time>
      </trkpt>
      <trkpt lat="47.68593" lon="1.5381">
        <ele>80</ele>
        <time>2018-09-16T07:48:11Z</time>
      </trkpt>
      <trkpt lat="47.68587" lon="1.53805">
        <ele>80</ele>
        <time>2018-09-16T07:48:12Z</time>
      </trkpt>
      <trkpt lat="47.68546" lon="1.53774">
        <ele>80</ele>
        <time>2018-09-16T07:48:19Z</time>
      </trkpt>
      <trkpt lat="47.6854" lon="1.5377">
        <ele>80</ele>
        <time>2018-09-16T07:48:20Z</time>
      </trkpt>
      <trkpt lat="47.68499" lon="1.53738">
        <ele>80</ele>
        <time>2018-09-16T07:48:27Z</time>
      </trkpt>
      <trkpt lat="47.68493" lon="1.53734">
        <ele>79</ele>
        <time>2018-09-16T07:48:28Z</time>
      </trkpt>
      <trkpt lat="47.68451" lon="1.53702">
        <ele>79</ele>
        <time>2018-09-16T07:48:35Z</time>
      </trkpt>
      <trkpt lat="47.68445" lon="1.53697">
        <ele>79</ele>
        <time>2018-09-16T07:48:36Z</time>
      </trkpt>
      <trkpt lat="47.68403" lon="1.53663">
        <ele>80</ele>
        <time>2018-09-16T07:48:43Z</time>
      </trkpt>
      <trkpt lat="47.68398" lon="1.53658">
        <ele>80</ele>
        <time>2018-09-16T07:48:44Z</time>
      </trkpt>
      <trkpt lat="47.68383" lon="1.53638">
        <ele>80</ele>
        <time>2018-09-16T07:48:47Z</time>
      </trkpt>
      <trkpt lat="47.68353" lon="1.53584">
        <ele>80</ele>
        <time>2018-09-16T07:48:54Z</time>
      </trkpt>
      <trkpt lat="47.68349" lon="1.53576">
        <ele>80</ele>
        <time>2018-09-16T07:48:55Z</time>
      </trkpt>
      <trkpt lat="47.6832" lon="1.53521">
        <ele>80</ele>
        <time>2018-09-16T07:49:02Z</time>
      </trkpt>
      <trkpt lat="47.68316" lon="1.53513">
        <ele>80</ele>
        <time>2018-09-16T07:49:03Z</time>
      </trkpt>
      <trkpt lat="47.68287" lon="1.53458">
        <ele>80</ele>
        <time>2018-09-16T07:49:10Z</time>
      </trkpt>
      <trkpt lat="47.68283" lon="1.53451">
        <ele>80</ele>
        <time>2018-09-16T07:49:11Z</time>
      </trkpt>
      <trkpt lat="47.68253" lon="1.53395">
        <ele>80</ele>
        <time>2018-09-16T07:49:18Z</time>
      </trkpt>
      <trkpt lat="47.6825" lon="1.53387">
        <ele>80</ele>
        <time>2018-09-16T07:49:19Z</time>
      </trkpt>
      <trkpt lat="47.68228" lon="1.53335">
        <ele>80</ele>
        <time>2018-09-16T07:49:25Z</time>
      </trkpt>
      <trkpt lat="47.68224" lon="1.53327">
        <ele>80</ele>
        <time>2018-09-16T07:49:26Z</time>
      </trkpt>
      <trkpt lat="47.682" lon="1.53266">
        <ele>80</ele>
        <time>2018-09-16T07:49:33Z</time>
      </trkpt>
      <trkpt lat="47.68196" lon="1.53257">
        <ele>80</ele>
        <time>2018-09-16T07:49:34Z</time>
      </trkpt>
      <trkpt lat="47.68172" lon="1.53197">
        <ele>80</ele>
        <time>2018-09-16T07:49:41Z</time>
      </trkpt>
      <trkpt lat="47.68168" lon="1.53188">
        <ele>80</ele>
        <time>2018-09-16T07:49:42Z</time>
      </trkpt>
      <trkpt lat="47.68144" lon="1.53128">
        <ele>79</ele>
        <time>2018-09-16T07:49:49Z</time>
      </trkpt>
      <trkpt lat="47.6814" lon="1.53119">
        <ele>79</ele>
        <time>2018-09-16T07:49:50Z</time>
      </trkpt>
      <trkpt lat="47.68116" lon="1.5306">
        <ele>79</ele>
        <time>2018-09-16T07:49:57Z</time>
      </trkpt>
      <trkpt lat="47.68113" lon="1.53051">
        <ele>80</ele>
        <time>2018-09-16T07:49:58Z</time>
      </trkpt>
      <trkpt lat="47.68088" lon="1.5299">
        <ele>80</ele>
        <time>2018-09-16T07:50:05Z</time>
      </trkpt>
      <trkpt lat="47.68084" lon="1.52981">
        <ele>80</ele>
        <time>2018-09-16T07:50:06Z</time>
      </trkpt>
      <trkpt lat="47.6806" lon="1.52921">
        <ele>81</ele>
        <time>2018-09-16T07:50:13Z</time>
      </trkpt>
      <trkpt lat="47.68056" lon="1.52913">
        <ele>81</ele>
        <time>2018-09-16T07:50:14Z</time>
      </trkpt>
      <trkpt lat="47.68033" lon="1.52853">
        <ele>81</ele>
        <time>2018-09-16T07:50:21Z</time>
      </trkpt>
      <trkpt lat="47.68029" lon="1.52845">
        <ele>81</ele>
        <time>2018-09-16T07:50:22Z</time>
      </trkpt>
      <trkpt lat="47.68005" lon="1.52785">
        <ele>81</ele>
        <time>2018-09-16T07:50:29Z</time>
      </trkpt>
      <trkpt lat="47.68002" lon="1.52777">
        <ele>81</ele>
        <time>2018-09-16T07:50:30Z</time>
      </trkpt>
      <trkpt lat="47.67978" lon="1.52716">
        <ele>80</ele>
        <time>2018-09-16T07:50:37Z</time>
      </trkpt>
      <trkpt lat="47.67974" lon="1.52708">
        <ele>80</ele>
        <time>2018-09-16T07:50:38Z</time>
      </trkpt>
      <trkpt lat="47.6795" lon="1.52648">
        <ele>79</ele>
        <time>2018-09-16T07:50:45Z</time>
      </trkpt>
      <trkpt lat="47.67947" lon="1.5264">
        <ele>79</ele>
        <time>2018-09-16T07:50:46Z</time>
      </trkpt>
      <trkpt lat="47.67923" lon="1.52581">
        <ele>78</ele>
        <time>2018-09-16T07:50:53Z</time>
      </trkpt>
      <trkpt lat="47.6792" lon="1.52573">
        <ele>78</ele>
        <time>2018-09-16T07:50:54Z</time>
      </trkpt>
      <trkpt lat="47.67896" lon="1.52513">
        <ele>78</ele>
        <time>2018-09-16T07:51:01Z</time>
      </trkpt>
      <trkpt lat="47.67893" lon="1.52505">
        <ele>78</ele>
        <time>2018-09-16T07:51:02Z</time>
      </trkpt>
      <trkpt lat="47.67868" lon="1.52444">
        <ele>79</ele>
        <time>2018-09-16T07:51:10Z</time>
      </trkpt>
      <trkpt lat="47.67865" lon="1.52437">
        <ele>79</ele>
        <time>2018-09-16T07:51:11Z</time>
      </trkpt>
      <trkpt lat="47.6785" lon="1.52396">
        <ele>79</ele>
        <time>2018-09-16T07:51:17Z</time>
      </trkpt>
      <trkpt lat="47.67844" lon="1.52381">
        <ele>78</ele>
        <time>2018-09-16T07:51:22Z</time>
      </trkpt>
      <trkpt lat="47.67838" lon="1.5238">
        <ele>79</ele>
        <time>2018-09-16T07:51:24Z</time>
      </trkpt>
      <trkpt lat="47.67794" lon="1.52413">
        <ele>80</ele>
        <time>2018-09-16T07:51:36Z</time>
      </trkpt>
      <trkpt lat="47.6779" lon="1.52417">
        <ele>80</ele>
        <time>2018-09-16T07:51:37Z</time>
      </trkpt>
      <trkpt lat="47.67749" lon="1.5245">
        <ele>82</ele>
        <time>2018-09-16T07:51:47Z</time>
      </trkpt>
      <trkpt lat="47.67744" lon="1.52453">
        <ele>82</ele>
        <time>2018-09-16T07:51:48Z</time>
      </trkpt>
      <trkpt lat="47.67701" lon="1.52487">
        <ele>83</ele>
        <time>2018-09-16T07:51:58Z</time>
      </trkpt>
      <trkpt lat="47.67697" lon="1.5249">
        <ele>84</ele>
        <time>2018-09-16T07:51:59Z</time>
      </trkpt>
      <trkpt lat="47.67656" lon="1.52522">
        <ele>84</ele>
        <time>2018-09-16T07:52:08Z</time>
      </trkpt>
      <trkpt lat="47.67652" lon="1.52526">
        <ele>84</ele>
        <time>2018-09-16T07:52:09Z</time>
      </trkpt>
      <trkpt lat="47.67611" lon="1.5256">
        <ele>84</ele>
        <time>2018-09-16T07:52:17Z</time>
      </trkpt>
      <trkpt lat="47.67606" lon="1.52565">
        <ele>84</ele>
        <time>2018-09-16T07:52:18Z</time>
      </trkpt>
      <trkpt lat="47.67564" lon="1.52599">
        <ele>85</ele>
        <time>2018-09-16T07:52:26Z</time>
      </trkpt>
      <trkpt lat="47.67559" lon="1.52603">
        <ele>85</ele>
        <time>2018-09-16T07:52:27Z</time>
      </trkpt>
      <trkpt lat="47.67519" lon="1.52636">
        <ele>86</ele>
        <time>2018-09-16T07:52:36Z</time>
      </trkpt>
      <trkpt lat="47.67515" lon="1.52639">
        <ele>86</ele>
        <time>2018-09-16T07:52:37Z</time>
      </trkpt>
      <trkpt lat="47.67473" lon="1.52674">
        <ele>86</ele>
        <time>2018-09-16T07:52:47Z</time>
      </trkpt>
      <trkpt lat="47.6747" lon="1.52677">
        <ele>86</ele>
        <time>2018-09-16T07:52:48Z</time>
      </trkpt>
      <trkpt lat="47.67429" lon="1.5271">
        <ele>87</ele>
        <time>2018-09-16T07:52:58Z</time>
      </trkpt>
      <trkpt lat="47.67425" lon="1.52714">
        <ele>87</ele>
        <time>2018-09-16T07:52:59Z</time>
      </trkpt>
      <trkpt lat="47.67385" lon="1.52748">
        <ele>86</ele>
        <time>2018-09-16T07:53:08Z</time>
      </trkpt>
      <trkpt lat="47.67381" lon="1.52752">
        <ele>86</ele>
        <time>2018-09-16T07:53:09Z</time>
      </trkpt>
      <trkpt lat="47.67338" lon="1.52788">
        <ele>86</ele>
        <time>2018-09-16T07:53:19Z</time>
      </trkpt>
      <trkpt lat="47.67333" lon="1.52792">
        <ele>85</ele>
        <time>2018-09-16T07:53:20Z</time>
      </trkpt>
      <trkpt lat="47.6729" lon="1.52828">
        <ele>86</ele>
        <time>2018-09-16T07:53:30Z</time>
      </trkpt>
      <trkpt lat="47.67286" lon="1.52831">
        <ele>86</ele>
        <time>2018-09-16T07:53:31Z</time>
      </trkpt>
      <trkpt lat="47.67269" lon="1.52843">
        <ele>86</ele>
        <time>2018-09-16T07:53:37Z</time>
      </trkpt>
      <trkpt lat="47.67272" lon="1.52836">
        <ele>85</ele>
        <time>2018-09-16T07:53:40Z</time>
      </trkpt>
      <trkpt lat="47.67309" lon="1.52794">
        <ele>81</ele>
        <time>2018-09-16T07:53:48Z</time>
      </trkpt>
      <trkpt lat="47.67315" lon="1.52787">
        <ele>81</ele>
        <time>2018-09-16T07:53:49Z</time>
      </trkpt>
      <trkpt lat="47.67324" lon="1.52772">
        <ele>80</ele>
        <time>2018-09-16T07:53:51Z</time>
      </trkpt>
      <trkpt lat="47.67331" lon="1.52763">
        <ele>80</ele>
        <time>2018-09-16T07:53:53Z</time>
      </trkpt>
      <trkpt lat="47.67352" lon="1.52752">
        <ele>80</ele>
        <time>2018-09-16T07:53:59Z</time>
      </trkpt>
      <trkpt lat="47.67358" lon="1.52744">
        <ele>80</ele>
        <time>2018-09-16T07:54:02Z</time>
      </trkpt>
      <trkpt lat="47.6736" lon="1.52736">
        <ele>80</ele>
        <time>2018-09-16T07:54:04Z</time>
      </trkpt>
      <trkpt lat="47.67355" lon="1.52731">
        <ele>80</ele>
        <time>2018-09-16T07:54:07Z</time>
      </trkpt>
      <trkpt lat="47.67357" lon="1.5273">
        <ele>81</ele>
        <time>2018-09-16T07:58:51Z</time>
      </trkpt>
      <trkpt lat="47.67365" lon="1.52737">
        <ele>74</ele>
        <time>2018-09-16T08:00:52Z</time>
      </trkpt>
      <trkpt lat="47.6738" lon="1.52773">
        <ele>74</ele>
        <time>2018-09-16T08:01:00Z</time>
      </trkpt>
      <trkpt lat="47.67381" lon="1.5279">
        <ele>75</ele>
        <time>2018-09-16T08:01:03Z</time>
      </trkpt>
      <trkpt lat="47.67379" lon="1.52858">
        <ele>76</ele>
        <time>2018-09-16T08:01:13Z</time>
      </trkpt>
      <trkpt lat="47.67379" lon="1.52865">
        <ele>76</ele>
        <time>2018-09-16T08:01:14Z</time>
      </trkpt>
      <trkpt lat="47.6738" lon="1.52905">
        <ele>76</ele>
        <time>2018-09-16T08:01:19Z</time>
      </trkpt>
      <trkpt lat="47.67387" lon="1.52937">
        <ele>76</ele>
        <time>2018-09-16T08:01:23Z</time>
      </trkpt>
      <trkpt lat="47.6741" lon="1.52999">
        <ele>76</ele>
        <time>2018-09-16T08:01:31Z</time>
      </trkpt>
      <trkpt lat="47.67412" lon="1.53006">
        <ele>76</ele>
        <time>2018-09-16T08:01:32Z</time>
      </trkpt>
      <trkpt lat="47.67436" lon="1.53069">
        <ele>76</ele>
        <time>2018-09-16T08:01:41Z</time>
      </trkpt>
      <trkpt lat="47.67436" lon="1.53077">
        <ele>76</ele>
        <time>2018-09-16T08:01:42Z</time>
      </trkpt>
      <trkpt lat="47.67437" lon="1.53098">
        <ele>77</ele>
        <time>2018-09-16T08:01:45Z</time>
      </trkpt>
      <trkpt lat="47.6744" lon="1.53112">
        <ele>79</ele>
        <time>2018-09-16T08:01:48Z</time>
      </trkpt>
      <trkpt lat="47.67444" lon="1.53121">
        <ele>79</ele>
        <time>2018-09-16T08:01:50Z</time>
      </trkpt>
      <trkpt lat="47.67464" lon="1.53152">
        <ele>81</ele>
        <time>2018-09-16T08:01:58Z</time>
      </trkpt>
      <trkpt lat="47.67492" lon="1.53207">
        <ele>84</ele>
        <time>2018-09-16T08:02:10Z</time>
      </trkpt>
      <trkpt lat="47.67495" lon="1.53211">
        <ele>84</ele>
        <time>2018-09-16T08:02:11Z</time>
      </trkpt>
      <trkpt lat="47.67525" lon="1.53267">
        <ele>85</ele>
        <time>2018-09-16T08:02:21Z</time>
      </trkpt>
      <trkpt lat="47.67529" lon="1.53272">
        <ele>85</ele>
        <time>2018-09-16T08:02:22Z</time>
      </trkpt>
      <trkpt lat="47.6756" lon="1.53325">
        <ele>85</ele>
        <time>2018-09-16T08:02:31Z</time>
      </trkpt>
      <trkpt lat="47.67564" lon="1.5333">
        <ele>85</ele>
        <time>2018-09-16T08:02:32Z</time>
      </trkpt>
      <trkpt lat="47.67596" lon="1.53383">
        <ele>85</ele>
        <time>2018-09-16T08:02:41Z</time>
      </trkpt>
      <trkpt lat="47.67599" lon="1.5339">
        <ele>85</ele>
        <time>2018-09-16T08:02:42Z</time>
      </trkpt>
      <trkpt lat="47.67628" lon="1.5345">
        <ele>85</ele>
        <time>2018-09-16T08:02:50Z</time>
      </trkpt>
      <trkpt lat="47.67632" lon="1.53457">
        <ele>85</ele>
        <time>2018-09-16T08:02:51Z</time>
      </trkpt>
      <trkpt lat="47.67663" lon="1.53515">
        <ele>85</ele>
        <time>2018-09-16T08:03:00Z</time>
      </trkpt>
      <trkpt lat="47.67667" lon="1.53522">
        <ele>86</ele>
        <time>2018-09-16T08:03:01Z</time>
      </trkpt>
      <trkpt lat="47.67696" lon="1.5358">
        <ele>86</ele>
        <time>2018-09-16T08:03:10Z</time>
      </trkpt>
      <trkpt lat="47.67699" lon="1.53587">
        <ele>86</ele>
        <time>2018-09-16T08:03:11Z</time>
      </trkpt>
      <trkpt lat="47.67702" lon="1.53595">
        <ele>86</ele>
        <time>2018-09-16T08:03:12Z</time>
      </trkpt>
      <trkpt lat="47.67726" lon="1.53659">
        <ele>86</ele>
        <time>2018-09-16T08:03:21Z</time>
      </trkpt>
      <trkpt lat="47.67728" lon="1.53665">
        <ele>86</ele>
        <time>2018-09-16T08:03:22Z</time>
      </trkpt>
      <trkpt lat="47.67756" lon="1.53725">
        <ele>87</ele>
        <time>2018-09-16T08:03:31Z</time>
      </trkpt>
      <trkpt lat="47.67759" lon="1.53732">
        <ele>87</ele>
        <time>2018-09-16T08:03:32Z</time>
      </trkpt>
      <trkpt lat="47.67775" lon="1.5376">
        <ele>87</ele>
        <time>2018-09-16T08:03:36Z</time>
      </trkpt>
      <trkpt lat="47.67805" lon="1.53818">
        <ele>86</ele>
        <time>2018-09-16T08:03:43Z</time>
      </trkpt>
      <trkpt lat="47.67809" lon="1.53827">
        <ele>85</ele>
        <time>2018-09-16T08:03:44Z</time>
      </trkpt>
      <trkpt lat="47.67837" lon="1.53881">
        <ele>85</ele>
        <time>2018-09-16T08:03:50Z</time>
      </trkpt>
      <trkpt lat="47.67841" lon="1.53889">
        <ele>85</ele>
        <time>2018-09-16T08:03:51Z</time>
      </trkpt>
      <trkpt lat="47.6787" lon="1.53951">
        <ele>85</ele>
        <time>2018-09-16T08:03:59Z</time>
      </trkpt>
      <trkpt lat="47.67873" lon="1.53959">
        <ele>85</ele>
        <time>2018-09-16T08:04:00Z</time>
      </trkpt>
      <trkpt lat="47.67893" lon="1.54012">
        <ele>84</ele>
        <time>2018-09-16T08:04:06Z</time>
      </trkpt>
      <trkpt lat="47.67898" lon="1.54019">
        <ele>84</ele>
        <time>2018-09-16T08:04:07Z</time>
      </trkpt>
      <trkpt lat="47.67933" lon="1.54075">
        <ele>84</ele>
        <time>2018-09-16T08:04:15Z</time>
      </trkpt>
      <trkpt lat="47.67936" lon="1.54084">
        <ele>83</ele>
        <time>2018-09-16T08:04:16Z</time>
      </trkpt>
      <trkpt lat="47.67963" lon="1.54144">
        <ele>83</ele>
        <time>2018-09-16T08:04:23Z</time>
      </trkpt>
      <trkpt lat="47.67967" lon="1.54152">
        <ele>83</ele>
        <time>2018-09-16T08:04:24Z</time>
      </trkpt>
      <trkpt lat="47.67992" lon="1.54209">
        <ele>83</ele>
        <time>2018-09-16T08:04:31Z</time>
      </trkpt>
      <trkpt lat="47.67995" lon="1.54219">
        <ele>83</ele>
        <time>2018-09-16T08:04:32Z</time>
      </trkpt>
      <trkpt lat="47.68025" lon="1.54275">
        <ele>83</ele>
        <time>2018-09-16T08:04:39Z</time>
      </trkpt>
      <trkpt lat="47.68029" lon="1.54283">
        <ele>83</ele>
        <time>2018-09-16T08:04:40Z</time>
      </trkpt>
      <trkpt lat="47.68061" lon="1.54336">
        <ele>83</ele>
        <time>2018-09-16T08:04:47Z</time>
      </trkpt>
      <trkpt lat="47.68065" lon="1.54344">
        <ele>83</ele>
        <time>2018-09-16T08:04:48Z</time>
      </trkpt>
      <trkpt lat="47.68094" lon="1.54406">
        <ele>84</ele>
        <time>2018-09-16T08:04:56Z</time>
      </trkpt>
      <trkpt lat="47.68095" lon="1.54413">
        <ele>84</ele>
        <time>2018-09-16T08:04:57Z</time>
      </trkpt>
      <trkpt lat="47.68097" lon="1.5442">
        <ele>84</ele>
        <time>2018-09-16T08:04:58Z</time>
      </trkpt>
      <trkpt lat="47.68117" lon="1.54486">
        <ele>86</ele>
        <time>2018-09-16T08:05:07Z</time>
      </trkpt>
      <trkpt lat="47.6812" lon="1.54494">
        <ele>86</ele>
        <time>2018-09-16T08:05:08Z</time>
      </trkpt>
      <trkpt lat="47.68136" lon="1.54531">
        <ele>86</ele>
        <time>2018-09-16T08:05:13Z</time>
      </trkpt>
      <trkpt lat="47.68164" lon="1.5459">
        <ele>88</ele>
        <time>2018-09-16T08:05:22Z</time>
      </trkpt>
      <trkpt lat="47.68167" lon="1.54596">
        <ele>88</ele>
        <time>2018-09-16T08:05:23Z</time>
      </trkpt>
      <trkpt lat="47.68176" lon="1.5462">
        <ele>87</ele>
        <time>2018-09-16T08:05:26Z</time>
      </trkpt>
      <trkpt lat="47.682" lon="1.54686">
        <ele>87</ele>
        <time>2018-09-16T08:05:34Z</time>
      </trkpt>
      <trkpt lat="47.68203" lon="1.54695">
        <ele>87</ele>
        <time>2018-09-16T08:05:35Z</time>
      </trkpt>
      <trkpt lat="47.68227" lon="1.5476">
        <ele>88</ele>
        <time>2018-09-16T08:05:43Z</time>
      </trkpt>
      <trkpt lat="47.6823" lon="1.54768">
        <ele>88</ele>
        <time>2018-09-16T08:05:44Z</time>
      </trkpt>
      <trkpt lat="47.68248" lon="1.54831">
        <ele>88</ele>
        <time>2018-09-16T08:05:52Z</time>
      </trkpt>
      <trkpt lat="47.6825" lon="1.54839">
        <ele>88</ele>
        <time>2018-09-16T08:05:53Z</time>
      </trkpt>
      <trkpt lat="47.68274" lon="1.54907">
        <ele>87</ele>
        <time>2018-09-16T08:06:01Z</time>
      </trkpt>
      <trkpt lat="47.68278" lon="1.54916">
        <ele>87</ele>
        <time>2018-09-16T08:06:02Z</time>
      </trkpt>
      <trkpt lat="47.68301" lon="1.54975">
        <ele>87</ele>
        <time>2018-09-16T08:06:09Z</time>
      </trkpt>
      <trkpt lat="47.68305" lon="1.54984">
        <ele>87</ele>
        <time>2018-09-16T08:06:10Z</time>
      </trkpt>
      <trkpt lat="47.68315" lon="1.55029">
        <ele>86</ele>
        <time>2018-09-16T08:06:15Z</time>
      </trkpt>
      <trkpt lat="47.68327" lon="1.55102">
        <ele>86</ele>
        <time>2018-09-16T08:06:23Z</time>
      </trkpt>
      <trkpt lat="47.6833" lon="1.55112">
        <ele>86</ele>
        <time>2018-09-16T08:06:24Z</time>
      </trkpt>
      <trkpt lat="47.68356" lon="1.55176">
        <ele>86</ele>
        <time>2018-09-16T08:06:32Z</time>
      </trkpt>
      <trkpt lat="47.68359" lon="1.55184">
        <ele>86</ele>
        <time>2018-09-16T08:06:33Z</time>
      </trkpt>
      <trkpt lat="47.68362" lon="1.55192">
        <ele>86</ele>
        <time>2018-09-16T08:06:34Z</time>
      </trkpt>
      <trkpt lat="47.68367" lon="1.55216">
        <ele>86</ele>
        <time>2018-09-16T08:06:37Z</time>
      </trkpt>
      <trkpt lat="47.68367" lon="1.55227">
        <ele>86</ele>
        <time>2018-09-16T08:06:39Z</time>
      </trkpt>
      <trkpt lat="47.68373" lon="1.55221">
        <ele>86</ele>
        <time>2018-09-16T08:06:43Z</time>
      </trkpt>
      <trkpt lat="47.6838" lon="1.55165">
        <ele>83</ele>
        <time>2018-09-16T08:06:49Z</time>
      </trkpt>
      <trkpt lat="47.68384" lon="1.55155">
        <ele>83</ele>
        <time>2018-09-16T08:06:50Z</time>
      </trkpt>
      <trkpt lat="47.68398" lon="1.55123">
        <ele>81</ele>
        <time>2018-09-16T08:06:54Z</time>
      </trkpt>
      <trkpt lat="47.68404" lon="1.55124">
        <ele>81</ele>
        <time>2018-09-16T08:06:56Z</time>
      </trkpt>
      <trkpt lat="47.68442" lon="1.55175">
        <ele>80</ele>
        <time>2018-09-16T08:07:05Z</time>
      </trkpt>
      <trkpt lat="47.68446" lon="1.55181">
        <ele>80</ele>
        <time>2018-09-16T08:07:06Z</time>
      </trkpt>
      <trkpt lat="47.68451" lon="1.55185">
        <ele>80</ele>
        <time>2018-09-16T08:07:07Z</time>
      </trkpt>
      <trkpt lat="47.68461" lon="1.55183">
        <ele>81</ele>
        <time>2018-09-16T08:07:09Z</time>
      </trkpt>
      <trkpt lat="47.68474" lon="1.55167">
        <ele>81</ele>
        <time>2018-09-16T08:07:12Z</time>
      </trkpt>
      <trkpt lat="47.68484" lon="1.55168">
        <ele>80</ele>
        <time>2018-09-16T08:07:14Z</time>
      </trkpt>
      <trkpt lat="47.68498" lon="1.55183">
        <ele>80</ele>
        <time>2018-09-16T08:07:17Z</time>
      </trkpt>
      <trkpt lat="47.68515" lon="1.55216">
        <ele>79</ele>
        <time>2018-09-16T08:07:22Z</time>
      </trkpt>
      <trkpt lat="47.68538" lon="1.55282">
        <ele>78</ele>
        <time>2018-09-16T08:07:30Z</time>
      </trkpt>
      <trkpt lat="47.68541" lon="1.5529">
        <ele>78</ele>
        <time>2018-09-16T08:07:31Z</time>
      </trkpt>
      <trkpt lat="47.68545" lon="1.55297">
        <ele>78</ele>
        <time>2018-09-16T08:07:32Z</time>
      </trkpt>
      <trkpt lat="47.68578" lon="1.55355">
        <ele>78</ele>
        <time>2018-09-16T08:07:40Z</time>
      </trkpt>
      <trkpt lat="47.68582" lon="1.55362">
        <ele>78</ele>
        <time>2018-09-16T08:07:41Z</time>
      </trkpt>
      <trkpt lat="47.68616" lon="1.55413">
        <ele>79</ele>
        <time>2018-09-16T08:07:49Z</time>
      </trkpt>
      <trkpt lat="47.68617" lon="1.55422">
        <ele>79</ele>
        <time>2018-09-16T08:07:50Z</time>
      </trkpt>
      <trkpt lat="47.6862" lon="1.5544">
        <ele>79</ele>
        <time>2018-09-16T08:07:52Z</time>
      </trkpt>
      <trkpt lat="47.68635" lon="1.55461">
        <ele>79</ele>
        <time>2018-09-16T08:07:55Z</time>
      </trkpt>
      <trkpt lat="47.68647" lon="1.55481">
        <ele>80</ele>
        <time>2018-09-16T08:07:58Z</time>
      </trkpt>
      <trkpt lat="47.68676" lon="1.55532">
        <ele>80</ele>
        <time>2018-09-16T08:08:05Z</time>
      </trkpt>
      <trkpt lat="47.68679" lon="1.55541">
        <ele>80</ele>
        <time>2018-09-16T08:08:06Z</time>
      </trkpt>
      <trkpt lat="47.6869" lon="1.55564">
        <ele>80</ele>
        <time>2018-09-16T08:08:09Z</time>
      </trkpt>
      <trkpt lat="47.68713" lon="1.55596">
        <ele>80</ele>
        <time>2018-09-16T08:08:14Z</time>
      </trkpt>
      <trkpt lat="47.68736" lon="1.55642">
        <ele>78</ele>
        <time>2018-09-16T08:08:20Z</time>
      </trkpt>
      <trkpt lat="47.68757" lon="1.55671">
        <ele>78</ele>
        <time>2018-09-16T08:08:25Z</time>
      </trkpt>
      <trkpt lat="47.68793" lon="1.55715">
        <ele>78</ele>
        <time>2018-09-16T08:08:34Z</time>
      </trkpt>
      <trkpt lat="47.68798" lon="1.5572">
        <ele>78</ele>
        <time>2018-09-16T08:08:35Z</time>
      </trkpt>
      <trkpt lat="47.68834" lon="1.55768">
        <ele>78</ele>
        <time>2018-09-16T08:08:44Z</time>
      </trkpt>
      <trkpt lat="47.68838" lon="1.55774">
        <ele>78</ele>
        <time>2018-09-16T08:08:45Z</time>
      </trkpt>
      <trkpt lat="47.68864" lon="1.55806">
        <ele>77</ele>
        <time>2018-09-16T08:08:51Z</time>
      </trkpt>
      <trkpt lat="47.68873" lon="1.55814">
        <ele>77</ele>
        <time>2018-09-16T08:08:53Z</time>
      </trkpt>
      <trkpt lat="47.68885" lon="1.55838">
        <ele>77</ele>
        <time>2018-09-16T08:08:57Z</time>
      </trkpt>
      <trkpt lat="47.68908" lon="1.55901">
        <ele>77</ele>
        <time>2018-09-16T08:09:06Z</time>
      </trkpt>
      <trkpt lat="47.6891" lon="1.55907">
        <ele>77</ele>
        <time>2018-09-16T08:09:07Z</time>
      </trkpt>
      <trkpt lat="47.68932" lon="1.55968">
        <ele>77</ele>
        <time>2018-09-16T08:09:16Z</time>
      </trkpt>
      <trkpt lat="47.68935" lon="1.55975">
        <ele>77</ele>
        <time>2018-09-16T08:09:17Z</time>
      </trkpt>
      <trkpt lat="47.68957" lon="1.56031">
        <ele>77</ele>
        <time>2018-09-16T08:09:25Z</time>
      </trkpt>
      <trkpt lat="47.68961" lon="1.56036">
        <ele>77</ele>
        <time>2018-09-16T08:09:26Z</time>
      </trkpt>
      <trkpt lat="47.6899" lon="1.56073">
        <ele>77</ele>
        <time>2018-09-16T08:09:34Z</time>
      </trkpt>
      <trkpt lat="47.69001" lon="1.56096">
        <ele>77</ele>
        <time>2018-09-16T08:09:38Z</time>
      </trkpt>
      <trkpt lat="47.69027" lon="1.56154">
        <ele>77</ele>
        <time>2018-09-16T08:09:47Z</time>
      </trkpt>
      <trkpt lat="47.69031" lon="1.56159">
        <ele>77</ele>
        <time>2018-09-16T08:09:48Z</time>
      </trkpt>
      <trkpt lat="47.69041" lon="1.56179">
        <ele>76</ele>
        <time>2018-09-16T08:09:51Z</time>
      </trkpt>
      <trkpt lat="47.69058" lon="1.56219">
        <ele>77</ele>
        <time>2018-09-16T08:09:56Z</time>
      </trkpt>
      <trkpt lat="47.6907" lon="1.56244">
        <ele>78</ele>
        <time>2018-09-16T08:10:00Z</time>
      </trkpt>
      <trkpt lat="47.69088" lon="1.56277">
        <ele>79</ele>
        <time>2018-09-16T08:10:06Z</time>
      </trkpt>
      <trkpt lat="47.69098" lon="1.5631">
        <ele>79</ele>
        <time>2018-09-16T08:10:11Z</time>
      </trkpt>
      <trkpt lat="47.69104" lon="1.56324">
        <ele>79</ele>
        <time>2018-09-16T08:10:14Z</time>
      </trkpt>
      <trkpt lat="47.69109" lon="1.56338">
        <ele>79</ele>
        <time>2018-09-16T08:10:17Z</time>
      </trkpt>
      <trkpt lat="47.69112" lon="1.56357">
        <ele>79</ele>
        <time>2018-09-16T08:10:21Z</time>
      </trkpt>
      <trkpt lat="47.69113" lon="1.56395">
        <ele>78</ele>
        <time>2018-09-16T08:10:27Z</time>
      </trkpt>
      <trkpt lat="47.69121" lon="1.56412">
        <ele>78</ele>
        <time>2018-09-16T08:10:30Z</time>
      </trkpt>
      <trkpt lat="47.6914" lon="1.56427">
        <ele>78</ele>
        <time>2018-09-16T08:10:34Z</time>
      </trkpt>
      <trkpt lat="47.69154" lon="1.56438">
        <ele>78</ele>
        <time>2018-09-16T08:10:37Z</time>
      </trkpt>
      <trkpt lat="47.69175" lon="1.56479">
        <ele>78</ele>
        <time>2018-09-16T08:10:43Z</time>
      </trkpt>
      <trkpt lat="47.69192" lon="1.56504">
        <ele>78</ele>
        <time>2018-09-16T08:10:47Z</time>
      </trkpt>
      <trkpt lat="47.69202" lon="1.56525">
        <ele>77</ele>
        <time>2018-09-16T08:10:50Z</time>
      </trkpt>
      <trkpt lat="47.69225" lon="1.56572">
        <ele>77</ele>
        <time>2018-09-16T08:10:57Z</time>
      </trkpt>
      <trkpt lat="47.69241" lon="1.56587">
        <ele>76</ele>
        <time>2018-09-16T08:11:00Z</time>
      </trkpt>
      <trkpt lat="47.69276" lon="1.56638">
        <ele>75</ele>
        <time>2018-09-16T08:11:08Z</time>
      </trkpt>
      <trkpt lat="47.69279" lon="1.56645">
        <ele>75</ele>
        <time>2018-09-16T08:11:09Z</time>
      </trkpt>
      <trkpt lat="47.6931" lon="1.56697">
        <ele>74</ele>
        <time>2018-09-16T08:11:17Z</time>
      </trkpt>
      <trkpt lat="47.69315" lon="1.56702">
        <ele>74</ele>
        <time>2018-09-16T08:11:18Z</time>
      </trkpt>
      <trkpt lat="47.69334" lon="1.56726">
        <ele>74</ele>
        <time>2018-09-16T08:11:22Z</time>
      </trkpt>
      <trkpt lat="47.69347" lon="1.56744">
        <ele>74</ele>
        <time>2018-09-16T08:11:25Z</time>
      </trkpt>
      <trkpt lat="47.69358" lon="1.56772">
        <ele>74</ele>
        <time>2018-09-16T08:11:29Z</time>
      </trkpt>
      <trkpt lat="47.69381" lon="1.56798">
        <ele>75</ele>
        <time>2018-09-16T08:11:34Z</time>
      </trkpt>
      <trkpt lat="47.69388" lon="1.56809">
        <ele>75</ele>
        <time>2018-09-16T08:11:36Z</time>
      </trkpt>
      <trkpt lat="47.69398" lon="1.56825">
        <ele>76</ele>
        <time>2018-09-16T08:11:39Z</time>
      </trkpt>
      <trkpt lat="47.69415" lon="1.56846">
        <ele>76</ele>
        <time>2018-09-16T08:11:43Z</time>
      </trkpt>
      <trkpt lat="47.69441" lon="1.56904">
        <ele>76</ele>
        <time>2018-09-16T08:11:52Z</time>
      </trkpt>
      <trkpt lat="47.69445" lon="1.56907">
        <ele>76</ele>
        <time>2018-09-16T08:11:53Z</time>
      </trkpt>
      <trkpt lat="47.69475" lon="1.56949">
        <ele>75</ele>
        <time>2018-09-16T08:12:01Z</time>
      </trkpt>
      <trkpt lat="47.69478" lon="1.56955">
        <ele>75</ele>
        <time>2018-09-16T08:12:02Z</time>
      </trkpt>
      <trkpt lat="47.69508" lon="1.57011">
        <ele>75</ele>
        <time>2018-09-16T08:12:11Z</time>
      </trkpt>
      <trkpt lat="47.69511" lon="1.57017">
        <ele>75</ele>
        <time>2018-09-16T08:12:12Z</time>
      </trkpt>
      <trkpt lat="47.69528" lon="1.5705">
        <ele>74</ele>
        <time>2018-09-16T08:12:17Z</time>
      </trkpt>
      <trkpt lat="47.69535" lon="1.57069">
        <ele>74</ele>
        <time>2018-09-16T08:12:20Z</time>
      </trkpt>
      <trkpt lat="47.69563" lon="1.57117">
        <ele>74</ele>
        <time>2018-09-16T08:12:29Z</time>
      </trkpt>
      <trkpt lat="47.69567" lon="1.57122">
        <ele>74</ele>
        <time>2018-09-16T08:12:30Z</time>
      </trkpt>
      <trkpt lat="47.696" lon="1.5717">
        <ele>72</ele>
        <time>2018-09-16T08:12:38Z</time>
      </trkpt>
      <trkpt lat="47.69604" lon="1.57177">
        <ele>72</ele>
        <time>2018-09-16T08:12:39Z</time>
      </trkpt>
      <trkpt lat="47.69615" lon="1.57199">
        <ele>72</ele>
        <time>2018-09-16T08:12:42Z</time>
      </trkpt>
      <trkpt lat="47.69625" lon="1.57225">
        <ele>72</ele>
        <time>2018-09-16T08:12:46Z</time>
      </trkpt>
      <trkpt lat="47.69659" lon="1.57276">
        <ele>71</ele>
        <time>2018-09-16T08:12:55Z</time>
      </trkpt>
      <trkpt lat="47.69662" lon="1.57283">
        <ele>71</ele>
        <time>2018-09-16T08:12:56Z</time>
      </trkpt>
      <trkpt lat="47.69669" lon="1.57296">
        <ele>71</ele>
        <time>2018-09-16T08:12:58Z</time>
      </trkpt>
      <trkpt lat="47.69683" lon="1.57319">
        <ele>70</ele>
        <time>2018-09-16T08:13:02Z</time>
      </trkpt>
      <trkpt lat="47.6971" lon="1.57378">
        <ele>70</ele>
        <time>2018-09-16T08:13:11Z</time>
      </trkpt>
      <trkpt lat="47.69713" lon="1.57385">
        <ele>70</ele>
        <time>2018-09-16T08:13:12Z</time>
      </trkpt>
      <trkpt lat="47.69741" lon="1.57441">
        <ele>70</ele>
        <time>2018-09-16T08:13:21Z</time>
      </trkpt>
      <trkpt lat="47.69743" lon="1.57447">
        <ele>69</ele>
        <time>2018-09-16T08:13:22Z</time>
      </trkpt>
      <trkpt lat="47.69768" lon="1.57496">
        <ele>68</ele>
        <time>2018-09-16T08:13:30Z</time>
      </trkpt>
      <trkpt lat="47.69772" lon="1.57502">
        <ele>68</ele>
        <time>2018-09-16T08:13:31Z</time>
      </trkpt>
      <trkpt lat="47.69802" lon="1.57555">
        <ele>68</ele>
        <time>2018-09-16T08:13:40Z</time>
      </trkpt>
      <trkpt lat="47.69805" lon="1.57561">
        <ele>68</ele>
        <time>2018-09-16T08:13:41Z</time>
      </trkpt>
      <trkpt lat="47.69817" lon="1.57586">
        <ele>68</ele>
        <time>2018-09-16T08:13:45Z</time>
      </trkpt>
      <trkpt lat="47.69847" lon="1.57639">
        <ele>68</ele>
        <time>2018-09-16T08:13:55Z</time>
      </trkpt>
      <trkpt lat="47.6985" lon="1.57645">
        <ele>68</ele>
        <time>2018-09-16T08:13:56Z</time>
      </trkpt>
      <trkpt lat="47.69878" lon="1.57699">
        <ele>69</ele>
        <time>2018-09-16T08:14:06Z</time>
      </trkpt>
      <trkpt lat="47.6988" lon="1.57704">
        <ele>70</ele>
        <time>2018-09-16T08:14:07Z</time>
      </trkpt>
      <trkpt lat="47.6991" lon="1.57761">
        <ele>74</ele>
        <time>2018-09-16T08:14:20Z</time>
      </trkpt>
      <trkpt lat="47.69913" lon="1.57764">
        <ele>74</ele>
        <time>2018-09-16T08:14:21Z</time>
      </trkpt>
      <trkpt lat="47.69936" lon="1.57788">
        <ele>75</ele>
        <time>2018-09-16T08:14:28Z</time>
      </trkpt>
      <trkpt lat="47.69972" lon="1.57837">
        <ele>75</ele>
        <time>2018-09-16T08:14:39Z</time>
      </trkpt>
      <trkpt lat="47.69975" lon="1.57842">
        <ele>75</ele>
        <time>2018-09-16T08:14:40Z</time>
      </trkpt>
      <trkpt lat="47.69986" lon="1.57859">
        <ele>75</ele>
        <time>2018-09-16T08:14:44Z</time>
      </trkpt>
      <trkpt lat="47.69995" lon="1.57879">
        <ele>75</ele>
        <time>2018-09-16T08:14:48Z</time>
      </trkpt>
      <trkpt lat="47.70022" lon="1.57938">
        <ele>76</ele>
        <time>2018-09-16T08:14:59Z</time>
      </trkpt>
      <trkpt lat="47.70024" lon="1.57943">
        <ele>76</ele>
        <time>2018-09-16T08:15:00Z</time>
      </trkpt>
      <trkpt lat="47.70044" lon="1.57982">
        <ele>76</ele>
        <time>2018-09-16T08:15:07Z</time>
      </trkpt>
      <trkpt lat="47.70065" lon="1.58028">
        <ele>77</ele>
        <time>2018-09-16T08:15:15Z</time>
      </trkpt>
      <trkpt lat="47.70077" lon="1.58046">
        <ele>76</ele>
        <time>2018-09-16T08:15:19Z</time>
      </trkpt>
      <trkpt lat="47.70089" lon="1.58056">
        <ele>76</ele>
        <time>2018-09-16T08:15:23Z</time>
      </trkpt>
      <trkpt lat="47.70126" lon="1.58097">
        <ele>77</ele>
        <time>2018-09-16T08:15:34Z</time>
      </trkpt>
      <trkpt lat="47.70129" lon="1.581">
        <ele>77</ele>
        <time>2018-09-16T08:15:35Z</time>
      </trkpt>
      <trkpt lat="47.70146" lon="1.58113">
        <ele>77</ele>
        <time>2018-09-16T08:15:40Z</time>
      </trkpt>
      <trkpt lat="47.70165" lon="1.58137">
        <ele>78</ele>
        <time>2018-09-16T08:15:46Z</time>
      </trkpt>
      <trkpt lat="47.70182" lon="1.58165">
        <ele>80</ele>
        <time>2018-09-16T08:15:52Z</time>
      </trkpt>
      <trkpt lat="47.70219" lon="1.58208">
        <ele>81</ele>
        <time>2018-09-16T08:16:04Z</time>
      </trkpt>
      <trkpt lat="47.70221" lon="1.58212">
        <ele>81</ele>
        <time>2018-09-16T08:16:05Z</time>
      </trkpt>
      <trkpt lat="47.7023" lon="1.58224">
        <ele>83</ele>
        <time>2018-09-16T08:16:23Z</time>
      </trkpt>
      <trkpt lat="47.7024" lon="1.58238">
        <ele>83</ele>
        <time>2018-09-16T08:16:29Z</time>
      </trkpt>
      <trkpt lat="47.70244" lon="1.58244">
        <ele>84</ele>
        <time>2018-09-16T08:16:31Z</time>
      </trkpt>
      <trkpt lat="47.70255" lon="1.58256">
        <ele>83</ele>
        <time>2018-09-16T08:16:35Z</time>
      </trkpt>
      <trkpt lat="47.70261" lon="1.5827">
        <ele>83</ele>
        <time>2018-09-16T08:16:38Z</time>
      </trkpt>
      <trkpt lat="47.70275" lon="1.58288">
        <ele>83</ele>
        <time>2018-09-16T08:16:43Z</time>
      </trkpt>
      <trkpt lat="47.70284" lon="1.58295">
        <ele>83</ele>
        <time>2018-09-16T08:16:46Z</time>
      </trkpt>
      <trkpt lat="47.70292" lon="1.58306">
        <ele>83</ele>
        <time>2018-09-16T08:16:49Z</time>
      </trkpt>
      <trkpt lat="47.70303" lon="1.58321">
        <ele>83</ele>
        <time>2018-09-16T08:16:53Z</time>
      </trkpt>
      <trkpt lat="47.70312" lon="1.58328">
        <ele>83</ele>
        <time>2018-09-16T08:16:56Z</time>
      </trkpt>
      <trkpt lat="47.70346" lon="1.58379">
        <ele>84</ele>
        <time>2018-09-16T08:17:08Z</time>
      </trkpt>
      <trkpt lat="47.70349" lon="1.58383">
        <ele>84</ele>
        <time>2018-09-16T08:17:09Z</time>
      </trkpt>
      <trkpt lat="47.70364" lon="1.584">
        <ele>84</ele>
        <time>2018-09-16T08:17:14Z</time>
      </trkpt>
      <trkpt lat="47.70369" lon="1.58398">
        <ele>82</ele>
        <time>2018-09-16T08:17:39Z</time>
      </trkpt>
      <trkpt lat="47.70376" lon="1.58388">
        <ele>77</ele>
        <time>2018-09-16T08:18:01Z</time>
      </trkpt>
      <trkpt lat="47.70383" lon="1.58386">
        <ele>77</ele>
        <time>2018-09-16T08:18:08Z</time>
      </trkpt>
      <trkpt lat="47.70402" lon="1.58371">
        <ele>78</ele>
        <time>2018-09-16T08:18:14Z</time>
      </trkpt>
      <trkpt lat="47.70439" lon="1.58333">
        <ele>75</ele>
        <time>2018-09-16T08:18:27Z</time>
      </trkpt>
      <trkpt lat="47.70439" lon="1.5833">
        <ele>75</ele>
        <time>2018-09-16T08:18:28Z</time>
      </trkpt>
      <trkpt lat="47.70437" lon="1.58324">
        <ele>74</ele>
        <time>2018-09-16T08:18:30Z</time>
      </trkpt>
      <trkpt lat="47.70434" lon="1.58311">
        <ele>75</ele>
        <time>2018-09-16T08:18:33Z</time>
      </trkpt>
      <trkpt lat="47.70433" lon="1.58294">
        <ele>75</ele>
        <time>2018-09-16T08:18:39Z</time>
      </trkpt>
      <trkpt lat="47.70437" lon="1.58281">
        <ele>75</ele>
        <time>2018-09-16T08:18:46Z</time>
      </trkpt>
      <trkpt lat="47.70441" lon="1.58271">
        <ele>75</ele>
        <time>2018-09-16T08:18:49Z</time>
      </trkpt>
      <trkpt lat="47.70454" lon="1.58256">
        <ele>75</ele>
        <time>2018-09-16T08:18:54Z</time>
      </trkpt>
      <trkpt lat="47.70459" lon="1.58249">
        <ele>75</ele>
        <time>2018-09-16T08:18:56Z</time>
      </trkpt>
      <trkpt lat="47.70482" lon="1.58242">
        <ele>77</ele>
        <time>2018-09-16T08:19:03Z</time>
      </trkpt>
      <trkpt lat="47.70497" lon="1.58238">
        <ele>79</ele>
        <time>2018-09-16T08:19:07Z</time>
      </trkpt>
      <trkpt lat="47.70542" lon="1.58222">
        <ele>84</ele>
        <time>2018-09-16T08:19:18Z</time>
      </trkpt>
      <trkpt lat="47.70547" lon="1.58221">
        <ele>84</ele>
        <time>2018-09-16T08:19:19Z</time>
      </trkpt>
      <trkpt lat="47.70594" lon="1.58204">
        <ele>86</ele>
        <time>2018-09-16T08:19:30Z</time>
      </trkpt>
      <trkpt lat="47.70598" lon="1.58202">
        <ele>86</ele>
        <time>2018-09-16T08:19:31Z</time>
      </trkpt>
      <trkpt lat="47.7064" lon="1.58176">
        <ele>86</ele>
        <time>2018-09-16T08:19:41Z</time>
      </trkpt>
      <trkpt lat="47.70644" lon="1.58173">
        <ele>86</ele>
        <time>2018-09-16T08:19:42Z</time>
      </trkpt>
      <trkpt lat="47.70689" lon="1.58156">
        <ele>84</ele>
        <time>2018-09-16T08:19:52Z</time>
      </trkpt>
      <trkpt lat="47.70694" lon="1.58154">
        <ele>84</ele>
        <time>2018-09-16T08:19:53Z</time>
      </trkpt>
      <trkpt lat="47.70699" lon="1.58154">
        <ele>84</ele>
        <time>2018-09-16T08:19:54Z</time>
      </trkpt>
      <trkpt lat="47.70732" lon="1.58152">
        <ele>82</ele>
        <time>2018-09-16T08:20:01Z</time>
      </trkpt>
      <trkpt lat="47.70771" lon="1.58153">
        <ele>82</ele>
        <time>2018-09-16T08:20:09Z</time>
      </trkpt>
      <trkpt lat="47.70819" lon="1.58139">
        <ele>83</ele>
        <time>2018-09-16T08:20:19Z</time>
      </trkpt>
      <trkpt lat="47.70824" lon="1.58137">
        <ele>83</ele>
        <time>2018-09-16T08:20:20Z</time>
      </trkpt>
      <trkpt lat="47.70849" lon="1.58133">
        <ele>83</ele>
        <time>2018-09-16T08:20:26Z</time>
      </trkpt>
      <trkpt lat="47.70855" lon="1.58142">
        <ele>83</ele>
        <time>2018-09-16T08:20:28Z</time>
      </trkpt>
      <trkpt lat="47.70872" lon="1.58168">
        <ele>81</ele>
        <time>2018-09-16T08:20:34Z</time>
      </trkpt>
      <trkpt lat="47.70907" lon="1.58215">
        <ele>81</ele>
        <time>2018-09-16T08:20:45Z</time>
      </trkpt>
      <trkpt lat="47.7091" lon="1.58219">
        <ele>80</ele>
        <time>2018-09-16T08:20:46Z</time>
      </trkpt>
      <trkpt lat="47.70915" lon="1.58227">
        <ele>80</ele>
        <time>2018-09-16T08:20:48Z</time>
      </trkpt>
      <trkpt lat="47.70929" lon="1.5824">
        <ele>81</ele>
        <time>2018-09-16T08:20:52Z</time>
      </trkpt>
      <trkpt lat="47.70951" lon="1.58257">
        <ele>80</ele>
        <time>2018-09-16T08:20:57Z</time>
      </trkpt>
      <trkpt lat="47.70987" lon="1.58303">
        <ele>79</ele>
        <time>2018-09-16T08:21:06Z</time>
      </trkpt>
      <trkpt lat="47.70991" lon="1.58308">
        <ele>78</ele>
        <time>2018-09-16T08:21:07Z</time>
      </trkpt>
      <trkpt lat="47.71028" lon="1.58358">
        <ele>77</ele>
        <time>2018-09-16T08:21:16Z</time>
      </trkpt>
      <trkpt lat="47.71032" lon="1.58364">
        <ele>77</ele>
        <time>2018-09-16T08:21:17Z</time>
      </trkpt>
      <trkpt lat="47.71069" lon="1.58413">
        <ele>76</ele>
        <time>2018-09-16T08:21:26Z</time>
      </trkpt>
      <trkpt lat="47.71073" lon="1.58418">
        <ele>75</ele>
        <time>2018-09-16T08:21:27Z</time>
      </trkpt>
      <trkpt lat="47.71107" lon="1.58465">
        <ele>75</ele>
        <time>2018-09-16T08:21:36Z</time>
      </trkpt>
      <trkpt lat="47.71111" lon="1.5847">
        <ele>75</ele>
        <time>2018-09-16T08:21:37Z</time>
      </trkpt>
      <trkpt lat="47.71148" lon="1.5852">
        <ele>75</ele>
        <time>2018-09-16T08:21:47Z</time>
      </trkpt>
      <trkpt lat="47.71152" lon="1.58525">
        <ele>75</ele>
        <time>2018-09-16T08:21:48Z</time>
      </trkpt>
      <trkpt lat="47.71169" lon="1.58543">
        <ele>75</ele>
        <time>2018-09-16T08:21:52Z</time>
      </trkpt>
      <trkpt lat="47.71192" lon="1.58552">
        <ele>76</ele>
        <time>2018-09-16T08:21:57Z</time>
      </trkpt>
      <trkpt lat="47.7121" lon="1.58551">
        <ele>76</ele>
        <time>2018-09-16T08:22:01Z</time>
      </trkpt>
      <trkpt lat="47.71224" lon="1.58545">
        <ele>76</ele>
        <time>2018-09-16T08:22:04Z</time>
      </trkpt>
      <trkpt lat="47.71259" lon="1.58517">
        <ele>78</ele>
        <time>2018-09-16T08:22:12Z</time>
      </trkpt>
      <trkpt lat="47.71297" lon="1.58478">
        <ele>79</ele>
        <time>2018-09-16T08:22:22Z</time>
      </trkpt>
      <trkpt lat="47.71301" lon="1.58474">
        <ele>79</ele>
        <time>2018-09-16T08:22:23Z</time>
      </trkpt>
      <trkpt lat="47.71343" lon="1.58434">
        <ele>80</ele>
        <time>2018-09-16T08:22:33Z</time>
      </trkpt>
      <trkpt lat="47.71347" lon="1.5843">
        <ele>80</ele>
        <time>2018-09-16T08:22:34Z</time>
      </trkpt>
      <trkpt lat="47.71386" lon="1.58391">
        <ele>78</ele>
        <time>2018-09-16T08:22:43Z</time>
      </trkpt>
      <trkpt lat="47.7139" lon="1.58387">
        <ele>78</ele>
        <time>2018-09-16T08:22:44Z</time>
      </trkpt>
      <trkpt lat="47.71431" lon="1.58346">
        <ele>79</ele>
        <time>2018-09-16T08:22:54Z</time>
      </trkpt>
      <trkpt lat="47.71435" lon="1.58342">
        <ele>79</ele>
        <time>2018-09-16T08:22:55Z</time>
      </trkpt>
      <trkpt lat="47.71456" lon="1.58324">
        <ele>78</ele>
        <time>2018-09-16T08:23:01Z</time>
      </trkpt>
      <trkpt lat="47.71461" lon="1.58326">
        <ele>78</ele>
        <time>2018-09-16T08:23:03Z</time>
      </trkpt>
      <trkpt lat="47.71478" lon="1.58348">
        <ele>78</ele>
        <time>2018-09-16T08:23:22Z</time>
      </trkpt>
      <trkpt lat="47.71505" lon="1.58408">
        <ele>78</ele>
        <time>2018-09-16T08:23:34Z</time>
      </trkpt>
      <trkpt lat="47.71508" lon="1.58414">
        <ele>78</ele>
        <time>2018-09-16T08:23:35Z</time>
      </trkpt>
      <trkpt lat="47.71534" lon="1.58471">
        <ele>78</ele>
        <time>2018-09-16T08:23:44Z</time>
      </trkpt>
      <trkpt lat="47.71537" lon="1.58478">
        <ele>78</ele>
        <time>2018-09-16T08:23:45Z</time>
      </trkpt>
      <trkpt lat="47.71566" lon="1.58538">
        <ele>78</ele>
        <time>2018-09-16T08:23:54Z</time>
      </trkpt>
      <trkpt lat="47.71569" lon="1.58545">
        <ele>78</ele>
        <time>2018-09-16T08:23:55Z</time>
      </trkpt>
      <trkpt lat="47.71597" lon="1.58606">
        <ele>78</ele>
        <time>2018-09-16T08:24:04Z</time>
      </trkpt>
      <trkpt lat="47.716" lon="1.58612">
        <ele>78</ele>
        <time>2018-09-16T08:24:05Z</time>
      </trkpt>
      <trkpt lat="47.71626" lon="1.5867">
        <ele>78</ele>
        <time>2018-09-16T08:24:13Z</time>
      </trkpt>
      <trkpt lat="47.71629" lon="1.58676">
        <ele>78</ele>
        <time>2018-09-16T08:24:14Z</time>
      </trkpt>
      <trkpt lat="47.71656" lon="1.58731">
        <ele>77</ele>
        <time>2018-09-16T08:24:22Z</time>
      </trkpt>
      <trkpt lat="47.7166" lon="1.58738">
        <ele>77</ele>
        <time>2018-09-16T08:24:23Z</time>
      </trkpt>
      <trkpt lat="47.71686" lon="1.58797">
        <ele>77</ele>
        <time>2018-09-16T08:24:32Z</time>
      </trkpt>
      <trkpt lat="47.71689" lon="1.58804">
        <ele>77</ele>
        <time>2018-09-16T08:24:33Z</time>
      </trkpt>
      <trkpt lat="47.71717" lon="1.58863">
        <ele>76</ele>
        <time>2018-09-16T08:24:42Z</time>
      </trkpt>
      <trkpt lat="47.7172" lon="1.5887">
        <ele>76</ele>
        <time>2018-09-16T08:24:43Z</time>
      </trkpt>
      <trkpt lat="47.71732" lon="1.58892">
        <ele>76</ele>
        <time>2018-09-16T08:24:47Z</time>
      </trkpt>
      <trkpt lat="47.71741" lon="1.58908">
        <ele>76</ele>
        <time>2018-09-16T08:24:50Z</time>
      </trkpt>
      <trkpt lat="47.71765" lon="1.58966">
        <ele>77</ele>
        <time>2018-09-16T08:24:59Z</time>
      </trkpt>
      <trkpt lat="47.71768" lon="1.58972">
        <ele>77</ele>
        <time>2018-09-16T08:25:00Z</time>
      </trkpt>
      <trkpt lat="47.71771" lon="1.58978">
        <ele>77</ele>
        <time>2018-09-16T08:25:01Z</time>
      </trkpt>
      <trkpt lat="47.718" lon="1.59038">
        <ele>77</ele>
        <time>2018-09-16T08:25:11Z</time>
      </trkpt>
      <trkpt lat="47.71803" lon="1.59045">
        <ele>77</ele>
        <time>2018-09-16T08:25:12Z</time>
      </trkpt>
      <trkpt lat="47.7183" lon="1.59105">
        <ele>77</ele>
        <time>2018-09-16T08:25:21Z</time>
      </trkpt>
      <trkpt lat="47.71833" lon="1.59112">
        <ele>77</ele>
        <time>2018-09-16T08:25:22Z</time>
      </trkpt>
      <trkpt lat="47.7186" lon="1.59167">
        <ele>77</ele>
        <time>2018-09-16T08:25:31Z</time>
      </trkpt>
      <trkpt lat="47.71862" lon="1.59172">
        <ele>77</ele>
        <time>2018-09-16T08:25:32Z</time>
      </trkpt>
      <trkpt lat="47.71889" lon="1.5923">
        <ele>77</ele>
        <time>2018-09-16T08:25:41Z</time>
      </trkpt>
      <trkpt lat="47.71892" lon="1.59237">
        <ele>77</ele>
        <time>2018-09-16T08:25:42Z</time>
      </trkpt>
      <trkpt lat="47.71918" lon="1.59294">
        <ele>77</ele>
        <time>2018-09-16T08:25:51Z</time>
      </trkpt>
      <trkpt lat="47.71922" lon="1.593">
        <ele>77</ele>
        <time>2018-09-16T08:25:52Z</time>
      </trkpt>
      <trkpt lat="47.71949" lon="1.59356">
        <ele>78</ele>
        <time>2018-09-16T08:26:01Z</time>
      </trkpt>
      <trkpt lat="47.71952" lon="1.59362">
        <ele>78</ele>
        <time>2018-09-16T08:26:02Z</time>
      </trkpt>
      <trkpt lat="47.71978" lon="1.59421">
        <ele>78</ele>
        <time>2018-09-16T08:26:11Z</time>
      </trkpt>
      <trkpt lat="47.71981" lon="1.59427">
        <ele>78</ele>
        <time>2018-09-16T08:26:12Z</time>
      </trkpt>
      <trkpt lat="47.72007" lon="1.59482">
        <ele>78</ele>
        <time>2018-09-16T08:26:21Z</time>
      </trkpt>
      <trkpt lat="47.72009" lon="1.59488">
        <ele>78</ele>
        <time>2018-09-16T08:26:22Z</time>
      </trkpt>
      <trkpt lat="47.72036" lon="1.59546">
        <ele>78</ele>
        <time>2018-09-16T08:26:31Z</time>
      </trkpt>
      <trkpt lat="47.72039" lon="1.59553">
        <ele>78</ele>
        <time>2018-09-16T08:26:32Z</time>
      </trkpt>
      <trkpt lat="47.72068" lon="1.59611">
        <ele>78</ele>
        <time>2018-09-16T08:26:41Z</time>
      </trkpt>
      <trkpt lat="47.72071" lon="1.59619">
        <ele>78</ele>
        <time>2018-09-16T08:26:42Z</time>
      </trkpt>
      <trkpt lat="47.72098" lon="1.59675">
        <ele>78</ele>
        <time>2018-09-16T08:26:50Z</time>
      </trkpt>
      <trkpt lat="47.72101" lon="1.59682">
        <ele>78</ele>
        <time>2018-09-16T08:26:51Z</time>
      </trkpt>
      <trkpt lat="47.72128" lon="1.59738">
        <ele>78</ele>
        <time>2018-09-16T08:26:59Z</time>
      </trkpt>
      <trkpt lat="47.72131" lon="1.59745">
        <ele>78</ele>
        <time>2018-09-16T08:27:00Z</time>
      </trkpt>
      <trkpt lat="47.72159" lon="1.59806">
        <ele>78</ele>
        <time>2018-09-16T08:27:09Z</time>
      </trkpt>
      <trkpt lat="47.72162" lon="1.59813">
        <ele>78</ele>
        <time>2018-09-16T08:27:10Z</time>
      </trkpt>
      <trkpt lat="47.72189" lon="1.59869">
        <ele>77</ele>
        <time>2018-09-16T08:27:19Z</time>
      </trkpt>
      <trkpt lat="47.72192" lon="1.59875">
        <ele>77</ele>
        <time>2018-09-16T08:27:20Z</time>
      </trkpt>
      <trkpt lat="47.72219" lon="1.59933">
        <ele>78</ele>
        <time>2018-09-16T08:27:30Z</time>
      </trkpt>
      <trkpt lat="47.72221" lon="1.59939">
        <ele>78</ele>
        <time>2018-09-16T08:27:31Z</time>
      </trkpt>
      <trkpt lat="47.72249" lon="1.6">
        <ele>77</ele>
        <time>2018-09-16T08:27:41Z</time>
      </trkpt>
      <trkpt lat="47.72252" lon="1.60006">
        <ele>77</ele>
        <time>2018-09-16T08:27:42Z</time>
      </trkpt>
      <trkpt lat="47.72279" lon="1.60063">
        <ele>77</ele>
        <time>2018-09-16T08:27:51Z</time>
      </trkpt>
      <trkpt lat="47.72282" lon="1.60069">
        <ele>77</ele>
        <time>2018-09-16T08:27:52Z</time>
      </trkpt>
      <trkpt lat="47.72308" lon="1.60124">
        <ele>77</ele>
        <time>2018-09-16T08:28:01Z</time>
      </trkpt>
      <trkpt lat="47.72311" lon="1.6013">
        <ele>77</ele>
        <time>2018-09-16T08:28:02Z</time>
      </trkpt>
      <trkpt lat="47.72338" lon="1.60187">
        <ele>78</ele>
        <time>2018-09-16T08:28:11Z</time>
      </trkpt>
      <trkpt lat="47.72341" lon="1.60192">
        <ele>78</ele>
        <time>2018-09-16T08:28:12Z</time>
      </trkpt>
      <trkpt lat="47.72369" lon="1.60252">
        <ele>78</ele>
        <time>2018-09-16T08:28:22Z</time>
      </trkpt>
      <trkpt lat="47.72371" lon="1.60258">
        <ele>78</ele>
        <time>2018-09-16T08:28:23Z</time>
      </trkpt>
      <trkpt lat="47.72398" lon="1.60316">
        <ele>78</ele>
        <time>2018-09-16T08:28:33Z</time>
      </trkpt>
      <trkpt lat="47.72401" lon="1.60321">
        <ele>78</ele>
        <time>2018-09-16T08:28:34Z</time>
      </trkpt>
      <trkpt lat="47.72403" lon="1.60325">
        <ele>78</ele>
        <time>2018-09-16T08:28:35Z</time>
      </trkpt>
      <trkpt lat="47.7241" lon="1.60324">
        <ele>78</ele>
        <time>2018-09-16T08:28:37Z</time>
      </trkpt>
      <trkpt lat="47.72451" lon="1.60284">
        <ele>77</ele>
        <time>2018-09-16T08:28:47Z</time>
      </trkpt>
      <trkpt lat="47.72455" lon="1.6028">
        <ele>77</ele>
        <time>2018-09-16T08:28:48Z</time>
      </trkpt>
      <trkpt lat="47.72496" lon="1.60238">
        <ele>77</ele>
        <time>2018-09-16T08:28:57Z</time>
      </trkpt>
      <trkpt lat="47.72501" lon="1.60233">
        <ele>77</ele>
        <time>2018-09-16T08:28:58Z</time>
      </trkpt>
      <trkpt lat="47.72538" lon="1.60195">
        <ele>77</ele>
        <time>2018-09-16T08:29:06Z</time>
      </trkpt>
      <trkpt lat="47.72543" lon="1.6019">
        <ele>77</ele>
        <time>2018-09-16T08:29:07Z</time>
      </trkpt>
      <trkpt lat="47.72581" lon="1.60152">
        <ele>77</ele>
        <time>2018-09-16T08:29:15Z</time>
      </trkpt>
      <trkpt lat="47.72586" lon="1.60147">
        <ele>77</ele>
        <time>2018-09-16T08:29:16Z</time>
      </trkpt>
      <trkpt lat="47.72622" lon="1.60108">
        <ele>77</ele>
        <time>2018-09-16T08:29:24Z</time>
      </trkpt>
      <trkpt lat="47.72627" lon="1.60103">
        <ele>77</ele>
        <time>2018-09-16T08:29:25Z</time>
      </trkpt>
      <trkpt lat="47.72665" lon="1.60064">
        <ele>77</ele>
        <time>2018-09-16T08:29:33Z</time>
      </trkpt>
      <trkpt lat="47.7267" lon="1.60058">
        <ele>77</ele>
        <time>2018-09-16T08:29:34Z</time>
      </trkpt>
      <trkpt lat="47.72702" lon="1.60022">
        <ele>78</ele>
        <time>2018-09-16T08:29:41Z</time>
      </trkpt>
      <trkpt lat="47.72705" lon="1.60014">
        <ele>78</ele>
        <time>2018-09-16T08:29:42Z</time>
      </trkpt>
      <trkpt lat="47.72706" lon="1.60006">
        <ele>78</ele>
        <time>2018-09-16T08:29:43Z</time>
      </trkpt>
      <trkpt lat="47.72701" lon="1.59984">
        <ele>79</ele>
        <time>2018-09-16T08:29:46Z</time>
      </trkpt>
      <trkpt lat="47.72696" lon="1.59965">
        <ele>80</ele>
        <time>2018-09-16T08:29:49Z</time>
      </trkpt>
      <trkpt lat="47.7268" lon="1.59913">
        <ele>80</ele>
        <time>2018-09-16T08:29:58Z</time>
      </trkpt>
      <trkpt lat="47.72684" lon="1.59909">
        <ele>80</ele>
        <time>2018-09-16T08:30:00Z</time>
      </trkpt>
      <trkpt lat="47.72691" lon="1.59915">
        <ele>79</ele>
        <time>2018-09-16T08:30:02Z</time>
      </trkpt>
      <trkpt lat="47.72714" lon="1.59978">
        <ele>80</ele>
        <time>2018-09-16T08:30:11Z</time>
      </trkpt>
      <trkpt lat="47.72717" lon="1.59985">
        <ele>80</ele>
        <time>2018-09-16T08:30:12Z</time>
      </trkpt>
      <trkpt lat="47.72744" lon="1.60048">
        <ele>80</ele>
        <time>2018-09-16T08:30:21Z</time>
      </trkpt>
      <trkpt lat="47.72747" lon="1.60055">
        <ele>80</ele>
        <time>2018-09-16T08:30:22Z</time>
      </trkpt>
      <trkpt lat="47.72775" lon="1.60109">
        <ele>79</ele>
        <time>2018-09-16T08:30:30Z</time>
      </trkpt>
      <trkpt lat="47.72778" lon="1.60116">
        <ele>80</ele>
        <time>2018-09-16T08:30:31Z</time>
      </trkpt>
      <trkpt lat="47.72806" lon="1.60178">
        <ele>80</ele>
        <time>2018-09-16T08:30:40Z</time>
      </trkpt>
      <trkpt lat="47.72809" lon="1.60186">
        <ele>80</ele>
        <time>2018-09-16T08:30:41Z</time>
      </trkpt>
      <trkpt lat="47.72834" lon="1.60251">
        <ele>80</ele>
        <time>2018-09-16T08:30:49Z</time>
      </trkpt>
      <trkpt lat="47.72837" lon="1.60259">
        <ele>80</ele>
        <time>2018-09-16T08:30:50Z</time>
      </trkpt>
      <trkpt lat="47.7286" lon="1.60319">
        <ele>80</ele>
        <time>2018-09-16T08:30:57Z</time>
      </trkpt>
      <trkpt lat="47.72863" lon="1.60327">
        <ele>80</ele>
        <time>2018-09-16T08:30:58Z</time>
      </trkpt>
      <trkpt lat="47.72889" lon="1.60389">
        <ele>79</ele>
        <time>2018-09-16T08:31:06Z</time>
      </trkpt>
      <trkpt lat="47.72892" lon="1.60397">
        <ele>79</ele>
        <time>2018-09-16T08:31:07Z</time>
      </trkpt>
      <trkpt lat="47.72918" lon="1.60459">
        <ele>79</ele>
        <time>2018-09-16T08:31:15Z</time>
      </trkpt>
      <trkpt lat="47.72921" lon="1.60466">
        <ele>79</ele>
        <time>2018-09-16T08:31:16Z</time>
      </trkpt>
      <trkpt lat="47.72948" lon="1.60522">
        <ele>79</ele>
        <time>2018-09-16T08:31:24Z</time>
      </trkpt>
      <trkpt lat="47.72952" lon="1.60529">
        <ele>79</ele>
        <time>2018-09-16T08:31:25Z</time>
      </trkpt>
      <trkpt lat="47.72977" lon="1.60588">
        <ele>78</ele>
        <time>2018-09-16T08:31:33Z</time>
      </trkpt>
      <trkpt lat="47.7298" lon="1.60595">
        <ele>78</ele>
        <time>2018-09-16T08:31:34Z</time>
      </trkpt>
      <trkpt lat="47.73008" lon="1.60654">
        <ele>78</ele>
        <time>2018-09-16T08:31:42Z</time>
      </trkpt>
      <trkpt lat="47.73011" lon="1.60661">
        <ele>78</ele>
        <time>2018-09-16T08:31:43Z</time>
      </trkpt>
      <trkpt lat="47.7304" lon="1.60719">
        <ele>78</ele>
        <time>2018-09-16T08:31:51Z</time>
      </trkpt>
      <trkpt lat="47.73043" lon="1.60726">
        <ele>78</ele>
        <time>2018-09-16T08:31:52Z</time>
      </trkpt>
      <trkpt lat="47.73074" lon="1.60782">
        <ele>77</ele>
        <time>2018-09-16T08:32:00Z</time>
      </trkpt>
      <trkpt lat="47.73078" lon="1.60789">
        <ele>77</ele>
        <time>2018-09-16T08:32:01Z</time>
      </trkpt>
      <trkpt lat="47.73093" lon="1.60814">
        <ele>77</ele>
        <time>2018-09-16T08:32:05Z</time>
      </trkpt>
      <trkpt lat="47.73127" lon="1.6087">
        <ele>77</ele>
        <time>2018-09-16T08:32:13Z</time>
      </trkpt>
      <trkpt lat="47.73132" lon="1.60876">
        <ele>77</ele>
        <time>2018-09-16T08:32:14Z</time>
      </trkpt>
      <trkpt lat="47.73167" lon="1.60928">
        <ele>77</ele>
        <time>2018-09-16T08:32:22Z</time>
      </trkpt>
      <trkpt lat="47.73171" lon="1.60934">
        <ele>77</ele>
        <time>2018-09-16T08:32:23Z</time>
      </trkpt>
      <trkpt lat="47.73207" lon="1.60984">
        <ele>77</ele>
        <time>2018-09-16T08:32:31Z</time>
      </trkpt>
      <trkpt lat="47.73211" lon="1.6099">
        <ele>77</ele>
        <time>2018-09-16T08:32:32Z</time>
      </trkpt>
      <trkpt lat="47.73248" lon="1.61037">
        <ele>77</ele>
        <time>2018-09-16T08:32:40Z</time>
      </trkpt>
      <trkpt lat="47.73252" lon="1.61042">
        <ele>77</ele>
        <time>2018-09-16T08:32:41Z</time>
      </trkpt>
      <trkpt lat="47.73285" lon="1.61089">
        <ele>77</ele>
        <time>2018-09-16T08:32:48Z</time>
      </trkpt>
      <trkpt lat="47.7329" lon="1.61095">
        <ele>77</ele>
        <time>2018-09-16T08:32:49Z</time>
      </trkpt>
      <trkpt lat="47.73326" lon="1.61145">
        <ele>77</ele>
        <time>2018-09-16T08:32:57Z</time>
      </trkpt>
      <trkpt lat="47.7333" lon="1.61151">
        <ele>77</ele>
        <time>2018-09-16T08:32:58Z</time>
      </trkpt>
      <trkpt lat="47.73366" lon="1.61199">
        <ele>77</ele>
        <time>2018-09-16T08:33:06Z</time>
      </trkpt>
      <trkpt lat="47.73371" lon="1.61205">
        <ele>77</ele>
        <time>2018-09-16T08:33:07Z</time>
      </trkpt>
      <trkpt lat="47.734" lon="1.61237">
        <ele>78</ele>
        <time>2018-09-16T08:33:13Z</time>
      </trkpt>
      <trkpt lat="47.73436" lon="1.61286">
        <ele>78</ele>
        <time>2018-09-16T08:33:21Z</time>
      </trkpt>
      <trkpt lat="47.7344" lon="1.61293">
        <ele>78</ele>
        <time>2018-09-16T08:33:22Z</time>
      </trkpt>
      <trkpt lat="47.73471" lon="1.61346">
        <ele>78</ele>
        <time>2018-09-16T08:33:30Z</time>
      </trkpt>
      <trkpt lat="47.73475" lon="1.61353">
        <ele>78</ele>
        <time>2018-09-16T08:33:31Z</time>
      </trkpt>
      <trkpt lat="47.73503" lon="1.61408">
        <ele>78</ele>
        <time>2018-09-16T08:33:39Z</time>
      </trkpt>
      <trkpt lat="47.73507" lon="1.61416">
        <ele>78</ele>
        <time>2018-09-16T08:33:40Z</time>
      </trkpt>
      <trkpt lat="47.73536" lon="1.61471">
        <ele>78</ele>
        <time>2018-09-16T08:33:48Z</time>
      </trkpt>
      <trkpt lat="47.73539" lon="1.61477">
        <ele>78</ele>
        <time>2018-09-16T08:33:49Z</time>
      </trkpt>
      <trkpt lat="47.73572" lon="1.61527">
        <ele>78</ele>
        <time>2018-09-16T08:33:57Z</time>
      </trkpt>
      <trkpt lat="47.73577" lon="1.61532">
        <ele>78</ele>
        <time>2018-09-16T08:33:58Z</time>
      </trkpt>
      <trkpt lat="47.73616" lon="1.61575">
        <ele>78</ele>
        <time>2018-09-16T08:34:06Z</time>
      </trkpt>
      <trkpt lat="47.7362" lon="1.61581">
        <ele>78</ele>
        <time>2018-09-16T08:34:07Z</time>
      </trkpt>
      <trkpt lat="47.7366" lon="1.61629">
        <ele>79</ele>
        <time>2018-09-16T08:34:15Z</time>
      </trkpt>
      <trkpt lat="47.73665" lon="1.61635">
        <ele>79</ele>
        <time>2018-09-16T08:34:16Z</time>
      </trkpt>
      <trkpt lat="47.73705" lon="1.61681">
        <ele>79</ele>
        <time>2018-09-16T08:34:24Z</time>
      </trkpt>
      <trkpt lat="47.73709" lon="1.61687">
        <ele>79</ele>
        <time>2018-09-16T08:34:25Z</time>
      </trkpt>
      <trkpt lat="47.73744" lon="1.61733">
        <ele>80</ele>
        <time>2018-09-16T08:34:32Z</time>
      </trkpt>
      <trkpt lat="47.73749" lon="1.61741">
        <ele>80</ele>
        <time>2018-09-16T08:34:33Z</time>
      </trkpt>
      <trkpt lat="47.7378" lon="1.61792">
        <ele>79</ele>
        <time>2018-09-16T08:34:40Z</time>
      </trkpt>
      <trkpt lat="47.73784" lon="1.61799">
        <ele>79</ele>
        <time>2018-09-16T08:34:41Z</time>
      </trkpt>
      <trkpt lat="47.73816" lon="1.61854">
        <ele>78</ele>
        <time>2018-09-16T08:34:49Z</time>
      </trkpt>
      <trkpt lat="47.7382" lon="1.61861">
        <ele>77</ele>
        <time>2018-09-16T08:34:50Z</time>
      </trkpt>
      <trkpt lat="47.73853" lon="1.6191">
        <ele>76</ele>
        <time>2018-09-16T08:34:58Z</time>
      </trkpt>
      <trkpt lat="47.73857" lon="1.61916">
        <ele>76</ele>
        <time>2018-09-16T08:34:59Z</time>
      </trkpt>
      <trkpt lat="47.73895" lon="1.61964">
        <ele>76</ele>
        <time>2018-09-16T08:35:08Z</time>
      </trkpt>
      <trkpt lat="47.73899" lon="1.61969">
        <ele>76</ele>
        <time>2018-09-16T08:35:09Z</time>
      </trkpt>
      <trkpt lat="47.73933" lon="1.62015">
        <ele>77</ele>
        <time>2018-09-16T08:35:17Z</time>
      </trkpt>
      <trkpt lat="47.73937" lon="1.62021">
        <ele>77</ele>
        <time>2018-09-16T08:35:18Z</time>
      </trkpt>
      <trkpt lat="47.73974" lon="1.62071">
        <ele>78</ele>
        <time>2018-09-16T08:35:27Z</time>
      </trkpt>
      <trkpt lat="47.73978" lon="1.62076">
        <ele>78</ele>
        <time>2018-09-16T08:35:28Z</time>
      </trkpt>
      <trkpt lat="47.74014" lon="1.62119">
        <ele>78</ele>
        <time>2018-09-16T08:35:36Z</time>
      </trkpt>
      <trkpt lat="47.74018" lon="1.62124">
        <ele>78</ele>
        <time>2018-09-16T08:35:37Z</time>
      </trkpt>
      <trkpt lat="47.74027" lon="1.62133">
        <ele>78</ele>
        <time>2018-09-16T08:35:39Z</time>
      </trkpt>
      <trkpt lat="47.74068" lon="1.62177">
        <ele>79</ele>
        <time>2018-09-16T08:35:48Z</time>
      </trkpt>
      <trkpt lat="47.74072" lon="1.62181">
        <ele>79</ele>
        <time>2018-09-16T08:35:49Z</time>
      </trkpt>
      <trkpt lat="47.74112" lon="1.62221">
        <ele>79</ele>
        <time>2018-09-16T08:35:58Z</time>
      </trkpt>
      <trkpt lat="47.74117" lon="1.62226">
        <ele>79</ele>
        <time>2018-09-16T08:35:59Z</time>
      </trkpt>
      <trkpt lat="47.74158" lon="1.62266">
        <ele>79</ele>
        <time>2018-09-16T08:36:08Z</time>
      </trkpt>
      <trkpt lat="47.74163" lon="1.6227">
        <ele>79</ele>
        <time>2018-09-16T08:36:09Z</time>
      </trkpt>
      <trkpt lat="47.74202" lon="1.6231">
        <ele>79</ele>
        <time>2018-09-16T08:36:18Z</time>
      </trkpt>
      <trkpt lat="47.74206" lon="1.62315">
        <ele>79</ele>
        <time>2018-09-16T08:36:19Z</time>
      </trkpt>
      <trkpt lat="47.74243" lon="1.62355">
        <ele>79</ele>
        <time>2018-09-16T08:36:28Z</time>
      </trkpt>
      <trkpt lat="47.74247" lon="1.62359">
        <ele>79</ele>
        <time>2018-09-16T08:36:29Z</time>
      </trkpt>
      <trkpt lat="47.74271" lon="1.62391">
        <ele>79</ele>
        <time>2018-09-16T08:36:36Z</time>
      </trkpt>
      <trkpt lat="47.74272" lon="1.62404">
        <ele>79</ele>
        <time>2018-09-16T08:36:38Z</time>
      </trkpt>
      <trkpt lat="47.74268" lon="1.62421">
        <ele>78</ele>
        <time>2018-09-16T08:36:41Z</time>
      </trkpt>
      <trkpt lat="47.74262" lon="1.62443">
        <ele>79</ele>
        <time>2018-09-16T08:36:45Z</time>
      </trkpt>
      <trkpt lat="47.74259" lon="1.62452">
        <ele>79</ele>
        <time>2018-09-16T08:36:47Z</time>
      </trkpt>
      <trkpt lat="47.74262" lon="1.62462">
        <ele>80</ele>
        <time>2018-09-16T08:36:50Z</time>
      </trkpt>
      <trkpt lat="47.74298" lon="1.62506">
        <ele>80</ele>
        <time>2018-09-16T08:37:03Z</time>
      </trkpt>
      <trkpt lat="47.74301" lon="1.6251">
        <ele>80</ele>
        <time>2018-09-16T08:37:04Z</time>
      </trkpt>
      <trkpt lat="47.74338" lon="1.62553">
        <ele>80</ele>
        <time>2018-09-16T08:37:15Z</time>
      </trkpt>
      <trkpt lat="47.74342" lon="1.62557">
        <ele>79</ele>
        <time>2018-09-16T08:37:16Z</time>
      </trkpt>
      <trkpt lat="47.74379" lon="1.62603">
        <ele>79</ele>
        <time>2018-09-16T08:37:26Z</time>
      </trkpt>
      <trkpt lat="47.74384" lon="1.62608">
        <ele>79</ele>
        <time>2018-09-16T08:37:27Z</time>
      </trkpt>
      <trkpt lat="47.74421" lon="1.62651">
        <ele>78</ele>
        <time>2018-09-16T08:37:36Z</time>
      </trkpt>
      <trkpt lat="47.74425" lon="1.62656">
        <ele>78</ele>
        <time>2018-09-16T08:37:37Z</time>
      </trkpt>
      <trkpt lat="47.74463" lon="1.62702">
        <ele>78</ele>
        <time>2018-09-16T08:37:46Z</time>
      </trkpt>
      <trkpt lat="47.74467" lon="1.62707">
        <ele>78</ele>
        <time>2018-09-16T08:37:47Z</time>
      </trkpt>
      <trkpt lat="47.74505" lon="1.62753">
        <ele>78</ele>
        <time>2018-09-16T08:37:56Z</time>
      </trkpt>
      <trkpt lat="47.74509" lon="1.62758">
        <ele>78</ele>
        <time>2018-09-16T08:37:57Z</time>
      </trkpt>
      <trkpt lat="47.74546" lon="1.62801">
        <ele>78</ele>
        <time>2018-09-16T08:38:06Z</time>
      </trkpt>
      <trkpt lat="47.7455" lon="1.62806">
        <ele>78</ele>
        <time>2018-09-16T08:38:07Z</time>
      </trkpt>
      <trkpt lat="47.74588" lon="1.62848">
        <ele>78</ele>
        <time>2018-09-16T08:38:16Z</time>
      </trkpt>
      <trkpt lat="47.74593" lon="1.62852">
        <ele>78</ele>
        <time>2018-09-16T08:38:17Z</time>
      </trkpt>
      <trkpt lat="47.74633" lon="1.62894">
        <ele>78</ele>
        <time>2018-09-16T08:38:26Z</time>
      </trkpt>
      <trkpt lat="47.74637" lon="1.62898">
        <ele>78</ele>
        <time>2018-09-16T08:38:27Z</time>
      </trkpt>
      <trkpt lat="47.74677" lon="1.6294">
        <ele>78</ele>
        <time>2018-09-16T08:38:36Z</time>
      </trkpt>
      <trkpt lat="47.74682" lon="1.62945">
        <ele>78</ele>
        <time>2018-09-16T08:38:37Z</time>
      </trkpt>
      <trkpt lat="47.74722" lon="1.62987">
        <ele>78</ele>
        <time>2018-09-16T08:38:46Z</time>
      </trkpt>
      <trkpt lat="47.74726" lon="1.62991">
        <ele>78</ele>
        <time>2018-09-16T08:38:47Z</time>
      </trkpt>
      <trkpt lat="47.74765" lon="1.63032">
        <ele>78</ele>
        <time>2018-09-16T08:38:56Z</time>
      </trkpt>
      <trkpt lat="47.7477" lon="1.63036">
        <ele>78</ele>
        <time>2018-09-16T08:38:57Z</time>
      </trkpt>
      <trkpt lat="47.74807" lon="1.63075">
        <ele>78</ele>
        <time>2018-09-16T08:39:06Z</time>
      </trkpt>
      <trkpt lat="47.74811" lon="1.63079">
        <ele>77</ele>
        <time>2018-09-16T08:39:07Z</time>
      </trkpt>
      <trkpt lat="47.74852" lon="1.63122">
        <ele>77</ele>
        <time>2018-09-16T08:39:17Z</time>
      </trkpt>
      <trkpt lat="47.74856" lon="1.63126">
        <ele>77</ele>
        <time>2018-09-16T08:39:18Z</time>
      </trkpt>
      <trkpt lat="47.74893" lon="1.63165">
        <ele>77</ele>
        <time>2018-09-16T08:39:27Z</time>
      </trkpt>
      <trkpt lat="47.74897" lon="1.6317">
        <ele>77</ele>
        <time>2018-09-16T08:39:28Z</time>
      </trkpt>
      <trkpt lat="47.74919" lon="1.63191">
        <ele>77</ele>
        <time>2018-09-16T08:39:33Z</time>
      </trkpt>
      <trkpt lat="47.74953" lon="1.63214">
        <ele>78</ele>
        <time>2018-09-16T08:39:40Z</time>
      </trkpt>
      <trkpt lat="47.74997" lon="1.63235">
        <ele>78</ele>
        <time>2018-09-16T08:39:48Z</time>
      </trkpt>
      <trkpt lat="47.75003" lon="1.63237">
        <ele>78</ele>
        <time>2018-09-16T08:39:49Z</time>
      </trkpt>
      <trkpt lat="47.75047" lon="1.63258">
        <ele>79</ele>
        <time>2018-09-16T08:39:57Z</time>
      </trkpt>
      <trkpt lat="47.75052" lon="1.6326">
        <ele>79</ele>
        <time>2018-09-16T08:39:58Z</time>
      </trkpt>
      <trkpt lat="47.75096" lon="1.63281">
        <ele>79</ele>
        <time>2018-09-16T08:40:06Z</time>
      </trkpt>
      <trkpt lat="47.75101" lon="1.63284">
        <ele>79</ele>
        <time>2018-09-16T08:40:07Z</time>
      </trkpt>
      <trkpt lat="47.75148" lon="1.63307">
        <ele>80</ele>
        <time>2018-09-16T08:40:16Z</time>
      </trkpt>
      <trkpt lat="47.75154" lon="1.6331">
        <ele>80</ele>
        <time>2018-09-16T08:40:17Z</time>
      </trkpt>
      <trkpt lat="47.75198" lon="1.6333">
        <ele>80</ele>
        <time>2018-09-16T08:40:25Z</time>
      </trkpt>
      <trkpt lat="47.75203" lon="1.63333">
        <ele>80</ele>
        <time>2018-09-16T08:40:26Z</time>
      </trkpt>
      <trkpt lat="47.75248" lon="1.63353">
        <ele>81</ele>
        <time>2018-09-16T08:40:34Z</time>
      </trkpt>
      <trkpt lat="47.75253" lon="1.63356">
        <ele>82</ele>
        <time>2018-09-16T08:40:35Z</time>
      </trkpt>
      <trkpt lat="47.75296" lon="1.63377">
        <ele>83</ele>
        <time>2018-09-16T08:40:43Z</time>
      </trkpt>
      <trkpt lat="47.75301" lon="1.63379">
        <ele>83</ele>
        <time>2018-09-16T08:40:44Z</time>
      </trkpt>
      <trkpt lat="47.75344" lon="1.634">
        <ele>83</ele>
        <time>2018-09-16T08:40:52Z</time>
      </trkpt>
      <trkpt lat="47.7535" lon="1.63402">
        <ele>83</ele>
        <time>2018-09-16T08:40:53Z</time>
      </trkpt>
      <trkpt lat="47.75394" lon="1.63415">
        <ele>84</ele>
        <time>2018-09-16T08:41:01Z</time>
      </trkpt>
      <trkpt lat="47.754" lon="1.63417">
        <ele>84</ele>
        <time>2018-09-16T08:41:02Z</time>
      </trkpt>
      <trkpt lat="47.75447" lon="1.63427">
        <ele>84</ele>
        <time>2018-09-16T08:41:10Z</time>
      </trkpt>
      <trkpt lat="47.75453" lon="1.63428">
        <ele>84</ele>
        <time>2018-09-16T08:41:11Z</time>
      </trkpt>
      <trkpt lat="47.75459" lon="1.63429">
        <ele>84</ele>
        <time>2018-09-16T08:41:12Z</time>
      </trkpt>
      <trkpt lat="47.75504" lon="1.63438">
        <ele>84</ele>
        <time>2018-09-16T08:41:20Z</time>
      </trkpt>
      <trkpt lat="47.75509" lon="1.63439">
        <ele>84</ele>
        <time>2018-09-16T08:41:21Z</time>
      </trkpt>
      <trkpt lat="47.75559" lon="1.63449">
        <ele>85</ele>
        <time>2018-09-16T08:41:30Z</time>
      </trkpt>
      <trkpt lat="47.75565" lon="1.6345">
        <ele>85</ele>
        <time>2018-09-16T08:41:31Z</time>
      </trkpt>
      <trkpt lat="47.75615" lon="1.6346">
        <ele>85</ele>
        <time>2018-09-16T08:41:40Z</time>
      </trkpt>
      <trkpt lat="47.7562" lon="1.63461">
        <ele>85</ele>
        <time>2018-09-16T08:41:41Z</time>
      </trkpt>
      <trkpt lat="47.7567" lon="1.63471">
        <ele>86</ele>
        <time>2018-09-16T08:41:50Z</time>
      </trkpt>
      <trkpt lat="47.75676" lon="1.63472">
        <ele>86</ele>
        <time>2018-09-16T08:41:51Z</time>
      </trkpt>
      <trkpt lat="47.75721" lon="1.63482">
        <ele>87</ele>
        <time>2018-09-16T08:41:59Z</time>
      </trkpt>
      <trkpt lat="47.75726" lon="1.63483">
        <ele>87</ele>
        <time>2018-09-16T08:42:00Z</time>
      </trkpt>
      <trkpt lat="47.75775" lon="1.63491">
        <ele>87</ele>
        <time>2018-09-16T08:42:09Z</time>
      </trkpt>
      <trkpt lat="47.7578" lon="1.63492">
        <ele>87</ele>
        <time>2018-09-16T08:42:10Z</time>
      </trkpt>
      <trkpt lat="47.75829" lon="1.63502">
        <ele>87</ele>
        <time>2018-09-16T08:42:19Z</time>
      </trkpt>
      <trkpt lat="47.75834" lon="1.63504">
        <ele>87</ele>
        <time>2018-09-16T08:42:20Z</time>
      </trkpt>
      <trkpt lat="47.75883" lon="1.63512">
        <ele>86</ele>
        <time>2018-09-16T08:42:29Z</time>
      </trkpt>
      <trkpt lat="47.75888" lon="1.63514">
        <ele>86</ele>
        <time>2018-09-16T08:42:30Z</time>
      </trkpt>
      <trkpt lat="47.75937" lon="1.63523">
        <ele>86</ele>
        <time>2018-09-16T08:42:40Z</time>
      </trkpt>
      <trkpt lat="47.75941" lon="1.63523">
        <ele>86</ele>
        <time>2018-09-16T08:42:41Z</time>
      </trkpt>
      <trkpt lat="47.75989" lon="1.63533">
        <ele>85</ele>
        <time>2018-09-16T08:42:51Z</time>
      </trkpt>
      <trkpt lat="47.75994" lon="1.63533">
        <ele>85</ele>
        <time>2018-09-16T08:42:52Z</time>
      </trkpt>
      <trkpt lat="47.76043" lon="1.6354">
        <ele>85</ele>
        <time>2018-09-16T08:43:02Z</time>
      </trkpt>
      <trkpt lat="47.76048" lon="1.63541">
        <ele>85</ele>
        <time>2018-09-16T08:43:03Z</time>
      </trkpt>
      <trkpt lat="47.76096" lon="1.63551">
        <ele>85</ele>
        <time>2018-09-16T08:43:13Z</time>
      </trkpt>
      <trkpt lat="47.76101" lon="1.63552">
        <ele>85</ele>
        <time>2018-09-16T08:43:14Z</time>
      </trkpt>
      <trkpt lat="47.76147" lon="1.63564">
        <ele>86</ele>
        <time>2018-09-16T08:43:24Z</time>
      </trkpt>
      <trkpt lat="47.76152" lon="1.63565">
        <ele>86</ele>
        <time>2018-09-16T08:43:25Z</time>
      </trkpt>
      <trkpt lat="47.76197" lon="1.63573">
        <ele>86</ele>
        <time>2018-09-16T08:43:34Z</time>
      </trkpt>
      <trkpt lat="47.76202" lon="1.63574">
        <ele>86</ele>
        <time>2018-09-16T08:43:35Z</time>
      </trkpt>
      <trkpt lat="47.7625" lon="1.63587">
        <ele>86</ele>
        <time>2018-09-16T08:43:45Z</time>
      </trkpt>
      <trkpt lat="47.76255" lon="1.63588">
        <ele>86</ele>
        <time>2018-09-16T08:43:46Z</time>
      </trkpt>
      <trkpt lat="47.76303" lon="1.63596">
        <ele>86</ele>
        <time>2018-09-16T08:43:56Z</time>
      </trkpt>
      <trkpt lat="47.76308" lon="1.63597">
        <ele>86</ele>
        <time>2018-09-16T08:43:57Z</time>
      </trkpt>
      <trkpt lat="47.76353" lon="1.63607">
        <ele>86</ele>
        <time>2018-09-16T08:44:06Z</time>
      </trkpt>
      <trkpt lat="47.76358" lon="1.63608">
        <ele>86</ele>
        <time>2018-09-16T08:44:07Z</time>
      </trkpt>
      <trkpt lat="47.76406" lon="1.63617">
        <ele>86</ele>
        <time>2018-09-16T08:44:16Z</time>
      </trkpt>
      <trkpt lat="47.76411" lon="1.63618">
        <ele>86</ele>
        <time>2018-09-16T08:44:17Z</time>
      </trkpt>
      <trkpt lat="47.76458" lon="1.63627">
        <ele>86</ele>
        <time>2018-09-16T08:44:26Z</time>
      </trkpt>
      <trkpt lat="47.76463" lon="1.63629">
        <ele>86</ele>
        <time>2018-09-16T08:44:27Z</time>
      </trkpt>
      <trkpt lat="47.76511" lon="1.63641">
        <ele>86</ele>
        <time>2018-09-16T08:44:37Z</time>
      </trkpt>
      <trkpt lat="47.76516" lon="1.63643">
        <ele>86</ele>
        <time>2018-09-16T08:44:38Z</time>
      </trkpt>
      <trkpt lat="47.76565" lon="1.63656">
        <ele>86</ele>
        <time>2018-09-16T08:44:48Z</time>
      </trkpt>
      <trkpt lat="47.7657" lon="1.63657">
        <ele>86</ele>
        <time>2018-09-16T08:44:49Z</time>
      </trkpt>
      <trkpt lat="47.76615" lon="1.63666">
        <ele>86</ele>
        <time>2018-09-16T08:44:58Z</time>
      </trkpt>
      <trkpt lat="47.7662" lon="1.63667">
        <ele>86</ele>
        <time>2018-09-16T08:44:59Z</time>
      </trkpt>
      <trkpt lat="47.76666" lon="1.63674">
        <ele>86</ele>
        <time>2018-09-16T08:45:08Z</time>
      </trkpt>
      <trkpt lat="47.76671" lon="1.63674">
        <ele>86</ele>
        <time>2018-09-16T08:45:09Z</time>
      </trkpt>
      <trkpt lat="47.76713" lon="1.63685">
        <ele>87</ele>
        <time>2018-09-16T08:45:18Z</time>
      </trkpt>
      <trkpt lat="47.76717" lon="1.63688">
        <ele>87</ele>
        <time>2018-09-16T08:45:19Z</time>
      </trkpt>
      <trkpt lat="47.76729" lon="1.637">
        <ele>87</ele>
        <time>2018-09-16T08:45:22Z</time>
      </trkpt>
      <trkpt lat="47.7674" lon="1.63713">
        <ele>86</ele>
        <time>2018-09-16T08:45:25Z</time>
      </trkpt>
      <trkpt lat="47.76778" lon="1.63759">
        <ele>85</ele>
        <time>2018-09-16T08:45:35Z</time>
      </trkpt>
      <trkpt lat="47.76782" lon="1.63764">
        <ele>85</ele>
        <time>2018-09-16T08:45:36Z</time>
      </trkpt>
      <trkpt lat="47.76822" lon="1.63808">
        <ele>83</ele>
        <time>2018-09-16T08:45:46Z</time>
      </trkpt>
      <trkpt lat="47.76825" lon="1.63813">
        <ele>83</ele>
        <time>2018-09-16T08:45:47Z</time>
      </trkpt>
      <trkpt lat="47.76863" lon="1.63859">
        <ele>82</ele>
        <time>2018-09-16T08:45:56Z</time>
      </trkpt>
      <trkpt lat="47.76867" lon="1.63865">
        <ele>82</ele>
        <time>2018-09-16T08:45:57Z</time>
      </trkpt>
      <trkpt lat="47.76902" lon="1.63909">
        <ele>82</ele>
        <time>2018-09-16T08:46:05Z</time>
      </trkpt>
      <trkpt lat="47.76907" lon="1.63914">
        <ele>82</ele>
        <time>2018-09-16T08:46:06Z</time>
      </trkpt>
      <trkpt lat="47.76944" lon="1.6396">
        <ele>81</ele>
        <time>2018-09-16T08:46:15Z</time>
      </trkpt>
      <trkpt lat="47.76949" lon="1.63965">
        <ele>81</ele>
        <time>2018-09-16T08:46:16Z</time>
      </trkpt>
      <trkpt lat="47.76984" lon="1.64007">
        <ele>81</ele>
        <time>2018-09-16T08:46:24Z</time>
      </trkpt>
      <trkpt lat="47.76989" lon="1.64012">
        <ele>81</ele>
        <time>2018-09-16T08:46:25Z</time>
      </trkpt>
      <trkpt lat="47.77026" lon="1.64059">
        <ele>80</ele>
        <time>2018-09-16T08:46:34Z</time>
      </trkpt>
      <trkpt lat="47.77031" lon="1.64064">
        <ele>80</ele>
        <time>2018-09-16T08:46:35Z</time>
      </trkpt>
      <trkpt lat="47.77068" lon="1.6411">
        <ele>80</ele>
        <time>2018-09-16T08:46:45Z</time>
      </trkpt>
      <trkpt lat="47.77071" lon="1.64114">
        <ele>80</ele>
        <time>2018-09-16T08:46:46Z</time>
      </trkpt>
      <trkpt lat="47.77113" lon="1.64155">
        <ele>80</ele>
        <time>2018-09-16T08:46:57Z</time>
      </trkpt>
      <trkpt lat="47.77117" lon="1.64158">
        <ele>80</ele>
        <time>2018-09-16T08:46:58Z</time>
      </trkpt>
      <trkpt lat="47.77161" lon="1.64195">
        <ele>80</ele>
        <time>2018-09-16T08:47:08Z</time>
      </trkpt>
      <trkpt lat="47.77165" lon="1.64199">
        <ele>80</ele>
        <time>2018-09-16T08:47:09Z</time>
      </trkpt>
      <trkpt lat="47.77179" lon="1.6421">
        <ele>80</ele>
        <time>2018-09-16T08:47:12Z</time>
      </trkpt>
      <trkpt lat="47.7719" lon="1.64209">
        <ele>80</ele>
        <time>2018-09-16T08:47:14Z</time>
      </trkpt>
      <trkpt lat="47.77238" lon="1.64181">
        <ele>77</ele>
        <time>2018-09-16T08:47:21Z</time>
      </trkpt>
      <trkpt lat="47.77245" lon="1.64176">
        <ele>76</ele>
        <time>2018-09-16T08:47:22Z</time>
      </trkpt>
      <trkpt lat="47.77288" lon="1.64144">
        <ele>76</ele>
        <time>2018-09-16T08:47:29Z</time>
      </trkpt>
      <trkpt lat="47.77294" lon="1.64139">
        <ele>76</ele>
        <time>2018-09-16T08:47:30Z</time>
      </trkpt>
      <trkpt lat="47.77305" lon="1.6413">
        <ele>76</ele>
        <time>2018-09-16T08:47:32Z</time>
      </trkpt>
      <trkpt lat="47.7735" lon="1.64097">
        <ele>76</ele>
        <time>2018-09-16T08:47:40Z</time>
      </trkpt>
      <trkpt lat="47.77356" lon="1.64092">
        <ele>76</ele>
        <time>2018-09-16T08:47:41Z</time>
      </trkpt>
      <trkpt lat="47.77395" lon="1.64058">
        <ele>76</ele>
        <time>2018-09-16T08:47:48Z</time>
      </trkpt>
      <trkpt lat="47.774" lon="1.64053">
        <ele>76</ele>
        <time>2018-09-16T08:47:49Z</time>
      </trkpt>
      <trkpt lat="47.77414" lon="1.64037">
        <ele>76</ele>
        <time>2018-09-16T08:47:52Z</time>
      </trkpt>
      <trkpt lat="47.77424" lon="1.64024">
        <ele>76</ele>
        <time>2018-09-16T08:47:55Z</time>
      </trkpt>
      <trkpt lat="47.77446" lon="1.64015">
        <ele>77</ele>
        <time>2018-09-16T08:48:00Z</time>
      </trkpt>
      <trkpt lat="47.77484" lon="1.64012">
        <ele>77</ele>
        <time>2018-09-16T08:48:08Z</time>
      </trkpt>
      <trkpt lat="47.77529" lon="1.64019">
        <ele>79</ele>
        <time>2018-09-16T08:48:18Z</time>
      </trkpt>
      <trkpt lat="47.77533" lon="1.6402">
        <ele>80</ele>
        <time>2018-09-16T08:48:19Z</time>
      </trkpt>
      <trkpt lat="47.77553" lon="1.64022">
        <ele>82</ele>
        <time>2018-09-16T08:48:26Z</time>
      </trkpt>
      <trkpt lat="47.77557" lon="1.64012">
        <ele>82</ele>
        <time>2018-09-16T08:48:29Z</time>
      </trkpt>
      <trkpt lat="47.77582" lon="1.6395">
        <ele>83</ele>
        <time>2018-09-16T08:48:42Z</time>
      </trkpt>
      <trkpt lat="47.77584" lon="1.63944">
        <ele>83</ele>
        <time>2018-09-16T08:48:43Z</time>
      </trkpt>
      <trkpt lat="47.77609" lon="1.63882">
        <ele>83</ele>
        <time>2018-09-16T08:48:54Z</time>
      </trkpt>
      <trkpt lat="47.77611" lon="1.63876">
        <ele>83</ele>
        <time>2018-09-16T08:48:55Z</time>
      </trkpt>
      <trkpt lat="47.77637" lon="1.63812">
        <ele>83</ele>
        <time>2018-09-16T08:49:05Z</time>
      </trkpt>
      <trkpt lat="47.77639" lon="1.63805">
        <ele>82</ele>
        <time>2018-09-16T08:49:06Z</time>
      </trkpt>
      <trkpt lat="47.77663" lon="1.63747">
        <ele>83</ele>
        <time>2018-09-16T08:49:15Z</time>
      </trkpt>
      <trkpt lat="47.77666" lon="1.6374">
        <ele>83</ele>
        <time>2018-09-16T08:49:16Z</time>
      </trkpt>
      <trkpt lat="47.77692" lon="1.63677">
        <ele>83</ele>
        <time>2018-09-16T08:49:26Z</time>
      </trkpt>
      <trkpt lat="47.77694" lon="1.6367">
        <ele>83</ele>
        <time>2018-09-16T08:49:27Z</time>
      </trkpt>
      <trkpt lat="47.77718" lon="1.63609">
        <ele>83</ele>
        <time>2018-09-16T08:49:36Z</time>
      </trkpt>
      <trkpt lat="47.77721" lon="1.63602">
        <ele>83</ele>
        <time>2018-09-16T08:49:37Z</time>
      </trkpt>
      <trkpt lat="47.77744" lon="1.63544">
        <ele>83</ele>
        <time>2018-09-16T08:49:46Z</time>
      </trkpt>
      <trkpt lat="47.77746" lon="1.63539">
        <ele>83</ele>
        <time>2018-09-16T08:49:47Z</time>
      </trkpt>
      <trkpt lat="47.77749" lon="1.63531">
        <ele>83</ele>
        <time>2018-09-16T08:49:49Z</time>
      </trkpt>
      <trkpt lat="47.77768" lon="1.63493">
        <ele>82</ele>
        <time>2018-09-16T08:50:02Z</time>
      </trkpt>
      <trkpt lat="47.77776" lon="1.63501">
        <ele>82</ele>
        <time>2018-09-16T08:50:06Z</time>
      </trkpt>
      <trkpt lat="47.77819" lon="1.63535">
        <ele>81</ele>
        <time>2018-09-16T08:50:19Z</time>
      </trkpt>
      <trkpt lat="47.77822" lon="1.63538">
        <ele>81</ele>
        <time>2018-09-16T08:50:20Z</time>
      </trkpt>
      <trkpt lat="47.77829" lon="1.63544">
        <ele>80</ele>
        <time>2018-09-16T08:50:22Z</time>
      </trkpt>
      <trkpt lat="47.7785" lon="1.63579">
        <ele>78</ele>
        <time>2018-09-16T08:50:30Z</time>
      </trkpt>
      <trkpt lat="47.77854" lon="1.63605">
        <ele>77</ele>
        <time>2018-09-16T08:50:34Z</time>
      </trkpt>
      <trkpt lat="47.77876" lon="1.63664">
        <ele>76</ele>
        <time>2018-09-16T08:50:44Z</time>
      </trkpt>
      <trkpt lat="47.77879" lon="1.63668">
        <ele>76</ele>
        <time>2018-09-16T08:50:45Z</time>
      </trkpt>
      <trkpt lat="47.77892" lon="1.63685">
        <ele>75</ele>
        <time>2018-09-16T08:50:59Z</time>
      </trkpt>
      <trkpt lat="47.77893" lon="1.63686">
        <ele>66</ele>
        <time>2018-09-16T08:54:59Z</time>
      </trkpt>
      <trkpt lat="47.77884" lon="1.63684">
        <ele>72</ele>
        <time>2018-09-16T08:55:29Z</time>
      </trkpt>
      <trkpt lat="47.77878" lon="1.63668">
        <ele>73</ele>
        <time>2018-09-16T08:55:34Z</time>
      </trkpt>
      <trkpt lat="47.77856" lon="1.63611">
        <ele>77</ele>
        <time>2018-09-16T08:55:48Z</time>
      </trkpt>
      <trkpt lat="47.77856" lon="1.63607">
        <ele>77</ele>
        <time>2018-09-16T08:55:49Z</time>
      </trkpt>
      <trkpt lat="47.77853" lon="1.63588">
        <ele>78</ele>
        <time>2018-09-16T08:55:53Z</time>
      </trkpt>
      <trkpt lat="47.77851" lon="1.63575">
        <ele>79</ele>
        <time>2018-09-16T08:55:56Z</time>
      </trkpt>
      <trkpt lat="47.77845" lon="1.63563">
        <ele>79</ele>
        <time>2018-09-16T08:56:00Z</time>
      </trkpt>
      <trkpt lat="47.77836" lon="1.63549">
        <ele>80</ele>
        <time>2018-09-16T08:56:05Z</time>
      </trkpt>
      <trkpt lat="47.77825" lon="1.6354">
        <ele>80</ele>
        <time>2018-09-16T08:56:09Z</time>
      </trkpt>
      <trkpt lat="47.77787" lon="1.63506">
        <ele>79</ele>
        <time>2018-09-16T08:56:22Z</time>
      </trkpt>
      <trkpt lat="47.77785" lon="1.63503">
        <ele>79</ele>
        <time>2018-09-16T08:56:23Z</time>
      </trkpt>
      <trkpt lat="47.77781" lon="1.63499">
        <ele>79</ele>
        <time>2018-09-16T08:56:25Z</time>
      </trkpt>
      <trkpt lat="47.77766" lon="1.63501">
        <ele>80</ele>
        <time>2018-09-16T08:56:32Z</time>
      </trkpt>
      <trkpt lat="47.77762" lon="1.63509">
        <ele>81</ele>
        <time>2018-09-16T08:56:35Z</time>
      </trkpt>
      <trkpt lat="47.77759" lon="1.63516">
        <ele>82</ele>
        <time>2018-09-16T08:56:37Z</time>
      </trkpt>
      <trkpt lat="47.77752" lon="1.63531">
        <ele>83</ele>
        <time>2018-09-16T08:56:41Z</time>
      </trkpt>
      <trkpt lat="47.77749" lon="1.63538">
        <ele>84</ele>
        <time>2018-09-16T08:56:43Z</time>
      </trkpt>
      <trkpt lat="47.77746" lon="1.63546">
        <ele>84</ele>
        <time>2018-09-16T08:56:45Z</time>
      </trkpt>
      <trkpt lat="47.77721" lon="1.63608">
        <ele>85</ele>
        <time>2018-09-16T08:56:58Z</time>
      </trkpt>
      <trkpt lat="47.77718" lon="1.63614">
        <ele>85</ele>
        <time>2018-09-16T08:56:59Z</time>
      </trkpt>
      <trkpt lat="47.77695" lon="1.63674">
        <ele>86</ele>
        <time>2018-09-16T08:57:08Z</time>
      </trkpt>
      <trkpt lat="47.77692" lon="1.6368">
        <ele>86</ele>
        <time>2018-09-16T08:57:09Z</time>
      </trkpt>
      <trkpt lat="47.77668" lon="1.63741">
        <ele>86</ele>
        <time>2018-09-16T08:57:18Z</time>
      </trkpt>
      <trkpt lat="47.77665" lon="1.63748">
        <ele>86</ele>
        <time>2018-09-16T08:57:19Z</time>
      </trkpt>
      <trkpt lat="47.77639" lon="1.6381">
        <ele>86</ele>
        <time>2018-09-16T08:57:28Z</time>
      </trkpt>
      <trkpt lat="47.77636" lon="1.63817">
        <ele>86</ele>
        <time>2018-09-16T08:57:29Z</time>
      </trkpt>
      <trkpt lat="47.77611" lon="1.63879">
        <ele>87</ele>
        <time>2018-09-16T08:57:38Z</time>
      </trkpt>
      <trkpt lat="47.77608" lon="1.63885">
        <ele>87</ele>
        <time>2018-09-16T08:57:39Z</time>
      </trkpt>
      <trkpt lat="47.77583" lon="1.63947">
        <ele>87</ele>
        <time>2018-09-16T08:57:48Z</time>
      </trkpt>
      <trkpt lat="47.7758" lon="1.63954">
        <ele>87</ele>
        <time>2018-09-16T08:57:49Z</time>
      </trkpt>
      <trkpt lat="47.77557" lon="1.64014">
        <ele>86</ele>
        <time>2018-09-16T08:57:58Z</time>
      </trkpt>
      <trkpt lat="47.77557" lon="1.6402">
        <ele>86</ele>
        <time>2018-09-16T08:57:59Z</time>
      </trkpt>
      <trkpt lat="47.77557" lon="1.64045">
        <ele>85</ele>
        <time>2018-09-16T08:58:03Z</time>
      </trkpt>
      <trkpt lat="47.77552" lon="1.64096">
        <ele>85</ele>
        <time>2018-09-16T08:58:11Z</time>
      </trkpt>
      <trkpt lat="47.77562" lon="1.64147">
        <ele>82</ele>
        <time>2018-09-16T08:58:17Z</time>
      </trkpt>
      <trkpt lat="47.77576" lon="1.64183">
        <ele>81</ele>
        <time>2018-09-16T08:58:21Z</time>
      </trkpt>
      <trkpt lat="47.77607" lon="1.64242">
        <ele>79</ele>
        <time>2018-09-16T08:58:29Z</time>
      </trkpt>
      <trkpt lat="47.77608" lon="1.64248">
        <ele>79</ele>
        <time>2018-09-16T08:58:30Z</time>
      </trkpt>
      <trkpt lat="47.77609" lon="1.64266">
        <ele>79</ele>
        <time>2018-09-16T08:58:33Z</time>
      </trkpt>
      <trkpt lat="47.7761" lon="1.6428">
        <ele>79</ele>
        <time>2018-09-16T08:58:35Z</time>
      </trkpt>
      <trkpt lat="47.77623" lon="1.64345">
        <ele>77</ele>
        <time>2018-09-16T08:58:44Z</time>
      </trkpt>
      <trkpt lat="47.77626" lon="1.64352">
        <ele>77</ele>
        <time>2018-09-16T08:58:45Z</time>
      </trkpt>
      <trkpt lat="47.77644" lon="1.64417">
        <ele>77</ele>
        <time>2018-09-16T08:58:55Z</time>
      </trkpt>
      <trkpt lat="47.77645" lon="1.64423">
        <ele>77</ele>
        <time>2018-09-16T08:58:56Z</time>
      </trkpt>
      <trkpt lat="47.77658" lon="1.6446">
        <ele>77</ele>
        <time>2018-09-16T08:59:02Z</time>
      </trkpt>
      <trkpt lat="47.77673" lon="1.64476">
        <ele>77</ele>
        <time>2018-09-16T08:59:06Z</time>
      </trkpt>
      <trkpt lat="47.77718" lon="1.64502">
        <ele>76</ele>
        <time>2018-09-16T08:59:16Z</time>
      </trkpt>
      <trkpt lat="47.77724" lon="1.64503">
        <ele>76</ele>
        <time>2018-09-16T08:59:17Z</time>
      </trkpt>
      <trkpt lat="47.77738" lon="1.64513">
        <ele>77</ele>
        <time>2018-09-16T08:59:20Z</time>
      </trkpt>
      <trkpt lat="47.77754" lon="1.64542">
        <ele>76</ele>
        <time>2018-09-16T08:59:25Z</time>
      </trkpt>
      <trkpt lat="47.77764" lon="1.64544">
        <ele>76</ele>
        <time>2018-09-16T08:59:27Z</time>
      </trkpt>
      <trkpt lat="47.77792" lon="1.64537">
        <ele>77</ele>
        <time>2018-09-16T08:59:33Z</time>
      </trkpt>
      <trkpt lat="47.77802" lon="1.64541">
        <ele>77</ele>
        <time>2018-09-16T08:59:35Z</time>
      </trkpt>
      <trkpt lat="47.77814" lon="1.64552">
        <ele>77</ele>
        <time>2018-09-16T08:59:38Z</time>
      </trkpt>
      <trkpt lat="47.77822" lon="1.64551">
        <ele>77</ele>
        <time>2018-09-16T08:59:40Z</time>
      </trkpt>
      <trkpt lat="47.77868" lon="1.64524">
        <ele>78</ele>
        <time>2018-09-16T08:59:50Z</time>
      </trkpt>
      <trkpt lat="47.77873" lon="1.64522">
        <ele>78</ele>
        <time>2018-09-16T08:59:51Z</time>
      </trkpt>
      <trkpt lat="47.77917" lon="1.64505">
        <ele>80</ele>
        <time>2018-09-16T09:00:01Z</time>
      </trkpt>
      <trkpt lat="47.77922" lon="1.64504">
        <ele>80</ele>
        <time>2018-09-16T09:00:02Z</time>
      </trkpt>
      <trkpt lat="47.77938" lon="1.64502">
        <ele>81</ele>
        <time>2018-09-16T09:00:06Z</time>
      </trkpt>
      <trkpt lat="47.77969" lon="1.64551">
        <ele>81</ele>
        <time>2018-09-16T09:00:15Z</time>
      </trkpt>
      <trkpt lat="47.77973" lon="1.64557">
        <ele>81</ele>
        <time>2018-09-16T09:00:16Z</time>
      </trkpt>
      <trkpt lat="47.78004" lon="1.64609">
        <ele>80</ele>
        <time>2018-09-16T09:00:25Z</time>
      </trkpt>
      <trkpt lat="47.78008" lon="1.64613">
        <ele>80</ele>
        <time>2018-09-16T09:00:26Z</time>
      </trkpt>
      <trkpt lat="47.7802" lon="1.64627">
        <ele>80</ele>
        <time>2018-09-16T09:00:29Z</time>
      </trkpt>
      <trkpt lat="47.78024" lon="1.6464">
        <ele>79</ele>
        <time>2018-09-16T09:00:31Z</time>
      </trkpt>
      <trkpt lat="47.7803" lon="1.6466">
        <ele>79</ele>
        <time>2018-09-16T09:00:34Z</time>
      </trkpt>
      <trkpt lat="47.78062" lon="1.64708">
        <ele>79</ele>
        <time>2018-09-16T09:00:43Z</time>
      </trkpt>
      <trkpt lat="47.78065" lon="1.64714">
        <ele>79</ele>
        <time>2018-09-16T09:00:44Z</time>
      </trkpt>
      <trkpt lat="47.78092" lon="1.64759">
        <ele>77</ele>
        <time>2018-09-16T09:00:52Z</time>
      </trkpt>
      <trkpt lat="47.78096" lon="1.64764">
        <ele>77</ele>
        <time>2018-09-16T09:00:57Z</time>
      </trkpt>
      <trkpt lat="47.78126" lon="1.64822">
        <ele>76</ele>
        <time>2018-09-16T09:01:12Z</time>
      </trkpt>
      <trkpt lat="47.78128" lon="1.64828">
        <ele>76</ele>
        <time>2018-09-16T09:01:13Z</time>
      </trkpt>
      <trkpt lat="47.7815" lon="1.64891">
        <ele>75</ele>
        <time>2018-09-16T09:01:23Z</time>
      </trkpt>
      <trkpt lat="47.78152" lon="1.64897">
        <ele>75</ele>
        <time>2018-09-16T09:01:24Z</time>
      </trkpt>
      <trkpt lat="47.78175" lon="1.64956">
        <ele>74</ele>
        <time>2018-09-16T09:01:34Z</time>
      </trkpt>
      <trkpt lat="47.78177" lon="1.64963">
        <ele>74</ele>
        <time>2018-09-16T09:01:35Z</time>
      </trkpt>
      <trkpt lat="47.78199" lon="1.65027">
        <ele>74</ele>
        <time>2018-09-16T09:01:45Z</time>
      </trkpt>
      <trkpt lat="47.78201" lon="1.65033">
        <ele>74</ele>
        <time>2018-09-16T09:01:46Z</time>
      </trkpt>
      <trkpt lat="47.78204" lon="1.65045">
        <ele>74</ele>
        <time>2018-09-16T09:01:48Z</time>
      </trkpt>
      <trkpt lat="47.78217" lon="1.65072">
        <ele>73</ele>
        <time>2018-09-16T09:01:53Z</time>
      </trkpt>
      <trkpt lat="47.78241" lon="1.65129">
        <ele>74</ele>
        <time>2018-09-16T09:02:03Z</time>
      </trkpt>
      <trkpt lat="47.78243" lon="1.65135">
        <ele>74</ele>
        <time>2018-09-16T09:02:04Z</time>
      </trkpt>
      <trkpt lat="47.78253" lon="1.65171">
        <ele>75</ele>
        <time>2018-09-16T09:02:10Z</time>
      </trkpt>
      <trkpt lat="47.78268" lon="1.65214">
        <ele>75</ele>
        <time>2018-09-16T09:02:17Z</time>
      </trkpt>
      <trkpt lat="47.78291" lon="1.65249">
        <ele>76</ele>
        <time>2018-09-16T09:02:24Z</time>
      </trkpt>
      <trkpt lat="47.78298" lon="1.65265">
        <ele>75</ele>
        <time>2018-09-16T09:02:27Z</time>
      </trkpt>
      <trkpt lat="47.78334" lon="1.65307">
        <ele>75</ele>
        <time>2018-09-16T09:02:37Z</time>
      </trkpt>
      <trkpt lat="47.78337" lon="1.65311">
        <ele>75</ele>
        <time>2018-09-16T09:02:38Z</time>
      </trkpt>
      <trkpt lat="47.78347" lon="1.65327">
        <ele>74</ele>
        <time>2018-09-16T09:02:41Z</time>
      </trkpt>
      <trkpt lat="47.7838" lon="1.65374">
        <ele>74</ele>
        <time>2018-09-16T09:02:51Z</time>
      </trkpt>
      <trkpt lat="47.78382" lon="1.65381">
        <ele>74</ele>
        <time>2018-09-16T09:02:52Z</time>
      </trkpt>
      <trkpt lat="47.78408" lon="1.6544">
        <ele>73</ele>
        <time>2018-09-16T09:03:02Z</time>
      </trkpt>
      <trkpt lat="47.7841" lon="1.65446">
        <ele>73</ele>
        <time>2018-09-16T09:03:03Z</time>
      </trkpt>
      <trkpt lat="47.78429" lon="1.65512">
        <ele>72</ele>
        <time>2018-09-16T09:03:13Z</time>
      </trkpt>
      <trkpt lat="47.78432" lon="1.65518">
        <ele>72</ele>
        <time>2018-09-16T09:03:14Z</time>
      </trkpt>
      <trkpt lat="47.78454" lon="1.6558">
        <ele>74</ele>
        <time>2018-09-16T09:03:24Z</time>
      </trkpt>
      <trkpt lat="47.78456" lon="1.65586">
        <ele>75</ele>
        <time>2018-09-16T09:03:25Z</time>
      </trkpt>
      <trkpt lat="47.78481" lon="1.65644">
        <ele>76</ele>
        <time>2018-09-16T09:03:35Z</time>
      </trkpt>
      <trkpt lat="47.78484" lon="1.6565">
        <ele>76</ele>
        <time>2018-09-16T09:03:36Z</time>
      </trkpt>
      <trkpt lat="47.78511" lon="1.65705">
        <ele>77</ele>
        <time>2018-09-16T09:03:45Z</time>
      </trkpt>
      <trkpt lat="47.78514" lon="1.65711">
        <ele>77</ele>
        <time>2018-09-16T09:03:46Z</time>
      </trkpt>
      <trkpt lat="47.78542" lon="1.65769">
        <ele>76</ele>
        <time>2018-09-16T09:03:55Z</time>
      </trkpt>
      <trkpt lat="47.78545" lon="1.65775">
        <ele>76</ele>
        <time>2018-09-16T09:03:56Z</time>
      </trkpt>
      <trkpt lat="47.78573" lon="1.65829">
        <ele>76</ele>
        <time>2018-09-16T09:04:05Z</time>
      </trkpt>
      <trkpt lat="47.78576" lon="1.65834">
        <ele>76</ele>
        <time>2018-09-16T09:04:06Z</time>
      </trkpt>
      <trkpt lat="47.78589" lon="1.65863">
        <ele>76</ele>
        <time>2018-09-16T09:04:11Z</time>
      </trkpt>
      <trkpt lat="47.78592" lon="1.65894">
        <ele>75</ele>
        <time>2018-09-16T09:04:15Z</time>
      </trkpt>
      <trkpt lat="47.78587" lon="1.65933">
        <ele>75</ele>
        <time>2018-09-16T09:04:20Z</time>
      </trkpt>
      <trkpt lat="47.78583" lon="1.65978">
        <ele>76</ele>
        <time>2018-09-16T09:04:26Z</time>
      </trkpt>
      <trkpt lat="47.78584" lon="1.66051">
        <ele>77</ele>
        <time>2018-09-16T09:04:37Z</time>
      </trkpt>
      <trkpt lat="47.78585" lon="1.66058">
        <ele>77</ele>
        <time>2018-09-16T09:04:38Z</time>
      </trkpt>
      <trkpt lat="47.78591" lon="1.66125">
        <ele>77</ele>
        <time>2018-09-16T09:04:48Z</time>
      </trkpt>
      <trkpt lat="47.78592" lon="1.66132">
        <ele>77</ele>
        <time>2018-09-16T09:04:49Z</time>
      </trkpt>
      <trkpt lat="47.78594" lon="1.66159">
        <ele>77</ele>
        <time>2018-09-16T09:04:53Z</time>
      </trkpt>
      <trkpt lat="47.78593" lon="1.66202">
        <ele>77</ele>
        <time>2018-09-16T09:04:59Z</time>
      </trkpt>
      <trkpt lat="47.78607" lon="1.66274">
        <ele>77</ele>
        <time>2018-09-16T09:05:09Z</time>
      </trkpt>
      <trkpt lat="47.78608" lon="1.66281">
        <ele>77</ele>
        <time>2018-09-16T09:05:10Z</time>
      </trkpt>
      <trkpt lat="47.78621" lon="1.6635">
        <ele>77</ele>
        <time>2018-09-16T09:05:20Z</time>
      </trkpt>
      <trkpt lat="47.78622" lon="1.66357">
        <ele>77</ele>
        <time>2018-09-16T09:05:21Z</time>
      </trkpt>
      <trkpt lat="47.78632" lon="1.66409">
        <ele>77</ele>
        <time>2018-09-16T09:05:30Z</time>
      </trkpt>
      <trkpt lat="47.78637" lon="1.66431">
        <ele>76</ele>
        <time>2018-09-16T09:05:34Z</time>
      </trkpt>
      <trkpt lat="47.78638" lon="1.66448">
        <ele>77</ele>
        <time>2018-09-16T09:05:37Z</time>
      </trkpt>
      <trkpt lat="47.78635" lon="1.6646">
        <ele>77</ele>
        <time>2018-09-16T09:05:40Z</time>
      </trkpt>
      <trkpt lat="47.78628" lon="1.66462">
        <ele>76</ele>
        <time>2018-09-16T09:05:43Z</time>
      </trkpt>
      <trkpt lat="47.78623" lon="1.66464">
        <ele>76</ele>
        <time>2018-09-16T09:05:45Z</time>
      </trkpt>
      <trkpt lat="47.78614" lon="1.66468">
        <ele>76</ele>
        <time>2018-09-16T09:05:51Z</time>
      </trkpt>
      <trkpt lat="47.78623" lon="1.66493">
        <ele>77</ele>
        <time>2018-09-16T09:06:13Z</time>
      </trkpt>
      <trkpt lat="47.78613" lon="1.6648">
        <ele>82</ele>
        <time>2018-09-16T09:06:30Z</time>
      </trkpt>
      <trkpt lat="47.78606" lon="1.66482">
        <ele>86</ele>
        <time>2018-09-16T09:06:46Z</time>
      </trkpt>
      <trkpt lat="47.78608" lon="1.66491">
        <ele>85</ele>
        <time>2018-09-16T09:06:52Z</time>
      </trkpt>
      <trkpt lat="47.78631" lon="1.66539">
        <ele>82</ele>
        <time>2018-09-16T09:07:09Z</time>
      </trkpt>
      <trkpt lat="47.78657" lon="1.66596">
        <ele>81</ele>
        <time>2018-09-16T09:07:20Z</time>
      </trkpt>
      <trkpt lat="47.7866" lon="1.66602">
        <ele>81</ele>
        <time>2018-09-16T09:07:21Z</time>
      </trkpt>
      <trkpt lat="47.78685" lon="1.66663">
        <ele>81</ele>
        <time>2018-09-16T09:07:31Z</time>
      </trkpt>
      <trkpt lat="47.78687" lon="1.66669">
        <ele>81</ele>
        <time>2018-09-16T09:07:32Z</time>
      </trkpt>
      <trkpt lat="47.78701" lon="1.66717">
        <ele>81</ele>
        <time>2018-09-16T09:07:39Z</time>
      </trkpt>
      <trkpt lat="47.78717" lon="1.66781">
        <ele>81</ele>
        <time>2018-09-16T09:07:48Z</time>
      </trkpt>
      <trkpt lat="47.78719" lon="1.66788">
        <ele>80</ele>
        <time>2018-09-16T09:07:49Z</time>
      </trkpt>
      <trkpt lat="47.7872" lon="1.66795">
        <ele>80</ele>
        <time>2018-09-16T09:07:50Z</time>
      </trkpt>
      <trkpt lat="47.78733" lon="1.66863">
        <ele>80</ele>
        <time>2018-09-16T09:07:59Z</time>
      </trkpt>
      <trkpt lat="47.78734" lon="1.6687">
        <ele>80</ele>
        <time>2018-09-16T09:08:00Z</time>
      </trkpt>
      <trkpt lat="47.78735" lon="1.66878">
        <ele>80</ele>
        <time>2018-09-16T09:08:01Z</time>
      </trkpt>
      <trkpt lat="47.78746" lon="1.66946">
        <ele>80</ele>
        <time>2018-09-16T09:08:10Z</time>
      </trkpt>
      <trkpt lat="47.78747" lon="1.66953">
        <ele>80</ele>
        <time>2018-09-16T09:08:11Z</time>
      </trkpt>
      <trkpt lat="47.78758" lon="1.67021">
        <ele>80</ele>
        <time>2018-09-16T09:08:21Z</time>
      </trkpt>
      <trkpt lat="47.78759" lon="1.67027">
        <ele>80</ele>
        <time>2018-09-16T09:08:22Z</time>
      </trkpt>
      <trkpt lat="47.78773" lon="1.67095">
        <ele>80</ele>
        <time>2018-09-16T09:08:32Z</time>
      </trkpt>
      <trkpt lat="47.78775" lon="1.67101">
        <ele>80</ele>
        <time>2018-09-16T09:08:33Z</time>
      </trkpt>
      <trkpt lat="47.78778" lon="1.67114">
        <ele>80</ele>
        <time>2018-09-16T09:08:35Z</time>
      </trkpt>
      <trkpt lat="47.78794" lon="1.67183">
        <ele>80</ele>
        <time>2018-09-16T09:08:45Z</time>
      </trkpt>
      <trkpt lat="47.78796" lon="1.6719">
        <ele>80</ele>
        <time>2018-09-16T09:08:46Z</time>
      </trkpt>
      <trkpt lat="47.78809" lon="1.67258">
        <ele>80</ele>
        <time>2018-09-16T09:08:55Z</time>
      </trkpt>
      <trkpt lat="47.78811" lon="1.67265">
        <ele>80</ele>
        <time>2018-09-16T09:08:56Z</time>
      </trkpt>
      <trkpt lat="47.78827" lon="1.6733">
        <ele>80</ele>
        <time>2018-09-16T09:09:05Z</time>
      </trkpt>
      <trkpt lat="47.7883" lon="1.67336">
        <ele>80</ele>
        <time>2018-09-16T09:09:06Z</time>
      </trkpt>
      <trkpt lat="47.78846" lon="1.67399">
        <ele>80</ele>
        <time>2018-09-16T09:09:15Z</time>
      </trkpt>
      <trkpt lat="47.78848" lon="1.67406">
        <ele>80</ele>
        <time>2018-09-16T09:09:16Z</time>
      </trkpt>
      <trkpt lat="47.78854" lon="1.67441">
        <ele>80</ele>
        <time>2018-09-16T09:09:21Z</time>
      </trkpt>
      <trkpt lat="47.78861" lon="1.67515">
        <ele>80</ele>
        <time>2018-09-16T09:09:31Z</time>
      </trkpt>
      <trkpt lat="47.78862" lon="1.67523">
        <ele>80</ele>
        <time>2018-09-16T09:09:32Z</time>
      </trkpt>
      <trkpt lat="47.78867" lon="1.67596">
        <ele>81</ele>
        <time>2018-09-16T09:09:42Z</time>
      </trkpt>
      <trkpt lat="47.78867" lon="1.67604">
        <ele>81</ele>
        <time>2018-09-16T09:09:43Z</time>
      </trkpt>
      <trkpt lat="47.7887" lon="1.67677">
        <ele>81</ele>
        <time>2018-09-16T09:09:53Z</time>
      </trkpt>
      <trkpt lat="47.78871" lon="1.67685">
        <ele>81</ele>
        <time>2018-09-16T09:09:54Z</time>
      </trkpt>
      <trkpt lat="47.78876" lon="1.67754">
        <ele>81</ele>
        <time>2018-09-16T09:10:03Z</time>
      </trkpt>
      <trkpt lat="47.78876" lon="1.67762">
        <ele>81</ele>
        <time>2018-09-16T09:10:04Z</time>
      </trkpt>
      <trkpt lat="47.78886" lon="1.67831">
        <ele>81</ele>
        <time>2018-09-16T09:10:13Z</time>
      </trkpt>
      <trkpt lat="47.78887" lon="1.67839">
        <ele>81</ele>
        <time>2018-09-16T09:10:14Z</time>
      </trkpt>
      <trkpt lat="47.78892" lon="1.67861">
        <ele>81</ele>
        <time>2018-09-16T09:10:17Z</time>
      </trkpt>
      <trkpt lat="47.78904" lon="1.67927">
        <ele>81</ele>
        <time>2018-09-16T09:10:26Z</time>
      </trkpt>
      <trkpt lat="47.78906" lon="1.67934">
        <ele>81</ele>
        <time>2018-09-16T09:10:27Z</time>
      </trkpt>
      <trkpt lat="47.78922" lon="1.68002">
        <ele>82</ele>
        <time>2018-09-16T09:10:37Z</time>
      </trkpt>
      <trkpt lat="47.78923" lon="1.68009">
        <ele>82</ele>
        <time>2018-09-16T09:10:38Z</time>
      </trkpt>
      <trkpt lat="47.78938" lon="1.68074">
        <ele>81</ele>
        <time>2018-09-16T09:10:47Z</time>
      </trkpt>
      <trkpt lat="47.78939" lon="1.68081">
        <ele>81</ele>
        <time>2018-09-16T09:10:48Z</time>
      </trkpt>
      <trkpt lat="47.78955" lon="1.68151">
        <ele>81</ele>
        <time>2018-09-16T09:10:58Z</time>
      </trkpt>
      <trkpt lat="47.78957" lon="1.68158">
        <ele>81</ele>
        <time>2018-09-16T09:10:59Z</time>
      </trkpt>
      <trkpt lat="47.79847" lon="1.69806">
        <ele>80</ele>
        <time>2018-09-16T09:16:04Z</time>
      </trkpt>
      <trkpt lat="47.79848" lon="1.69809">
        <ele>89</ele>
        <time>2018-09-16T09:16:05Z</time>
      </trkpt>
      <trkpt lat="47.79885" lon="1.69856">
        <ele>90</ele>
        <time>2018-09-16T09:16:16Z</time>
      </trkpt>
      <trkpt lat="47.79889" lon="1.6986">
        <ele>90</ele>
        <time>2018-09-16T09:16:17Z</time>
      </trkpt>
      <trkpt lat="47.79926" lon="1.69902">
        <ele>91</ele>
        <time>2018-09-16T09:16:27Z</time>
      </trkpt>
      <trkpt lat="47.7993" lon="1.69906">
        <ele>91</ele>
        <time>2018-09-16T09:16:28Z</time>
      </trkpt>
      <trkpt lat="47.79969" lon="1.6995">
        <ele>90</ele>
        <time>2018-09-16T09:16:38Z</time>
      </trkpt>
      <trkpt lat="47.79973" lon="1.69955">
        <ele>90</ele>
        <time>2018-09-16T09:16:39Z</time>
      </trkpt>
      <trkpt lat="47.80011" lon="1.7">
        <ele>89</ele>
        <time>2018-09-16T09:16:49Z</time>
      </trkpt>
      <trkpt lat="47.80015" lon="1.70005">
        <ele>89</ele>
        <time>2018-09-16T09:16:50Z</time>
      </trkpt>
      <trkpt lat="47.80051" lon="1.70049">
        <ele>89</ele>
        <time>2018-09-16T09:17:00Z</time>
      </trkpt>
      <trkpt lat="47.80054" lon="1.70053">
        <ele>89</ele>
        <time>2018-09-16T09:17:01Z</time>
      </trkpt>
      <trkpt lat="47.80056" lon="1.70056">
        <ele>87</ele>
        <time>2018-09-16T09:21:22Z</time>
      </trkpt>
      <trkpt lat="47.80062" lon="1.70062">
        <ele>87</ele>
        <time>2018-09-16T09:21:28Z</time>
      </trkpt>
      <trkpt lat="47.80096" lon="1.70108">
        <ele>86</ele>
        <time>2018-09-16T09:21:40Z</time>
      </trkpt>
      <trkpt lat="47.801" lon="1.70112">
        <ele>86</ele>
        <time>2018-09-16T09:21:41Z</time>
      </trkpt>
      <trkpt lat="47.80136" lon="1.70161">
        <ele>85</ele>
        <time>2018-09-16T09:21:52Z</time>
      </trkpt>
      <trkpt lat="47.8014" lon="1.70165">
        <ele>85</ele>
        <time>2018-09-16T09:21:53Z</time>
      </trkpt>
      <trkpt lat="47.80175" lon="1.7021">
        <ele>83</ele>
        <time>2018-09-16T09:22:03Z</time>
      </trkpt>
      <trkpt lat="47.80179" lon="1.70213">
        <ele>83</ele>
        <time>2018-09-16T09:22:04Z</time>
      </trkpt>
      <trkpt lat="47.80183" lon="1.70217">
        <ele>83</ele>
        <time>2018-09-16T09:22:05Z</time>
      </trkpt>
      <trkpt lat="47.80209" lon="1.7023">
        <ele>83</ele>
        <time>2018-09-16T09:22:11Z</time>
      </trkpt>
      <trkpt lat="47.80256" lon="1.70239">
        <ele>83</ele>
        <time>2018-09-16T09:22:20Z</time>
      </trkpt>
      <trkpt lat="47.80262" lon="1.7024">
        <ele>83</ele>
        <time>2018-09-16T09:22:21Z</time>
      </trkpt>
      <trkpt lat="47.80311" lon="1.70249">
        <ele>82</ele>
        <time>2018-09-16T09:22:30Z</time>
      </trkpt>
      <trkpt lat="47.80317" lon="1.7025">
        <ele>82</ele>
        <time>2018-09-16T09:22:31Z</time>
      </trkpt>
      <trkpt lat="47.80367" lon="1.7026">
        <ele>82</ele>
        <time>2018-09-16T09:22:40Z</time>
      </trkpt>
      <trkpt lat="47.80372" lon="1.70261">
        <ele>82</ele>
        <time>2018-09-16T09:22:41Z</time>
      </trkpt>
      <trkpt lat="47.80418" lon="1.70283">
        <ele>82</ele>
        <time>2018-09-16T09:22:50Z</time>
      </trkpt>
      <trkpt lat="47.80423" lon="1.70286">
        <ele>82</ele>
        <time>2018-09-16T09:22:51Z</time>
      </trkpt>
      <trkpt lat="47.80456" lon="1.70307">
        <ele>82</ele>
        <time>2018-09-16T09:22:58Z</time>
      </trkpt>
      <trkpt lat="47.80498" lon="1.70334">
        <ele>82</ele>
        <time>2018-09-16T09:23:07Z</time>
      </trkpt>
      <trkpt lat="47.80502" lon="1.70336">
        <ele>82</ele>
        <time>2018-09-16T09:23:08Z</time>
      </trkpt>
      <trkpt lat="47.80545" lon="1.70362">
        <ele>82</ele>
        <time>2018-09-16T09:23:17Z</time>
      </trkpt>
      <trkpt lat="47.8055" lon="1.70365">
        <ele>82</ele>
        <time>2018-09-16T09:23:18Z</time>
      </trkpt>
      <trkpt lat="47.80592" lon="1.70391">
        <ele>81</ele>
        <time>2018-09-16T09:23:27Z</time>
      </trkpt>
      <trkpt lat="47.80596" lon="1.70394">
        <ele>81</ele>
        <time>2018-09-16T09:23:28Z</time>
      </trkpt>
      <trkpt lat="47.80642" lon="1.70419">
        <ele>81</ele>
        <time>2018-09-16T09:23:40Z</time>
      </trkpt>
      <trkpt lat="47.80645" lon="1.70421">
        <ele>81</ele>
        <time>2018-09-16T09:23:41Z</time>
      </trkpt>
      <trkpt lat="47.80663" lon="1.70428">
        <ele>86</ele>
        <time>2018-09-16T09:27:53Z</time>
      </trkpt>
      <trkpt lat="47.80667" lon="1.7043">
        <ele>78</ele>
        <time>2018-09-16T09:41:17Z</time>
      </trkpt>
      <trkpt lat="47.80662" lon="1.70427">
        <ele>84</ele>
        <time>2018-09-16T09:41:46Z</time>
      </trkpt>
      <trkpt lat="47.80664" lon="1.70434">
        <ele>81</ele>
        <time>2018-09-16T09:43:51Z</time>
      </trkpt>
      <trkpt lat="47.80702" lon="1.70472">
        <ele>80</ele>
        <time>2018-09-16T09:44:05Z</time>
      </trkpt>
      <trkpt lat="47.80706" lon="1.70475">
        <ele>80</ele>
        <time>2018-09-16T09:44:06Z</time>
      </trkpt>
      <trkpt lat="47.80745" lon="1.70518">
        <ele>80</ele>
        <time>2018-09-16T09:44:17Z</time>
      </trkpt>
      <trkpt lat="47.80748" lon="1.70521">
        <ele>80</ele>
        <time>2018-09-16T09:44:18Z</time>
      </trkpt>
      <trkpt lat="47.80774" lon="1.7056">
        <ele>79</ele>
        <time>2018-09-16T09:44:31Z</time>
      </trkpt>
      <trkpt lat="47.80807" lon="1.70612">
        <ele>79</ele>
        <time>2018-09-16T09:44:44Z</time>
      </trkpt>
      <trkpt lat="47.8081" lon="1.70616">
        <ele>79</ele>
        <time>2018-09-16T09:44:45Z</time>
      </trkpt>
      <trkpt lat="47.80842" lon="1.70666">
        <ele>80</ele>
        <time>2018-09-16T09:44:55Z</time>
      </trkpt>
      <trkpt lat="47.80844" lon="1.7067">
        <ele>80</ele>
        <time>2018-09-16T09:44:56Z</time>
      </trkpt>
      <trkpt lat="47.80854" lon="1.70681">
        <ele>80</ele>
        <time>2018-09-16T09:44:59Z</time>
      </trkpt>
      <trkpt lat="47.80898" lon="1.70712">
        <ele>79</ele>
        <time>2018-09-16T09:45:08Z</time>
      </trkpt>
      <trkpt lat="47.80904" lon="1.70714">
        <ele>79</ele>
        <time>2018-09-16T09:45:09Z</time>
      </trkpt>
      <trkpt lat="47.80923" lon="1.70714">
        <ele>78</ele>
        <time>2018-09-16T09:45:12Z</time>
      </trkpt>
      <trkpt lat="47.80971" lon="1.70704">
        <ele>80</ele>
        <time>2018-09-16T09:45:20Z</time>
      </trkpt>
      <trkpt lat="47.80977" lon="1.70703">
        <ele>80</ele>
        <time>2018-09-16T09:45:21Z</time>
      </trkpt>
      <trkpt lat="47.81025" lon="1.70689">
        <ele>80</ele>
        <time>2018-09-16T09:45:29Z</time>
      </trkpt>
      <trkpt lat="47.81031" lon="1.70688">
        <ele>81</ele>
        <time>2018-09-16T09:45:30Z</time>
      </trkpt>
      <trkpt lat="47.8108" lon="1.70674">
        <ele>81</ele>
        <time>2018-09-16T09:45:38Z</time>
      </trkpt>
      <trkpt lat="47.81086" lon="1.70673">
        <ele>81</ele>
        <time>2018-09-16T09:45:39Z</time>
      </trkpt>
      <trkpt lat="47.81135" lon="1.7066">
        <ele>82</ele>
        <time>2018-09-16T09:45:47Z</time>
      </trkpt>
      <trkpt lat="47.81141" lon="1.70659">
        <ele>82</ele>
        <time>2018-09-16T09:45:48Z</time>
      </trkpt>
      <trkpt lat="47.81188" lon="1.70647">
        <ele>82</ele>
        <time>2018-09-16T09:45:56Z</time>
      </trkpt>
      <trkpt lat="47.81194" lon="1.70645">
        <ele>82</ele>
        <time>2018-09-16T09:45:57Z</time>
      </trkpt>
      <trkpt lat="47.8124" lon="1.70633">
        <ele>83</ele>
        <time>2018-09-16T09:46:05Z</time>
      </trkpt>
      <trkpt lat="47.81247" lon="1.70631">
        <ele>83</ele>
        <time>2018-09-16T09:46:06Z</time>
      </trkpt>
      <trkpt lat="47.81295" lon="1.70618">
        <ele>83</ele>
        <time>2018-09-16T09:46:14Z</time>
      </trkpt>
      <trkpt lat="47.81301" lon="1.70616">
        <ele>83</ele>
        <time>2018-09-16T09:46:15Z</time>
      </trkpt>
      <trkpt lat="47.8135" lon="1.70603">
        <ele>84</ele>
        <time>2018-09-16T09:46:23Z</time>
      </trkpt>
      <trkpt lat="47.81356" lon="1.70601">
        <ele>84</ele>
        <time>2018-09-16T09:46:24Z</time>
      </trkpt>
      <trkpt lat="47.81405" lon="1.70588">
        <ele>84</ele>
        <time>2018-09-16T09:46:32Z</time>
      </trkpt>
      <trkpt lat="47.81411" lon="1.70586">
        <ele>83</ele>
        <time>2018-09-16T09:46:33Z</time>
      </trkpt>
      <trkpt lat="47.81459" lon="1.70573">
        <ele>84</ele>
        <time>2018-09-16T09:46:41Z</time>
      </trkpt>
      <trkpt lat="47.81465" lon="1.70572">
        <ele>84</ele>
        <time>2018-09-16T09:46:42Z</time>
      </trkpt>
      <trkpt lat="47.81514" lon="1.70559">
        <ele>84</ele>
        <time>2018-09-16T09:46:50Z</time>
      </trkpt>
      <trkpt lat="47.81521" lon="1.70557">
        <ele>84</ele>
        <time>2018-09-16T09:46:51Z</time>
      </trkpt>
      <trkpt lat="47.81566" lon="1.70545">
        <ele>84</ele>
        <time>2018-09-16T09:46:58Z</time>
      </trkpt>
      <trkpt lat="47.81572" lon="1.70544">
        <ele>84</ele>
        <time>2018-09-16T09:46:59Z</time>
      </trkpt>
      <trkpt lat="47.81617" lon="1.70531">
        <ele>84</ele>
        <time>2018-09-16T09:47:06Z</time>
      </trkpt>
      <trkpt lat="47.81623" lon="1.70529">
        <ele>84</ele>
        <time>2018-09-16T09:47:07Z</time>
      </trkpt>
      <trkpt lat="47.81667" lon="1.70518">
        <ele>84</ele>
        <time>2018-09-16T09:47:14Z</time>
      </trkpt>
      <trkpt lat="47.81674" lon="1.70516">
        <ele>84</ele>
        <time>2018-09-16T09:47:15Z</time>
      </trkpt>
      <trkpt lat="47.81719" lon="1.705">
        <ele>84</ele>
        <time>2018-09-16T09:47:22Z</time>
      </trkpt>
      <trkpt lat="47.81725" lon="1.70497">
        <ele>84</ele>
        <time>2018-09-16T09:47:23Z</time>
      </trkpt>
      <trkpt lat="47.81773" lon="1.7047">
        <ele>83</ele>
        <time>2018-09-16T09:47:31Z</time>
      </trkpt>
      <trkpt lat="47.81779" lon="1.70466">
        <ele>83</ele>
        <time>2018-09-16T09:47:32Z</time>
      </trkpt>
      <trkpt lat="47.81826" lon="1.70438">
        <ele>83</ele>
        <time>2018-09-16T09:47:40Z</time>
      </trkpt>
      <trkpt lat="47.81831" lon="1.70434">
        <ele>83</ele>
        <time>2018-09-16T09:47:41Z</time>
      </trkpt>
      <trkpt lat="47.81878" lon="1.70406">
        <ele>83</ele>
        <time>2018-09-16T09:47:49Z</time>
      </trkpt>
      <trkpt lat="47.81883" lon="1.70403">
        <ele>82</ele>
        <time>2018-09-16T09:47:50Z</time>
      </trkpt>
      <trkpt lat="47.81929" lon="1.70375">
        <ele>83</ele>
        <time>2018-09-16T09:47:58Z</time>
      </trkpt>
      <trkpt lat="47.81936" lon="1.70372">
        <ele>83</ele>
        <time>2018-09-16T09:47:59Z</time>
      </trkpt>
      <trkpt lat="47.81967" lon="1.70363">
        <ele>82</ele>
        <time>2018-09-16T09:48:04Z</time>
      </trkpt>
      <trkpt lat="47.82014" lon="1.70367">
        <ele>83</ele>
        <time>2018-09-16T09:48:12Z</time>
      </trkpt>
      <trkpt lat="47.8202" lon="1.70368">
        <ele>83</ele>
        <time>2018-09-16T09:48:13Z</time>
      </trkpt>
      <trkpt lat="47.82066" lon="1.70373">
        <ele>84</ele>
        <time>2018-09-16T09:48:22Z</time>
      </trkpt>
      <trkpt lat="47.82071" lon="1.70374">
        <ele>84</ele>
        <time>2018-09-16T09:48:23Z</time>
      </trkpt>
      <trkpt lat="47.82119" lon="1.7038">
        <ele>86</ele>
        <time>2018-09-16T09:48:33Z</time>
      </trkpt>
      <trkpt lat="47.82124" lon="1.7038">
        <ele>86</ele>
        <time>2018-09-16T09:48:34Z</time>
      </trkpt>
      <trkpt lat="47.82167" lon="1.70387">
        <ele>89</ele>
        <time>2018-09-16T09:48:46Z</time>
      </trkpt>
      <trkpt lat="47.82169" lon="1.70388">
        <ele>89</ele>
        <time>2018-09-16T09:48:47Z</time>
      </trkpt>
      <trkpt lat="47.82173" lon="1.70392">
        <ele>89</ele>
        <time>2018-09-16T09:48:51Z</time>
      </trkpt>
      <trkpt lat="47.82187" lon="1.70413">
        <ele>88</ele>
        <time>2018-09-16T09:49:00Z</time>
      </trkpt>
      <trkpt lat="47.82226" lon="1.70453">
        <ele>85</ele>
        <time>2018-09-16T09:49:08Z</time>
      </trkpt>
      <trkpt lat="47.82232" lon="1.70458">
        <ele>85</ele>
        <time>2018-09-16T09:49:09Z</time>
      </trkpt>
      <trkpt lat="47.82271" lon="1.70496">
        <ele>84</ele>
        <time>2018-09-16T09:49:17Z</time>
      </trkpt>
      <trkpt lat="47.82275" lon="1.705">
        <ele>84</ele>
        <time>2018-09-16T09:49:18Z</time>
      </trkpt>
      <trkpt lat="47.82309" lon="1.70531">
        <ele>84</ele>
        <time>2018-09-16T09:49:32Z</time>
      </trkpt>
      <trkpt lat="47.82351" lon="1.70559">
        <ele>83</ele>
        <time>2018-09-16T09:49:43Z</time>
      </trkpt>
      <trkpt lat="47.82356" lon="1.70562">
        <ele>83</ele>
        <time>2018-09-16T09:49:44Z</time>
      </trkpt>
      <trkpt lat="47.82365" lon="1.70565">
        <ele>83</ele>
        <time>2018-09-16T09:49:46Z</time>
      </trkpt>
      <trkpt lat="47.82412" lon="1.70588">
        <ele>82</ele>
        <time>2018-09-16T09:49:56Z</time>
      </trkpt>
      <trkpt lat="47.82417" lon="1.7059">
        <ele>82</ele>
        <time>2018-09-16T09:49:57Z</time>
      </trkpt>
      <trkpt lat="47.82462" lon="1.70618">
        <ele>82</ele>
        <time>2018-09-16T09:50:06Z</time>
      </trkpt>
      <trkpt lat="47.82467" lon="1.70622">
        <ele>82</ele>
        <time>2018-09-16T09:50:07Z</time>
      </trkpt>
      <trkpt lat="47.8249" lon="1.70642">
        <ele>83</ele>
        <time>2018-09-16T09:50:12Z</time>
      </trkpt>
      <trkpt lat="47.82504" lon="1.70656">
        <ele>82</ele>
        <time>2018-09-16T09:50:15Z</time>
      </trkpt>
      <trkpt lat="47.82543" lon="1.7069">
        <ele>82</ele>
        <time>2018-09-16T09:50:22Z</time>
      </trkpt>
      <trkpt lat="47.82548" lon="1.70694">
        <ele>82</ele>
        <time>2018-09-16T09:50:23Z</time>
      </trkpt>
      <trkpt lat="47.82589" lon="1.70725">
        <ele>83</ele>
        <time>2018-09-16T09:50:31Z</time>
      </trkpt>
      <trkpt lat="47.82594" lon="1.7073">
        <ele>83</ele>
        <time>2018-09-16T09:50:32Z</time>
      </trkpt>
      <trkpt lat="47.82606" lon="1.70751">
        <ele>83</ele>
        <time>2018-09-16T09:50:35Z</time>
      </trkpt>
      <trkpt lat="47.82622" lon="1.70799">
        <ele>83</ele>
        <time>2018-09-16T09:50:41Z</time>
      </trkpt>
      <trkpt lat="47.8265" lon="1.70832">
        <ele>84</ele>
        <time>2018-09-16T09:50:47Z</time>
      </trkpt>
      <trkpt lat="47.8269" lon="1.70877">
        <ele>84</ele>
        <time>2018-09-16T09:50:56Z</time>
      </trkpt>
      <trkpt lat="47.82695" lon="1.70883">
        <ele>84</ele>
        <time>2018-09-16T09:50:57Z</time>
      </trkpt>
      <trkpt lat="47.82733" lon="1.70925">
        <ele>84</ele>
        <time>2018-09-16T09:51:04Z</time>
      </trkpt>
      <trkpt lat="47.82738" lon="1.70931">
        <ele>84</ele>
        <time>2018-09-16T09:51:05Z</time>
      </trkpt>
      <trkpt lat="47.82772" lon="1.70975">
        <ele>84</ele>
        <time>2018-09-16T09:51:12Z</time>
      </trkpt>
      <trkpt lat="47.82777" lon="1.70982">
        <ele>84</ele>
        <time>2018-09-16T09:51:13Z</time>
      </trkpt>
      <trkpt lat="47.82816" lon="1.71029">
        <ele>84</ele>
        <time>2018-09-16T09:51:21Z</time>
      </trkpt>
      <trkpt lat="47.82821" lon="1.71034">
        <ele>84</ele>
        <time>2018-09-16T09:51:22Z</time>
      </trkpt>
      <trkpt lat="47.8286" lon="1.71077">
        <ele>84</ele>
        <time>2018-09-16T09:51:30Z</time>
      </trkpt>
      <trkpt lat="47.82865" lon="1.71082">
        <ele>84</ele>
        <time>2018-09-16T09:51:31Z</time>
      </trkpt>
      <trkpt lat="47.82905" lon="1.71121">
        <ele>84</ele>
        <time>2018-09-16T09:51:39Z</time>
      </trkpt>
      <trkpt lat="47.8291" lon="1.71126">
        <ele>84</ele>
        <time>2018-09-16T09:51:40Z</time>
      </trkpt>
      <trkpt lat="47.82949" lon="1.71167">
        <ele>84</ele>
        <time>2018-09-16T09:51:48Z</time>
      </trkpt>
      <trkpt lat="47.82954" lon="1.71173">
        <ele>84</ele>
        <time>2018-09-16T09:51:49Z</time>
      </trkpt>
      <trkpt lat="47.82991" lon="1.71222">
        <ele>84</ele>
        <time>2018-09-16T09:51:57Z</time>
      </trkpt>
      <trkpt lat="47.82996" lon="1.7123">
        <ele>84</ele>
        <time>2018-09-16T09:51:58Z</time>
      </trkpt>
      <trkpt lat="47.8303" lon="1.71285">
        <ele>84</ele>
        <time>2018-09-16T09:52:06Z</time>
      </trkpt>
      <trkpt lat="47.83034" lon="1.71292">
        <ele>84</ele>
        <time>2018-09-16T09:52:07Z</time>
      </trkpt>
      <trkpt lat="47.83054" lon="1.71314">
        <ele>84</ele>
        <time>2018-09-16T09:52:11Z</time>
      </trkpt>
      <trkpt lat="47.83094" lon="1.7136">
        <ele>85</ele>
        <time>2018-09-16T09:52:19Z</time>
      </trkpt>
      <trkpt lat="47.83098" lon="1.71367">
        <ele>85</ele>
        <time>2018-09-16T09:52:20Z</time>
      </trkpt>
      <trkpt lat="47.83132" lon="1.71411">
        <ele>85</ele>
        <time>2018-09-16T09:52:27Z</time>
      </trkpt>
      <trkpt lat="47.83138" lon="1.71416">
        <ele>85</ele>
        <time>2018-09-16T09:52:28Z</time>
      </trkpt>
      <trkpt lat="47.83179" lon="1.71461">
        <ele>85</ele>
        <time>2018-09-16T09:52:36Z</time>
      </trkpt>
      <trkpt lat="47.83184" lon="1.71467">
        <ele>85</ele>
        <time>2018-09-16T09:52:37Z</time>
      </trkpt>
      <trkpt lat="47.83221" lon="1.71506">
        <ele>84</ele>
        <time>2018-09-16T09:52:44Z</time>
      </trkpt>
      <trkpt lat="47.83226" lon="1.71511">
        <ele>84</ele>
        <time>2018-09-16T09:52:45Z</time>
      </trkpt>
      <trkpt lat="47.83242" lon="1.71529">
        <ele>84</ele>
        <time>2018-09-16T09:52:48Z</time>
      </trkpt>
      <trkpt lat="47.83247" lon="1.71545">
        <ele>84</ele>
        <time>2018-09-16T09:52:50Z</time>
      </trkpt>
      <trkpt lat="47.83247" lon="1.71573">
        <ele>84</ele>
        <time>2018-09-16T09:52:53Z</time>
      </trkpt>
      <trkpt lat="47.83246" lon="1.71631">
        <ele>83</ele>
        <time>2018-09-16T09:52:59Z</time>
      </trkpt>
      <trkpt lat="47.8325" lon="1.71649">
        <ele>83</ele>
        <time>2018-09-16T09:53:01Z</time>
      </trkpt>
      <trkpt lat="47.83276" lon="1.71704">
        <ele>83</ele>
        <time>2018-09-16T09:53:08Z</time>
      </trkpt>
      <trkpt lat="47.8328" lon="1.71712">
        <ele>83</ele>
        <time>2018-09-16T09:53:09Z</time>
      </trkpt>
      <trkpt lat="47.83284" lon="1.7172">
        <ele>83</ele>
        <time>2018-09-16T09:53:10Z</time>
      </trkpt>
      <trkpt lat="47.83318" lon="1.71767">
        <ele>83</ele>
        <time>2018-09-16T09:53:17Z</time>
      </trkpt>
      <trkpt lat="47.83323" lon="1.71774">
        <ele>83</ele>
        <time>2018-09-16T09:53:18Z</time>
      </trkpt>
      <trkpt lat="47.83357" lon="1.71824">
        <ele>83</ele>
        <time>2018-09-16T09:53:25Z</time>
      </trkpt>
      <trkpt lat="47.83362" lon="1.7183">
        <ele>83</ele>
        <time>2018-09-16T09:53:26Z</time>
      </trkpt>
      <trkpt lat="47.83395" lon="1.71878">
        <ele>83</ele>
        <time>2018-09-16T09:53:33Z</time>
      </trkpt>
      <trkpt lat="47.834" lon="1.71884">
        <ele>83</ele>
        <time>2018-09-16T09:53:34Z</time>
      </trkpt>
      <trkpt lat="47.83434" lon="1.71938">
        <ele>83</ele>
        <time>2018-09-16T09:53:42Z</time>
      </trkpt>
      <trkpt lat="47.83438" lon="1.71944">
        <ele>83</ele>
        <time>2018-09-16T09:53:43Z</time>
      </trkpt>
      <trkpt lat="47.83469" lon="1.71997">
        <ele>83</ele>
        <time>2018-09-16T09:53:51Z</time>
      </trkpt>
      <trkpt lat="47.83473" lon="1.72004">
        <ele>83</ele>
        <time>2018-09-16T09:53:52Z</time>
      </trkpt>
      <trkpt lat="47.83503" lon="1.72059">
        <ele>83</ele>
        <time>2018-09-16T09:54:00Z</time>
      </trkpt>
      <trkpt lat="47.83506" lon="1.72067">
        <ele>83</ele>
        <time>2018-09-16T09:54:01Z</time>
      </trkpt>
      <trkpt lat="47.83512" lon="1.72082">
        <ele>83</ele>
        <time>2018-09-16T09:54:03Z</time>
      </trkpt>
      <trkpt lat="47.83532" lon="1.72146">
        <ele>83</ele>
        <time>2018-09-16T09:54:11Z</time>
      </trkpt>
      <trkpt lat="47.83535" lon="1.72154">
        <ele>83</ele>
        <time>2018-09-16T09:54:12Z</time>
      </trkpt>
      <trkpt lat="47.83555" lon="1.72215">
        <ele>83</ele>
        <time>2018-09-16T09:54:20Z</time>
      </trkpt>
      <trkpt lat="47.83558" lon="1.72222">
        <ele>83</ele>
        <time>2018-09-16T09:54:21Z</time>
      </trkpt>
      <trkpt lat="47.83582" lon="1.72286">
        <ele>83</ele>
        <time>2018-09-16T09:54:30Z</time>
      </trkpt>
      <trkpt lat="47.83585" lon="1.72293">
        <ele>83</ele>
        <time>2018-09-16T09:54:31Z</time>
      </trkpt>
      <trkpt lat="47.83604" lon="1.72344">
        <ele>83</ele>
        <time>2018-09-16T09:54:38Z</time>
      </trkpt>
      <trkpt lat="47.83632" lon="1.72398">
        <ele>82</ele>
        <time>2018-09-16T09:54:46Z</time>
      </trkpt>
      <trkpt lat="47.83636" lon="1.72404">
        <ele>82</ele>
        <time>2018-09-16T09:54:47Z</time>
      </trkpt>
      <trkpt lat="47.83647" lon="1.72422">
        <ele>82</ele>
        <time>2018-09-16T09:54:50Z</time>
      </trkpt>
      <trkpt lat="47.83685" lon="1.72468">
        <ele>82</ele>
        <time>2018-09-16T09:54:59Z</time>
      </trkpt>
      <trkpt lat="47.83689" lon="1.72474">
        <ele>82</ele>
        <time>2018-09-16T09:55:00Z</time>
      </trkpt>
      <trkpt lat="47.83727" lon="1.72519">
        <ele>83</ele>
        <time>2018-09-16T09:55:09Z</time>
      </trkpt>
      <trkpt lat="47.83731" lon="1.72523">
        <ele>83</ele>
        <time>2018-09-16T09:55:10Z</time>
      </trkpt>
      <trkpt lat="47.8377" lon="1.72563">
        <ele>82</ele>
        <time>2018-09-16T09:55:19Z</time>
      </trkpt>
      <trkpt lat="47.83774" lon="1.72568">
        <ele>82</ele>
        <time>2018-09-16T09:55:20Z</time>
      </trkpt>
      <trkpt lat="47.83804" lon="1.72616">
        <ele>81</ele>
        <time>2018-09-16T09:55:28Z</time>
      </trkpt>
      <trkpt lat="47.83808" lon="1.72623">
        <ele>81</ele>
        <time>2018-09-16T09:55:29Z</time>
      </trkpt>
      <trkpt lat="47.83831" lon="1.72683">
        <ele>81</ele>
        <time>2018-09-16T09:55:37Z</time>
      </trkpt>
      <trkpt lat="47.83834" lon="1.7269">
        <ele>81</ele>
        <time>2018-09-16T09:55:38Z</time>
      </trkpt>
      <trkpt lat="47.83857" lon="1.72748">
        <ele>81</ele>
        <time>2018-09-16T09:55:46Z</time>
      </trkpt>
      <trkpt lat="47.8386" lon="1.72755">
        <ele>81</ele>
        <time>2018-09-16T09:55:47Z</time>
      </trkpt>
      <trkpt lat="47.83885" lon="1.72813">
        <ele>81</ele>
        <time>2018-09-16T09:55:55Z</time>
      </trkpt>
      <trkpt lat="47.83888" lon="1.72821">
        <ele>81</ele>
        <time>2018-09-16T09:55:56Z</time>
      </trkpt>
      <trkpt lat="47.83913" lon="1.72882">
        <ele>81</ele>
        <time>2018-09-16T09:56:04Z</time>
      </trkpt>
      <trkpt lat="47.83916" lon="1.72889">
        <ele>81</ele>
        <time>2018-09-16T09:56:05Z</time>
      </trkpt>
      <trkpt lat="47.83928" lon="1.72919">
        <ele>81</ele>
        <time>2018-09-16T09:56:09Z</time>
      </trkpt>
      <trkpt lat="47.83953" lon="1.72984">
        <ele>81</ele>
        <time>2018-09-16T09:56:18Z</time>
      </trkpt>
      <trkpt lat="47.83955" lon="1.72991">
        <ele>80</ele>
        <time>2018-09-16T09:56:19Z</time>
      </trkpt>
      <trkpt lat="47.83979" lon="1.73057">
        <ele>78</ele>
        <time>2018-09-16T09:56:28Z</time>
      </trkpt>
      <trkpt lat="47.83982" lon="1.73064">
        <ele>78</ele>
        <time>2018-09-16T09:56:29Z</time>
      </trkpt>
      <trkpt lat="47.84002" lon="1.73126">
        <ele>79</ele>
        <time>2018-09-16T09:56:37Z</time>
      </trkpt>
      <trkpt lat="47.84004" lon="1.73134">
        <ele>79</ele>
        <time>2018-09-16T09:56:38Z</time>
      </trkpt>
      <trkpt lat="47.84025" lon="1.732">
        <ele>80</ele>
        <time>2018-09-16T09:56:46Z</time>
      </trkpt>
      <trkpt lat="47.84028" lon="1.73208">
        <ele>80</ele>
        <time>2018-09-16T09:56:47Z</time>
      </trkpt>
      <trkpt lat="47.84049" lon="1.73276">
        <ele>80</ele>
        <time>2018-09-16T09:56:55Z</time>
      </trkpt>
      <trkpt lat="47.84052" lon="1.73284">
        <ele>80</ele>
        <time>2018-09-16T09:56:56Z</time>
      </trkpt>
      <trkpt lat="47.84061" lon="1.73317">
        <ele>81</ele>
        <time>2018-09-16T09:57:00Z</time>
      </trkpt>
      <trkpt lat="47.84081" lon="1.73383">
        <ele>81</ele>
        <time>2018-09-16T09:57:08Z</time>
      </trkpt>
      <trkpt lat="47.84084" lon="1.73392">
        <ele>81</ele>
        <time>2018-09-16T09:57:09Z</time>
      </trkpt>
      <trkpt lat="47.84103" lon="1.73459">
        <ele>82</ele>
        <time>2018-09-16T09:57:17Z</time>
      </trkpt>
      <trkpt lat="47.84106" lon="1.73468">
        <ele>82</ele>
        <time>2018-09-16T09:57:18Z</time>
      </trkpt>
      <trkpt lat="47.84113" lon="1.73504">
        <ele>82</ele>
        <time>2018-09-16T09:57:22Z</time>
      </trkpt>
      <trkpt lat="47.84128" lon="1.73576">
        <ele>83</ele>
        <time>2018-09-16T09:57:30Z</time>
      </trkpt>
      <trkpt lat="47.8413" lon="1.73585">
        <ele>83</ele>
        <time>2018-09-16T09:57:31Z</time>
      </trkpt>
      <trkpt lat="47.84143" lon="1.73656">
        <ele>83</ele>
        <time>2018-09-16T09:57:39Z</time>
      </trkpt>
      <trkpt lat="47.84144" lon="1.73665">
        <ele>83</ele>
        <time>2018-09-16T09:57:40Z</time>
      </trkpt>
      <trkpt lat="47.84146" lon="1.73682">
        <ele>83</ele>
        <time>2018-09-16T09:57:42Z</time>
      </trkpt>
      <trkpt lat="47.84153" lon="1.73755">
        <ele>84</ele>
        <time>2018-09-16T09:57:50Z</time>
      </trkpt>
      <trkpt lat="47.84154" lon="1.73764">
        <ele>84</ele>
        <time>2018-09-16T09:57:51Z</time>
      </trkpt>
      <trkpt lat="47.84162" lon="1.73836">
        <ele>83</ele>
        <time>2018-09-16T09:57:59Z</time>
      </trkpt>
      <trkpt lat="47.84163" lon="1.73845">
        <ele>83</ele>
        <time>2018-09-16T09:58:00Z</time>
      </trkpt>
      <trkpt lat="47.84171" lon="1.73914">
        <ele>83</ele>
        <time>2018-09-16T09:58:08Z</time>
      </trkpt>
      <trkpt lat="47.84172" lon="1.73922">
        <ele>83</ele>
        <time>2018-09-16T09:58:09Z</time>
      </trkpt>
      <trkpt lat="47.84183" lon="1.73994">
        <ele>83</ele>
        <time>2018-09-16T09:58:17Z</time>
      </trkpt>
      <trkpt lat="47.84185" lon="1.74004">
        <ele>83</ele>
        <time>2018-09-16T09:58:18Z</time>
      </trkpt>
      <trkpt lat="47.84194" lon="1.74071">
        <ele>83</ele>
        <time>2018-09-16T09:58:25Z</time>
      </trkpt>
      <trkpt lat="47.84196" lon="1.7408">
        <ele>83</ele>
        <time>2018-09-16T09:58:26Z</time>
      </trkpt>
      <trkpt lat="47.84202" lon="1.74152">
        <ele>83</ele>
        <time>2018-09-16T09:58:33Z</time>
      </trkpt>
      <trkpt lat="47.84202" lon="1.74163">
        <ele>83</ele>
        <time>2018-09-16T09:58:34Z</time>
      </trkpt>
      <trkpt lat="47.84203" lon="1.74232">
        <ele>83</ele>
        <time>2018-09-16T09:58:41Z</time>
      </trkpt>
      <trkpt lat="47.84203" lon="1.74242">
        <ele>83</ele>
        <time>2018-09-16T09:58:42Z</time>
      </trkpt>
      <trkpt lat="47.84206" lon="1.74314">
        <ele>83</ele>
        <time>2018-09-16T09:58:49Z</time>
      </trkpt>
      <trkpt lat="47.84206" lon="1.74325">
        <ele>83</ele>
        <time>2018-09-16T09:58:50Z</time>
      </trkpt>
      <trkpt lat="47.84208" lon="1.74397">
        <ele>82</ele>
        <time>2018-09-16T09:58:57Z</time>
      </trkpt>
      <trkpt lat="47.84209" lon="1.74407">
        <ele>82</ele>
        <time>2018-09-16T09:58:58Z</time>
      </trkpt>
      <trkpt lat="47.84212" lon="1.74476">
        <ele>83</ele>
        <time>2018-09-16T09:59:05Z</time>
      </trkpt>
      <trkpt lat="47.84211" lon="1.74486">
        <ele>83</ele>
        <time>2018-09-16T09:59:06Z</time>
      </trkpt>
      <trkpt lat="47.84201" lon="1.74522">
        <ele>83</ele>
        <time>2018-09-16T09:59:10Z</time>
      </trkpt>
      <trkpt lat="47.84185" lon="1.74567">
        <ele>83</ele>
        <time>2018-09-16T09:59:15Z</time>
      </trkpt>
      <trkpt lat="47.84185" lon="1.74598">
        <ele>82</ele>
        <time>2018-09-16T09:59:18Z</time>
      </trkpt>
      <trkpt lat="47.84189" lon="1.74618">
        <ele>83</ele>
        <time>2018-09-16T09:59:20Z</time>
      </trkpt>
      <trkpt lat="47.84211" lon="1.74665">
        <ele>84</ele>
        <time>2018-09-16T09:59:26Z</time>
      </trkpt>
      <trkpt lat="47.84216" lon="1.74681">
        <ele>85</ele>
        <time>2018-09-16T09:59:30Z</time>
      </trkpt>
      <trkpt lat="47.84211" lon="1.74682">
        <ele>85</ele>
        <time>2018-09-16T09:59:33Z</time>
      </trkpt>
      <trkpt lat="47.84177" lon="1.74637">
        <ele>84</ele>
        <time>2018-09-16T09:59:44Z</time>
      </trkpt>
      <trkpt lat="47.84173" lon="1.74632">
        <ele>84</ele>
        <time>2018-09-16T09:59:45Z</time>
      </trkpt>
      <trkpt lat="47.84142" lon="1.74583">
        <ele>84</ele>
        <time>2018-09-16T09:59:53Z</time>
      </trkpt>
      <trkpt lat="47.84137" lon="1.74577">
        <ele>84</ele>
        <time>2018-09-16T09:59:54Z</time>
      </trkpt>
      <trkpt lat="47.84103" lon="1.74525">
        <ele>86</ele>
        <time>2018-09-16T10:00:02Z</time>
      </trkpt>
      <trkpt lat="47.84098" lon="1.74519">
        <ele>86</ele>
        <time>2018-09-16T10:00:03Z</time>
      </trkpt>
      <trkpt lat="47.84063" lon="1.74468">
        <ele>86</ele>
        <time>2018-09-16T10:00:11Z</time>
      </trkpt>
      <trkpt lat="47.84059" lon="1.74461">
        <ele>86</ele>
        <time>2018-09-16T10:00:12Z</time>
      </trkpt>
      <trkpt lat="47.84021" lon="1.74413">
        <ele>87</ele>
        <time>2018-09-16T10:00:20Z</time>
      </trkpt>
      <trkpt lat="47.84016" lon="1.74407">
        <ele>87</ele>
        <time>2018-09-16T10:00:21Z</time>
      </trkpt>
      <trkpt lat="47.8399" lon="1.74378">
        <ele>87</ele>
        <time>2018-09-16T10:00:26Z</time>
      </trkpt>
      <trkpt lat="47.83949" lon="1.74344">
        <ele>87</ele>
        <time>2018-09-16T10:00:33Z</time>
      </trkpt>
      <trkpt lat="47.83943" lon="1.7434">
        <ele>87</ele>
        <time>2018-09-16T10:00:34Z</time>
      </trkpt>
      <trkpt lat="47.83902" lon="1.74309">
        <ele>87</ele>
        <time>2018-09-16T10:00:41Z</time>
      </trkpt>
      <trkpt lat="47.83896" lon="1.74305">
        <ele>87</ele>
        <time>2018-09-16T10:00:42Z</time>
      </trkpt>
      <trkpt lat="47.83853" lon="1.74274">
        <ele>87</ele>
        <time>2018-09-16T10:00:50Z</time>
      </trkpt>
      <trkpt lat="47.83848" lon="1.7427">
        <ele>87</ele>
        <time>2018-09-16T10:00:51Z</time>
      </trkpt>
      <trkpt lat="47.83806" lon="1.74239">
        <ele>87</ele>
        <time>2018-09-16T10:01:02Z</time>
      </trkpt>
      <trkpt lat="47.83803" lon="1.74237">
        <ele>87</ele>
        <time>2018-09-16T10:01:03Z</time>
      </trkpt>
      <trkpt lat="47.83785" lon="1.74223">
        <ele>87</ele>
        <time>2018-09-16T10:01:28Z</time>
      </trkpt>
      <trkpt lat="47.83741" lon="1.74191">
        <ele>86</ele>
        <time>2018-09-16T10:01:38Z</time>
      </trkpt>
      <trkpt lat="47.83736" lon="1.74188">
        <ele>86</ele>
        <time>2018-09-16T10:01:39Z</time>
      </trkpt>
      <trkpt lat="47.83714" lon="1.7417">
        <ele>87</ele>
        <time>2018-09-16T10:01:45Z</time>
      </trkpt>
      <trkpt lat="47.83709" lon="1.74164">
        <ele>85</ele>
        <time>2018-09-16T10:02:55Z</time>
      </trkpt>
      <trkpt lat="47.83666" lon="1.74132">
        <ele>85</ele>
        <time>2018-09-16T10:03:10Z</time>
      </trkpt>
      <trkpt lat="47.83662" lon="1.74129">
        <ele>85</ele>
        <time>2018-09-16T10:03:11Z</time>
      </trkpt>
      <trkpt lat="47.83622" lon="1.74099">
        <ele>85</ele>
        <time>2018-09-16T10:03:21Z</time>
      </trkpt>
      <trkpt lat="47.83617" lon="1.74096">
        <ele>85</ele>
        <time>2018-09-16T10:03:22Z</time>
      </trkpt>
      <trkpt lat="47.83599" lon="1.74088">
        <ele>85</ele>
        <time>2018-09-16T10:03:26Z</time>
      </trkpt>
      <trkpt lat="47.83591" lon="1.74096">
        <ele>84</ele>
        <time>2018-09-16T10:03:28Z</time>
      </trkpt>
      <trkpt lat="47.83554" lon="1.74136">
        <ele>83</ele>
        <time>2018-09-16T10:03:35Z</time>
      </trkpt>
      <trkpt lat="47.83549" lon="1.74141">
        <ele>83</ele>
        <time>2018-09-16T10:03:36Z</time>
      </trkpt>
      <trkpt lat="47.83514" lon="1.74183">
        <ele>83</ele>
        <time>2018-09-16T10:03:44Z</time>
      </trkpt>
      <trkpt lat="47.83511" lon="1.7419">
        <ele>83</ele>
        <time>2018-09-16T10:03:45Z</time>
      </trkpt>
      <trkpt lat="47.83512" lon="1.74204">
        <ele>82</ele>
        <time>2018-09-16T10:03:47Z</time>
      </trkpt>
      <trkpt lat="47.83524" lon="1.74219">
        <ele>82</ele>
        <time>2018-09-16T10:03:50Z</time>
      </trkpt>
      <trkpt lat="47.83536" lon="1.74242">
        <ele>82</ele>
        <time>2018-09-16T10:03:54Z</time>
      </trkpt>
      <trkpt lat="47.83535" lon="1.74266">
        <ele>82</ele>
        <time>2018-09-16T10:03:57Z</time>
      </trkpt>
      <trkpt lat="47.83526" lon="1.74335">
        <ele>82</ele>
        <time>2018-09-16T10:04:06Z</time>
      </trkpt>
      <trkpt lat="47.83525" lon="1.74342">
        <ele>82</ele>
        <time>2018-09-16T10:04:07Z</time>
      </trkpt>
      <trkpt lat="47.83519" lon="1.7437">
        <ele>83</ele>
        <time>2018-09-16T10:04:11Z</time>
      </trkpt>
      <trkpt lat="47.83503" lon="1.7444">
        <ele>84</ele>
        <time>2018-09-16T10:04:21Z</time>
      </trkpt>
      <trkpt lat="47.83501" lon="1.74447">
        <ele>84</ele>
        <time>2018-09-16T10:04:22Z</time>
      </trkpt>
      <trkpt lat="47.83487" lon="1.74495">
        <ele>84</ele>
        <time>2018-09-16T10:04:29Z</time>
      </trkpt>
      <trkpt lat="47.83466" lon="1.74542">
        <ele>84</ele>
        <time>2018-09-16T10:04:36Z</time>
      </trkpt>
      <trkpt lat="47.83436" lon="1.74599">
        <ele>84</ele>
        <time>2018-09-16T10:04:45Z</time>
      </trkpt>
      <trkpt lat="47.83432" lon="1.74604">
        <ele>84</ele>
        <time>2018-09-16T10:04:46Z</time>
      </trkpt>
      <trkpt lat="47.83401" lon="1.74656">
        <ele>84</ele>
        <time>2018-09-16T10:04:55Z</time>
      </trkpt>
      <trkpt lat="47.83398" lon="1.74662">
        <ele>84</ele>
        <time>2018-09-16T10:04:56Z</time>
      </trkpt>
      <trkpt lat="47.83366" lon="1.74713">
        <ele>83</ele>
        <time>2018-09-16T10:05:05Z</time>
      </trkpt>
      <trkpt lat="47.83363" lon="1.74719">
        <ele>83</ele>
        <time>2018-09-16T10:05:06Z</time>
      </trkpt>
      <trkpt lat="47.83331" lon="1.74772">
        <ele>84</ele>
        <time>2018-09-16T10:05:16Z</time>
      </trkpt>
      <trkpt lat="47.83328" lon="1.74777">
        <ele>84</ele>
        <time>2018-09-16T10:05:17Z</time>
      </trkpt>
      <trkpt lat="47.83296" lon="1.74832">
        <ele>84</ele>
        <time>2018-09-16T10:05:27Z</time>
      </trkpt>
      <trkpt lat="47.83292" lon="1.74837">
        <ele>84</ele>
        <time>2018-09-16T10:05:28Z</time>
      </trkpt>
      <trkpt lat="47.83262" lon="1.74887">
        <ele>85</ele>
        <time>2018-09-16T10:05:37Z</time>
      </trkpt>
      <trkpt lat="47.83258" lon="1.74893">
        <ele>85</ele>
        <time>2018-09-16T10:05:38Z</time>
      </trkpt>
      <trkpt lat="47.83227" lon="1.74949">
        <ele>85</ele>
        <time>2018-09-16T10:05:47Z</time>
      </trkpt>
      <trkpt lat="47.83223" lon="1.74955">
        <ele>85</ele>
        <time>2018-09-16T10:05:48Z</time>
      </trkpt>
      <trkpt lat="47.83192" lon="1.75007">
        <ele>85</ele>
        <time>2018-09-16T10:05:56Z</time>
      </trkpt>
      <trkpt lat="47.83188" lon="1.75013">
        <ele>85</ele>
        <time>2018-09-16T10:05:57Z</time>
      </trkpt>
      <trkpt lat="47.83155" lon="1.75069">
        <ele>85</ele>
        <time>2018-09-16T10:06:06Z</time>
      </trkpt>
      <trkpt lat="47.83152" lon="1.75075">
        <ele>85</ele>
        <time>2018-09-16T10:06:07Z</time>
      </trkpt>
      <trkpt lat="47.83136" lon="1.75102">
        <ele>85</ele>
        <time>2018-09-16T10:06:12Z</time>
      </trkpt>
      <trkpt lat="47.83128" lon="1.75101">
        <ele>85</ele>
        <time>2018-09-16T10:06:14Z</time>
      </trkpt>
      <trkpt lat="47.8312" lon="1.75088">
        <ele>85</ele>
        <time>2018-09-16T10:06:17Z</time>
      </trkpt>
      <trkpt lat="47.83103" lon="1.75059">
        <ele>85</ele>
        <time>2018-09-16T10:06:22Z</time>
      </trkpt>
      <trkpt lat="47.83071" lon="1.75001">
        <ele>85</ele>
        <time>2018-09-16T10:06:31Z</time>
      </trkpt>
      <trkpt lat="47.83067" lon="1.74996">
        <ele>85</ele>
        <time>2018-09-16T10:06:32Z</time>
      </trkpt>
      <trkpt lat="47.83033" lon="1.74954">
        <ele>85</ele>
        <time>2018-09-16T10:06:40Z</time>
      </trkpt>
      <trkpt lat="47.83029" lon="1.74948">
        <ele>85</ele>
        <time>2018-09-16T10:06:41Z</time>
      </trkpt>
      <trkpt lat="47.82998" lon="1.74892">
        <ele>85</ele>
        <time>2018-09-16T10:06:50Z</time>
      </trkpt>
      <trkpt lat="47.82993" lon="1.74892">
        <ele>85</ele>
        <time>2018-09-16T10:06:51Z</time>
      </trkpt>
      <trkpt lat="47.82981" lon="1.74895">
        <ele>85</ele>
        <time>2018-09-16T10:06:53Z</time>
      </trkpt>
      <trkpt lat="47.82941" lon="1.74924">
        <ele>87</ele>
        <time>2018-09-16T10:07:01Z</time>
      </trkpt>
      <trkpt lat="47.82936" lon="1.74927">
        <ele>87</ele>
        <time>2018-09-16T10:07:02Z</time>
      </trkpt>
      <trkpt lat="47.82919" lon="1.74939">
        <ele>90</ele>
        <time>2018-09-16T10:07:08Z</time>
      </trkpt>
      <trkpt lat="47.82912" lon="1.74941">
        <ele>90</ele>
        <time>2018-09-16T10:07:11Z</time>
      </trkpt>
      <trkpt lat="47.82868" lon="1.74967">
        <ele>91</ele>
        <time>2018-09-16T10:07:22Z</time>
      </trkpt>
      <trkpt lat="47.82864" lon="1.7497">
        <ele>91</ele>
        <time>2018-09-16T10:07:23Z</time>
      </trkpt>
      <trkpt lat="47.82824" lon="1.74998">
        <ele>92</ele>
        <time>2018-09-16T10:07:33Z</time>
      </trkpt>
      <trkpt lat="47.82822" lon="1.75003">
        <ele>92</ele>
        <time>2018-09-16T10:07:34Z</time>
      </trkpt>
      <trkpt lat="47.82821" lon="1.75013">
        <ele>91</ele>
        <time>2018-09-16T10:07:36Z</time>
      </trkpt>
      <trkpt lat="47.82822" lon="1.75042">
        <ele>91</ele>
        <time>2018-09-16T10:07:40Z</time>
      </trkpt>
      <trkpt lat="47.82826" lon="1.75113">
        <ele>89</ele>
        <time>2018-09-16T10:07:49Z</time>
      </trkpt>
      <trkpt lat="47.82827" lon="1.7512">
        <ele>89</ele>
        <time>2018-09-16T10:07:50Z</time>
      </trkpt>
      <trkpt lat="47.82831" lon="1.75193">
        <ele>88</ele>
        <time>2018-09-16T10:07:59Z</time>
      </trkpt>
      <trkpt lat="47.82832" lon="1.75201">
        <ele>88</ele>
        <time>2018-09-16T10:08:00Z</time>
      </trkpt>
      <trkpt lat="47.82839" lon="1.75259">
        <ele>87</ele>
        <time>2018-09-16T10:08:07Z</time>
      </trkpt>
      <trkpt lat="47.82857" lon="1.75322">
        <ele>87</ele>
        <time>2018-09-16T10:08:15Z</time>
      </trkpt>
      <trkpt lat="47.82859" lon="1.75329">
        <ele>87</ele>
        <time>2018-09-16T10:08:16Z</time>
      </trkpt>
      <trkpt lat="47.82868" lon="1.75353">
        <ele>87</ele>
        <time>2018-09-16T10:08:19Z</time>
      </trkpt>
      <trkpt lat="47.82884" lon="1.75421">
        <ele>86</ele>
        <time>2018-09-16T10:08:27Z</time>
      </trkpt>
      <trkpt lat="47.82886" lon="1.75429">
        <ele>86</ele>
        <time>2018-09-16T10:08:28Z</time>
      </trkpt>
      <trkpt lat="47.82907" lon="1.75492">
        <ele>86</ele>
        <time>2018-09-16T10:08:36Z</time>
      </trkpt>
      <trkpt lat="47.8291" lon="1.75498">
        <ele>86</ele>
        <time>2018-09-16T10:08:37Z</time>
      </trkpt>
      <trkpt lat="47.82927" lon="1.75521">
        <ele>86</ele>
        <time>2018-09-16T10:08:41Z</time>
      </trkpt>
      <trkpt lat="47.82966" lon="1.75558">
        <ele>87</ele>
        <time>2018-09-16T10:08:49Z</time>
      </trkpt>
      <trkpt lat="47.8297" lon="1.75563">
        <ele>87</ele>
        <time>2018-09-16T10:08:50Z</time>
      </trkpt>
      <trkpt lat="47.82981" lon="1.75578">
        <ele>88</ele>
        <time>2018-09-16T10:08:53Z</time>
      </trkpt>
      <trkpt lat="47.83015" lon="1.75629">
        <ele>86</ele>
        <time>2018-09-16T10:09:02Z</time>
      </trkpt>
      <trkpt lat="47.83019" lon="1.75636">
        <ele>86</ele>
        <time>2018-09-16T10:09:03Z</time>
      </trkpt>
      <trkpt lat="47.83053" lon="1.75688">
        <ele>84</ele>
        <time>2018-09-16T10:09:11Z</time>
      </trkpt>
      <trkpt lat="47.83057" lon="1.75695">
        <ele>83</ele>
        <time>2018-09-16T10:09:12Z</time>
      </trkpt>
      <trkpt lat="47.83086" lon="1.75754">
        <ele>83</ele>
        <time>2018-09-16T10:09:20Z</time>
      </trkpt>
      <trkpt lat="47.8309" lon="1.75761">
        <ele>82</ele>
        <time>2018-09-16T10:09:21Z</time>
      </trkpt>
      <trkpt lat="47.83123" lon="1.75814">
        <ele>82</ele>
        <time>2018-09-16T10:09:29Z</time>
      </trkpt>
      <trkpt lat="47.83127" lon="1.7582">
        <ele>82</ele>
        <time>2018-09-16T10:09:30Z</time>
      </trkpt>
      <trkpt lat="47.83149" lon="1.75859">
        <ele>83</ele>
        <time>2018-09-16T10:09:36Z</time>
      </trkpt>
      <trkpt lat="47.83149" lon="1.75876">
        <ele>83</ele>
        <time>2018-09-16T10:09:38Z</time>
      </trkpt>
      <trkpt lat="47.83145" lon="1.75892">
        <ele>85</ele>
        <time>2018-09-16T10:09:40Z</time>
      </trkpt>
      <trkpt lat="47.83131" lon="1.75941">
        <ele>89</ele>
        <time>2018-09-16T10:09:46Z</time>
      </trkpt>
      <trkpt lat="47.83131" lon="1.75967">
        <ele>92</ele>
        <time>2018-09-16T10:09:49Z</time>
      </trkpt>
      <trkpt lat="47.83138" lon="1.76037">
        <ele>97</ele>
        <time>2018-09-16T10:09:57Z</time>
      </trkpt>
      <trkpt lat="47.8314" lon="1.76046">
        <ele>98</ele>
        <time>2018-09-16T10:09:58Z</time>
      </trkpt>
      <trkpt lat="47.83142" lon="1.76062">
        <ele>98</ele>
        <time>2018-09-16T10:10:00Z</time>
      </trkpt>
      <trkpt lat="47.8316" lon="1.76124">
        <ele>97</ele>
        <time>2018-09-16T10:10:08Z</time>
      </trkpt>
      <trkpt lat="47.83163" lon="1.76131">
        <ele>96</ele>
        <time>2018-09-16T10:10:09Z</time>
      </trkpt>
      <trkpt lat="47.83178" lon="1.76155">
        <ele>95</ele>
        <time>2018-09-16T10:10:13Z</time>
      </trkpt>
      <trkpt lat="47.83189" lon="1.76175">
        <ele>94</ele>
        <time>2018-09-16T10:10:16Z</time>
      </trkpt>
      <trkpt lat="47.83214" lon="1.76231">
        <ele>91</ele>
        <time>2018-09-16T10:10:24Z</time>
      </trkpt>
      <trkpt lat="47.83217" lon="1.76237">
        <ele>91</ele>
        <time>2018-09-16T10:10:25Z</time>
      </trkpt>
      <trkpt lat="47.83238" lon="1.76291">
        <ele>90</ele>
        <time>2018-09-16T10:10:33Z</time>
      </trkpt>
      <trkpt lat="47.8324" lon="1.76298">
        <ele>90</ele>
        <time>2018-09-16T10:10:34Z</time>
      </trkpt>
      <trkpt lat="47.83242" lon="1.7632">
        <ele>89</ele>
        <time>2018-09-16T10:10:37Z</time>
      </trkpt>
      <trkpt lat="47.83239" lon="1.76389">
        <ele>89</ele>
        <time>2018-09-16T10:10:46Z</time>
      </trkpt>
      <trkpt lat="47.83239" lon="1.76397">
        <ele>89</ele>
        <time>2018-09-16T10:10:47Z</time>
      </trkpt>
      <trkpt lat="47.83242" lon="1.76434">
        <ele>89</ele>
        <time>2018-09-16T10:10:52Z</time>
      </trkpt>
      <trkpt lat="47.83252" lon="1.765">
        <ele>90</ele>
        <time>2018-09-16T10:11:01Z</time>
      </trkpt>
      <trkpt lat="47.83252" lon="1.76506">
        <ele>91</ele>
        <time>2018-09-16T10:11:02Z</time>
      </trkpt>
      <trkpt lat="47.83258" lon="1.76514">
        <ele>89</ele>
        <time>2018-09-16T10:11:05Z</time>
      </trkpt>
      <trkpt lat="47.83271" lon="1.7651">
        <ele>88</ele>
        <time>2018-09-16T10:11:08Z</time>
      </trkpt>
      <trkpt lat="47.83315" lon="1.76485">
        <ele>87</ele>
        <time>2018-09-16T10:11:17Z</time>
      </trkpt>
      <trkpt lat="47.8332" lon="1.7648">
        <ele>87</ele>
        <time>2018-09-16T10:11:18Z</time>
      </trkpt>
      <trkpt lat="47.83326" lon="1.76475">
        <ele>87</ele>
        <time>2018-09-16T10:11:19Z</time>
      </trkpt>
      <trkpt lat="47.83361" lon="1.76429">
        <ele>85</ele>
        <time>2018-09-16T10:11:26Z</time>
      </trkpt>
      <trkpt lat="47.83367" lon="1.76421">
        <ele>85</ele>
        <time>2018-09-16T10:11:27Z</time>
      </trkpt>
      <trkpt lat="47.83397" lon="1.76383">
        <ele>84</ele>
        <time>2018-09-16T10:11:33Z</time>
      </trkpt>
      <trkpt lat="47.83408" lon="1.76389">
        <ele>84</ele>
        <time>2018-09-16T10:11:35Z</time>
      </trkpt>
      <trkpt lat="47.83444" lon="1.76441">
        <ele>84</ele>
        <time>2018-09-16T10:11:43Z</time>
      </trkpt>
      <trkpt lat="47.83448" lon="1.76447">
        <ele>84</ele>
        <time>2018-09-16T10:11:44Z</time>
      </trkpt>
      <trkpt lat="47.83484" lon="1.76496">
        <ele>84</ele>
        <time>2018-09-16T10:11:52Z</time>
      </trkpt>
      <trkpt lat="47.83488" lon="1.76503">
        <ele>84</ele>
        <time>2018-09-16T10:11:53Z</time>
      </trkpt>
      <trkpt lat="47.83521" lon="1.76553">
        <ele>84</ele>
        <time>2018-09-16T10:12:01Z</time>
      </trkpt>
      <trkpt lat="47.83525" lon="1.76559">
        <ele>84</ele>
        <time>2018-09-16T10:12:02Z</time>
      </trkpt>
      <trkpt lat="47.8356" lon="1.76609">
        <ele>84</ele>
        <time>2018-09-16T10:12:11Z</time>
      </trkpt>
      <trkpt lat="47.83564" lon="1.76613">
        <ele>84</ele>
        <time>2018-09-16T10:12:12Z</time>
      </trkpt>
      <trkpt lat="47.83601" lon="1.76652">
        <ele>84</ele>
        <time>2018-09-16T10:12:20Z</time>
      </trkpt>
      <trkpt lat="47.83606" lon="1.76657">
        <ele>84</ele>
        <time>2018-09-16T10:12:21Z</time>
      </trkpt>
      <trkpt lat="47.83643" lon="1.76698">
        <ele>85</ele>
        <time>2018-09-16T10:12:29Z</time>
      </trkpt>
      <trkpt lat="47.83647" lon="1.76703">
        <ele>85</ele>
        <time>2018-09-16T10:12:30Z</time>
      </trkpt>
      <trkpt lat="47.83687" lon="1.76749">
        <ele>84</ele>
        <time>2018-09-16T10:12:39Z</time>
      </trkpt>
      <trkpt lat="47.83691" lon="1.76754">
        <ele>84</ele>
        <time>2018-09-16T10:12:40Z</time>
      </trkpt>
      <trkpt lat="47.83727" lon="1.76795">
        <ele>84</ele>
        <time>2018-09-16T10:12:48Z</time>
      </trkpt>
      <trkpt lat="47.83732" lon="1.76796">
        <ele>84</ele>
        <time>2018-09-16T10:12:49Z</time>
      </trkpt>
      <trkpt lat="47.83737" lon="1.76793">
        <ele>84</ele>
        <time>2018-09-16T10:12:50Z</time>
      </trkpt>
      <trkpt lat="47.83779" lon="1.7675">
        <ele>83</ele>
        <time>2018-09-16T10:12:58Z</time>
      </trkpt>
      <trkpt lat="47.83784" lon="1.76745">
        <ele>83</ele>
        <time>2018-09-16T10:12:59Z</time>
      </trkpt>
      <trkpt lat="47.83826" lon="1.76702">
        <ele>82</ele>
        <time>2018-09-16T10:13:07Z</time>
      </trkpt>
      <trkpt lat="47.83831" lon="1.76697">
        <ele>82</ele>
        <time>2018-09-16T10:13:08Z</time>
      </trkpt>
      <trkpt lat="47.8387" lon="1.76657">
        <ele>83</ele>
        <time>2018-09-16T10:13:16Z</time>
      </trkpt>
      <trkpt lat="47.83874" lon="1.76652">
        <ele>83</ele>
        <time>2018-09-16T10:13:17Z</time>
      </trkpt>
      <trkpt lat="47.83913" lon="1.76611">
        <ele>84</ele>
        <time>2018-09-16T10:13:26Z</time>
      </trkpt>
      <trkpt lat="47.83918" lon="1.76607">
        <ele>85</ele>
        <time>2018-09-16T10:13:27Z</time>
      </trkpt>
      <trkpt lat="47.83955" lon="1.76563">
        <ele>86</ele>
        <time>2018-09-16T10:13:36Z</time>
      </trkpt>
      <trkpt lat="47.8396" lon="1.76558">
        <ele>87</ele>
        <time>2018-09-16T10:13:37Z</time>
      </trkpt>
      <trkpt lat="47.83976" lon="1.76546">
        <ele>88</ele>
        <time>2018-09-16T10:13:41Z</time>
      </trkpt>
      <trkpt lat="47.83985" lon="1.76551">
        <ele>89</ele>
        <time>2018-09-16T10:13:43Z</time>
      </trkpt>
      <trkpt lat="47.84018" lon="1.76598">
        <ele>90</ele>
        <time>2018-09-16T10:13:51Z</time>
      </trkpt>
      <trkpt lat="47.84021" lon="1.76604">
        <ele>90</ele>
        <time>2018-09-16T10:13:52Z</time>
      </trkpt>
      <trkpt lat="47.84034" lon="1.76629">
        <ele>88</ele>
        <time>2018-09-16T10:13:56Z</time>
      </trkpt>
      <trkpt lat="47.8406" lon="1.76688">
        <ele>85</ele>
        <time>2018-09-16T10:14:05Z</time>
      </trkpt>
      <trkpt lat="47.84063" lon="1.76695">
        <ele>85</ele>
        <time>2018-09-16T10:14:06Z</time>
      </trkpt>
      <trkpt lat="47.84092" lon="1.76751">
        <ele>84</ele>
        <time>2018-09-16T10:14:15Z</time>
      </trkpt>
      <trkpt lat="47.84095" lon="1.76757">
        <ele>84</ele>
        <time>2018-09-16T10:14:16Z</time>
      </trkpt>
      <trkpt lat="47.84122" lon="1.76811">
        <ele>83</ele>
        <time>2018-09-16T10:14:25Z</time>
      </trkpt>
      <trkpt lat="47.84125" lon="1.76817">
        <ele>83</ele>
        <time>2018-09-16T10:14:26Z</time>
      </trkpt>
      <trkpt lat="47.84158" lon="1.76871">
        <ele>81</ele>
        <time>2018-09-16T10:14:36Z</time>
      </trkpt>
      <trkpt lat="47.84162" lon="1.76876">
        <ele>81</ele>
        <time>2018-09-16T10:14:37Z</time>
      </trkpt>
      <trkpt lat="47.84194" lon="1.76932">
        <ele>81</ele>
        <time>2018-09-16T10:14:47Z</time>
      </trkpt>
      <trkpt lat="47.84196" lon="1.76938">
        <ele>81</ele>
        <time>2018-09-16T10:14:48Z</time>
      </trkpt>
      <trkpt lat="47.84221" lon="1.76996">
        <ele>80</ele>
        <time>2018-09-16T10:14:57Z</time>
      </trkpt>
      <trkpt lat="47.84224" lon="1.77002">
        <ele>80</ele>
        <time>2018-09-16T10:14:58Z</time>
      </trkpt>
      <trkpt lat="47.84252" lon="1.77057">
        <ele>80</ele>
        <time>2018-09-16T10:15:08Z</time>
      </trkpt>
      <trkpt lat="47.84255" lon="1.77063">
        <ele>81</ele>
        <time>2018-09-16T10:15:09Z</time>
      </trkpt>
      <trkpt lat="47.84279" lon="1.7712">
        <ele>81</ele>
        <time>2018-09-16T10:15:19Z</time>
      </trkpt>
      <trkpt lat="47.84282" lon="1.77125">
        <ele>81</ele>
        <time>2018-09-16T10:15:20Z</time>
      </trkpt>
      <trkpt lat="47.84312" lon="1.77182">
        <ele>82</ele>
        <time>2018-09-16T10:15:31Z</time>
      </trkpt>
      <trkpt lat="47.84314" lon="1.77186">
        <ele>82</ele>
        <time>2018-09-16T10:15:32Z</time>
      </trkpt>
      <trkpt lat="47.84346" lon="1.7724">
        <ele>82</ele>
        <time>2018-09-16T10:15:43Z</time>
      </trkpt>
      <trkpt lat="47.84348" lon="1.77245">
        <ele>82</ele>
        <time>2018-09-16T10:15:44Z</time>
      </trkpt>
      <trkpt lat="47.84372" lon="1.77302">
        <ele>83</ele>
        <time>2018-09-16T10:15:54Z</time>
      </trkpt>
      <trkpt lat="47.84375" lon="1.77308">
        <ele>83</ele>
        <time>2018-09-16T10:15:55Z</time>
      </trkpt>
      <trkpt lat="47.844" lon="1.77369">
        <ele>84</ele>
        <time>2018-09-16T10:16:05Z</time>
      </trkpt>
      <trkpt lat="47.84403" lon="1.77376">
        <ele>84</ele>
        <time>2018-09-16T10:16:06Z</time>
      </trkpt>
      <trkpt lat="47.84429" lon="1.77439">
        <ele>85</ele>
        <time>2018-09-16T10:16:16Z</time>
      </trkpt>
      <trkpt lat="47.84432" lon="1.77445">
        <ele>85</ele>
        <time>2018-09-16T10:16:17Z</time>
      </trkpt>
      <trkpt lat="47.84458" lon="1.77507">
        <ele>86</ele>
        <time>2018-09-16T10:16:27Z</time>
      </trkpt>
      <trkpt lat="47.84461" lon="1.77513">
        <ele>86</ele>
        <time>2018-09-16T10:16:28Z</time>
      </trkpt>
      <trkpt lat="47.84489" lon="1.77571">
        <ele>86</ele>
        <time>2018-09-16T10:16:37Z</time>
      </trkpt>
      <trkpt lat="47.84492" lon="1.77578">
        <ele>86</ele>
        <time>2018-09-16T10:16:38Z</time>
      </trkpt>
      <trkpt lat="47.84522" lon="1.77637">
        <ele>87</ele>
        <time>2018-09-16T10:16:48Z</time>
      </trkpt>
      <trkpt lat="47.84525" lon="1.77642">
        <ele>87</ele>
        <time>2018-09-16T10:16:49Z</time>
      </trkpt>
      <trkpt lat="47.84558" lon="1.77693">
        <ele>88</ele>
        <time>2018-09-16T10:16:58Z</time>
      </trkpt>
      <trkpt lat="47.84563" lon="1.77699">
        <ele>88</ele>
        <time>2018-09-16T10:16:59Z</time>
      </trkpt>
      <trkpt lat="47.84596" lon="1.77747">
        <ele>88</ele>
        <time>2018-09-16T10:17:08Z</time>
      </trkpt>
      <trkpt lat="47.846" lon="1.77753">
        <ele>87</ele>
        <time>2018-09-16T10:17:09Z</time>
      </trkpt>
      <trkpt lat="47.84603" lon="1.77759">
        <ele>87</ele>
        <time>2018-09-16T10:17:10Z</time>
      </trkpt>
      <trkpt lat="47.84628" lon="1.77814">
        <ele>84</ele>
        <time>2018-09-16T10:17:20Z</time>
      </trkpt>
      <trkpt lat="47.84632" lon="1.77821">
        <ele>84</ele>
        <time>2018-09-16T10:17:21Z</time>
      </trkpt>
      <trkpt lat="47.8466" lon="1.7788">
        <ele>81</ele>
        <time>2018-09-16T10:17:29Z</time>
      </trkpt>
      <trkpt lat="47.84664" lon="1.77887">
        <ele>80</ele>
        <time>2018-09-16T10:17:30Z</time>
      </trkpt>
      <trkpt lat="47.84694" lon="1.77946">
        <ele>81</ele>
        <time>2018-09-16T10:17:39Z</time>
      </trkpt>
      <trkpt lat="47.84697" lon="1.77954">
        <ele>82</ele>
        <time>2018-09-16T10:17:40Z</time>
      </trkpt>
      <trkpt lat="47.84729" lon="1.7801">
        <ele>86</ele>
        <time>2018-09-16T10:17:49Z</time>
      </trkpt>
      <trkpt lat="47.84732" lon="1.78016">
        <ele>87</ele>
        <time>2018-09-16T10:17:50Z</time>
      </trkpt>
      <trkpt lat="47.84761" lon="1.78071">
        <ele>88</ele>
        <time>2018-09-16T10:17:59Z</time>
      </trkpt>
      <trkpt lat="47.84764" lon="1.78077">
        <ele>88</ele>
        <time>2018-09-16T10:18:00Z</time>
      </trkpt>
      <trkpt lat="47.84794" lon="1.78134">
        <ele>90</ele>
        <time>2018-09-16T10:18:10Z</time>
      </trkpt>
      <trkpt lat="47.84797" lon="1.78139">
        <ele>91</ele>
        <time>2018-09-16T10:18:11Z</time>
      </trkpt>
      <trkpt lat="47.84826" lon="1.78198">
        <ele>94</ele>
        <time>2018-09-16T10:18:22Z</time>
      </trkpt>
      <trkpt lat="47.84829" lon="1.78204">
        <ele>94</ele>
        <time>2018-09-16T10:18:23Z</time>
      </trkpt>
      <trkpt lat="47.84855" lon="1.78262">
        <ele>94</ele>
        <time>2018-09-16T10:18:32Z</time>
      </trkpt>
      <trkpt lat="47.84857" lon="1.7827">
        <ele>95</ele>
        <time>2018-09-16T10:18:33Z</time>
      </trkpt>
      <trkpt lat="47.84861" lon="1.78294">
        <ele>96</ele>
        <time>2018-09-16T10:18:36Z</time>
      </trkpt>
      <trkpt lat="47.84867" lon="1.78362">
        <ele>100</ele>
        <time>2018-09-16T10:18:45Z</time>
      </trkpt>
      <trkpt lat="47.84868" lon="1.7837">
        <ele>100</ele>
        <time>2018-09-16T10:18:46Z</time>
      </trkpt>
      <trkpt lat="47.84868" lon="1.78393">
        <ele>102</ele>
        <time>2018-09-16T10:18:49Z</time>
      </trkpt>
      <trkpt lat="47.84858" lon="1.78465">
        <ele>110</ele>
        <time>2018-09-16T10:18:59Z</time>
      </trkpt>
      <trkpt lat="47.84858" lon="1.78472">
        <ele>112</ele>
        <time>2018-09-16T10:19:00Z</time>
      </trkpt>
      <trkpt lat="47.84856" lon="1.78516">
        <ele>118</ele>
        <time>2018-09-16T10:19:06Z</time>
      </trkpt>
      <trkpt lat="47.84864" lon="1.78535">
        <ele>119</ele>
        <time>2018-09-16T10:19:09Z</time>
      </trkpt>
      <trkpt lat="47.84888" lon="1.78596">
        <ele>117</ele>
        <time>2018-09-16T10:19:18Z</time>
      </trkpt>
      <trkpt lat="47.8489" lon="1.78604">
        <ele>115</ele>
        <time>2018-09-16T10:19:19Z</time>
      </trkpt>
      <trkpt lat="47.84892" lon="1.7861">
        <ele>114</ele>
        <time>2018-09-16T10:19:20Z</time>
      </trkpt>
      <trkpt lat="47.84899" lon="1.78619">
        <ele>111</ele>
        <time>2018-09-16T10:19:22Z</time>
      </trkpt>
      <trkpt lat="47.84943" lon="1.78629">
        <ele>103</ele>
        <time>2018-09-16T10:19:31Z</time>
      </trkpt>
      <trkpt lat="47.84949" lon="1.7863">
        <ele>102</ele>
        <time>2018-09-16T10:19:32Z</time>
      </trkpt>
      <trkpt lat="47.84996" lon="1.78639">
        <ele>99</ele>
        <time>2018-09-16T10:19:41Z</time>
      </trkpt>
      <trkpt lat="47.85001" lon="1.7864">
        <ele>98</ele>
        <time>2018-09-16T10:19:42Z</time>
      </trkpt>
      <trkpt lat="47.85035" lon="1.78643">
        <ele>97</ele>
        <time>2018-09-16T10:19:48Z</time>
      </trkpt>
      <trkpt lat="47.8505" lon="1.78646">
        <ele>97</ele>
        <time>2018-09-16T10:19:51Z</time>
      </trkpt>
      <trkpt lat="47.85058" lon="1.78657">
        <ele>96</ele>
        <time>2018-09-16T10:19:53Z</time>
      </trkpt>
      <trkpt lat="47.85089" lon="1.78714">
        <ele>92</ele>
        <time>2018-09-16T10:20:02Z</time>
      </trkpt>
      <trkpt lat="47.85093" lon="1.78719">
        <ele>92</ele>
        <time>2018-09-16T10:20:03Z</time>
      </trkpt>
      <trkpt lat="47.85123" lon="1.78776">
        <ele>91</ele>
        <time>2018-09-16T10:20:14Z</time>
      </trkpt>
      <trkpt lat="47.85125" lon="1.7878">
        <ele>91</ele>
        <time>2018-09-16T10:20:15Z</time>
      </trkpt>
      <trkpt lat="47.85154" lon="1.78839">
        <ele>90</ele>
        <time>2018-09-16T10:20:27Z</time>
      </trkpt>
      <trkpt lat="47.85157" lon="1.78844">
        <ele>90</ele>
        <time>2018-09-16T10:20:28Z</time>
      </trkpt>
      <trkpt lat="47.85161" lon="1.78854">
        <ele>90</ele>
        <time>2018-09-16T10:20:30Z</time>
      </trkpt>
      <trkpt lat="47.85186" lon="1.78915">
        <ele>94</ele>
        <time>2018-09-16T10:20:42Z</time>
      </trkpt>
      <trkpt lat="47.85188" lon="1.78921">
        <ele>93</ele>
        <time>2018-09-16T10:20:43Z</time>
      </trkpt>
      <trkpt lat="47.85209" lon="1.78986">
        <ele>92</ele>
        <time>2018-09-16T10:20:53Z</time>
      </trkpt>
      <trkpt lat="47.85212" lon="1.78992">
        <ele>92</ele>
        <time>2018-09-16T10:20:54Z</time>
      </trkpt>
      <trkpt lat="47.85238" lon="1.79048">
        <ele>90</ele>
        <time>2018-09-16T10:21:03Z</time>
      </trkpt>
      <trkpt lat="47.85241" lon="1.79054">
        <ele>90</ele>
        <time>2018-09-16T10:21:04Z</time>
      </trkpt>
      <trkpt lat="47.85268" lon="1.79111">
        <ele>88</ele>
        <time>2018-09-16T10:21:13Z</time>
      </trkpt>
      <trkpt lat="47.85271" lon="1.79118">
        <ele>88</ele>
        <time>2018-09-16T10:21:14Z</time>
      </trkpt>
      <trkpt lat="47.85295" lon="1.79176">
        <ele>87</ele>
        <time>2018-09-16T10:21:23Z</time>
      </trkpt>
      <trkpt lat="47.85299" lon="1.79183">
        <ele>87</ele>
        <time>2018-09-16T10:21:24Z</time>
      </trkpt>
      <trkpt lat="47.85326" lon="1.79245">
        <ele>88</ele>
        <time>2018-09-16T10:21:33Z</time>
      </trkpt>
      <trkpt lat="47.85329" lon="1.79252">
        <ele>88</ele>
        <time>2018-09-16T10:21:34Z</time>
      </trkpt>
      <trkpt lat="47.85359" lon="1.7931">
        <ele>88</ele>
        <time>2018-09-16T10:21:43Z</time>
      </trkpt>
      <trkpt lat="47.85363" lon="1.79316">
        <ele>88</ele>
        <time>2018-09-16T10:21:44Z</time>
      </trkpt>
      <trkpt lat="47.85392" lon="1.7937">
        <ele>88</ele>
        <time>2018-09-16T10:21:53Z</time>
      </trkpt>
      <trkpt lat="47.85395" lon="1.79376">
        <ele>88</ele>
        <time>2018-09-16T10:21:54Z</time>
      </trkpt>
      <trkpt lat="47.85426" lon="1.79429">
        <ele>89</ele>
        <time>2018-09-16T10:22:04Z</time>
      </trkpt>
      <trkpt lat="47.85429" lon="1.79435">
        <ele>89</ele>
        <time>2018-09-16T10:22:05Z</time>
      </trkpt>
      <trkpt lat="47.8546" lon="1.79488">
        <ele>89</ele>
        <time>2018-09-16T10:22:15Z</time>
      </trkpt>
      <trkpt lat="47.85463" lon="1.79493">
        <ele>89</ele>
        <time>2018-09-16T10:22:16Z</time>
      </trkpt>
      <trkpt lat="47.85493" lon="1.79545">
        <ele>89</ele>
        <time>2018-09-16T10:22:27Z</time>
      </trkpt>
      <trkpt lat="47.85496" lon="1.7955">
        <ele>89</ele>
        <time>2018-09-16T10:22:28Z</time>
      </trkpt>
      <trkpt lat="47.85528" lon="1.79604">
        <ele>90</ele>
        <time>2018-09-16T10:22:39Z</time>
      </trkpt>
      <trkpt lat="47.85531" lon="1.79609">
        <ele>90</ele>
        <time>2018-09-16T10:22:40Z</time>
      </trkpt>
      <trkpt lat="47.85564" lon="1.79662">
        <ele>90</ele>
        <time>2018-09-16T10:22:51Z</time>
      </trkpt>
      <trkpt lat="47.85567" lon="1.79667">
        <ele>90</ele>
        <time>2018-09-16T10:22:52Z</time>
      </trkpt>
      <trkpt lat="47.85598" lon="1.79723">
        <ele>90</ele>
        <time>2018-09-16T10:23:03Z</time>
      </trkpt>
      <trkpt lat="47.85601" lon="1.79728">
        <ele>90</ele>
        <time>2018-09-16T10:23:04Z</time>
      </trkpt>
      <trkpt lat="47.8562" lon="1.79773">
        <ele>90</ele>
        <time>2018-09-16T10:23:12Z</time>
      </trkpt>
      <trkpt lat="47.85645" lon="1.79833">
        <ele>90</ele>
        <time>2018-09-16T10:23:23Z</time>
      </trkpt>
      <trkpt lat="47.85646" lon="1.79839">
        <ele>90</ele>
        <time>2018-09-16T10:23:24Z</time>
      </trkpt>
      <trkpt lat="47.8567" lon="1.79895">
        <ele>91</ele>
        <time>2018-09-16T10:23:35Z</time>
      </trkpt>
      <trkpt lat="47.85673" lon="1.79901">
        <ele>91</ele>
        <time>2018-09-16T10:23:36Z</time>
      </trkpt>
      <trkpt lat="47.857" lon="1.79958">
        <ele>91</ele>
        <time>2018-09-16T10:23:47Z</time>
      </trkpt>
      <trkpt lat="47.85703" lon="1.79964">
        <ele>91</ele>
        <time>2018-09-16T10:23:48Z</time>
      </trkpt>
      <trkpt lat="47.85732" lon="1.80022">
        <ele>91</ele>
        <time>2018-09-16T10:23:59Z</time>
      </trkpt>
      <trkpt lat="47.85734" lon="1.80027">
        <ele>91</ele>
        <time>2018-09-16T10:24:00Z</time>
      </trkpt>
      <trkpt lat="47.85737" lon="1.80038">
        <ele>91</ele>
        <time>2018-09-16T10:24:02Z</time>
      </trkpt>
      <trkpt lat="47.85734" lon="1.80057">
        <ele>91</ele>
        <time>2018-09-16T10:24:05Z</time>
      </trkpt>
      <trkpt lat="47.85717" lon="1.80126">
        <ele>91</ele>
        <time>2018-09-16T10:24:15Z</time>
      </trkpt>
      <trkpt lat="47.85715" lon="1.80133">
        <ele>91</ele>
        <time>2018-09-16T10:24:16Z</time>
      </trkpt>
      <trkpt lat="47.85709" lon="1.80171">
        <ele>91</ele>
        <time>2018-09-16T10:24:21Z</time>
      </trkpt>
      <trkpt lat="47.85712" lon="1.8018">
        <ele>91</ele>
        <time>2018-09-16T10:24:23Z</time>
      </trkpt>
      <trkpt lat="47.85718" lon="1.80187">
        <ele>90</ele>
        <time>2018-09-16T10:24:25Z</time>
      </trkpt>
      <trkpt lat="47.85745" lon="1.80244">
        <ele>90</ele>
        <time>2018-09-16T10:24:36Z</time>
      </trkpt>
      <trkpt lat="47.85748" lon="1.80249">
        <ele>90</ele>
        <time>2018-09-16T10:24:37Z</time>
      </trkpt>
      <trkpt lat="47.85776" lon="1.80306">
        <ele>90</ele>
        <time>2018-09-16T10:24:48Z</time>
      </trkpt>
      <trkpt lat="47.85778" lon="1.80312">
        <ele>90</ele>
        <time>2018-09-16T10:24:49Z</time>
      </trkpt>
      <trkpt lat="47.85809" lon="1.80364">
        <ele>90</ele>
        <time>2018-09-16T10:25:00Z</time>
      </trkpt>
      <trkpt lat="47.85811" lon="1.80369">
        <ele>90</ele>
        <time>2018-09-16T10:25:01Z</time>
      </trkpt>
      <trkpt lat="47.8584" lon="1.80423">
        <ele>90</ele>
        <time>2018-09-16T10:25:11Z</time>
      </trkpt>
      <trkpt lat="47.85843" lon="1.80429">
        <ele>90</ele>
        <time>2018-09-16T10:25:12Z</time>
      </trkpt>
      <trkpt lat="47.85871" lon="1.80482">
        <ele>90</ele>
        <time>2018-09-16T10:25:21Z</time>
      </trkpt>
      <trkpt lat="47.85874" lon="1.80487">
        <ele>90</ele>
        <time>2018-09-16T10:25:22Z</time>
      </trkpt>
      <trkpt lat="47.85904" lon="1.80545">
        <ele>90</ele>
        <time>2018-09-16T10:25:32Z</time>
      </trkpt>
      <trkpt lat="47.85907" lon="1.80551">
        <ele>90</ele>
        <time>2018-09-16T10:25:33Z</time>
      </trkpt>
      <trkpt lat="47.85932" lon="1.80607">
        <ele>90</ele>
        <time>2018-09-16T10:25:43Z</time>
      </trkpt>
      <trkpt lat="47.85934" lon="1.80613">
        <ele>90</ele>
        <time>2018-09-16T10:25:44Z</time>
      </trkpt>
      <trkpt lat="47.85962" lon="1.80669">
        <ele>90</ele>
        <time>2018-09-16T10:25:54Z</time>
      </trkpt>
      <trkpt lat="47.85965" lon="1.80676">
        <ele>90</ele>
        <time>2018-09-16T10:25:55Z</time>
      </trkpt>
      <trkpt lat="47.85992" lon="1.80736">
        <ele>90</ele>
        <time>2018-09-16T10:26:05Z</time>
      </trkpt>
      <trkpt lat="47.85995" lon="1.80742">
        <ele>90</ele>
        <time>2018-09-16T10:26:06Z</time>
      </trkpt>
      <trkpt lat="47.86021" lon="1.80803">
        <ele>91</ele>
        <time>2018-09-16T10:26:16Z</time>
      </trkpt>
      <trkpt lat="47.86024" lon="1.80809">
        <ele>91</ele>
        <time>2018-09-16T10:26:17Z</time>
      </trkpt>
      <trkpt lat="47.86044" lon="1.80865">
        <ele>91</ele>
        <time>2018-09-16T10:26:26Z</time>
      </trkpt>
      <trkpt lat="47.86047" lon="1.80871">
        <ele>91</ele>
        <time>2018-09-16T10:26:27Z</time>
      </trkpt>
      <trkpt lat="47.86068" lon="1.80936">
        <ele>91</ele>
        <time>2018-09-16T10:26:37Z</time>
      </trkpt>
      <trkpt lat="47.8607" lon="1.80942">
        <ele>91</ele>
        <time>2018-09-16T10:26:38Z</time>
      </trkpt>
      <trkpt lat="47.86091" lon="1.81007">
        <ele>91</ele>
        <time>2018-09-16T10:26:48Z</time>
      </trkpt>
      <trkpt lat="47.86093" lon="1.81014">
        <ele>91</ele>
        <time>2018-09-16T10:26:49Z</time>
      </trkpt>
      <trkpt lat="47.86115" lon="1.81081">
        <ele>91</ele>
        <time>2018-09-16T10:26:59Z</time>
      </trkpt>
      <trkpt lat="47.86117" lon="1.81088">
        <ele>91</ele>
        <time>2018-09-16T10:27:00Z</time>
      </trkpt>
      <trkpt lat="47.86137" lon="1.81148">
        <ele>91</ele>
        <time>2018-09-16T10:27:09Z</time>
      </trkpt>
      <trkpt lat="47.86139" lon="1.81155">
        <ele>91</ele>
        <time>2018-09-16T10:27:10Z</time>
      </trkpt>
      <trkpt lat="47.86159" lon="1.81216">
        <ele>91</ele>
        <time>2018-09-16T10:27:19Z</time>
      </trkpt>
      <trkpt lat="47.86161" lon="1.81223">
        <ele>91</ele>
        <time>2018-09-16T10:27:20Z</time>
      </trkpt>
      <trkpt lat="47.86182" lon="1.81284">
        <ele>91</ele>
        <time>2018-09-16T10:27:29Z</time>
      </trkpt>
      <trkpt lat="47.86184" lon="1.81291">
        <ele>91</ele>
        <time>2018-09-16T10:27:30Z</time>
      </trkpt>
      <trkpt lat="47.86204" lon="1.81352">
        <ele>92</ele>
        <time>2018-09-16T10:27:39Z</time>
      </trkpt>
      <trkpt lat="47.86206" lon="1.81359">
        <ele>92</ele>
        <time>2018-09-16T10:27:40Z</time>
      </trkpt>
      <trkpt lat="47.86227" lon="1.81419">
        <ele>92</ele>
        <time>2018-09-16T10:27:49Z</time>
      </trkpt>
      <trkpt lat="47.86229" lon="1.81426">
        <ele>92</ele>
        <time>2018-09-16T10:27:50Z</time>
      </trkpt>
      <trkpt lat="47.86249" lon="1.81493">
        <ele>92</ele>
        <time>2018-09-16T10:28:00Z</time>
      </trkpt>
      <trkpt lat="47.86251" lon="1.815">
        <ele>92</ele>
        <time>2018-09-16T10:28:01Z</time>
      </trkpt>
      <trkpt lat="47.86265" lon="1.81538">
        <ele>92</ele>
        <time>2018-09-16T10:28:07Z</time>
      </trkpt>
      <trkpt lat="47.86295" lon="1.81593">
        <ele>91</ele>
        <time>2018-09-16T10:28:17Z</time>
      </trkpt>
      <trkpt lat="47.86297" lon="1.81598">
        <ele>91</ele>
        <time>2018-09-16T10:28:18Z</time>
      </trkpt>
      <trkpt lat="47.8632" lon="1.81658">
        <ele>94</ele>
        <time>2018-09-16T10:28:29Z</time>
      </trkpt>
      <trkpt lat="47.86321" lon="1.81665">
        <ele>94</ele>
        <time>2018-09-16T10:28:30Z</time>
      </trkpt>
      <trkpt lat="47.86323" lon="1.81685">
        <ele>94</ele>
        <time>2018-09-16T10:28:33Z</time>
      </trkpt>
      <trkpt lat="47.86328" lon="1.81752">
        <ele>95</ele>
        <time>2018-09-16T10:28:42Z</time>
      </trkpt>
      <trkpt lat="47.86329" lon="1.8176">
        <ele>95</ele>
        <time>2018-09-16T10:28:43Z</time>
      </trkpt>
      <trkpt lat="47.86335" lon="1.81826">
        <ele>96</ele>
        <time>2018-09-16T10:28:52Z</time>
      </trkpt>
      <trkpt lat="47.86336" lon="1.81834">
        <ele>96</ele>
        <time>2018-09-16T10:28:53Z</time>
      </trkpt>
      <trkpt lat="47.86343" lon="1.81904">
        <ele>97</ele>
        <time>2018-09-16T10:29:02Z</time>
      </trkpt>
      <trkpt lat="47.86344" lon="1.81912">
        <ele>97</ele>
        <time>2018-09-16T10:29:03Z</time>
      </trkpt>
      <trkpt lat="47.86351" lon="1.81981">
        <ele>97</ele>
        <time>2018-09-16T10:29:11Z</time>
      </trkpt>
      <trkpt lat="47.86352" lon="1.8199">
        <ele>97</ele>
        <time>2018-09-16T10:29:12Z</time>
      </trkpt>
      <trkpt lat="47.86356" lon="1.82063">
        <ele>97</ele>
        <time>2018-09-16T10:29:20Z</time>
      </trkpt>
      <trkpt lat="47.86357" lon="1.82072">
        <ele>97</ele>
        <time>2018-09-16T10:29:21Z</time>
      </trkpt>
      <trkpt lat="47.86366" lon="1.82137">
        <ele>97</ele>
        <time>2018-09-16T10:29:28Z</time>
      </trkpt>
      <trkpt lat="47.86367" lon="1.82146">
        <ele>97</ele>
        <time>2018-09-16T10:29:29Z</time>
      </trkpt>
      <trkpt lat="47.86384" lon="1.82209">
        <ele>96</ele>
        <time>2018-09-16T10:29:37Z</time>
      </trkpt>
      <trkpt lat="47.86386" lon="1.82217">
        <ele>96</ele>
        <time>2018-09-16T10:29:38Z</time>
      </trkpt>
      <trkpt lat="47.864" lon="1.82283">
        <ele>97</ele>
        <time>2018-09-16T10:29:47Z</time>
      </trkpt>
      <trkpt lat="47.86401" lon="1.8229">
        <ele>97</ele>
        <time>2018-09-16T10:29:48Z</time>
      </trkpt>
      <trkpt lat="47.86409" lon="1.82359">
        <ele>97</ele>
        <time>2018-09-16T10:29:57Z</time>
      </trkpt>
      <trkpt lat="47.8641" lon="1.82368">
        <ele>97</ele>
        <time>2018-09-16T10:29:58Z</time>
      </trkpt>
      <trkpt lat="47.86412" lon="1.824">
        <ele>97</ele>
        <time>2018-09-16T10:30:02Z</time>
      </trkpt>
      <trkpt lat="47.8641" lon="1.82414">
        <ele>97</ele>
        <time>2018-09-16T10:30:04Z</time>
      </trkpt>
      <trkpt lat="47.86404" lon="1.82434">
        <ele>97</ele>
        <time>2018-09-16T10:30:07Z</time>
      </trkpt>
      <trkpt lat="47.86409" lon="1.82446">
        <ele>98</ele>
        <time>2018-09-16T10:30:09Z</time>
      </trkpt>
      <trkpt lat="47.86421" lon="1.82461">
        <ele>98</ele>
        <time>2018-09-16T10:30:12Z</time>
      </trkpt>
      <trkpt lat="47.86435" lon="1.82505">
        <ele>97</ele>
        <time>2018-09-16T10:30:18Z</time>
      </trkpt>
      <trkpt lat="47.86452" lon="1.82569">
        <ele>96</ele>
        <time>2018-09-16T10:30:26Z</time>
      </trkpt>
      <trkpt lat="47.86454" lon="1.82577">
        <ele>96</ele>
        <time>2018-09-16T10:30:27Z</time>
      </trkpt>
      <trkpt lat="47.86472" lon="1.82642">
        <ele>95</ele>
        <time>2018-09-16T10:30:35Z</time>
      </trkpt>
      <trkpt lat="47.86474" lon="1.8265">
        <ele>95</ele>
        <time>2018-09-16T10:30:36Z</time>
      </trkpt>
      <trkpt lat="47.86491" lon="1.82715">
        <ele>96</ele>
        <time>2018-09-16T10:30:44Z</time>
      </trkpt>
      <trkpt lat="47.86493" lon="1.82723">
        <ele>96</ele>
        <time>2018-09-16T10:30:45Z</time>
      </trkpt>
      <trkpt lat="47.86513" lon="1.82786">
        <ele>97</ele>
        <time>2018-09-16T10:30:53Z</time>
      </trkpt>
      <trkpt lat="47.86515" lon="1.82794">
        <ele>97</ele>
        <time>2018-09-16T10:30:54Z</time>
      </trkpt>
      <trkpt lat="47.86535" lon="1.82861">
        <ele>97</ele>
        <time>2018-09-16T10:31:02Z</time>
      </trkpt>
      <trkpt lat="47.86538" lon="1.82868">
        <ele>97</ele>
        <time>2018-09-16T10:31:03Z</time>
      </trkpt>
      <trkpt lat="47.86541" lon="1.82875">
        <ele>97</ele>
        <time>2018-09-16T10:31:04Z</time>
      </trkpt>
      <trkpt lat="47.8657" lon="1.82931">
        <ele>97</ele>
        <time>2018-09-16T10:31:12Z</time>
      </trkpt>
      <trkpt lat="47.86573" lon="1.82939">
        <ele>97</ele>
        <time>2018-09-16T10:31:13Z</time>
      </trkpt>
      <trkpt lat="47.86599" lon="1.82999">
        <ele>97</ele>
        <time>2018-09-16T10:31:21Z</time>
      </trkpt>
      <trkpt lat="47.86602" lon="1.83006">
        <ele>97</ele>
        <time>2018-09-16T10:31:22Z</time>
      </trkpt>
      <trkpt lat="47.86623" lon="1.83067">
        <ele>97</ele>
        <time>2018-09-16T10:31:30Z</time>
      </trkpt>
      <trkpt lat="47.86626" lon="1.83075">
        <ele>97</ele>
        <time>2018-09-16T10:31:31Z</time>
      </trkpt>
      <trkpt lat="47.86629" lon="1.8309">
        <ele>98</ele>
        <time>2018-09-16T10:31:33Z</time>
      </trkpt>
      <trkpt lat="47.86647" lon="1.83154">
        <ele>98</ele>
        <time>2018-09-16T10:31:41Z</time>
      </trkpt>
      <trkpt lat="47.86649" lon="1.83162">
        <ele>99</ele>
        <time>2018-09-16T10:31:42Z</time>
      </trkpt>
      <trkpt lat="47.86669" lon="1.83228">
        <ele>99</ele>
        <time>2018-09-16T10:31:50Z</time>
      </trkpt>
      <trkpt lat="47.86671" lon="1.83236">
        <ele>99</ele>
        <time>2018-09-16T10:31:51Z</time>
      </trkpt>
      <trkpt lat="47.86684" lon="1.83272">
        <ele>100</ele>
        <time>2018-09-16T10:31:56Z</time>
      </trkpt>
      <trkpt lat="47.86706" lon="1.83335">
        <ele>100</ele>
        <time>2018-09-16T10:32:04Z</time>
      </trkpt>
      <trkpt lat="47.86709" lon="1.83343">
        <ele>100</ele>
        <time>2018-09-16T10:32:05Z</time>
      </trkpt>
      <trkpt lat="47.86731" lon="1.83412">
        <ele>100</ele>
        <time>2018-09-16T10:32:13Z</time>
      </trkpt>
      <trkpt lat="47.86733" lon="1.83421">
        <ele>100</ele>
        <time>2018-09-16T10:32:14Z</time>
      </trkpt>
      <trkpt lat="47.86755" lon="1.83486">
        <ele>100</ele>
        <time>2018-09-16T10:32:22Z</time>
      </trkpt>
      <trkpt lat="47.86758" lon="1.83494">
        <ele>100</ele>
        <time>2018-09-16T10:32:23Z</time>
      </trkpt>
      <trkpt lat="47.86779" lon="1.83558">
        <ele>100</ele>
        <time>2018-09-16T10:32:31Z</time>
      </trkpt>
      <trkpt lat="47.86781" lon="1.83566">
        <ele>100</ele>
        <time>2018-09-16T10:32:32Z</time>
      </trkpt>
      <trkpt lat="47.86802" lon="1.83621">
        <ele>100</ele>
        <time>2018-09-16T10:32:40Z</time>
      </trkpt>
      <trkpt lat="47.86807" lon="1.83621">
        <ele>100</ele>
        <time>2018-09-16T10:32:41Z</time>
      </trkpt>
      <trkpt lat="47.86813" lon="1.83619">
        <ele>100</ele>
        <time>2018-09-16T10:32:42Z</time>
      </trkpt>
      <trkpt lat="47.8684" lon="1.83609">
        <ele>100</ele>
        <time>2018-09-16T10:32:47Z</time>
      </trkpt>
      <trkpt lat="47.8685" lon="1.83616">
        <ele>99</ele>
        <time>2018-09-16T10:32:49Z</time>
      </trkpt>
      <trkpt lat="47.86856" lon="1.83639">
        <ele>99</ele>
        <time>2018-09-16T10:32:52Z</time>
      </trkpt>
      <trkpt lat="47.86868" lon="1.83704">
        <ele>99</ele>
        <time>2018-09-16T10:33:00Z</time>
      </trkpt>
      <trkpt lat="47.8687" lon="1.83712">
        <ele>99</ele>
        <time>2018-09-16T10:33:01Z</time>
      </trkpt>
      <trkpt lat="47.86882" lon="1.83782">
        <ele>98</ele>
        <time>2018-09-16T10:33:10Z</time>
      </trkpt>
      <trkpt lat="47.86883" lon="1.8379">
        <ele>98</ele>
        <time>2018-09-16T10:33:11Z</time>
      </trkpt>
      <trkpt lat="47.86883" lon="1.83798">
        <ele>98</ele>
        <time>2018-09-16T10:33:12Z</time>
      </trkpt>
      <trkpt lat="47.86885" lon="1.83827">
        <ele>98</ele>
        <time>2018-09-16T10:33:16Z</time>
      </trkpt>
      <trkpt lat="47.86896" lon="1.83847">
        <ele>98</ele>
        <time>2018-09-16T10:33:21Z</time>
      </trkpt>
      <trkpt lat="47.86909" lon="1.83856">
        <ele>98</ele>
        <time>2018-09-16T10:33:24Z</time>
      </trkpt>
      <trkpt lat="47.86914" lon="1.83869">
        <ele>98</ele>
        <time>2018-09-16T10:33:26Z</time>
      </trkpt>
      <trkpt lat="47.86929" lon="1.83907">
        <ele>98</ele>
        <time>2018-09-16T10:33:34Z</time>
      </trkpt>
      <trkpt lat="47.8696" lon="1.83892">
        <ele>96</ele>
        <time>2018-09-16T10:33:41Z</time>
      </trkpt>
      <trkpt lat="47.87005" lon="1.83885">
        <ele>94</ele>
        <time>2018-09-16T10:33:47Z</time>
      </trkpt>
      <trkpt lat="47.87012" lon="1.83885">
        <ele>94</ele>
        <time>2018-09-16T10:33:48Z</time>
      </trkpt>
      <trkpt lat="47.87024" lon="1.83889">
        <ele>93</ele>
        <time>2018-09-16T10:33:50Z</time>
      </trkpt>
      <trkpt lat="47.87037" lon="1.83909">
        <ele>91</ele>
        <time>2018-09-16T10:33:53Z</time>
      </trkpt>
      <trkpt lat="47.8705" lon="1.83949">
        <ele>91</ele>
        <time>2018-09-16T10:33:58Z</time>
      </trkpt>
      <trkpt lat="47.87055" lon="1.83968">
        <ele>92</ele>
        <time>2018-09-16T10:34:01Z</time>
      </trkpt>
      <trkpt lat="47.87062" lon="1.83973">
        <ele>92</ele>
        <time>2018-09-16T10:34:03Z</time>
      </trkpt>
      <trkpt lat="47.87109" lon="1.8398">
        <ele>92</ele>
        <time>2018-09-16T10:34:12Z</time>
      </trkpt>
      <trkpt lat="47.87115" lon="1.83981">
        <ele>92</ele>
        <time>2018-09-16T10:34:13Z</time>
      </trkpt>
      <trkpt lat="47.87162" lon="1.83987">
        <ele>93</ele>
        <time>2018-09-16T10:34:22Z</time>
      </trkpt>
      <trkpt lat="47.87166" lon="1.83988">
        <ele>93</ele>
        <time>2018-09-16T10:34:23Z</time>
      </trkpt>
      <trkpt lat="47.87184" lon="1.83993">
        <ele>94</ele>
        <time>2018-09-16T10:34:29Z</time>
      </trkpt>
      <trkpt lat="47.87194" lon="1.83998">
        <ele>94</ele>
        <time>2018-09-16T10:34:51Z</time>
      </trkpt>
      <trkpt lat="47.87201" lon="1.84002">
        <ele>94</ele>
        <time>2018-09-16T10:34:54Z</time>
      </trkpt>
      <trkpt lat="47.87246" lon="1.84004">
        <ele>95</ele>
        <time>2018-09-16T10:35:07Z</time>
      </trkpt>
      <trkpt lat="47.8725" lon="1.84005">
        <ele>95</ele>
        <time>2018-09-16T10:35:08Z</time>
      </trkpt>
      <trkpt lat="47.87295" lon="1.84007">
        <ele>94</ele>
        <time>2018-09-16T10:35:19Z</time>
      </trkpt>
      <trkpt lat="47.873" lon="1.84007">
        <ele>94</ele>
        <time>2018-09-16T10:35:20Z</time>
      </trkpt>
      <trkpt lat="47.87318" lon="1.84013">
        <ele>93</ele>
        <time>2018-09-16T10:35:24Z</time>
      </trkpt>
      <trkpt lat="47.87325" lon="1.84025">
        <ele>93</ele>
        <time>2018-09-16T10:35:26Z</time>
      </trkpt>
      <trkpt lat="47.87332" lon="1.84083">
        <ele>89</ele>
        <time>2018-09-16T10:35:35Z</time>
      </trkpt>
      <trkpt lat="47.87333" lon="1.84097">
        <ele>89</ele>
        <time>2018-09-16T10:35:38Z</time>
      </trkpt>
      <trkpt lat="47.87335" lon="1.84116">
        <ele>89</ele>
        <time>2018-09-16T10:35:44Z</time>
      </trkpt>
      <trkpt lat="47.87343" lon="1.84164">
        <ele>90</ele>
        <time>2018-09-16T10:36:09Z</time>
      </trkpt>
      <trkpt lat="47.87349" lon="1.84156">
        <ele>92</ele>
        <time>2018-09-16T10:36:53Z</time>
      </trkpt>
      <trkpt lat="47.87391" lon="1.84125">
        <ele>91</ele>
        <time>2018-09-16T10:37:07Z</time>
      </trkpt>
      <trkpt lat="47.87394" lon="1.84123">
        <ele>91</ele>
        <time>2018-09-16T10:37:08Z</time>
      </trkpt>
      <trkpt lat="47.87435" lon="1.84092">
        <ele>91</ele>
        <time>2018-09-16T10:37:20Z</time>
      </trkpt>
      <trkpt lat="47.87438" lon="1.8409">
        <ele>91</ele>
        <time>2018-09-16T10:37:21Z</time>
      </trkpt>
      <trkpt lat="47.8748" lon="1.84059">
        <ele>89</ele>
        <time>2018-09-16T10:37:32Z</time>
      </trkpt>
      <trkpt lat="47.87484" lon="1.84056">
        <ele>89</ele>
        <time>2018-09-16T10:37:33Z</time>
      </trkpt>
      <trkpt lat="47.87525" lon="1.84028">
        <ele>90</ele>
        <time>2018-09-16T10:37:44Z</time>
      </trkpt>
      <trkpt lat="47.87529" lon="1.84026">
        <ele>90</ele>
        <time>2018-09-16T10:37:45Z</time>
      </trkpt>
      <trkpt lat="47.87557" lon="1.84007">
        <ele>90</ele>
        <time>2018-09-16T10:37:52Z</time>
      </trkpt>
      <trkpt lat="47.87603" lon="1.83997">
        <ele>90</ele>
        <time>2018-09-16T10:38:02Z</time>
      </trkpt>
      <trkpt lat="47.87608" lon="1.83996">
        <ele>90</ele>
        <time>2018-09-16T10:38:03Z</time>
      </trkpt>
      <trkpt lat="47.87645" lon="1.83991">
        <ele>91</ele>
        <time>2018-09-16T10:38:12Z</time>
      </trkpt>
      <trkpt lat="47.8769" lon="1.83984">
        <ele>92</ele>
        <time>2018-09-16T10:38:23Z</time>
      </trkpt>
      <trkpt lat="47.87695" lon="1.83983">
        <ele>92</ele>
        <time>2018-09-16T10:38:24Z</time>
      </trkpt>
      <trkpt lat="47.87743" lon="1.83974">
        <ele>93</ele>
        <time>2018-09-16T10:38:36Z</time>
      </trkpt>
      <trkpt lat="47.87746" lon="1.83973">
        <ele>93</ele>
        <time>2018-09-16T10:38:37Z</time>
      </trkpt>
      <trkpt lat="47.87795" lon="1.83966">
        <ele>94</ele>
        <time>2018-09-16T10:38:49Z</time>
      </trkpt>
      <trkpt lat="47.87799" lon="1.83967">
        <ele>94</ele>
        <time>2018-09-16T10:38:50Z</time>
      </trkpt>
      <trkpt lat="47.87813" lon="1.83968">
        <ele>94</ele>
        <time>2018-09-16T10:38:53Z</time>
      </trkpt>
      <trkpt lat="47.87859" lon="1.83973">
        <ele>93</ele>
        <time>2018-09-16T10:39:03Z</time>
      </trkpt>
      <trkpt lat="47.87863" lon="1.83973">
        <ele>93</ele>
        <time>2018-09-16T10:39:04Z</time>
      </trkpt>
      <trkpt lat="47.87903" lon="1.83981">
        <ele>92</ele>
        <time>2018-09-16T10:39:13Z</time>
      </trkpt>
      <trkpt lat="47.8791" lon="1.83992">
        <ele>92</ele>
        <time>2018-09-16T10:39:15Z</time>
      </trkpt>
      <trkpt lat="47.87934" lon="1.84057">
        <ele>91</ele>
        <time>2018-09-16T10:39:25Z</time>
      </trkpt>
      <trkpt lat="47.87936" lon="1.84063">
        <ele>91</ele>
        <time>2018-09-16T10:39:26Z</time>
      </trkpt>
      <trkpt lat="47.87944" lon="1.8409">
        <ele>91</ele>
        <time>2018-09-16T10:39:30Z</time>
      </trkpt>
      <trkpt lat="47.87961" lon="1.84156">
        <ele>92</ele>
        <time>2018-09-16T10:39:41Z</time>
      </trkpt>
      <trkpt lat="47.87963" lon="1.84161">
        <ele>92</ele>
        <time>2018-09-16T10:39:42Z</time>
      </trkpt>
      <trkpt lat="47.87989" lon="1.84222">
        <ele>93</ele>
        <time>2018-09-16T10:39:54Z</time>
      </trkpt>
      <trkpt lat="47.87991" lon="1.84228">
        <ele>93</ele>
        <time>2018-09-16T10:39:55Z</time>
      </trkpt>
      <trkpt lat="47.88003" lon="1.84267">
        <ele>93</ele>
        <time>2018-09-16T10:40:02Z</time>
      </trkpt>
      <trkpt lat="47.88005" lon="1.84292">
        <ele>93</ele>
        <time>2018-09-16T10:40:06Z</time>
      </trkpt>
      <trkpt lat="47.88005" lon="1.8436">
        <ele>94</ele>
        <time>2018-09-16T10:40:17Z</time>
      </trkpt>
      <trkpt lat="47.88005" lon="1.84366">
        <ele>94</ele>
        <time>2018-09-16T10:40:18Z</time>
      </trkpt>
      <trkpt lat="47.88002" lon="1.84434">
        <ele>94</ele>
        <time>2018-09-16T10:40:31Z</time>
      </trkpt>
      <trkpt lat="47.88001" lon="1.8444">
        <ele>94</ele>
        <time>2018-09-16T10:40:32Z</time>
      </trkpt>
      <trkpt lat="47.88" lon="1.84451">
        <ele>94</ele>
        <time>2018-09-16T10:40:34Z</time>
      </trkpt>
      <trkpt lat="47.87984" lon="1.84519">
        <ele>93</ele>
        <time>2018-09-16T10:40:46Z</time>
      </trkpt>
      <trkpt lat="47.87983" lon="1.84525">
        <ele>93</ele>
        <time>2018-09-16T10:40:47Z</time>
      </trkpt>
      <trkpt lat="47.87969" lon="1.84593">
        <ele>93</ele>
        <time>2018-09-16T10:40:59Z</time>
      </trkpt>
      <trkpt lat="47.87968" lon="1.84599">
        <ele>93</ele>
        <time>2018-09-16T10:41:00Z</time>
      </trkpt>
      <trkpt lat="47.87967" lon="1.84605">
        <ele>93</ele>
        <time>2018-09-16T10:41:01Z</time>
      </trkpt>
      <trkpt lat="47.87965" lon="1.84636">
        <ele>93</ele>
        <time>2018-09-16T10:41:06Z</time>
      </trkpt>
      <trkpt lat="47.87968" lon="1.84647">
        <ele>93</ele>
        <time>2018-09-16T10:41:08Z</time>
      </trkpt>
      <trkpt lat="47.87974" lon="1.84652">
        <ele>93</ele>
        <time>2018-09-16T10:41:10Z</time>
      </trkpt>
      <trkpt lat="47.88021" lon="1.8464">
        <ele>93</ele>
        <time>2018-09-16T10:41:21Z</time>
      </trkpt>
      <trkpt lat="47.88026" lon="1.84638">
        <ele>93</ele>
        <time>2018-09-16T10:41:22Z</time>
      </trkpt>
      <trkpt lat="47.88074" lon="1.84625">
        <ele>93</ele>
        <time>2018-09-16T10:41:32Z</time>
      </trkpt>
      <trkpt lat="47.88079" lon="1.84623">
        <ele>93</ele>
        <time>2018-09-16T10:41:33Z</time>
      </trkpt>
      <trkpt lat="47.88125" lon="1.84608">
        <ele>93</ele>
        <time>2018-09-16T10:41:42Z</time>
      </trkpt>
      <trkpt lat="47.8813" lon="1.84607">
        <ele>93</ele>
        <time>2018-09-16T10:41:43Z</time>
      </trkpt>
      <trkpt lat="47.88178" lon="1.84598">
        <ele>94</ele>
        <time>2018-09-16T10:41:52Z</time>
      </trkpt>
      <trkpt lat="47.88184" lon="1.84597">
        <ele>94</ele>
        <time>2018-09-16T10:41:53Z</time>
      </trkpt>
      <trkpt lat="47.88234" lon="1.84596">
        <ele>94</ele>
        <time>2018-09-16T10:42:02Z</time>
      </trkpt>
      <trkpt lat="47.88239" lon="1.84596">
        <ele>94</ele>
        <time>2018-09-16T10:42:03Z</time>
      </trkpt>
      <trkpt lat="47.88245" lon="1.84597">
        <ele>94</ele>
        <time>2018-09-16T10:42:04Z</time>
      </trkpt>
      <trkpt lat="47.88291" lon="1.84596">
        <ele>95</ele>
        <time>2018-09-16T10:42:13Z</time>
      </trkpt>
      <trkpt lat="47.88295" lon="1.84595">
        <ele>95</ele>
        <time>2018-09-16T10:42:14Z</time>
      </trkpt>
      <trkpt lat="47.88317" lon="1.84583">
        <ele>95</ele>
        <time>2018-09-16T10:42:19Z</time>
      </trkpt>
      <trkpt lat="47.88355" lon="1.84556">
        <ele>96</ele>
        <time>2018-09-16T10:42:29Z</time>
      </trkpt>
      <trkpt lat="47.8836" lon="1.84564">
        <ele>96</ele>
        <time>2018-09-16T10:42:31Z</time>
      </trkpt>
      <trkpt lat="47.88382" lon="1.84625">
        <ele>95</ele>
        <time>2018-09-16T10:42:41Z</time>
      </trkpt>
      <trkpt lat="47.88385" lon="1.84632">
        <ele>95</ele>
        <time>2018-09-16T10:42:42Z</time>
      </trkpt>
      <trkpt lat="47.88408" lon="1.84696">
        <ele>95</ele>
        <time>2018-09-16T10:42:52Z</time>
      </trkpt>
      <trkpt lat="47.8841" lon="1.84703">
        <ele>95</ele>
        <time>2018-09-16T10:42:53Z</time>
      </trkpt>
      <trkpt lat="47.88434" lon="1.84763">
        <ele>96</ele>
        <time>2018-09-16T10:43:02Z</time>
      </trkpt>
      <trkpt lat="47.88437" lon="1.84769">
        <ele>96</ele>
        <time>2018-09-16T10:43:03Z</time>
      </trkpt>
      <trkpt lat="47.88463" lon="1.84828">
        <ele>96</ele>
        <time>2018-09-16T10:43:12Z</time>
      </trkpt>
      <trkpt lat="47.88466" lon="1.84835">
        <ele>96</ele>
        <time>2018-09-16T10:43:13Z</time>
      </trkpt>
      <trkpt lat="47.88493" lon="1.84892">
        <ele>96</ele>
        <time>2018-09-16T10:43:22Z</time>
      </trkpt>
      <trkpt lat="47.88496" lon="1.84898">
        <ele>96</ele>
        <time>2018-09-16T10:43:23Z</time>
      </trkpt>
      <trkpt lat="47.88522" lon="1.84956">
        <ele>96</ele>
        <time>2018-09-16T10:43:32Z</time>
      </trkpt>
      <trkpt lat="47.88525" lon="1.84962">
        <ele>96</ele>
        <time>2018-09-16T10:43:33Z</time>
      </trkpt>
      <trkpt lat="47.8855" lon="1.85022">
        <ele>96</ele>
        <time>2018-09-16T10:43:42Z</time>
      </trkpt>
      <trkpt lat="47.88553" lon="1.85029">
        <ele>96</ele>
        <time>2018-09-16T10:43:43Z</time>
      </trkpt>
      <trkpt lat="47.88577" lon="1.85091">
        <ele>96</ele>
        <time>2018-09-16T10:43:52Z</time>
      </trkpt>
      <trkpt lat="47.88579" lon="1.85098">
        <ele>96</ele>
        <time>2018-09-16T10:43:53Z</time>
      </trkpt>
      <trkpt lat="47.88602" lon="1.8516">
        <ele>96</ele>
        <time>2018-09-16T10:44:02Z</time>
      </trkpt>
      <trkpt lat="47.88604" lon="1.85167">
        <ele>96</ele>
        <time>2018-09-16T10:44:03Z</time>
      </trkpt>
      <trkpt lat="47.88626" lon="1.85228">
        <ele>96</ele>
        <time>2018-09-16T10:44:12Z</time>
      </trkpt>
      <trkpt lat="47.88628" lon="1.85235">
        <ele>96</ele>
        <time>2018-09-16T10:44:13Z</time>
      </trkpt>
      <trkpt lat="47.88649" lon="1.85297">
        <ele>96</ele>
        <time>2018-09-16T10:44:22Z</time>
      </trkpt>
      <trkpt lat="47.88651" lon="1.85305">
        <ele>96</ele>
        <time>2018-09-16T10:44:23Z</time>
      </trkpt>
      <trkpt lat="47.8867" lon="1.85372">
        <ele>96</ele>
        <time>2018-09-16T10:44:32Z</time>
      </trkpt>
      <trkpt lat="47.88673" lon="1.85379">
        <ele>96</ele>
        <time>2018-09-16T10:44:33Z</time>
      </trkpt>
      <trkpt lat="47.88676" lon="1.85394">
        <ele>96</ele>
        <time>2018-09-16T10:44:35Z</time>
      </trkpt>
      <trkpt lat="47.88693" lon="1.85462">
        <ele>96</ele>
        <time>2018-09-16T10:44:44Z</time>
      </trkpt>
      <trkpt lat="47.88694" lon="1.8547">
        <ele>96</ele>
        <time>2018-09-16T10:44:45Z</time>
      </trkpt>
      <trkpt lat="47.88696" lon="1.85478">
        <ele>96</ele>
        <time>2018-09-16T10:44:46Z</time>
      </trkpt>
    </trkseg>
  </trk>
</gpx>